<?xml version="1.0" encoding="UTF-8" standalone="no" ?>
<gpx xmlns="http://www.topografix.com/GPX/1/1" xmlns:xsi="http://www.w3.org/2001/XMLSchema-instance" xsi:schemaLocation="http://www.topografix.com/GPX/1/1 http://www.topografix.com/GPX/1/1/gpx.xsd" version="1.1" creator="VisuGPX - https://www.visugpx.com">
  <metadata>
    <name>28/09/2019 09:04:14</name>
    <desc><![CDATA[départ du parking de la station de Couraduque puis aller jusqu'au col du soulor en utilisant les pistes de ski de fond retour à Couraduque en effectuant 2 boucles]]></desc>
  </metadata>
  <trk>
    <name><![CDATA[28/09/2019 09:04:14]]></name>
    <trkseg>
      <trkpt lat="42.99059" lon="-0.2024">
        <ele>1350.4000244141</ele>
        <time>2019-09-28T07:04:14Z</time>
      </trkpt>
      <trkpt lat="42.9906" lon="-0.20242">
        <ele>1350.4000244141</ele>
        <time>2019-09-28T07:04:15Z</time>
      </trkpt>
      <trkpt lat="42.99062" lon="-0.20245">
        <ele>1350.4000244141</ele>
        <time>2019-09-28T07:04:17Z</time>
      </trkpt>
      <trkpt lat="42.99063" lon="-0.20246">
        <ele>1352</ele>
        <time>2019-09-28T07:04:18Z</time>
      </trkpt>
      <trkpt lat="42.99064" lon="-0.20247">
        <ele>1352.4000244141</ele>
        <time>2019-09-28T07:04:19Z</time>
      </trkpt>
      <trkpt lat="42.99065" lon="-0.20248">
        <ele>1352.8000488281</ele>
        <time>2019-09-28T07:04:20Z</time>
      </trkpt>
      <trkpt lat="42.99067" lon="-0.2025">
        <ele>1353.1999511719</ele>
        <time>2019-09-28T07:04:21Z</time>
      </trkpt>
      <trkpt lat="42.99069" lon="-0.20255">
        <ele>1353.1999511719</ele>
        <time>2019-09-28T07:04:24Z</time>
      </trkpt>
      <trkpt lat="42.99077" lon="-0.20261">
        <ele>1353.1999511719</ele>
        <time>2019-09-28T07:04:30Z</time>
      </trkpt>
      <trkpt lat="42.99083" lon="-0.20264">
        <ele>1353.1999511719</ele>
        <time>2019-09-28T07:04:34Z</time>
      </trkpt>
      <trkpt lat="42.99084" lon="-0.20265">
        <ele>1353.1999511719</ele>
        <time>2019-09-28T07:04:35Z</time>
      </trkpt>
      <trkpt lat="42.99092" lon="-0.20272">
        <ele>1353.1999511719</ele>
        <time>2019-09-28T07:04:42Z</time>
      </trkpt>
      <trkpt lat="42.99098" lon="-0.20281">
        <ele>1353.1999511719</ele>
        <time>2019-09-28T07:04:50Z</time>
      </trkpt>
      <trkpt lat="42.99099" lon="-0.20287">
        <ele>1353.1999511719</ele>
        <time>2019-09-28T07:04:54Z</time>
      </trkpt>
      <trkpt lat="42.99101" lon="-0.2029">
        <ele>1353.1999511719</ele>
        <time>2019-09-28T07:04:56Z</time>
      </trkpt>
      <trkpt lat="42.99107" lon="-0.20295">
        <ele>1353.1999511719</ele>
        <time>2019-09-28T07:05:00Z</time>
      </trkpt>
      <trkpt lat="42.9911" lon="-0.20297">
        <ele>1353.1999511719</ele>
        <time>2019-09-28T07:05:02Z</time>
      </trkpt>
      <trkpt lat="42.99116" lon="-0.20301">
        <ele>1353.1999511719</ele>
        <time>2019-09-28T07:05:05Z</time>
      </trkpt>
      <trkpt lat="42.99122" lon="-0.20307">
        <ele>1353.1999511719</ele>
        <time>2019-09-28T07:05:08Z</time>
      </trkpt>
      <trkpt lat="42.99124" lon="-0.20317">
        <ele>1353.1999511719</ele>
        <time>2019-09-28T07:05:12Z</time>
      </trkpt>
      <trkpt lat="42.99124" lon="-0.2032">
        <ele>1353.1999511719</ele>
        <time>2019-09-28T07:05:13Z</time>
      </trkpt>
      <trkpt lat="42.99122" lon="-0.20335">
        <ele>1353.1999511719</ele>
        <time>2019-09-28T07:05:18Z</time>
      </trkpt>
      <trkpt lat="42.99123" lon="-0.20339">
        <ele>1353.1999511719</ele>
        <time>2019-09-28T07:05:20Z</time>
      </trkpt>
      <trkpt lat="42.99124" lon="-0.20342">
        <ele>1353.4000244141</ele>
        <time>2019-09-28T07:05:21Z</time>
      </trkpt>
      <trkpt lat="42.99125" lon="-0.20344">
        <ele>1353.4000244141</ele>
        <time>2019-09-28T07:05:22Z</time>
      </trkpt>
      <trkpt lat="42.99127" lon="-0.20345">
        <ele>1353.5999755859</ele>
        <time>2019-09-28T07:05:23Z</time>
      </trkpt>
      <trkpt lat="42.99128" lon="-0.20346">
        <ele>1353.5999755859</ele>
        <time>2019-09-28T07:05:24Z</time>
      </trkpt>
      <trkpt lat="42.99137" lon="-0.20347">
        <ele>1353.5999755859</ele>
        <time>2019-09-28T07:05:28Z</time>
      </trkpt>
      <trkpt lat="42.99143" lon="-0.20347">
        <ele>1353.5999755859</ele>
        <time>2019-09-28T07:05:31Z</time>
      </trkpt>
      <trkpt lat="42.99152" lon="-0.20347">
        <ele>1353.5999755859</ele>
        <time>2019-09-28T07:05:35Z</time>
      </trkpt>
      <trkpt lat="42.99157" lon="-0.20348">
        <ele>1354</ele>
        <time>2019-09-28T07:05:37Z</time>
      </trkpt>
      <trkpt lat="42.99159" lon="-0.20349">
        <ele>1354.4000244141</ele>
        <time>2019-09-28T07:05:38Z</time>
      </trkpt>
      <trkpt lat="42.99161" lon="-0.2035">
        <ele>1354.8000488281</ele>
        <time>2019-09-28T07:05:39Z</time>
      </trkpt>
      <trkpt lat="42.99163" lon="-0.20352">
        <ele>1355.1999511719</ele>
        <time>2019-09-28T07:05:40Z</time>
      </trkpt>
      <trkpt lat="42.99164" lon="-0.20354">
        <ele>1355.5999755859</ele>
        <time>2019-09-28T07:05:41Z</time>
      </trkpt>
      <trkpt lat="42.99173" lon="-0.20369">
        <ele>1355.5999755859</ele>
        <time>2019-09-28T07:05:48Z</time>
      </trkpt>
      <trkpt lat="42.99174" lon="-0.2037">
        <ele>1356</ele>
        <time>2019-09-28T07:05:49Z</time>
      </trkpt>
      <trkpt lat="42.99176" lon="-0.20372">
        <ele>1356.5999755859</ele>
        <time>2019-09-28T07:05:50Z</time>
      </trkpt>
      <trkpt lat="42.99178" lon="-0.20373">
        <ele>1357</ele>
        <time>2019-09-28T07:05:51Z</time>
      </trkpt>
      <trkpt lat="42.99179" lon="-0.20374">
        <ele>1357.8000488281</ele>
        <time>2019-09-28T07:05:52Z</time>
      </trkpt>
      <trkpt lat="42.99181" lon="-0.20377">
        <ele>1357.8000488281</ele>
        <time>2019-09-28T07:05:54Z</time>
      </trkpt>
      <trkpt lat="42.99189" lon="-0.20386">
        <ele>1358.1999511719</ele>
        <time>2019-09-28T07:05:59Z</time>
      </trkpt>
      <trkpt lat="42.99191" lon="-0.20387">
        <ele>1358.5999755859</ele>
        <time>2019-09-28T07:06:00Z</time>
      </trkpt>
      <trkpt lat="42.99192" lon="-0.20388">
        <ele>1359</ele>
        <time>2019-09-28T07:06:01Z</time>
      </trkpt>
      <trkpt lat="42.99194" lon="-0.20389">
        <ele>1359.5999755859</ele>
        <time>2019-09-28T07:06:02Z</time>
      </trkpt>
      <trkpt lat="42.99195" lon="-0.20391">
        <ele>1360</ele>
        <time>2019-09-28T07:06:03Z</time>
      </trkpt>
      <trkpt lat="42.99202" lon="-0.20396">
        <ele>1360</ele>
        <time>2019-09-28T07:06:08Z</time>
      </trkpt>
      <trkpt lat="42.9921" lon="-0.20402">
        <ele>1360</ele>
        <time>2019-09-28T07:06:14Z</time>
      </trkpt>
      <trkpt lat="42.99213" lon="-0.20403">
        <ele>1360.4000244141</ele>
        <time>2019-09-28T07:06:16Z</time>
      </trkpt>
      <trkpt lat="42.99215" lon="-0.20404">
        <ele>1361.1999511719</ele>
        <time>2019-09-28T07:06:17Z</time>
      </trkpt>
      <trkpt lat="42.99216" lon="-0.20404">
        <ele>1361.5999755859</ele>
        <time>2019-09-28T07:06:18Z</time>
      </trkpt>
      <trkpt lat="42.99218" lon="-0.20405">
        <ele>1362</ele>
        <time>2019-09-28T07:06:19Z</time>
      </trkpt>
      <trkpt lat="42.99225" lon="-0.20409">
        <ele>1362</ele>
        <time>2019-09-28T07:06:24Z</time>
      </trkpt>
      <trkpt lat="42.99227" lon="-0.20409">
        <ele>1362.5999755859</ele>
        <time>2019-09-28T07:06:25Z</time>
      </trkpt>
      <trkpt lat="42.99228" lon="-0.20411">
        <ele>1363</ele>
        <time>2019-09-28T07:06:26Z</time>
      </trkpt>
      <trkpt lat="42.99229" lon="-0.20411">
        <ele>1363.4000244141</ele>
        <time>2019-09-28T07:06:27Z</time>
      </trkpt>
      <trkpt lat="42.9923" lon="-0.20412">
        <ele>1363.8000488281</ele>
        <time>2019-09-28T07:06:28Z</time>
      </trkpt>
      <trkpt lat="42.99231" lon="-0.20413">
        <ele>1364.1999511719</ele>
        <time>2019-09-28T07:06:29Z</time>
      </trkpt>
      <trkpt lat="42.99233" lon="-0.20415">
        <ele>1364.1999511719</ele>
        <time>2019-09-28T07:06:31Z</time>
      </trkpt>
      <trkpt lat="42.9924" lon="-0.20422">
        <ele>1364.1999511719</ele>
        <time>2019-09-28T07:06:37Z</time>
      </trkpt>
      <trkpt lat="42.99242" lon="-0.20427">
        <ele>1364.8000488281</ele>
        <time>2019-09-28T07:06:40Z</time>
      </trkpt>
      <trkpt lat="42.99244" lon="-0.20428">
        <ele>1365.5999755859</ele>
        <time>2019-09-28T07:06:41Z</time>
      </trkpt>
      <trkpt lat="42.99245" lon="-0.20429">
        <ele>1366</ele>
        <time>2019-09-28T07:06:42Z</time>
      </trkpt>
      <trkpt lat="42.99246" lon="-0.20431">
        <ele>1366.4000244141</ele>
        <time>2019-09-28T07:06:43Z</time>
      </trkpt>
      <trkpt lat="42.99247" lon="-0.20433">
        <ele>1366.4000244141</ele>
        <time>2019-09-28T07:06:44Z</time>
      </trkpt>
      <trkpt lat="42.9925" lon="-0.20436">
        <ele>1366.4000244141</ele>
        <time>2019-09-28T07:06:47Z</time>
      </trkpt>
      <trkpt lat="42.99252" lon="-0.20438">
        <ele>1366.4000244141</ele>
        <time>2019-09-28T07:06:49Z</time>
      </trkpt>
      <trkpt lat="42.99254" lon="-0.20441">
        <ele>1366.8000488281</ele>
        <time>2019-09-28T07:06:51Z</time>
      </trkpt>
      <trkpt lat="42.99255" lon="-0.20443">
        <ele>1367.1999511719</ele>
        <time>2019-09-28T07:06:52Z</time>
      </trkpt>
      <trkpt lat="42.99257" lon="-0.20445">
        <ele>1367.5999755859</ele>
        <time>2019-09-28T07:06:53Z</time>
      </trkpt>
      <trkpt lat="42.99258" lon="-0.20447">
        <ele>1368</ele>
        <time>2019-09-28T07:06:54Z</time>
      </trkpt>
      <trkpt lat="42.99259" lon="-0.20448">
        <ele>1368.4000244141</ele>
        <time>2019-09-28T07:06:55Z</time>
      </trkpt>
      <trkpt lat="42.99268" lon="-0.20459">
        <ele>1368.4000244141</ele>
        <time>2019-09-28T07:07:02Z</time>
      </trkpt>
      <trkpt lat="42.99277" lon="-0.20469">
        <ele>1368.8000488281</ele>
        <time>2019-09-28T07:07:09Z</time>
      </trkpt>
      <trkpt lat="42.99278" lon="-0.2047">
        <ele>1369.1999511719</ele>
        <time>2019-09-28T07:07:10Z</time>
      </trkpt>
      <trkpt lat="42.9928" lon="-0.20471">
        <ele>1369.5999755859</ele>
        <time>2019-09-28T07:07:11Z</time>
      </trkpt>
      <trkpt lat="42.99281" lon="-0.20471">
        <ele>1370</ele>
        <time>2019-09-28T07:07:12Z</time>
      </trkpt>
      <trkpt lat="42.99283" lon="-0.20472">
        <ele>1370.4000244141</ele>
        <time>2019-09-28T07:07:13Z</time>
      </trkpt>
      <trkpt lat="42.99291" lon="-0.20474">
        <ele>1370.4000244141</ele>
        <time>2019-09-28T07:07:18Z</time>
      </trkpt>
      <trkpt lat="42.993" lon="-0.20475">
        <ele>1370.8000488281</ele>
        <time>2019-09-28T07:07:24Z</time>
      </trkpt>
      <trkpt lat="42.99301" lon="-0.20475">
        <ele>1371.1999511719</ele>
        <time>2019-09-28T07:07:25Z</time>
      </trkpt>
      <trkpt lat="42.99303" lon="-0.20475">
        <ele>1371.5999755859</ele>
        <time>2019-09-28T07:07:26Z</time>
      </trkpt>
      <trkpt lat="42.99304" lon="-0.20474">
        <ele>1372</ele>
        <time>2019-09-28T07:07:27Z</time>
      </trkpt>
      <trkpt lat="42.99306" lon="-0.20475">
        <ele>1372.4000244141</ele>
        <time>2019-09-28T07:07:28Z</time>
      </trkpt>
      <trkpt lat="42.9931" lon="-0.20475">
        <ele>1372.4000244141</ele>
        <time>2019-09-28T07:07:30Z</time>
      </trkpt>
      <trkpt lat="42.99321" lon="-0.20476">
        <ele>1372.4000244141</ele>
        <time>2019-09-28T07:07:37Z</time>
      </trkpt>
      <trkpt lat="42.99328" lon="-0.20476">
        <ele>1372.4000244141</ele>
        <time>2019-09-28T07:07:41Z</time>
      </trkpt>
      <trkpt lat="42.99336" lon="-0.20474">
        <ele>1372.4000244141</ele>
        <time>2019-09-28T07:07:45Z</time>
      </trkpt>
      <trkpt lat="42.9935" lon="-0.20477">
        <ele>1372.4000244141</ele>
        <time>2019-09-28T07:07:50Z</time>
      </trkpt>
      <trkpt lat="42.99361" lon="-0.20485">
        <ele>1372.4000244141</ele>
        <time>2019-09-28T07:07:55Z</time>
      </trkpt>
      <trkpt lat="42.99376" lon="-0.20505">
        <ele>1372.4000244141</ele>
        <time>2019-09-28T07:08:02Z</time>
      </trkpt>
      <trkpt lat="42.99386" lon="-0.20525">
        <ele>1372.4000244141</ele>
        <time>2019-09-28T07:08:09Z</time>
      </trkpt>
      <trkpt lat="42.99394" lon="-0.20545">
        <ele>1372.4000244141</ele>
        <time>2019-09-28T07:08:15Z</time>
      </trkpt>
      <trkpt lat="42.99405" lon="-0.20565">
        <ele>1372.4000244141</ele>
        <time>2019-09-28T07:08:22Z</time>
      </trkpt>
      <trkpt lat="42.9942" lon="-0.20581">
        <ele>1372.4000244141</ele>
        <time>2019-09-28T07:08:29Z</time>
      </trkpt>
      <trkpt lat="42.99433" lon="-0.20592">
        <ele>1372.4000244141</ele>
        <time>2019-09-28T07:08:35Z</time>
      </trkpt>
      <trkpt lat="42.99446" lon="-0.20602">
        <ele>1372.4000244141</ele>
        <time>2019-09-28T07:08:40Z</time>
      </trkpt>
      <trkpt lat="42.99461" lon="-0.20608">
        <ele>1372.8000488281</ele>
        <time>2019-09-28T07:08:46Z</time>
      </trkpt>
      <trkpt lat="42.99463" lon="-0.20609">
        <ele>1373.4000244141</ele>
        <time>2019-09-28T07:08:47Z</time>
      </trkpt>
      <trkpt lat="42.99466" lon="-0.20609">
        <ele>1373.8000488281</ele>
        <time>2019-09-28T07:08:48Z</time>
      </trkpt>
      <trkpt lat="42.99469" lon="-0.2061">
        <ele>1374.1999511719</ele>
        <time>2019-09-28T07:08:49Z</time>
      </trkpt>
      <trkpt lat="42.99471" lon="-0.2061">
        <ele>1374.5999755859</ele>
        <time>2019-09-28T07:08:50Z</time>
      </trkpt>
      <trkpt lat="42.99474" lon="-0.20609">
        <ele>1374.5999755859</ele>
        <time>2019-09-28T07:08:51Z</time>
      </trkpt>
      <trkpt lat="42.99476" lon="-0.2061">
        <ele>1374.5999755859</ele>
        <time>2019-09-28T07:08:52Z</time>
      </trkpt>
      <trkpt lat="42.99488" lon="-0.20609">
        <ele>1374.5999755859</ele>
        <time>2019-09-28T07:08:57Z</time>
      </trkpt>
      <trkpt lat="42.99492" lon="-0.20608">
        <ele>1375</ele>
        <time>2019-09-28T07:08:59Z</time>
      </trkpt>
      <trkpt lat="42.99495" lon="-0.20607">
        <ele>1375.4000244141</ele>
        <time>2019-09-28T07:09:00Z</time>
      </trkpt>
      <trkpt lat="42.99497" lon="-0.20606">
        <ele>1375.8000488281</ele>
        <time>2019-09-28T07:09:01Z</time>
      </trkpt>
      <trkpt lat="42.99499" lon="-0.20606">
        <ele>1376.1999511719</ele>
        <time>2019-09-28T07:09:02Z</time>
      </trkpt>
      <trkpt lat="42.99502" lon="-0.20605">
        <ele>1376.5999755859</ele>
        <time>2019-09-28T07:09:03Z</time>
      </trkpt>
      <trkpt lat="42.99516" lon="-0.20601">
        <ele>1376.5999755859</ele>
        <time>2019-09-28T07:09:09Z</time>
      </trkpt>
      <trkpt lat="42.99529" lon="-0.20593">
        <ele>1377</ele>
        <time>2019-09-28T07:09:15Z</time>
      </trkpt>
      <trkpt lat="42.99532" lon="-0.2059">
        <ele>1377.4000244141</ele>
        <time>2019-09-28T07:09:16Z</time>
      </trkpt>
      <trkpt lat="42.99534" lon="-0.20588">
        <ele>1377.8000488281</ele>
        <time>2019-09-28T07:09:17Z</time>
      </trkpt>
      <trkpt lat="42.99536" lon="-0.20586">
        <ele>1378.1999511719</ele>
        <time>2019-09-28T07:09:18Z</time>
      </trkpt>
      <trkpt lat="42.99538" lon="-0.20585">
        <ele>1378.5999755859</ele>
        <time>2019-09-28T07:09:19Z</time>
      </trkpt>
      <trkpt lat="42.99541" lon="-0.2058">
        <ele>1378.5999755859</ele>
        <time>2019-09-28T07:09:21Z</time>
      </trkpt>
      <trkpt lat="42.99547" lon="-0.20571">
        <ele>1378.5999755859</ele>
        <time>2019-09-28T07:09:25Z</time>
      </trkpt>
      <trkpt lat="42.9955" lon="-0.20565">
        <ele>1378.5999755859</ele>
        <time>2019-09-28T07:09:27Z</time>
      </trkpt>
      <trkpt lat="42.99557" lon="-0.20546">
        <ele>1378.5999755859</ele>
        <time>2019-09-28T07:09:33Z</time>
      </trkpt>
      <trkpt lat="42.99565" lon="-0.20524">
        <ele>1378.5999755859</ele>
        <time>2019-09-28T07:09:40Z</time>
      </trkpt>
      <trkpt lat="42.99575" lon="-0.20514">
        <ele>1378.5999755859</ele>
        <time>2019-09-28T07:09:44Z</time>
      </trkpt>
      <trkpt lat="42.99581" lon="-0.20508">
        <ele>1378.1999511719</ele>
        <time>2019-09-28T07:09:46Z</time>
      </trkpt>
      <trkpt lat="42.99585" lon="-0.20504">
        <ele>1377.5999755859</ele>
        <time>2019-09-28T07:09:47Z</time>
      </trkpt>
      <trkpt lat="42.9959" lon="-0.20499">
        <ele>1377.1999511719</ele>
        <time>2019-09-28T07:09:48Z</time>
      </trkpt>
      <trkpt lat="42.99595" lon="-0.20494">
        <ele>1376.8000488281</ele>
        <time>2019-09-28T07:09:49Z</time>
      </trkpt>
      <trkpt lat="42.99601" lon="-0.20488">
        <ele>1376.1999511719</ele>
        <time>2019-09-28T07:09:50Z</time>
      </trkpt>
      <trkpt lat="42.99607" lon="-0.20484">
        <ele>1375.8000488281</ele>
        <time>2019-09-28T07:09:51Z</time>
      </trkpt>
      <trkpt lat="42.99612" lon="-0.2048">
        <ele>1375.1999511719</ele>
        <time>2019-09-28T07:09:52Z</time>
      </trkpt>
      <trkpt lat="42.99617" lon="-0.20475">
        <ele>1374.8000488281</ele>
        <time>2019-09-28T07:09:53Z</time>
      </trkpt>
      <trkpt lat="42.99621" lon="-0.2047">
        <ele>1374.1999511719</ele>
        <time>2019-09-28T07:09:54Z</time>
      </trkpt>
      <trkpt lat="42.99626" lon="-0.20465">
        <ele>1374.1999511719</ele>
        <time>2019-09-28T07:09:55Z</time>
      </trkpt>
      <trkpt lat="42.99634" lon="-0.20454">
        <ele>1374.1999511719</ele>
        <time>2019-09-28T07:09:57Z</time>
      </trkpt>
      <trkpt lat="42.99652" lon="-0.20444">
        <ele>1374.1999511719</ele>
        <time>2019-09-28T07:10:01Z</time>
      </trkpt>
      <trkpt lat="42.9966" lon="-0.20447">
        <ele>1374.1999511719</ele>
        <time>2019-09-28T07:10:03Z</time>
      </trkpt>
      <trkpt lat="42.99665" lon="-0.20452">
        <ele>1374.1999511719</ele>
        <time>2019-09-28T07:10:05Z</time>
      </trkpt>
      <trkpt lat="42.99679" lon="-0.20462">
        <ele>1374.1999511719</ele>
        <time>2019-09-28T07:10:11Z</time>
      </trkpt>
      <trkpt lat="42.99693" lon="-0.20469">
        <ele>1374.1999511719</ele>
        <time>2019-09-28T07:10:15Z</time>
      </trkpt>
      <trkpt lat="42.99699" lon="-0.20472">
        <ele>1373.8000488281</ele>
        <time>2019-09-28T07:10:16Z</time>
      </trkpt>
      <trkpt lat="42.99705" lon="-0.20475">
        <ele>1373.4000244141</ele>
        <time>2019-09-28T07:10:17Z</time>
      </trkpt>
      <trkpt lat="42.99711" lon="-0.20479">
        <ele>1372.8000488281</ele>
        <time>2019-09-28T07:10:18Z</time>
      </trkpt>
      <trkpt lat="42.99717" lon="-0.20483">
        <ele>1372.4000244141</ele>
        <time>2019-09-28T07:10:19Z</time>
      </trkpt>
      <trkpt lat="42.99722" lon="-0.20486">
        <ele>1372</ele>
        <time>2019-09-28T07:10:20Z</time>
      </trkpt>
      <trkpt lat="42.99735" lon="-0.20493">
        <ele>1372</ele>
        <time>2019-09-28T07:10:23Z</time>
      </trkpt>
      <trkpt lat="42.99745" lon="-0.20499">
        <ele>1372</ele>
        <time>2019-09-28T07:10:26Z</time>
      </trkpt>
      <trkpt lat="42.99755" lon="-0.20503">
        <ele>1372</ele>
        <time>2019-09-28T07:10:29Z</time>
      </trkpt>
      <trkpt lat="42.99773" lon="-0.20508">
        <ele>1372</ele>
        <time>2019-09-28T07:10:34Z</time>
      </trkpt>
      <trkpt lat="42.99793" lon="-0.20511">
        <ele>1372</ele>
        <time>2019-09-28T07:10:40Z</time>
      </trkpt>
      <trkpt lat="42.99814" lon="-0.20518">
        <ele>1372</ele>
        <time>2019-09-28T07:10:46Z</time>
      </trkpt>
      <trkpt lat="42.99823" lon="-0.2052">
        <ele>1372</ele>
        <time>2019-09-28T07:10:50Z</time>
      </trkpt>
      <trkpt lat="42.99838" lon="-0.20524">
        <ele>1372</ele>
        <time>2019-09-28T07:10:55Z</time>
      </trkpt>
      <trkpt lat="42.99859" lon="-0.20524">
        <ele>1372</ele>
        <time>2019-09-28T07:11:01Z</time>
      </trkpt>
      <trkpt lat="42.99866" lon="-0.2052">
        <ele>1372.4000244141</ele>
        <time>2019-09-28T07:11:04Z</time>
      </trkpt>
      <trkpt lat="42.99869" lon="-0.20518">
        <ele>1372.8000488281</ele>
        <time>2019-09-28T07:11:05Z</time>
      </trkpt>
      <trkpt lat="42.99871" lon="-0.20516">
        <ele>1373.4000244141</ele>
        <time>2019-09-28T07:11:06Z</time>
      </trkpt>
      <trkpt lat="42.99873" lon="-0.20513">
        <ele>1373.8000488281</ele>
        <time>2019-09-28T07:11:07Z</time>
      </trkpt>
      <trkpt lat="42.99875" lon="-0.20511">
        <ele>1374.1999511719</ele>
        <time>2019-09-28T07:11:08Z</time>
      </trkpt>
      <trkpt lat="42.99882" lon="-0.20504">
        <ele>1374.1999511719</ele>
        <time>2019-09-28T07:11:11Z</time>
      </trkpt>
      <trkpt lat="42.99896" lon="-0.20509">
        <ele>1374.1999511719</ele>
        <time>2019-09-28T07:11:16Z</time>
      </trkpt>
      <trkpt lat="42.99896" lon="-0.20524">
        <ele>1374.1999511719</ele>
        <time>2019-09-28T07:11:20Z</time>
      </trkpt>
      <trkpt lat="42.99894" lon="-0.20529">
        <ele>1374.1999511719</ele>
        <time>2019-09-28T07:11:22Z</time>
      </trkpt>
      <trkpt lat="42.99893" lon="-0.20536">
        <ele>1374.5999755859</ele>
        <time>2019-09-28T07:11:24Z</time>
      </trkpt>
      <trkpt lat="42.99891" lon="-0.20539">
        <ele>1375</ele>
        <time>2019-09-28T07:11:25Z</time>
      </trkpt>
      <trkpt lat="42.9989" lon="-0.20543">
        <ele>1375.4000244141</ele>
        <time>2019-09-28T07:11:26Z</time>
      </trkpt>
      <trkpt lat="42.99889" lon="-0.20546">
        <ele>1375.8000488281</ele>
        <time>2019-09-28T07:11:27Z</time>
      </trkpt>
      <trkpt lat="42.99889" lon="-0.2055">
        <ele>1376.1999511719</ele>
        <time>2019-09-28T07:11:28Z</time>
      </trkpt>
      <trkpt lat="42.99887" lon="-0.20565">
        <ele>1376.1999511719</ele>
        <time>2019-09-28T07:11:32Z</time>
      </trkpt>
      <trkpt lat="42.99884" lon="-0.20588">
        <ele>1376.1999511719</ele>
        <time>2019-09-28T07:11:37Z</time>
      </trkpt>
      <trkpt lat="42.99882" lon="-0.20597">
        <ele>1376.1999511719</ele>
        <time>2019-09-28T07:11:39Z</time>
      </trkpt>
      <trkpt lat="42.99875" lon="-0.2063">
        <ele>1376.1999511719</ele>
        <time>2019-09-28T07:11:46Z</time>
      </trkpt>
      <trkpt lat="42.9987" lon="-0.20654">
        <ele>1375.8000488281</ele>
        <time>2019-09-28T07:11:51Z</time>
      </trkpt>
      <trkpt lat="42.99869" lon="-0.20661">
        <ele>1375.4000244141</ele>
        <time>2019-09-28T07:11:52Z</time>
      </trkpt>
      <trkpt lat="42.99868" lon="-0.20668">
        <ele>1375</ele>
        <time>2019-09-28T07:11:53Z</time>
      </trkpt>
      <trkpt lat="42.99867" lon="-0.20676">
        <ele>1374.5999755859</ele>
        <time>2019-09-28T07:11:54Z</time>
      </trkpt>
      <trkpt lat="42.99866" lon="-0.20683">
        <ele>1374.1999511719</ele>
        <time>2019-09-28T07:11:55Z</time>
      </trkpt>
      <trkpt lat="42.99866" lon="-0.20691">
        <ele>1373.5999755859</ele>
        <time>2019-09-28T07:11:56Z</time>
      </trkpt>
      <trkpt lat="42.99866" lon="-0.207">
        <ele>1373</ele>
        <time>2019-09-28T07:11:57Z</time>
      </trkpt>
      <trkpt lat="42.99867" lon="-0.20708">
        <ele>1372.5999755859</ele>
        <time>2019-09-28T07:11:58Z</time>
      </trkpt>
      <trkpt lat="42.99869" lon="-0.20717">
        <ele>1372</ele>
        <time>2019-09-28T07:11:59Z</time>
      </trkpt>
      <trkpt lat="42.9987" lon="-0.20726">
        <ele>1372</ele>
        <time>2019-09-28T07:12:00Z</time>
      </trkpt>
      <trkpt lat="42.99871" lon="-0.20735">
        <ele>1371.5999755859</ele>
        <time>2019-09-28T07:12:01Z</time>
      </trkpt>
      <trkpt lat="42.99871" lon="-0.20743">
        <ele>1370.8000488281</ele>
        <time>2019-09-28T07:12:02Z</time>
      </trkpt>
      <trkpt lat="42.9987" lon="-0.20752">
        <ele>1370.4000244141</ele>
        <time>2019-09-28T07:12:03Z</time>
      </trkpt>
      <trkpt lat="42.99869" lon="-0.2076">
        <ele>1370</ele>
        <time>2019-09-28T07:12:04Z</time>
      </trkpt>
      <trkpt lat="42.99869" lon="-0.20796">
        <ele>1370</ele>
        <time>2019-09-28T07:12:09Z</time>
      </trkpt>
      <trkpt lat="42.9987" lon="-0.20829">
        <ele>1370</ele>
        <time>2019-09-28T07:12:15Z</time>
      </trkpt>
      <trkpt lat="42.99871" lon="-0.20835">
        <ele>1370</ele>
        <time>2019-09-28T07:12:16Z</time>
      </trkpt>
      <trkpt lat="42.99872" lon="-0.20845">
        <ele>1370.4000244141</ele>
        <time>2019-09-28T07:12:18Z</time>
      </trkpt>
      <trkpt lat="42.99873" lon="-0.2085">
        <ele>1370.8000488281</ele>
        <time>2019-09-28T07:12:19Z</time>
      </trkpt>
      <trkpt lat="42.99873" lon="-0.20854">
        <ele>1371.1999511719</ele>
        <time>2019-09-28T07:12:20Z</time>
      </trkpt>
      <trkpt lat="42.99874" lon="-0.20859">
        <ele>1371.5999755859</ele>
        <time>2019-09-28T07:12:21Z</time>
      </trkpt>
      <trkpt lat="42.99874" lon="-0.20863">
        <ele>1372</ele>
        <time>2019-09-28T07:12:22Z</time>
      </trkpt>
      <trkpt lat="42.99876" lon="-0.20878">
        <ele>1372.4000244141</ele>
        <time>2019-09-28T07:12:26Z</time>
      </trkpt>
      <trkpt lat="42.99877" lon="-0.20881">
        <ele>1373.1999511719</ele>
        <time>2019-09-28T07:12:27Z</time>
      </trkpt>
      <trkpt lat="42.99877" lon="-0.20885">
        <ele>1373.5999755859</ele>
        <time>2019-09-28T07:12:28Z</time>
      </trkpt>
      <trkpt lat="42.99877" lon="-0.20888">
        <ele>1374</ele>
        <time>2019-09-28T07:12:29Z</time>
      </trkpt>
      <trkpt lat="42.99879" lon="-0.20898">
        <ele>1374.4000244141</ele>
        <time>2019-09-28T07:12:32Z</time>
      </trkpt>
      <trkpt lat="42.9988" lon="-0.20901">
        <ele>1375</ele>
        <time>2019-09-28T07:12:33Z</time>
      </trkpt>
      <trkpt lat="42.99881" lon="-0.20904">
        <ele>1375.4000244141</ele>
        <time>2019-09-28T07:12:34Z</time>
      </trkpt>
      <trkpt lat="42.99882" lon="-0.20908">
        <ele>1375.8000488281</ele>
        <time>2019-09-28T07:12:35Z</time>
      </trkpt>
      <trkpt lat="42.99883" lon="-0.20911">
        <ele>1376.1999511719</ele>
        <time>2019-09-28T07:12:36Z</time>
      </trkpt>
      <trkpt lat="42.99885" lon="-0.20917">
        <ele>1376.1999511719</ele>
        <time>2019-09-28T07:12:38Z</time>
      </trkpt>
      <trkpt lat="42.99887" lon="-0.20923">
        <ele>1376.5999755859</ele>
        <time>2019-09-28T07:12:40Z</time>
      </trkpt>
      <trkpt lat="42.99888" lon="-0.20926">
        <ele>1377</ele>
        <time>2019-09-28T07:12:41Z</time>
      </trkpt>
      <trkpt lat="42.99889" lon="-0.20928">
        <ele>1377.4000244141</ele>
        <time>2019-09-28T07:12:42Z</time>
      </trkpt>
      <trkpt lat="42.9989" lon="-0.20931">
        <ele>1377.8000488281</ele>
        <time>2019-09-28T07:12:43Z</time>
      </trkpt>
      <trkpt lat="42.99891" lon="-0.20933">
        <ele>1378.1999511719</ele>
        <time>2019-09-28T07:12:44Z</time>
      </trkpt>
      <trkpt lat="42.99892" lon="-0.20936">
        <ele>1378.1999511719</ele>
        <time>2019-09-28T07:12:45Z</time>
      </trkpt>
      <trkpt lat="42.99894" lon="-0.20939">
        <ele>1378.5999755859</ele>
        <time>2019-09-28T07:12:46Z</time>
      </trkpt>
      <trkpt lat="42.99894" lon="-0.20942">
        <ele>1379</ele>
        <time>2019-09-28T07:12:47Z</time>
      </trkpt>
      <trkpt lat="42.99895" lon="-0.20944">
        <ele>1379.4000244141</ele>
        <time>2019-09-28T07:12:48Z</time>
      </trkpt>
      <trkpt lat="42.99895" lon="-0.20946">
        <ele>1379.8000488281</ele>
        <time>2019-09-28T07:12:49Z</time>
      </trkpt>
      <trkpt lat="42.99896" lon="-0.20948">
        <ele>1380.1999511719</ele>
        <time>2019-09-28T07:12:50Z</time>
      </trkpt>
      <trkpt lat="42.99896" lon="-0.2095">
        <ele>1380.1999511719</ele>
        <time>2019-09-28T07:12:51Z</time>
      </trkpt>
      <trkpt lat="42.99892" lon="-0.20966">
        <ele>1380.1999511719</ele>
        <time>2019-09-28T07:12:57Z</time>
      </trkpt>
      <trkpt lat="42.99891" lon="-0.20969">
        <ele>1380.5999755859</ele>
        <time>2019-09-28T07:12:58Z</time>
      </trkpt>
      <trkpt lat="42.99889" lon="-0.20971">
        <ele>1381</ele>
        <time>2019-09-28T07:12:59Z</time>
      </trkpt>
      <trkpt lat="42.99888" lon="-0.20972">
        <ele>1381.5999755859</ele>
        <time>2019-09-28T07:13:00Z</time>
      </trkpt>
      <trkpt lat="42.99887" lon="-0.20974">
        <ele>1382</ele>
        <time>2019-09-28T07:13:01Z</time>
      </trkpt>
      <trkpt lat="42.99886" lon="-0.20976">
        <ele>1382.4000244141</ele>
        <time>2019-09-28T07:13:02Z</time>
      </trkpt>
      <trkpt lat="42.99878" lon="-0.20986">
        <ele>1382.4000244141</ele>
        <time>2019-09-28T07:13:08Z</time>
      </trkpt>
      <trkpt lat="42.99868" lon="-0.21001">
        <ele>1382.4000244141</ele>
        <time>2019-09-28T07:13:14Z</time>
      </trkpt>
      <trkpt lat="42.99856" lon="-0.21016">
        <ele>1382.4000244141</ele>
        <time>2019-09-28T07:13:20Z</time>
      </trkpt>
      <trkpt lat="42.9984" lon="-0.21029">
        <ele>1382.4000244141</ele>
        <time>2019-09-28T07:13:26Z</time>
      </trkpt>
      <trkpt lat="42.99819" lon="-0.21042">
        <ele>1382.4000244141</ele>
        <time>2019-09-28T07:13:34Z</time>
      </trkpt>
      <trkpt lat="42.99794" lon="-0.21055">
        <ele>1382.4000244141</ele>
        <time>2019-09-28T07:13:42Z</time>
      </trkpt>
      <trkpt lat="42.99778" lon="-0.2106">
        <ele>1382.4000244141</ele>
        <time>2019-09-28T07:13:48Z</time>
      </trkpt>
      <trkpt lat="42.99764" lon="-0.21066">
        <ele>1382.8000488281</ele>
        <time>2019-09-28T07:13:54Z</time>
      </trkpt>
      <trkpt lat="42.99761" lon="-0.21067">
        <ele>1383.1999511719</ele>
        <time>2019-09-28T07:13:55Z</time>
      </trkpt>
      <trkpt lat="42.99759" lon="-0.21067">
        <ele>1383.5999755859</ele>
        <time>2019-09-28T07:13:56Z</time>
      </trkpt>
      <trkpt lat="42.99756" lon="-0.21067">
        <ele>1384</ele>
        <time>2019-09-28T07:13:57Z</time>
      </trkpt>
      <trkpt lat="42.99754" lon="-0.21068">
        <ele>1384.4000244141</ele>
        <time>2019-09-28T07:13:58Z</time>
      </trkpt>
      <trkpt lat="42.99747" lon="-0.2107">
        <ele>1384.4000244141</ele>
        <time>2019-09-28T07:14:01Z</time>
      </trkpt>
      <trkpt lat="42.99735" lon="-0.21078">
        <ele>1384.8000488281</ele>
        <time>2019-09-28T07:14:06Z</time>
      </trkpt>
      <trkpt lat="42.99733" lon="-0.2108">
        <ele>1385.1999511719</ele>
        <time>2019-09-28T07:14:07Z</time>
      </trkpt>
      <trkpt lat="42.9973" lon="-0.21082">
        <ele>1385.8000488281</ele>
        <time>2019-09-28T07:14:08Z</time>
      </trkpt>
      <trkpt lat="42.99728" lon="-0.21083">
        <ele>1386.1999511719</ele>
        <time>2019-09-28T07:14:09Z</time>
      </trkpt>
      <trkpt lat="42.99726" lon="-0.21085">
        <ele>1386.5999755859</ele>
        <time>2019-09-28T07:14:10Z</time>
      </trkpt>
      <trkpt lat="42.9972" lon="-0.21092">
        <ele>1386.5999755859</ele>
        <time>2019-09-28T07:14:13Z</time>
      </trkpt>
      <trkpt lat="42.99711" lon="-0.21101">
        <ele>1387</ele>
        <time>2019-09-28T07:14:18Z</time>
      </trkpt>
      <trkpt lat="42.99709" lon="-0.21103">
        <ele>1387.4000244141</ele>
        <time>2019-09-28T07:14:19Z</time>
      </trkpt>
      <trkpt lat="42.99707" lon="-0.21105">
        <ele>1387.8000488281</ele>
        <time>2019-09-28T07:14:20Z</time>
      </trkpt>
      <trkpt lat="42.99705" lon="-0.21107">
        <ele>1388.1999511719</ele>
        <time>2019-09-28T07:14:21Z</time>
      </trkpt>
      <trkpt lat="42.99702" lon="-0.21109">
        <ele>1388.5999755859</ele>
        <time>2019-09-28T07:14:22Z</time>
      </trkpt>
      <trkpt lat="42.99694" lon="-0.21118">
        <ele>1388.5999755859</ele>
        <time>2019-09-28T07:14:26Z</time>
      </trkpt>
      <trkpt lat="42.9968" lon="-0.21141">
        <ele>1388.5999755859</ele>
        <time>2019-09-28T07:14:34Z</time>
      </trkpt>
      <trkpt lat="42.99666" lon="-0.21165">
        <ele>1388.5999755859</ele>
        <time>2019-09-28T07:14:41Z</time>
      </trkpt>
      <trkpt lat="42.99664" lon="-0.21167">
        <ele>1388.5999755859</ele>
        <time>2019-09-28T07:14:42Z</time>
      </trkpt>
      <trkpt lat="42.99653" lon="-0.21177">
        <ele>1388.5999755859</ele>
        <time>2019-09-28T07:14:47Z</time>
      </trkpt>
      <trkpt lat="42.99635" lon="-0.21183">
        <ele>1388.5999755859</ele>
        <time>2019-09-28T07:14:54Z</time>
      </trkpt>
      <trkpt lat="42.99633" lon="-0.21183">
        <ele>1389</ele>
        <time>2019-09-28T07:14:55Z</time>
      </trkpt>
      <trkpt lat="42.9963" lon="-0.21183">
        <ele>1390</ele>
        <time>2019-09-28T07:14:56Z</time>
      </trkpt>
      <trkpt lat="42.99627" lon="-0.21184">
        <ele>1390.4000244141</ele>
        <time>2019-09-28T07:14:57Z</time>
      </trkpt>
      <trkpt lat="42.99625" lon="-0.21184">
        <ele>1390.8000488281</ele>
        <time>2019-09-28T07:14:58Z</time>
      </trkpt>
      <trkpt lat="42.9962" lon="-0.21184">
        <ele>1390.8000488281</ele>
        <time>2019-09-28T07:15:00Z</time>
      </trkpt>
      <trkpt lat="42.99606" lon="-0.21182">
        <ele>1391.1999511719</ele>
        <time>2019-09-28T07:15:06Z</time>
      </trkpt>
      <trkpt lat="42.99603" lon="-0.21182">
        <ele>1391.5999755859</ele>
        <time>2019-09-28T07:15:07Z</time>
      </trkpt>
      <trkpt lat="42.99601" lon="-0.21181">
        <ele>1392</ele>
        <time>2019-09-28T07:15:08Z</time>
      </trkpt>
      <trkpt lat="42.99599" lon="-0.21181">
        <ele>1392.4000244141</ele>
        <time>2019-09-28T07:15:09Z</time>
      </trkpt>
      <trkpt lat="42.99597" lon="-0.21181">
        <ele>1392.8000488281</ele>
        <time>2019-09-28T07:15:10Z</time>
      </trkpt>
      <trkpt lat="42.99586" lon="-0.21179">
        <ele>1392.8000488281</ele>
        <time>2019-09-28T07:15:15Z</time>
      </trkpt>
      <trkpt lat="42.99584" lon="-0.21179">
        <ele>1393.1999511719</ele>
        <time>2019-09-28T07:15:16Z</time>
      </trkpt>
      <trkpt lat="42.99582" lon="-0.21178">
        <ele>1393.5999755859</ele>
        <time>2019-09-28T07:15:17Z</time>
      </trkpt>
      <trkpt lat="42.99579" lon="-0.21178">
        <ele>1394.1999511719</ele>
        <time>2019-09-28T07:15:18Z</time>
      </trkpt>
      <trkpt lat="42.99577" lon="-0.21178">
        <ele>1394.5999755859</ele>
        <time>2019-09-28T07:15:19Z</time>
      </trkpt>
      <trkpt lat="42.99575" lon="-0.21177">
        <ele>1395</ele>
        <time>2019-09-28T07:15:20Z</time>
      </trkpt>
      <trkpt lat="42.99568" lon="-0.21176">
        <ele>1395</ele>
        <time>2019-09-28T07:15:23Z</time>
      </trkpt>
      <trkpt lat="42.99552" lon="-0.21171">
        <ele>1395.4000244141</ele>
        <time>2019-09-28T07:15:30Z</time>
      </trkpt>
      <trkpt lat="42.99549" lon="-0.2117">
        <ele>1395.8000488281</ele>
        <time>2019-09-28T07:15:31Z</time>
      </trkpt>
      <trkpt lat="42.99547" lon="-0.2117">
        <ele>1396.1999511719</ele>
        <time>2019-09-28T07:15:32Z</time>
      </trkpt>
      <trkpt lat="42.99545" lon="-0.2117">
        <ele>1396.5999755859</ele>
        <time>2019-09-28T07:15:33Z</time>
      </trkpt>
      <trkpt lat="42.99543" lon="-0.2117">
        <ele>1397</ele>
        <time>2019-09-28T07:15:34Z</time>
      </trkpt>
      <trkpt lat="42.99529" lon="-0.21165">
        <ele>1397</ele>
        <time>2019-09-28T07:15:40Z</time>
      </trkpt>
      <trkpt lat="42.9952" lon="-0.21164">
        <ele>1397.4000244141</ele>
        <time>2019-09-28T07:15:44Z</time>
      </trkpt>
      <trkpt lat="42.99518" lon="-0.21163">
        <ele>1398.1999511719</ele>
        <time>2019-09-28T07:15:45Z</time>
      </trkpt>
      <trkpt lat="42.99516" lon="-0.21162">
        <ele>1398.5999755859</ele>
        <time>2019-09-28T07:15:46Z</time>
      </trkpt>
      <trkpt lat="42.99514" lon="-0.2116">
        <ele>1399</ele>
        <time>2019-09-28T07:15:47Z</time>
      </trkpt>
      <trkpt lat="42.99512" lon="-0.2116">
        <ele>1399</ele>
        <time>2019-09-28T07:15:48Z</time>
      </trkpt>
      <trkpt lat="42.99498" lon="-0.21156">
        <ele>1399.5999755859</ele>
        <time>2019-09-28T07:15:54Z</time>
      </trkpt>
      <trkpt lat="42.99496" lon="-0.21155">
        <ele>1400</ele>
        <time>2019-09-28T07:15:55Z</time>
      </trkpt>
      <trkpt lat="42.99495" lon="-0.21154">
        <ele>1400.4000244141</ele>
        <time>2019-09-28T07:15:56Z</time>
      </trkpt>
      <trkpt lat="42.99493" lon="-0.21153">
        <ele>1400.8000488281</ele>
        <time>2019-09-28T07:15:57Z</time>
      </trkpt>
      <trkpt lat="42.99492" lon="-0.21151">
        <ele>1401.1999511719</ele>
        <time>2019-09-28T07:15:58Z</time>
      </trkpt>
      <trkpt lat="42.99485" lon="-0.21145">
        <ele>1401.5999755859</ele>
        <time>2019-09-28T07:16:02Z</time>
      </trkpt>
      <trkpt lat="42.99483" lon="-0.21143">
        <ele>1402</ele>
        <time>2019-09-28T07:16:03Z</time>
      </trkpt>
      <trkpt lat="42.99481" lon="-0.21142">
        <ele>1402.5999755859</ele>
        <time>2019-09-28T07:16:04Z</time>
      </trkpt>
      <trkpt lat="42.9948" lon="-0.21141">
        <ele>1403</ele>
        <time>2019-09-28T07:16:05Z</time>
      </trkpt>
      <trkpt lat="42.99478" lon="-0.21139">
        <ele>1403.4000244141</ele>
        <time>2019-09-28T07:16:06Z</time>
      </trkpt>
      <trkpt lat="42.99468" lon="-0.21133">
        <ele>1403.8000488281</ele>
        <time>2019-09-28T07:16:11Z</time>
      </trkpt>
      <trkpt lat="42.99466" lon="-0.21132">
        <ele>1404.1999511719</ele>
        <time>2019-09-28T07:16:12Z</time>
      </trkpt>
      <trkpt lat="42.99464" lon="-0.21131">
        <ele>1404.5999755859</ele>
        <time>2019-09-28T07:16:13Z</time>
      </trkpt>
      <trkpt lat="42.99462" lon="-0.21131">
        <ele>1405</ele>
        <time>2019-09-28T07:16:14Z</time>
      </trkpt>
      <trkpt lat="42.9946" lon="-0.21131">
        <ele>1405.4000244141</ele>
        <time>2019-09-28T07:16:15Z</time>
      </trkpt>
      <trkpt lat="42.99454" lon="-0.21132">
        <ele>1405.4000244141</ele>
        <time>2019-09-28T07:16:18Z</time>
      </trkpt>
      <trkpt lat="42.99443" lon="-0.21132">
        <ele>1405.4000244141</ele>
        <time>2019-09-28T07:16:24Z</time>
      </trkpt>
      <trkpt lat="42.99429" lon="-0.21134">
        <ele>1405.4000244141</ele>
        <time>2019-09-28T07:16:31Z</time>
      </trkpt>
      <trkpt lat="42.99418" lon="-0.21134">
        <ele>1405.4000244141</ele>
        <time>2019-09-28T07:16:37Z</time>
      </trkpt>
      <trkpt lat="42.99403" lon="-0.21135">
        <ele>1405.4000244141</ele>
        <time>2019-09-28T07:16:42Z</time>
      </trkpt>
      <trkpt lat="42.99379" lon="-0.21134">
        <ele>1405</ele>
        <time>2019-09-28T07:16:48Z</time>
      </trkpt>
      <trkpt lat="42.99375" lon="-0.21134">
        <ele>1404.5999755859</ele>
        <time>2019-09-28T07:16:49Z</time>
      </trkpt>
      <trkpt lat="42.99371" lon="-0.21134">
        <ele>1404.1999511719</ele>
        <time>2019-09-28T07:16:50Z</time>
      </trkpt>
      <trkpt lat="42.99366" lon="-0.21133">
        <ele>1403.5999755859</ele>
        <time>2019-09-28T07:16:51Z</time>
      </trkpt>
      <trkpt lat="42.99362" lon="-0.21133">
        <ele>1403.1999511719</ele>
        <time>2019-09-28T07:16:52Z</time>
      </trkpt>
      <trkpt lat="42.99357" lon="-0.21133">
        <ele>1402.8000488281</ele>
        <time>2019-09-28T07:16:53Z</time>
      </trkpt>
      <trkpt lat="42.99352" lon="-0.21132">
        <ele>1402.4000244141</ele>
        <time>2019-09-28T07:16:54Z</time>
      </trkpt>
      <trkpt lat="42.99346" lon="-0.21132">
        <ele>1402</ele>
        <time>2019-09-28T07:16:55Z</time>
      </trkpt>
      <trkpt lat="42.9934" lon="-0.21131">
        <ele>1401.5999755859</ele>
        <time>2019-09-28T07:16:56Z</time>
      </trkpt>
      <trkpt lat="42.99335" lon="-0.2113">
        <ele>1401</ele>
        <time>2019-09-28T07:16:57Z</time>
      </trkpt>
      <trkpt lat="42.99329" lon="-0.21129">
        <ele>1400.5999755859</ele>
        <time>2019-09-28T07:16:58Z</time>
      </trkpt>
      <trkpt lat="42.99324" lon="-0.21128">
        <ele>1400</ele>
        <time>2019-09-28T07:16:59Z</time>
      </trkpt>
      <trkpt lat="42.99319" lon="-0.21127">
        <ele>1399</ele>
        <time>2019-09-28T07:17:00Z</time>
      </trkpt>
      <trkpt lat="42.99303" lon="-0.21126">
        <ele>1399</ele>
        <time>2019-09-28T07:17:03Z</time>
      </trkpt>
      <trkpt lat="42.99285" lon="-0.21127">
        <ele>1398.5999755859</ele>
        <time>2019-09-28T07:17:06Z</time>
      </trkpt>
      <trkpt lat="42.99279" lon="-0.21128">
        <ele>1398.1999511719</ele>
        <time>2019-09-28T07:17:07Z</time>
      </trkpt>
      <trkpt lat="42.99272" lon="-0.21128">
        <ele>1397.8000488281</ele>
        <time>2019-09-28T07:17:08Z</time>
      </trkpt>
      <trkpt lat="42.99265" lon="-0.21129">
        <ele>1397.4000244141</ele>
        <time>2019-09-28T07:17:09Z</time>
      </trkpt>
      <trkpt lat="42.99259" lon="-0.2113">
        <ele>1397</ele>
        <time>2019-09-28T07:17:10Z</time>
      </trkpt>
      <trkpt lat="42.99248" lon="-0.21129">
        <ele>1397</ele>
        <time>2019-09-28T07:17:12Z</time>
      </trkpt>
      <trkpt lat="42.99244" lon="-0.21128">
        <ele>1397</ele>
        <time>2019-09-28T07:17:13Z</time>
      </trkpt>
      <trkpt lat="42.9924" lon="-0.21128">
        <ele>1397</ele>
        <time>2019-09-28T07:17:14Z</time>
      </trkpt>
      <trkpt lat="42.99233" lon="-0.21134">
        <ele>1397</ele>
        <time>2019-09-28T07:17:17Z</time>
      </trkpt>
      <trkpt lat="42.99231" lon="-0.21137">
        <ele>1397</ele>
        <time>2019-09-28T07:17:18Z</time>
      </trkpt>
      <trkpt lat="42.9922" lon="-0.21152">
        <ele>1397</ele>
        <time>2019-09-28T07:17:23Z</time>
      </trkpt>
      <trkpt lat="42.99218" lon="-0.21158">
        <ele>1397.4000244141</ele>
        <time>2019-09-28T07:17:25Z</time>
      </trkpt>
      <trkpt lat="42.99217" lon="-0.2116">
        <ele>1398</ele>
        <time>2019-09-28T07:17:26Z</time>
      </trkpt>
      <trkpt lat="42.99215" lon="-0.21163">
        <ele>1398.4000244141</ele>
        <time>2019-09-28T07:17:27Z</time>
      </trkpt>
      <trkpt lat="42.99215" lon="-0.21166">
        <ele>1398.8000488281</ele>
        <time>2019-09-28T07:17:28Z</time>
      </trkpt>
      <trkpt lat="42.99213" lon="-0.21169">
        <ele>1399.1999511719</ele>
        <time>2019-09-28T07:17:29Z</time>
      </trkpt>
      <trkpt lat="42.99202" lon="-0.21187">
        <ele>1399.1999511719</ele>
        <time>2019-09-28T07:17:35Z</time>
      </trkpt>
      <trkpt lat="42.99196" lon="-0.21194">
        <ele>1399.8000488281</ele>
        <time>2019-09-28T07:17:38Z</time>
      </trkpt>
      <trkpt lat="42.99193" lon="-0.21196">
        <ele>1400.1999511719</ele>
        <time>2019-09-28T07:17:39Z</time>
      </trkpt>
      <trkpt lat="42.99192" lon="-0.21198">
        <ele>1400.5999755859</ele>
        <time>2019-09-28T07:17:40Z</time>
      </trkpt>
      <trkpt lat="42.99189" lon="-0.212">
        <ele>1401</ele>
        <time>2019-09-28T07:17:41Z</time>
      </trkpt>
      <trkpt lat="42.99187" lon="-0.21202">
        <ele>1401.4000244141</ele>
        <time>2019-09-28T07:17:42Z</time>
      </trkpt>
      <trkpt lat="42.99177" lon="-0.21215">
        <ele>1401.4000244141</ele>
        <time>2019-09-28T07:17:48Z</time>
      </trkpt>
      <trkpt lat="42.99174" lon="-0.21221">
        <ele>1402.1999511719</ele>
        <time>2019-09-28T07:17:50Z</time>
      </trkpt>
      <trkpt lat="42.99173" lon="-0.21224">
        <ele>1402.5999755859</ele>
        <time>2019-09-28T07:17:51Z</time>
      </trkpt>
      <trkpt lat="42.99172" lon="-0.21227">
        <ele>1403</ele>
        <time>2019-09-28T07:17:52Z</time>
      </trkpt>
      <trkpt lat="42.9917" lon="-0.21231">
        <ele>1403.4000244141</ele>
        <time>2019-09-28T07:17:53Z</time>
      </trkpt>
      <trkpt lat="42.99168" lon="-0.21234">
        <ele>1403.4000244141</ele>
        <time>2019-09-28T07:17:54Z</time>
      </trkpt>
      <trkpt lat="42.99158" lon="-0.2125">
        <ele>1403.4000244141</ele>
        <time>2019-09-28T07:18:00Z</time>
      </trkpt>
      <trkpt lat="42.99157" lon="-0.21253">
        <ele>1403.8000488281</ele>
        <time>2019-09-28T07:18:01Z</time>
      </trkpt>
      <trkpt lat="42.99155" lon="-0.21256">
        <ele>1404.1999511719</ele>
        <time>2019-09-28T07:18:02Z</time>
      </trkpt>
      <trkpt lat="42.99153" lon="-0.21259">
        <ele>1404.5999755859</ele>
        <time>2019-09-28T07:18:03Z</time>
      </trkpt>
      <trkpt lat="42.99151" lon="-0.21261">
        <ele>1405</ele>
        <time>2019-09-28T07:18:04Z</time>
      </trkpt>
      <trkpt lat="42.99149" lon="-0.21264">
        <ele>1405.5999755859</ele>
        <time>2019-09-28T07:18:05Z</time>
      </trkpt>
      <trkpt lat="42.99147" lon="-0.21266">
        <ele>1405.5999755859</ele>
        <time>2019-09-28T07:18:06Z</time>
      </trkpt>
      <trkpt lat="42.99139" lon="-0.21279">
        <ele>1405.5999755859</ele>
        <time>2019-09-28T07:18:12Z</time>
      </trkpt>
      <trkpt lat="42.9913" lon="-0.21301">
        <ele>1405.5999755859</ele>
        <time>2019-09-28T07:18:19Z</time>
      </trkpt>
      <trkpt lat="42.99125" lon="-0.21331">
        <ele>1405.5999755859</ele>
        <time>2019-09-28T07:18:26Z</time>
      </trkpt>
      <trkpt lat="42.99123" lon="-0.2134">
        <ele>1405</ele>
        <time>2019-09-28T07:18:28Z</time>
      </trkpt>
      <trkpt lat="42.99122" lon="-0.21344">
        <ele>1404.5999755859</ele>
        <time>2019-09-28T07:18:29Z</time>
      </trkpt>
      <trkpt lat="42.99122" lon="-0.21348">
        <ele>1404.1999511719</ele>
        <time>2019-09-28T07:18:30Z</time>
      </trkpt>
      <trkpt lat="42.99121" lon="-0.21354">
        <ele>1403.8000488281</ele>
        <time>2019-09-28T07:18:31Z</time>
      </trkpt>
      <trkpt lat="42.9912" lon="-0.2136">
        <ele>1403.4000244141</ele>
        <time>2019-09-28T07:18:32Z</time>
      </trkpt>
      <trkpt lat="42.9912" lon="-0.21365">
        <ele>1403.4000244141</ele>
        <time>2019-09-28T07:18:33Z</time>
      </trkpt>
      <trkpt lat="42.99118" lon="-0.21379">
        <ele>1403</ele>
        <time>2019-09-28T07:18:36Z</time>
      </trkpt>
      <trkpt lat="42.99116" lon="-0.21385">
        <ele>1402.4000244141</ele>
        <time>2019-09-28T07:18:37Z</time>
      </trkpt>
      <trkpt lat="42.99115" lon="-0.21389">
        <ele>1402</ele>
        <time>2019-09-28T07:18:38Z</time>
      </trkpt>
      <trkpt lat="42.99114" lon="-0.21395">
        <ele>1401.1999511719</ele>
        <time>2019-09-28T07:18:39Z</time>
      </trkpt>
      <trkpt lat="42.99113" lon="-0.214">
        <ele>1401.1999511719</ele>
        <time>2019-09-28T07:18:40Z</time>
      </trkpt>
      <trkpt lat="42.9911" lon="-0.21416">
        <ele>1400.8000488281</ele>
        <time>2019-09-28T07:18:43Z</time>
      </trkpt>
      <trkpt lat="42.99108" lon="-0.21423">
        <ele>1400.4000244141</ele>
        <time>2019-09-28T07:18:44Z</time>
      </trkpt>
      <trkpt lat="42.99107" lon="-0.21429">
        <ele>1399.8000488281</ele>
        <time>2019-09-28T07:18:45Z</time>
      </trkpt>
      <trkpt lat="42.99106" lon="-0.21435">
        <ele>1399.4000244141</ele>
        <time>2019-09-28T07:18:46Z</time>
      </trkpt>
      <trkpt lat="42.99104" lon="-0.2144">
        <ele>1399</ele>
        <time>2019-09-28T07:18:47Z</time>
      </trkpt>
      <trkpt lat="42.99101" lon="-0.21451">
        <ele>1398.5999755859</ele>
        <time>2019-09-28T07:18:49Z</time>
      </trkpt>
      <trkpt lat="42.991" lon="-0.21456">
        <ele>1398.1999511719</ele>
        <time>2019-09-28T07:18:50Z</time>
      </trkpt>
      <trkpt lat="42.99099" lon="-0.21461">
        <ele>1397.8000488281</ele>
        <time>2019-09-28T07:18:51Z</time>
      </trkpt>
      <trkpt lat="42.99097" lon="-0.21468">
        <ele>1397.1999511719</ele>
        <time>2019-09-28T07:18:52Z</time>
      </trkpt>
      <trkpt lat="42.99095" lon="-0.21472">
        <ele>1396.8000488281</ele>
        <time>2019-09-28T07:18:53Z</time>
      </trkpt>
      <trkpt lat="42.9909" lon="-0.21496">
        <ele>1396.8000488281</ele>
        <time>2019-09-28T07:18:57Z</time>
      </trkpt>
      <trkpt lat="42.99089" lon="-0.21503">
        <ele>1396.4000244141</ele>
        <time>2019-09-28T07:18:58Z</time>
      </trkpt>
      <trkpt lat="42.99088" lon="-0.21509">
        <ele>1396</ele>
        <time>2019-09-28T07:18:59Z</time>
      </trkpt>
      <trkpt lat="42.99087" lon="-0.21516">
        <ele>1395.5999755859</ele>
        <time>2019-09-28T07:19:00Z</time>
      </trkpt>
      <trkpt lat="42.99087" lon="-0.21523">
        <ele>1395</ele>
        <time>2019-09-28T07:19:01Z</time>
      </trkpt>
      <trkpt lat="42.99086" lon="-0.2153">
        <ele>1394.5999755859</ele>
        <time>2019-09-28T07:19:02Z</time>
      </trkpt>
      <trkpt lat="42.99086" lon="-0.21537">
        <ele>1393.5999755859</ele>
        <time>2019-09-28T07:19:03Z</time>
      </trkpt>
      <trkpt lat="42.99085" lon="-0.21543">
        <ele>1393.1999511719</ele>
        <time>2019-09-28T07:19:04Z</time>
      </trkpt>
      <trkpt lat="42.99084" lon="-0.21549">
        <ele>1392.8000488281</ele>
        <time>2019-09-28T07:19:05Z</time>
      </trkpt>
      <trkpt lat="42.99084" lon="-0.21556">
        <ele>1392.1999511719</ele>
        <time>2019-09-28T07:19:06Z</time>
      </trkpt>
      <trkpt lat="42.99083" lon="-0.21577">
        <ele>1391.8000488281</ele>
        <time>2019-09-28T07:19:09Z</time>
      </trkpt>
      <trkpt lat="42.99084" lon="-0.21584">
        <ele>1391.4000244141</ele>
        <time>2019-09-28T07:19:10Z</time>
      </trkpt>
      <trkpt lat="42.99083" lon="-0.21591">
        <ele>1391</ele>
        <time>2019-09-28T07:19:11Z</time>
      </trkpt>
      <trkpt lat="42.99083" lon="-0.21598">
        <ele>1390.5999755859</ele>
        <time>2019-09-28T07:19:12Z</time>
      </trkpt>
      <trkpt lat="42.99082" lon="-0.21604">
        <ele>1390.1999511719</ele>
        <time>2019-09-28T07:19:13Z</time>
      </trkpt>
      <trkpt lat="42.99083" lon="-0.2162">
        <ele>1389.8000488281</ele>
        <time>2019-09-28T07:19:15Z</time>
      </trkpt>
      <trkpt lat="42.99083" lon="-0.21628">
        <ele>1389.4000244141</ele>
        <time>2019-09-28T07:19:16Z</time>
      </trkpt>
      <trkpt lat="42.99084" lon="-0.21635">
        <ele>1389</ele>
        <time>2019-09-28T07:19:17Z</time>
      </trkpt>
      <trkpt lat="42.99084" lon="-0.21642">
        <ele>1388.4000244141</ele>
        <time>2019-09-28T07:19:18Z</time>
      </trkpt>
      <trkpt lat="42.99084" lon="-0.21649">
        <ele>1388</ele>
        <time>2019-09-28T07:19:19Z</time>
      </trkpt>
      <trkpt lat="42.99084" lon="-0.21656">
        <ele>1388</ele>
        <time>2019-09-28T07:19:20Z</time>
      </trkpt>
      <trkpt lat="42.99084" lon="-0.21662">
        <ele>1387.5999755859</ele>
        <time>2019-09-28T07:19:21Z</time>
      </trkpt>
      <trkpt lat="42.99085" lon="-0.21669">
        <ele>1387.1999511719</ele>
        <time>2019-09-28T07:19:22Z</time>
      </trkpt>
      <trkpt lat="42.99084" lon="-0.21675">
        <ele>1386.8000488281</ele>
        <time>2019-09-28T07:19:23Z</time>
      </trkpt>
      <trkpt lat="42.99083" lon="-0.21681">
        <ele>1386.1999511719</ele>
        <time>2019-09-28T07:19:24Z</time>
      </trkpt>
      <trkpt lat="42.99083" lon="-0.21687">
        <ele>1385.8000488281</ele>
        <time>2019-09-28T07:19:25Z</time>
      </trkpt>
      <trkpt lat="42.99084" lon="-0.21691">
        <ele>1385.8000488281</ele>
        <time>2019-09-28T07:19:26Z</time>
      </trkpt>
      <trkpt lat="42.99086" lon="-0.21695">
        <ele>1385.8000488281</ele>
        <time>2019-09-28T07:19:27Z</time>
      </trkpt>
      <trkpt lat="42.99088" lon="-0.21695">
        <ele>1385.8000488281</ele>
        <time>2019-09-28T07:19:28Z</time>
      </trkpt>
      <trkpt lat="42.99093" lon="-0.21688">
        <ele>1385.4000244141</ele>
        <time>2019-09-28T07:19:30Z</time>
      </trkpt>
      <trkpt lat="42.99094" lon="-0.21683">
        <ele>1385</ele>
        <time>2019-09-28T07:19:31Z</time>
      </trkpt>
      <trkpt lat="42.99094" lon="-0.21679">
        <ele>1384.4000244141</ele>
        <time>2019-09-28T07:19:32Z</time>
      </trkpt>
      <trkpt lat="42.99094" lon="-0.21674">
        <ele>1384</ele>
        <time>2019-09-28T07:19:33Z</time>
      </trkpt>
      <trkpt lat="42.99095" lon="-0.21668">
        <ele>1383.5999755859</ele>
        <time>2019-09-28T07:19:34Z</time>
      </trkpt>
      <trkpt lat="42.99095" lon="-0.21662">
        <ele>1383</ele>
        <time>2019-09-28T07:19:35Z</time>
      </trkpt>
      <trkpt lat="42.99096" lon="-0.21656">
        <ele>1382.5999755859</ele>
        <time>2019-09-28T07:19:36Z</time>
      </trkpt>
      <trkpt lat="42.99097" lon="-0.21649">
        <ele>1382</ele>
        <time>2019-09-28T07:19:37Z</time>
      </trkpt>
      <trkpt lat="42.99098" lon="-0.21642">
        <ele>1381.5999755859</ele>
        <time>2019-09-28T07:19:38Z</time>
      </trkpt>
      <trkpt lat="42.99099" lon="-0.21635">
        <ele>1381</ele>
        <time>2019-09-28T07:19:39Z</time>
      </trkpt>
      <trkpt lat="42.99099" lon="-0.21629">
        <ele>1380.5999755859</ele>
        <time>2019-09-28T07:19:40Z</time>
      </trkpt>
      <trkpt lat="42.991" lon="-0.21623">
        <ele>1380</ele>
        <time>2019-09-28T07:19:41Z</time>
      </trkpt>
      <trkpt lat="42.99101" lon="-0.21617">
        <ele>1379.4000244141</ele>
        <time>2019-09-28T07:19:42Z</time>
      </trkpt>
      <trkpt lat="42.99101" lon="-0.2161">
        <ele>1379</ele>
        <time>2019-09-28T07:19:43Z</time>
      </trkpt>
      <trkpt lat="42.99101" lon="-0.21605">
        <ele>1379</ele>
        <time>2019-09-28T07:19:44Z</time>
      </trkpt>
      <trkpt lat="42.99105" lon="-0.21597">
        <ele>1379</ele>
        <time>2019-09-28T07:19:46Z</time>
      </trkpt>
      <trkpt lat="42.99108" lon="-0.21597">
        <ele>1379</ele>
        <time>2019-09-28T07:19:47Z</time>
      </trkpt>
      <trkpt lat="42.99113" lon="-0.21606">
        <ele>1378.5999755859</ele>
        <time>2019-09-28T07:19:49Z</time>
      </trkpt>
      <trkpt lat="42.99112" lon="-0.2161">
        <ele>1378</ele>
        <time>2019-09-28T07:19:50Z</time>
      </trkpt>
      <trkpt lat="42.99111" lon="-0.21616">
        <ele>1377.5999755859</ele>
        <time>2019-09-28T07:19:51Z</time>
      </trkpt>
      <trkpt lat="42.99112" lon="-0.21623">
        <ele>1377.1999511719</ele>
        <time>2019-09-28T07:19:52Z</time>
      </trkpt>
      <trkpt lat="42.99112" lon="-0.21629">
        <ele>1376.4000244141</ele>
        <time>2019-09-28T07:19:53Z</time>
      </trkpt>
      <trkpt lat="42.99112" lon="-0.21636">
        <ele>1375.8000488281</ele>
        <time>2019-09-28T07:19:54Z</time>
      </trkpt>
      <trkpt lat="42.99112" lon="-0.21643">
        <ele>1375.1999511719</ele>
        <time>2019-09-28T07:19:55Z</time>
      </trkpt>
      <trkpt lat="42.99112" lon="-0.2165">
        <ele>1374.8000488281</ele>
        <time>2019-09-28T07:19:56Z</time>
      </trkpt>
      <trkpt lat="42.99112" lon="-0.21657">
        <ele>1374.1999511719</ele>
        <time>2019-09-28T07:19:57Z</time>
      </trkpt>
      <trkpt lat="42.99112" lon="-0.21663">
        <ele>1373.5999755859</ele>
        <time>2019-09-28T07:19:58Z</time>
      </trkpt>
      <trkpt lat="42.99111" lon="-0.2167">
        <ele>1373.1999511719</ele>
        <time>2019-09-28T07:19:59Z</time>
      </trkpt>
      <trkpt lat="42.99111" lon="-0.21676">
        <ele>1372.5999755859</ele>
        <time>2019-09-28T07:20:00Z</time>
      </trkpt>
      <trkpt lat="42.99111" lon="-0.21682">
        <ele>1372</ele>
        <time>2019-09-28T07:20:01Z</time>
      </trkpt>
      <trkpt lat="42.99108" lon="-0.21723">
        <ele>1372</ele>
        <time>2019-09-28T07:20:08Z</time>
      </trkpt>
      <trkpt lat="42.99104" lon="-0.21752">
        <ele>1372</ele>
        <time>2019-09-28T07:20:13Z</time>
      </trkpt>
      <trkpt lat="42.99105" lon="-0.21758">
        <ele>1372</ele>
        <time>2019-09-28T07:20:14Z</time>
      </trkpt>
      <trkpt lat="42.99109" lon="-0.21767">
        <ele>1372</ele>
        <time>2019-09-28T07:20:16Z</time>
      </trkpt>
      <trkpt lat="42.99117" lon="-0.21766">
        <ele>1372</ele>
        <time>2019-09-28T07:20:18Z</time>
      </trkpt>
      <trkpt lat="42.99123" lon="-0.21761">
        <ele>1372</ele>
        <time>2019-09-28T07:20:20Z</time>
      </trkpt>
      <trkpt lat="42.99134" lon="-0.21751">
        <ele>1372</ele>
        <time>2019-09-28T07:20:24Z</time>
      </trkpt>
      <trkpt lat="42.99154" lon="-0.21739">
        <ele>1372</ele>
        <time>2019-09-28T07:20:31Z</time>
      </trkpt>
      <trkpt lat="42.99171" lon="-0.21735">
        <ele>1372</ele>
        <time>2019-09-28T07:20:38Z</time>
      </trkpt>
      <trkpt lat="42.99178" lon="-0.21734">
        <ele>1372.4000244141</ele>
        <time>2019-09-28T07:20:41Z</time>
      </trkpt>
      <trkpt lat="42.9918" lon="-0.21734">
        <ele>1372.8000488281</ele>
        <time>2019-09-28T07:20:42Z</time>
      </trkpt>
      <trkpt lat="42.99182" lon="-0.21733">
        <ele>1373.5999755859</ele>
        <time>2019-09-28T07:20:43Z</time>
      </trkpt>
      <trkpt lat="42.99184" lon="-0.21733">
        <ele>1374</ele>
        <time>2019-09-28T07:20:44Z</time>
      </trkpt>
      <trkpt lat="42.99191" lon="-0.21734">
        <ele>1374.5999755859</ele>
        <time>2019-09-28T07:20:48Z</time>
      </trkpt>
      <trkpt lat="42.99193" lon="-0.21734">
        <ele>1375</ele>
        <time>2019-09-28T07:20:49Z</time>
      </trkpt>
      <trkpt lat="42.99195" lon="-0.21734">
        <ele>1375.4000244141</ele>
        <time>2019-09-28T07:20:50Z</time>
      </trkpt>
      <trkpt lat="42.99196" lon="-0.21735">
        <ele>1375.8000488281</ele>
        <time>2019-09-28T07:20:51Z</time>
      </trkpt>
      <trkpt lat="42.99198" lon="-0.21735">
        <ele>1376.4000244141</ele>
        <time>2019-09-28T07:20:52Z</time>
      </trkpt>
      <trkpt lat="42.99205" lon="-0.21736">
        <ele>1376.8000488281</ele>
        <time>2019-09-28T07:20:56Z</time>
      </trkpt>
      <trkpt lat="42.99207" lon="-0.21738">
        <ele>1377.1999511719</ele>
        <time>2019-09-28T07:20:57Z</time>
      </trkpt>
      <trkpt lat="42.99209" lon="-0.2174">
        <ele>1377.5999755859</ele>
        <time>2019-09-28T07:20:58Z</time>
      </trkpt>
      <trkpt lat="42.9921" lon="-0.21742">
        <ele>1378</ele>
        <time>2019-09-28T07:20:59Z</time>
      </trkpt>
      <trkpt lat="42.99212" lon="-0.21744">
        <ele>1378.4000244141</ele>
        <time>2019-09-28T07:21:00Z</time>
      </trkpt>
      <trkpt lat="42.99216" lon="-0.21749">
        <ele>1378.4000244141</ele>
        <time>2019-09-28T07:21:03Z</time>
      </trkpt>
      <trkpt lat="42.99218" lon="-0.21754">
        <ele>1378.8000488281</ele>
        <time>2019-09-28T07:21:05Z</time>
      </trkpt>
      <trkpt lat="42.99219" lon="-0.21756">
        <ele>1379.1999511719</ele>
        <time>2019-09-28T07:21:06Z</time>
      </trkpt>
      <trkpt lat="42.99221" lon="-0.21759">
        <ele>1380</ele>
        <time>2019-09-28T07:21:07Z</time>
      </trkpt>
      <trkpt lat="42.99224" lon="-0.21761">
        <ele>1380.4000244141</ele>
        <time>2019-09-28T07:21:08Z</time>
      </trkpt>
      <trkpt lat="42.99237" lon="-0.21766">
        <ele>1380.4000244141</ele>
        <time>2019-09-28T07:21:13Z</time>
      </trkpt>
      <trkpt lat="42.9925" lon="-0.21767">
        <ele>1380.4000244141</ele>
        <time>2019-09-28T07:21:19Z</time>
      </trkpt>
      <trkpt lat="42.99265" lon="-0.21767">
        <ele>1380.4000244141</ele>
        <time>2019-09-28T07:21:26Z</time>
      </trkpt>
      <trkpt lat="42.99277" lon="-0.21767">
        <ele>1380.4000244141</ele>
        <time>2019-09-28T07:21:32Z</time>
      </trkpt>
      <trkpt lat="42.99285" lon="-0.21768">
        <ele>1380.8000488281</ele>
        <time>2019-09-28T07:21:36Z</time>
      </trkpt>
      <trkpt lat="42.99287" lon="-0.21768">
        <ele>1381.4000244141</ele>
        <time>2019-09-28T07:21:37Z</time>
      </trkpt>
      <trkpt lat="42.99289" lon="-0.21768">
        <ele>1381.8000488281</ele>
        <time>2019-09-28T07:21:38Z</time>
      </trkpt>
      <trkpt lat="42.99291" lon="-0.21768">
        <ele>1382.1999511719</ele>
        <time>2019-09-28T07:21:39Z</time>
      </trkpt>
      <trkpt lat="42.99293" lon="-0.21768">
        <ele>1382.5999755859</ele>
        <time>2019-09-28T07:21:40Z</time>
      </trkpt>
      <trkpt lat="42.99295" lon="-0.21768">
        <ele>1382.5999755859</ele>
        <time>2019-09-28T07:21:41Z</time>
      </trkpt>
      <trkpt lat="42.99307" lon="-0.21777">
        <ele>1382.5999755859</ele>
        <time>2019-09-28T07:21:48Z</time>
      </trkpt>
      <trkpt lat="42.99309" lon="-0.21779">
        <ele>1383</ele>
        <time>2019-09-28T07:21:49Z</time>
      </trkpt>
      <trkpt lat="42.99311" lon="-0.2178">
        <ele>1383.4000244141</ele>
        <time>2019-09-28T07:21:50Z</time>
      </trkpt>
      <trkpt lat="42.99312" lon="-0.21782">
        <ele>1383.8000488281</ele>
        <time>2019-09-28T07:21:51Z</time>
      </trkpt>
      <trkpt lat="42.99313" lon="-0.21783">
        <ele>1384.1999511719</ele>
        <time>2019-09-28T07:21:52Z</time>
      </trkpt>
      <trkpt lat="42.99315" lon="-0.21784">
        <ele>1384.5999755859</ele>
        <time>2019-09-28T07:21:53Z</time>
      </trkpt>
      <trkpt lat="42.99316" lon="-0.21786">
        <ele>1384.5999755859</ele>
        <time>2019-09-28T07:21:54Z</time>
      </trkpt>
      <trkpt lat="42.99327" lon="-0.21794">
        <ele>1384.5999755859</ele>
        <time>2019-09-28T07:22:00Z</time>
      </trkpt>
      <trkpt lat="42.99329" lon="-0.21795">
        <ele>1385.1999511719</ele>
        <time>2019-09-28T07:22:01Z</time>
      </trkpt>
      <trkpt lat="42.9933" lon="-0.21796">
        <ele>1385.5999755859</ele>
        <time>2019-09-28T07:22:02Z</time>
      </trkpt>
      <trkpt lat="42.99332" lon="-0.21797">
        <ele>1386</ele>
        <time>2019-09-28T07:22:03Z</time>
      </trkpt>
      <trkpt lat="42.99334" lon="-0.21798">
        <ele>1386.4000244141</ele>
        <time>2019-09-28T07:22:04Z</time>
      </trkpt>
      <trkpt lat="42.99336" lon="-0.21799">
        <ele>1387</ele>
        <time>2019-09-28T07:22:05Z</time>
      </trkpt>
      <trkpt lat="42.99345" lon="-0.21805">
        <ele>1387</ele>
        <time>2019-09-28T07:22:10Z</time>
      </trkpt>
      <trkpt lat="42.9935" lon="-0.21811">
        <ele>1387.4000244141</ele>
        <time>2019-09-28T07:22:13Z</time>
      </trkpt>
      <trkpt lat="42.99351" lon="-0.21813">
        <ele>1387.8000488281</ele>
        <time>2019-09-28T07:22:14Z</time>
      </trkpt>
      <trkpt lat="42.99351" lon="-0.21816">
        <ele>1388.1999511719</ele>
        <time>2019-09-28T07:22:15Z</time>
      </trkpt>
      <trkpt lat="42.99351" lon="-0.21818">
        <ele>1388.5999755859</ele>
        <time>2019-09-28T07:22:16Z</time>
      </trkpt>
      <trkpt lat="42.99352" lon="-0.21821">
        <ele>1389</ele>
        <time>2019-09-28T07:22:17Z</time>
      </trkpt>
      <trkpt lat="42.9935" lon="-0.21832">
        <ele>1389</ele>
        <time>2019-09-28T07:22:21Z</time>
      </trkpt>
      <trkpt lat="42.99345" lon="-0.21851">
        <ele>1389.4000244141</ele>
        <time>2019-09-28T07:22:28Z</time>
      </trkpt>
      <trkpt lat="42.99344" lon="-0.21853">
        <ele>1389.8000488281</ele>
        <time>2019-09-28T07:22:29Z</time>
      </trkpt>
      <trkpt lat="42.99343" lon="-0.21856">
        <ele>1390.1999511719</ele>
        <time>2019-09-28T07:22:30Z</time>
      </trkpt>
      <trkpt lat="42.99343" lon="-0.21858">
        <ele>1390.5999755859</ele>
        <time>2019-09-28T07:22:31Z</time>
      </trkpt>
      <trkpt lat="42.99342" lon="-0.21861">
        <ele>1391</ele>
        <time>2019-09-28T07:22:32Z</time>
      </trkpt>
      <trkpt lat="42.9934" lon="-0.21868">
        <ele>1391</ele>
        <time>2019-09-28T07:22:35Z</time>
      </trkpt>
      <trkpt lat="42.99336" lon="-0.21881">
        <ele>1391.4000244141</ele>
        <time>2019-09-28T07:22:40Z</time>
      </trkpt>
      <trkpt lat="42.99335" lon="-0.21883">
        <ele>1391.8000488281</ele>
        <time>2019-09-28T07:22:41Z</time>
      </trkpt>
      <trkpt lat="42.99334" lon="-0.21886">
        <ele>1392.1999511719</ele>
        <time>2019-09-28T07:22:42Z</time>
      </trkpt>
      <trkpt lat="42.99334" lon="-0.21888">
        <ele>1392.5999755859</ele>
        <time>2019-09-28T07:22:43Z</time>
      </trkpt>
      <trkpt lat="42.99334" lon="-0.2189">
        <ele>1393.1999511719</ele>
        <time>2019-09-28T07:22:44Z</time>
      </trkpt>
      <trkpt lat="42.99332" lon="-0.21898">
        <ele>1393.1999511719</ele>
        <time>2019-09-28T07:22:47Z</time>
      </trkpt>
      <trkpt lat="42.99329" lon="-0.21911">
        <ele>1393.5999755859</ele>
        <time>2019-09-28T07:22:52Z</time>
      </trkpt>
      <trkpt lat="42.99328" lon="-0.21914">
        <ele>1394</ele>
        <time>2019-09-28T07:22:53Z</time>
      </trkpt>
      <trkpt lat="42.99328" lon="-0.21916">
        <ele>1394.4000244141</ele>
        <time>2019-09-28T07:22:54Z</time>
      </trkpt>
      <trkpt lat="42.99327" lon="-0.21919">
        <ele>1394.8000488281</ele>
        <time>2019-09-28T07:22:55Z</time>
      </trkpt>
      <trkpt lat="42.99327" lon="-0.21922">
        <ele>1395.4000244141</ele>
        <time>2019-09-28T07:22:56Z</time>
      </trkpt>
      <trkpt lat="42.99325" lon="-0.21929">
        <ele>1395.4000244141</ele>
        <time>2019-09-28T07:22:59Z</time>
      </trkpt>
      <trkpt lat="42.99322" lon="-0.21943">
        <ele>1395.4000244141</ele>
        <time>2019-09-28T07:23:04Z</time>
      </trkpt>
      <trkpt lat="42.99321" lon="-0.21945">
        <ele>1395.8000488281</ele>
        <time>2019-09-28T07:23:05Z</time>
      </trkpt>
      <trkpt lat="42.9932" lon="-0.21948">
        <ele>1396.1999511719</ele>
        <time>2019-09-28T07:23:06Z</time>
      </trkpt>
      <trkpt lat="42.9932" lon="-0.2195">
        <ele>1396.5999755859</ele>
        <time>2019-09-28T07:23:07Z</time>
      </trkpt>
      <trkpt lat="42.99319" lon="-0.21953">
        <ele>1397</ele>
        <time>2019-09-28T07:23:08Z</time>
      </trkpt>
      <trkpt lat="42.99318" lon="-0.21956">
        <ele>1397.4000244141</ele>
        <time>2019-09-28T07:23:09Z</time>
      </trkpt>
      <trkpt lat="42.99317" lon="-0.21961">
        <ele>1397.4000244141</ele>
        <time>2019-09-28T07:23:11Z</time>
      </trkpt>
      <trkpt lat="42.99314" lon="-0.21973">
        <ele>1397.8000488281</ele>
        <time>2019-09-28T07:23:16Z</time>
      </trkpt>
      <trkpt lat="42.99313" lon="-0.21975">
        <ele>1398.1999511719</ele>
        <time>2019-09-28T07:23:17Z</time>
      </trkpt>
      <trkpt lat="42.99313" lon="-0.21977">
        <ele>1398.8000488281</ele>
        <time>2019-09-28T07:23:18Z</time>
      </trkpt>
      <trkpt lat="42.99312" lon="-0.21979">
        <ele>1399.1999511719</ele>
        <time>2019-09-28T07:23:19Z</time>
      </trkpt>
      <trkpt lat="42.99312" lon="-0.21981">
        <ele>1399.5999755859</ele>
        <time>2019-09-28T07:23:20Z</time>
      </trkpt>
      <trkpt lat="42.99308" lon="-0.2199">
        <ele>1399.5999755859</ele>
        <time>2019-09-28T07:23:25Z</time>
      </trkpt>
      <trkpt lat="42.99305" lon="-0.21997">
        <ele>1400</ele>
        <time>2019-09-28T07:23:29Z</time>
      </trkpt>
      <trkpt lat="42.99304" lon="-0.21999">
        <ele>1400.4000244141</ele>
        <time>2019-09-28T07:23:30Z</time>
      </trkpt>
      <trkpt lat="42.99302" lon="-0.22001">
        <ele>1400.8000488281</ele>
        <time>2019-09-28T07:23:31Z</time>
      </trkpt>
      <trkpt lat="42.99301" lon="-0.22003">
        <ele>1401.4000244141</ele>
        <time>2019-09-28T07:23:32Z</time>
      </trkpt>
      <trkpt lat="42.99301" lon="-0.22005">
        <ele>1401.8000488281</ele>
        <time>2019-09-28T07:23:33Z</time>
      </trkpt>
      <trkpt lat="42.99299" lon="-0.22015">
        <ele>1401.8000488281</ele>
        <time>2019-09-28T07:23:38Z</time>
      </trkpt>
      <trkpt lat="42.99297" lon="-0.22025">
        <ele>1402.1999511719</ele>
        <time>2019-09-28T07:23:42Z</time>
      </trkpt>
      <trkpt lat="42.99296" lon="-0.22027">
        <ele>1402.5999755859</ele>
        <time>2019-09-28T07:23:43Z</time>
      </trkpt>
      <trkpt lat="42.99295" lon="-0.22029">
        <ele>1403</ele>
        <time>2019-09-28T07:23:44Z</time>
      </trkpt>
      <trkpt lat="42.99294" lon="-0.22031">
        <ele>1403.4000244141</ele>
        <time>2019-09-28T07:23:45Z</time>
      </trkpt>
      <trkpt lat="42.99293" lon="-0.22033">
        <ele>1403.8000488281</ele>
        <time>2019-09-28T07:23:46Z</time>
      </trkpt>
      <trkpt lat="42.9929" lon="-0.22034">
        <ele>1403.8000488281</ele>
        <time>2019-09-28T07:23:48Z</time>
      </trkpt>
      <trkpt lat="42.99286" lon="-0.22032">
        <ele>1403.8000488281</ele>
        <time>2019-09-28T07:23:50Z</time>
      </trkpt>
      <trkpt lat="42.99284" lon="-0.2202">
        <ele>1403.8000488281</ele>
        <time>2019-09-28T07:23:55Z</time>
      </trkpt>
      <trkpt lat="42.99284" lon="-0.22018">
        <ele>1403.8000488281</ele>
        <time>2019-09-28T07:23:56Z</time>
      </trkpt>
      <trkpt lat="42.99285" lon="-0.22015">
        <ele>1404.1999511719</ele>
        <time>2019-09-28T07:23:57Z</time>
      </trkpt>
      <trkpt lat="42.99285" lon="-0.22012">
        <ele>1404.5999755859</ele>
        <time>2019-09-28T07:23:58Z</time>
      </trkpt>
      <trkpt lat="42.99286" lon="-0.2201">
        <ele>1405</ele>
        <time>2019-09-28T07:23:59Z</time>
      </trkpt>
      <trkpt lat="42.99286" lon="-0.22007">
        <ele>1405.4000244141</ele>
        <time>2019-09-28T07:24:00Z</time>
      </trkpt>
      <trkpt lat="42.99287" lon="-0.22005">
        <ele>1405.8000488281</ele>
        <time>2019-09-28T07:24:01Z</time>
      </trkpt>
      <trkpt lat="42.99287" lon="-0.21997">
        <ele>1405.8000488281</ele>
        <time>2019-09-28T07:24:04Z</time>
      </trkpt>
      <trkpt lat="42.99286" lon="-0.21978">
        <ele>1405.8000488281</ele>
        <time>2019-09-28T07:24:11Z</time>
      </trkpt>
      <trkpt lat="42.99287" lon="-0.21967">
        <ele>1406.1999511719</ele>
        <time>2019-09-28T07:24:15Z</time>
      </trkpt>
      <trkpt lat="42.99286" lon="-0.21964">
        <ele>1406.5999755859</ele>
        <time>2019-09-28T07:24:16Z</time>
      </trkpt>
      <trkpt lat="42.99286" lon="-0.21962">
        <ele>1407</ele>
        <time>2019-09-28T07:24:17Z</time>
      </trkpt>
      <trkpt lat="42.99286" lon="-0.21959">
        <ele>1407.5999755859</ele>
        <time>2019-09-28T07:24:18Z</time>
      </trkpt>
      <trkpt lat="42.99286" lon="-0.21957">
        <ele>1408</ele>
        <time>2019-09-28T07:24:19Z</time>
      </trkpt>
      <trkpt lat="42.99286" lon="-0.21946">
        <ele>1408</ele>
        <time>2019-09-28T07:24:24Z</time>
      </trkpt>
      <trkpt lat="42.99285" lon="-0.21928">
        <ele>1408</ele>
        <time>2019-09-28T07:24:31Z</time>
      </trkpt>
      <trkpt lat="42.99283" lon="-0.21913">
        <ele>1408.4000244141</ele>
        <time>2019-09-28T07:24:37Z</time>
      </trkpt>
      <trkpt lat="42.99282" lon="-0.2191">
        <ele>1408.8000488281</ele>
        <time>2019-09-28T07:24:38Z</time>
      </trkpt>
      <trkpt lat="42.99281" lon="-0.21908">
        <ele>1409.1999511719</ele>
        <time>2019-09-28T07:24:39Z</time>
      </trkpt>
      <trkpt lat="42.9928" lon="-0.21906">
        <ele>1409.5999755859</ele>
        <time>2019-09-28T07:24:40Z</time>
      </trkpt>
      <trkpt lat="42.99279" lon="-0.21904">
        <ele>1410</ele>
        <time>2019-09-28T07:24:41Z</time>
      </trkpt>
      <trkpt lat="42.99277" lon="-0.21901">
        <ele>1410</ele>
        <time>2019-09-28T07:24:43Z</time>
      </trkpt>
      <trkpt lat="42.99275" lon="-0.219">
        <ele>1410</ele>
        <time>2019-09-28T07:24:44Z</time>
      </trkpt>
      <trkpt lat="42.99273" lon="-0.21902">
        <ele>1410</ele>
        <time>2019-09-28T07:24:47Z</time>
      </trkpt>
      <trkpt lat="42.99273" lon="-0.21911">
        <ele>1410.8000488281</ele>
        <time>2019-09-28T07:24:51Z</time>
      </trkpt>
      <trkpt lat="42.99273" lon="-0.21913">
        <ele>1411.4000244141</ele>
        <time>2019-09-28T07:24:52Z</time>
      </trkpt>
      <trkpt lat="42.99272" lon="-0.21916">
        <ele>1411.8000488281</ele>
        <time>2019-09-28T07:24:53Z</time>
      </trkpt>
      <trkpt lat="42.99272" lon="-0.21918">
        <ele>1412.1999511719</ele>
        <time>2019-09-28T07:24:54Z</time>
      </trkpt>
      <trkpt lat="42.99269" lon="-0.21925">
        <ele>1412.1999511719</ele>
        <time>2019-09-28T07:24:57Z</time>
      </trkpt>
      <trkpt lat="42.99264" lon="-0.2194">
        <ele>1412.1999511719</ele>
        <time>2019-09-28T07:25:04Z</time>
      </trkpt>
      <trkpt lat="42.99263" lon="-0.21942">
        <ele>1412.5999755859</ele>
        <time>2019-09-28T07:25:05Z</time>
      </trkpt>
      <trkpt lat="42.99262" lon="-0.21944">
        <ele>1413</ele>
        <time>2019-09-28T07:25:06Z</time>
      </trkpt>
      <trkpt lat="42.99261" lon="-0.21946">
        <ele>1413.4000244141</ele>
        <time>2019-09-28T07:25:07Z</time>
      </trkpt>
      <trkpt lat="42.9926" lon="-0.21948">
        <ele>1413.8000488281</ele>
        <time>2019-09-28T07:25:08Z</time>
      </trkpt>
      <trkpt lat="42.99259" lon="-0.2195">
        <ele>1414.4000244141</ele>
        <time>2019-09-28T07:25:09Z</time>
      </trkpt>
      <trkpt lat="42.99257" lon="-0.21957">
        <ele>1414.4000244141</ele>
        <time>2019-09-28T07:25:12Z</time>
      </trkpt>
      <trkpt lat="42.99254" lon="-0.21967">
        <ele>1414.8000488281</ele>
        <time>2019-09-28T07:25:17Z</time>
      </trkpt>
      <trkpt lat="42.99254" lon="-0.21969">
        <ele>1415.1999511719</ele>
        <time>2019-09-28T07:25:18Z</time>
      </trkpt>
      <trkpt lat="42.99253" lon="-0.21971">
        <ele>1415.5999755859</ele>
        <time>2019-09-28T07:25:19Z</time>
      </trkpt>
      <trkpt lat="42.99252" lon="-0.21974">
        <ele>1416</ele>
        <time>2019-09-28T07:25:20Z</time>
      </trkpt>
      <trkpt lat="42.99251" lon="-0.21977">
        <ele>1416.4000244141</ele>
        <time>2019-09-28T07:25:21Z</time>
      </trkpt>
      <trkpt lat="42.9925" lon="-0.21981">
        <ele>1416.4000244141</ele>
        <time>2019-09-28T07:25:23Z</time>
      </trkpt>
      <trkpt lat="42.99243" lon="-0.21996">
        <ele>1416.4000244141</ele>
        <time>2019-09-28T07:25:31Z</time>
      </trkpt>
      <trkpt lat="42.99238" lon="-0.22003">
        <ele>1416.8000488281</ele>
        <time>2019-09-28T07:25:36Z</time>
      </trkpt>
      <trkpt lat="42.99237" lon="-0.22005">
        <ele>1417.1999511719</ele>
        <time>2019-09-28T07:25:37Z</time>
      </trkpt>
      <trkpt lat="42.99236" lon="-0.22007">
        <ele>1417.5999755859</ele>
        <time>2019-09-28T07:25:38Z</time>
      </trkpt>
      <trkpt lat="42.99234" lon="-0.22009">
        <ele>1418</ele>
        <time>2019-09-28T07:25:39Z</time>
      </trkpt>
      <trkpt lat="42.99233" lon="-0.22012">
        <ele>1418.4000244141</ele>
        <time>2019-09-28T07:25:40Z</time>
      </trkpt>
      <trkpt lat="42.99229" lon="-0.22019">
        <ele>1418.4000244141</ele>
        <time>2019-09-28T07:25:43Z</time>
      </trkpt>
      <trkpt lat="42.99223" lon="-0.22031">
        <ele>1418.8000488281</ele>
        <time>2019-09-28T07:25:48Z</time>
      </trkpt>
      <trkpt lat="42.99222" lon="-0.22034">
        <ele>1419.1999511719</ele>
        <time>2019-09-28T07:25:49Z</time>
      </trkpt>
      <trkpt lat="42.99221" lon="-0.22036">
        <ele>1419.5999755859</ele>
        <time>2019-09-28T07:25:50Z</time>
      </trkpt>
      <trkpt lat="42.9922" lon="-0.22038">
        <ele>1420.1999511719</ele>
        <time>2019-09-28T07:25:51Z</time>
      </trkpt>
      <trkpt lat="42.99219" lon="-0.2204">
        <ele>1420.5999755859</ele>
        <time>2019-09-28T07:25:52Z</time>
      </trkpt>
      <trkpt lat="42.99213" lon="-0.22055">
        <ele>1420.5999755859</ele>
        <time>2019-09-28T07:25:59Z</time>
      </trkpt>
      <trkpt lat="42.99212" lon="-0.22059">
        <ele>1421</ele>
        <time>2019-09-28T07:26:01Z</time>
      </trkpt>
      <trkpt lat="42.99212" lon="-0.22061">
        <ele>1421.4000244141</ele>
        <time>2019-09-28T07:26:02Z</time>
      </trkpt>
      <trkpt lat="42.99211" lon="-0.22063">
        <ele>1421.8000488281</ele>
        <time>2019-09-28T07:26:03Z</time>
      </trkpt>
      <trkpt lat="42.99211" lon="-0.22064">
        <ele>1422.1999511719</ele>
        <time>2019-09-28T07:26:04Z</time>
      </trkpt>
      <trkpt lat="42.99211" lon="-0.22066">
        <ele>1422.5999755859</ele>
        <time>2019-09-28T07:26:05Z</time>
      </trkpt>
      <trkpt lat="42.9921" lon="-0.22069">
        <ele>1422.5999755859</ele>
        <time>2019-09-28T07:26:07Z</time>
      </trkpt>
      <trkpt lat="42.99211" lon="-0.22076">
        <ele>1423</ele>
        <time>2019-09-28T07:26:10Z</time>
      </trkpt>
      <trkpt lat="42.99211" lon="-0.22078">
        <ele>1423.4000244141</ele>
        <time>2019-09-28T07:26:11Z</time>
      </trkpt>
      <trkpt lat="42.99212" lon="-0.2208">
        <ele>1423.8000488281</ele>
        <time>2019-09-28T07:26:12Z</time>
      </trkpt>
      <trkpt lat="42.99212" lon="-0.22082">
        <ele>1424.4000244141</ele>
        <time>2019-09-28T07:26:13Z</time>
      </trkpt>
      <trkpt lat="42.99212" lon="-0.22084">
        <ele>1424.8000488281</ele>
        <time>2019-09-28T07:26:14Z</time>
      </trkpt>
      <trkpt lat="42.99214" lon="-0.22094">
        <ele>1424.8000488281</ele>
        <time>2019-09-28T07:26:18Z</time>
      </trkpt>
      <trkpt lat="42.99216" lon="-0.22104">
        <ele>1425.1999511719</ele>
        <time>2019-09-28T07:26:22Z</time>
      </trkpt>
      <trkpt lat="42.99216" lon="-0.22107">
        <ele>1425.5999755859</ele>
        <time>2019-09-28T07:26:23Z</time>
      </trkpt>
      <trkpt lat="42.99217" lon="-0.2211">
        <ele>1426</ele>
        <time>2019-09-28T07:26:24Z</time>
      </trkpt>
      <trkpt lat="42.99217" lon="-0.22112">
        <ele>1426.4000244141</ele>
        <time>2019-09-28T07:26:25Z</time>
      </trkpt>
      <trkpt lat="42.99217" lon="-0.22115">
        <ele>1426.8000488281</ele>
        <time>2019-09-28T07:26:26Z</time>
      </trkpt>
      <trkpt lat="42.9922" lon="-0.22127">
        <ele>1426.8000488281</ele>
        <time>2019-09-28T07:26:32Z</time>
      </trkpt>
      <trkpt lat="42.99221" lon="-0.22142">
        <ele>1426.8000488281</ele>
        <time>2019-09-28T07:26:38Z</time>
      </trkpt>
      <trkpt lat="42.99222" lon="-0.22147">
        <ele>1427.1999511719</ele>
        <time>2019-09-28T07:26:40Z</time>
      </trkpt>
      <trkpt lat="42.99222" lon="-0.2215">
        <ele>1427.5999755859</ele>
        <time>2019-09-28T07:26:41Z</time>
      </trkpt>
      <trkpt lat="42.99221" lon="-0.22152">
        <ele>1428</ele>
        <time>2019-09-28T07:26:42Z</time>
      </trkpt>
      <trkpt lat="42.9922" lon="-0.22155">
        <ele>1428.4000244141</ele>
        <time>2019-09-28T07:26:43Z</time>
      </trkpt>
      <trkpt lat="42.99219" lon="-0.22157">
        <ele>1428.8000488281</ele>
        <time>2019-09-28T07:26:44Z</time>
      </trkpt>
      <trkpt lat="42.99216" lon="-0.2216">
        <ele>1428.8000488281</ele>
        <time>2019-09-28T07:26:46Z</time>
      </trkpt>
      <trkpt lat="42.99212" lon="-0.22159">
        <ele>1428.8000488281</ele>
        <time>2019-09-28T07:26:48Z</time>
      </trkpt>
      <trkpt lat="42.99209" lon="-0.22149">
        <ele>1428.8000488281</ele>
        <time>2019-09-28T07:26:52Z</time>
      </trkpt>
      <trkpt lat="42.99209" lon="-0.22146">
        <ele>1428.8000488281</ele>
        <time>2019-09-28T07:26:53Z</time>
      </trkpt>
      <trkpt lat="42.99205" lon="-0.22131">
        <ele>1428.8000488281</ele>
        <time>2019-09-28T07:26:59Z</time>
      </trkpt>
      <trkpt lat="42.99204" lon="-0.22126">
        <ele>1429.1999511719</ele>
        <time>2019-09-28T07:27:01Z</time>
      </trkpt>
      <trkpt lat="42.99203" lon="-0.22124">
        <ele>1429.8000488281</ele>
        <time>2019-09-28T07:27:02Z</time>
      </trkpt>
      <trkpt lat="42.99202" lon="-0.22122">
        <ele>1430.1999511719</ele>
        <time>2019-09-28T07:27:03Z</time>
      </trkpt>
      <trkpt lat="42.99201" lon="-0.2212">
        <ele>1430.5999755859</ele>
        <time>2019-09-28T07:27:04Z</time>
      </trkpt>
      <trkpt lat="42.99199" lon="-0.22118">
        <ele>1431</ele>
        <time>2019-09-28T07:27:05Z</time>
      </trkpt>
      <trkpt lat="42.99197" lon="-0.22114">
        <ele>1431</ele>
        <time>2019-09-28T07:27:07Z</time>
      </trkpt>
      <trkpt lat="42.99187" lon="-0.22098">
        <ele>1431</ele>
        <time>2019-09-28T07:27:14Z</time>
      </trkpt>
      <trkpt lat="42.99177" lon="-0.22088">
        <ele>1431.4000244141</ele>
        <time>2019-09-28T07:27:20Z</time>
      </trkpt>
      <trkpt lat="42.99175" lon="-0.22085">
        <ele>1431.8000488281</ele>
        <time>2019-09-28T07:27:21Z</time>
      </trkpt>
      <trkpt lat="42.99174" lon="-0.22084">
        <ele>1432.1999511719</ele>
        <time>2019-09-28T07:27:22Z</time>
      </trkpt>
      <trkpt lat="42.99172" lon="-0.22082">
        <ele>1432.5999755859</ele>
        <time>2019-09-28T07:27:23Z</time>
      </trkpt>
      <trkpt lat="42.9917" lon="-0.22079">
        <ele>1433</ele>
        <time>2019-09-28T07:27:24Z</time>
      </trkpt>
      <trkpt lat="42.99167" lon="-0.22074">
        <ele>1433</ele>
        <time>2019-09-28T07:27:26Z</time>
      </trkpt>
      <trkpt lat="42.99156" lon="-0.22061">
        <ele>1433</ele>
        <time>2019-09-28T07:27:32Z</time>
      </trkpt>
      <trkpt lat="42.99143" lon="-0.22049">
        <ele>1433</ele>
        <time>2019-09-28T07:27:40Z</time>
      </trkpt>
      <trkpt lat="42.99131" lon="-0.22042">
        <ele>1433.4000244141</ele>
        <time>2019-09-28T07:27:47Z</time>
      </trkpt>
      <trkpt lat="42.9913" lon="-0.22042">
        <ele>1433.8000488281</ele>
        <time>2019-09-28T07:27:48Z</time>
      </trkpt>
      <trkpt lat="42.99128" lon="-0.22041">
        <ele>1434.1999511719</ele>
        <time>2019-09-28T07:27:49Z</time>
      </trkpt>
      <trkpt lat="42.99126" lon="-0.2204">
        <ele>1434.5999755859</ele>
        <time>2019-09-28T07:27:50Z</time>
      </trkpt>
      <trkpt lat="42.99123" lon="-0.22039">
        <ele>1435</ele>
        <time>2019-09-28T07:27:51Z</time>
      </trkpt>
      <trkpt lat="42.99118" lon="-0.22037">
        <ele>1435</ele>
        <time>2019-09-28T07:27:53Z</time>
      </trkpt>
      <trkpt lat="42.991" lon="-0.22029">
        <ele>1435</ele>
        <time>2019-09-28T07:27:58Z</time>
      </trkpt>
      <trkpt lat="42.99091" lon="-0.22029">
        <ele>1435</ele>
        <time>2019-09-28T07:28:02Z</time>
      </trkpt>
      <trkpt lat="42.99088" lon="-0.22032">
        <ele>1435</ele>
        <time>2019-09-28T07:28:04Z</time>
      </trkpt>
      <trkpt lat="42.99087" lon="-0.22036">
        <ele>1435</ele>
        <time>2019-09-28T07:28:06Z</time>
      </trkpt>
      <trkpt lat="42.99088" lon="-0.22041">
        <ele>1435.5999755859</ele>
        <time>2019-09-28T07:28:09Z</time>
      </trkpt>
      <trkpt lat="42.99089" lon="-0.22043">
        <ele>1436</ele>
        <time>2019-09-28T07:28:10Z</time>
      </trkpt>
      <trkpt lat="42.9909" lon="-0.22045">
        <ele>1436.4000244141</ele>
        <time>2019-09-28T07:28:11Z</time>
      </trkpt>
      <trkpt lat="42.9909" lon="-0.22047">
        <ele>1436.8000488281</ele>
        <time>2019-09-28T07:28:12Z</time>
      </trkpt>
      <trkpt lat="42.99091" lon="-0.22048">
        <ele>1437.4000244141</ele>
        <time>2019-09-28T07:28:13Z</time>
      </trkpt>
      <trkpt lat="42.99093" lon="-0.22051">
        <ele>1437.4000244141</ele>
        <time>2019-09-28T07:28:15Z</time>
      </trkpt>
      <trkpt lat="42.99094" lon="-0.22053">
        <ele>1437.4000244141</ele>
        <time>2019-09-28T07:28:16Z</time>
      </trkpt>
      <trkpt lat="42.99095" lon="-0.22055">
        <ele>1437.8000488281</ele>
        <time>2019-09-28T07:28:17Z</time>
      </trkpt>
      <trkpt lat="42.99095" lon="-0.22057">
        <ele>1438.1999511719</ele>
        <time>2019-09-28T07:28:18Z</time>
      </trkpt>
      <trkpt lat="42.99096" lon="-0.22059">
        <ele>1438.5999755859</ele>
        <time>2019-09-28T07:28:19Z</time>
      </trkpt>
      <trkpt lat="42.99097" lon="-0.22061">
        <ele>1439</ele>
        <time>2019-09-28T07:28:20Z</time>
      </trkpt>
      <trkpt lat="42.99097" lon="-0.22063">
        <ele>1439.4000244141</ele>
        <time>2019-09-28T07:28:21Z</time>
      </trkpt>
      <trkpt lat="42.99098" lon="-0.22067">
        <ele>1439.4000244141</ele>
        <time>2019-09-28T07:28:23Z</time>
      </trkpt>
      <trkpt lat="42.99102" lon="-0.22077">
        <ele>1439.8000488281</ele>
        <time>2019-09-28T07:28:28Z</time>
      </trkpt>
      <trkpt lat="42.99102" lon="-0.22079">
        <ele>1440.1999511719</ele>
        <time>2019-09-28T07:28:29Z</time>
      </trkpt>
      <trkpt lat="42.99103" lon="-0.22081">
        <ele>1440.5999755859</ele>
        <time>2019-09-28T07:28:30Z</time>
      </trkpt>
      <trkpt lat="42.99103" lon="-0.22083">
        <ele>1441</ele>
        <time>2019-09-28T07:28:31Z</time>
      </trkpt>
      <trkpt lat="42.99104" lon="-0.22085">
        <ele>1441.4000244141</ele>
        <time>2019-09-28T07:28:32Z</time>
      </trkpt>
      <trkpt lat="42.99106" lon="-0.22096">
        <ele>1441.4000244141</ele>
        <time>2019-09-28T07:28:37Z</time>
      </trkpt>
      <trkpt lat="42.99107" lon="-0.22102">
        <ele>1441.8000488281</ele>
        <time>2019-09-28T07:28:40Z</time>
      </trkpt>
      <trkpt lat="42.99108" lon="-0.22105">
        <ele>1442.1999511719</ele>
        <time>2019-09-28T07:28:41Z</time>
      </trkpt>
      <trkpt lat="42.99108" lon="-0.22107">
        <ele>1442.5999755859</ele>
        <time>2019-09-28T07:28:42Z</time>
      </trkpt>
      <trkpt lat="42.99108" lon="-0.22109">
        <ele>1443</ele>
        <time>2019-09-28T07:28:43Z</time>
      </trkpt>
      <trkpt lat="42.99109" lon="-0.22111">
        <ele>1443.4000244141</ele>
        <time>2019-09-28T07:28:44Z</time>
      </trkpt>
      <trkpt lat="42.99111" lon="-0.22122">
        <ele>1443.4000244141</ele>
        <time>2019-09-28T07:28:49Z</time>
      </trkpt>
      <trkpt lat="42.99113" lon="-0.22131">
        <ele>1443.8000488281</ele>
        <time>2019-09-28T07:28:53Z</time>
      </trkpt>
      <trkpt lat="42.99115" lon="-0.22133">
        <ele>1444.1999511719</ele>
        <time>2019-09-28T07:28:54Z</time>
      </trkpt>
      <trkpt lat="42.99115" lon="-0.22135">
        <ele>1444.5999755859</ele>
        <time>2019-09-28T07:28:55Z</time>
      </trkpt>
      <trkpt lat="42.99116" lon="-0.22137">
        <ele>1445.4000244141</ele>
        <time>2019-09-28T07:28:56Z</time>
      </trkpt>
      <trkpt lat="42.99122" lon="-0.2215">
        <ele>1446</ele>
        <time>2019-09-28T07:29:02Z</time>
      </trkpt>
      <trkpt lat="42.99123" lon="-0.22151">
        <ele>1446.4000244141</ele>
        <time>2019-09-28T07:29:03Z</time>
      </trkpt>
      <trkpt lat="42.99124" lon="-0.22153">
        <ele>1446.8000488281</ele>
        <time>2019-09-28T07:29:04Z</time>
      </trkpt>
      <trkpt lat="42.99125" lon="-0.22155">
        <ele>1447.1999511719</ele>
        <time>2019-09-28T07:29:05Z</time>
      </trkpt>
      <trkpt lat="42.99125" lon="-0.22157">
        <ele>1447.5999755859</ele>
        <time>2019-09-28T07:29:06Z</time>
      </trkpt>
      <trkpt lat="42.99127" lon="-0.22161">
        <ele>1448</ele>
        <time>2019-09-28T07:29:09Z</time>
      </trkpt>
      <trkpt lat="42.99128" lon="-0.22163">
        <ele>1448.4000244141</ele>
        <time>2019-09-28T07:29:10Z</time>
      </trkpt>
      <trkpt lat="42.99129" lon="-0.22165">
        <ele>1448.8000488281</ele>
        <time>2019-09-28T07:29:11Z</time>
      </trkpt>
      <trkpt lat="42.9913" lon="-0.22167">
        <ele>1449.1999511719</ele>
        <time>2019-09-28T07:29:12Z</time>
      </trkpt>
      <trkpt lat="42.99131" lon="-0.22168">
        <ele>1449.5999755859</ele>
        <time>2019-09-28T07:29:13Z</time>
      </trkpt>
      <trkpt lat="42.99135" lon="-0.22177">
        <ele>1450</ele>
        <time>2019-09-28T07:29:18Z</time>
      </trkpt>
      <trkpt lat="42.99135" lon="-0.22179">
        <ele>1450.5999755859</ele>
        <time>2019-09-28T07:29:19Z</time>
      </trkpt>
      <trkpt lat="42.99136" lon="-0.22181">
        <ele>1451</ele>
        <time>2019-09-28T07:29:20Z</time>
      </trkpt>
      <trkpt lat="42.99136" lon="-0.22183">
        <ele>1451.8000488281</ele>
        <time>2019-09-28T07:29:21Z</time>
      </trkpt>
      <trkpt lat="42.99138" lon="-0.22192">
        <ele>1451.8000488281</ele>
        <time>2019-09-28T07:29:26Z</time>
      </trkpt>
      <trkpt lat="42.99138" lon="-0.22197">
        <ele>1452.1999511719</ele>
        <time>2019-09-28T07:29:28Z</time>
      </trkpt>
      <trkpt lat="42.99138" lon="-0.22199">
        <ele>1452.5999755859</ele>
        <time>2019-09-28T07:29:29Z</time>
      </trkpt>
      <trkpt lat="42.99139" lon="-0.222">
        <ele>1453</ele>
        <time>2019-09-28T07:29:30Z</time>
      </trkpt>
      <trkpt lat="42.99139" lon="-0.22202">
        <ele>1453.4000244141</ele>
        <time>2019-09-28T07:29:31Z</time>
      </trkpt>
      <trkpt lat="42.99139" lon="-0.22204">
        <ele>1453.8000488281</ele>
        <time>2019-09-28T07:29:32Z</time>
      </trkpt>
      <trkpt lat="42.99142" lon="-0.22217">
        <ele>1453.8000488281</ele>
        <time>2019-09-28T07:29:38Z</time>
      </trkpt>
      <trkpt lat="42.99142" lon="-0.22218">
        <ele>1454.1999511719</ele>
        <time>2019-09-28T07:29:39Z</time>
      </trkpt>
      <trkpt lat="42.99142" lon="-0.2222">
        <ele>1454.5999755859</ele>
        <time>2019-09-28T07:29:40Z</time>
      </trkpt>
      <trkpt lat="42.99142" lon="-0.22222">
        <ele>1455</ele>
        <time>2019-09-28T07:29:41Z</time>
      </trkpt>
      <trkpt lat="42.99141" lon="-0.22224">
        <ele>1455.4000244141</ele>
        <time>2019-09-28T07:29:42Z</time>
      </trkpt>
      <trkpt lat="42.99141" lon="-0.22226">
        <ele>1455.8000488281</ele>
        <time>2019-09-28T07:29:43Z</time>
      </trkpt>
      <trkpt lat="42.9914" lon="-0.22228">
        <ele>1455.8000488281</ele>
        <time>2019-09-28T07:29:44Z</time>
      </trkpt>
      <trkpt lat="42.99133" lon="-0.22231">
        <ele>1456.4000244141</ele>
        <time>2019-09-28T07:29:49Z</time>
      </trkpt>
      <trkpt lat="42.99132" lon="-0.22231">
        <ele>1456.8000488281</ele>
        <time>2019-09-28T07:29:50Z</time>
      </trkpt>
      <trkpt lat="42.9913" lon="-0.2223">
        <ele>1457.1999511719</ele>
        <time>2019-09-28T07:29:51Z</time>
      </trkpt>
      <trkpt lat="42.99129" lon="-0.22229">
        <ele>1457.5999755859</ele>
        <time>2019-09-28T07:29:52Z</time>
      </trkpt>
      <trkpt lat="42.99127" lon="-0.22228">
        <ele>1458</ele>
        <time>2019-09-28T07:29:53Z</time>
      </trkpt>
      <trkpt lat="42.99121" lon="-0.22225">
        <ele>1458</ele>
        <time>2019-09-28T07:29:57Z</time>
      </trkpt>
      <trkpt lat="42.9911" lon="-0.22217">
        <ele>1458</ele>
        <time>2019-09-28T07:30:04Z</time>
      </trkpt>
      <trkpt lat="42.99106" lon="-0.22215">
        <ele>1458.4000244141</ele>
        <time>2019-09-28T07:30:07Z</time>
      </trkpt>
      <trkpt lat="42.99105" lon="-0.22213">
        <ele>1458.8000488281</ele>
        <time>2019-09-28T07:30:08Z</time>
      </trkpt>
      <trkpt lat="42.99104" lon="-0.22212">
        <ele>1459.4000244141</ele>
        <time>2019-09-28T07:30:09Z</time>
      </trkpt>
      <trkpt lat="42.99103" lon="-0.2221">
        <ele>1460.1999511719</ele>
        <time>2019-09-28T07:30:10Z</time>
      </trkpt>
      <trkpt lat="42.991" lon="-0.22207">
        <ele>1460.1999511719</ele>
        <time>2019-09-28T07:30:12Z</time>
      </trkpt>
      <trkpt lat="42.99092" lon="-0.22202">
        <ele>1460.1999511719</ele>
        <time>2019-09-28T07:30:18Z</time>
      </trkpt>
      <trkpt lat="42.99091" lon="-0.22203">
        <ele>1460.1999511719</ele>
        <time>2019-09-28T07:30:19Z</time>
      </trkpt>
      <trkpt lat="42.9909" lon="-0.22205">
        <ele>1460.5999755859</ele>
        <time>2019-09-28T07:30:20Z</time>
      </trkpt>
      <trkpt lat="42.9909" lon="-0.22207">
        <ele>1461</ele>
        <time>2019-09-28T07:30:21Z</time>
      </trkpt>
      <trkpt lat="42.99091" lon="-0.22209">
        <ele>1461.4000244141</ele>
        <time>2019-09-28T07:30:22Z</time>
      </trkpt>
      <trkpt lat="42.99092" lon="-0.22211">
        <ele>1461.8000488281</ele>
        <time>2019-09-28T07:30:23Z</time>
      </trkpt>
      <trkpt lat="42.99093" lon="-0.22212">
        <ele>1462.1999511719</ele>
        <time>2019-09-28T07:30:24Z</time>
      </trkpt>
      <trkpt lat="42.99096" lon="-0.22219">
        <ele>1462.1999511719</ele>
        <time>2019-09-28T07:30:28Z</time>
      </trkpt>
      <trkpt lat="42.99096" lon="-0.22221">
        <ele>1462.5999755859</ele>
        <time>2019-09-28T07:30:29Z</time>
      </trkpt>
      <trkpt lat="42.99097" lon="-0.22223">
        <ele>1463.1999511719</ele>
        <time>2019-09-28T07:30:30Z</time>
      </trkpt>
      <trkpt lat="42.99097" lon="-0.22225">
        <ele>1463.5999755859</ele>
        <time>2019-09-28T07:30:31Z</time>
      </trkpt>
      <trkpt lat="42.99098" lon="-0.22227">
        <ele>1464</ele>
        <time>2019-09-28T07:30:32Z</time>
      </trkpt>
      <trkpt lat="42.99099" lon="-0.22228">
        <ele>1464.4000244141</ele>
        <time>2019-09-28T07:30:33Z</time>
      </trkpt>
      <trkpt lat="42.991" lon="-0.2223">
        <ele>1464.4000244141</ele>
        <time>2019-09-28T07:30:34Z</time>
      </trkpt>
      <trkpt lat="42.99101" lon="-0.2224">
        <ele>1464.4000244141</ele>
        <time>2019-09-28T07:30:38Z</time>
      </trkpt>
      <trkpt lat="42.99101" lon="-0.22242">
        <ele>1464.8000488281</ele>
        <time>2019-09-28T07:30:39Z</time>
      </trkpt>
      <trkpt lat="42.99102" lon="-0.22244">
        <ele>1465.1999511719</ele>
        <time>2019-09-28T07:30:40Z</time>
      </trkpt>
      <trkpt lat="42.99103" lon="-0.22246">
        <ele>1465.5999755859</ele>
        <time>2019-09-28T07:30:41Z</time>
      </trkpt>
      <trkpt lat="42.99103" lon="-0.22248">
        <ele>1466.1999511719</ele>
        <time>2019-09-28T07:30:42Z</time>
      </trkpt>
      <trkpt lat="42.99104" lon="-0.2225">
        <ele>1466.5999755859</ele>
        <time>2019-09-28T07:30:43Z</time>
      </trkpt>
      <trkpt lat="42.99106" lon="-0.22259">
        <ele>1466.5999755859</ele>
        <time>2019-09-28T07:30:47Z</time>
      </trkpt>
      <trkpt lat="42.99107" lon="-0.22263">
        <ele>1467</ele>
        <time>2019-09-28T07:30:49Z</time>
      </trkpt>
      <trkpt lat="42.99108" lon="-0.22265">
        <ele>1467.4000244141</ele>
        <time>2019-09-28T07:30:50Z</time>
      </trkpt>
      <trkpt lat="42.99108" lon="-0.22267">
        <ele>1467.8000488281</ele>
        <time>2019-09-28T07:30:51Z</time>
      </trkpt>
      <trkpt lat="42.99109" lon="-0.22269">
        <ele>1468.1999511719</ele>
        <time>2019-09-28T07:30:52Z</time>
      </trkpt>
      <trkpt lat="42.9911" lon="-0.22271">
        <ele>1468.5999755859</ele>
        <time>2019-09-28T07:30:53Z</time>
      </trkpt>
      <trkpt lat="42.99113" lon="-0.22282">
        <ele>1469</ele>
        <time>2019-09-28T07:30:59Z</time>
      </trkpt>
      <trkpt lat="42.99114" lon="-0.22283">
        <ele>1469.8000488281</ele>
        <time>2019-09-28T07:31:00Z</time>
      </trkpt>
      <trkpt lat="42.99115" lon="-0.22285">
        <ele>1470.1999511719</ele>
        <time>2019-09-28T07:31:01Z</time>
      </trkpt>
      <trkpt lat="42.99116" lon="-0.22286">
        <ele>1470.5999755859</ele>
        <time>2019-09-28T07:31:02Z</time>
      </trkpt>
      <trkpt lat="42.99117" lon="-0.22295">
        <ele>1470.5999755859</ele>
        <time>2019-09-28T07:31:06Z</time>
      </trkpt>
      <trkpt lat="42.99118" lon="-0.22297">
        <ele>1471</ele>
        <time>2019-09-28T07:31:07Z</time>
      </trkpt>
      <trkpt lat="42.99118" lon="-0.22299">
        <ele>1471.4000244141</ele>
        <time>2019-09-28T07:31:08Z</time>
      </trkpt>
      <trkpt lat="42.99119" lon="-0.22302">
        <ele>1471.8000488281</ele>
        <time>2019-09-28T07:31:09Z</time>
      </trkpt>
      <trkpt lat="42.99119" lon="-0.22303">
        <ele>1472.1999511719</ele>
        <time>2019-09-28T07:31:10Z</time>
      </trkpt>
      <trkpt lat="42.99119" lon="-0.22305">
        <ele>1472.5999755859</ele>
        <time>2019-09-28T07:31:11Z</time>
      </trkpt>
      <trkpt lat="42.9912" lon="-0.22307">
        <ele>1472.5999755859</ele>
        <time>2019-09-28T07:31:13Z</time>
      </trkpt>
      <trkpt lat="42.99121" lon="-0.22315">
        <ele>1473</ele>
        <time>2019-09-28T07:31:17Z</time>
      </trkpt>
      <trkpt lat="42.99121" lon="-0.22316">
        <ele>1473.5999755859</ele>
        <time>2019-09-28T07:31:18Z</time>
      </trkpt>
      <trkpt lat="42.99121" lon="-0.22318">
        <ele>1474</ele>
        <time>2019-09-28T07:31:19Z</time>
      </trkpt>
      <trkpt lat="42.99121" lon="-0.2232">
        <ele>1474.4000244141</ele>
        <time>2019-09-28T07:31:20Z</time>
      </trkpt>
      <trkpt lat="42.99121" lon="-0.22323">
        <ele>1474.8000488281</ele>
        <time>2019-09-28T07:31:21Z</time>
      </trkpt>
      <trkpt lat="42.99123" lon="-0.22334">
        <ele>1474.8000488281</ele>
        <time>2019-09-28T07:31:26Z</time>
      </trkpt>
      <trkpt lat="42.99124" lon="-0.22335">
        <ele>1475.1999511719</ele>
        <time>2019-09-28T07:31:27Z</time>
      </trkpt>
      <trkpt lat="42.99124" lon="-0.22337">
        <ele>1475.5999755859</ele>
        <time>2019-09-28T07:31:28Z</time>
      </trkpt>
      <trkpt lat="42.99124" lon="-0.22339">
        <ele>1476</ele>
        <time>2019-09-28T07:31:29Z</time>
      </trkpt>
      <trkpt lat="42.99124" lon="-0.22342">
        <ele>1476.4000244141</ele>
        <time>2019-09-28T07:31:30Z</time>
      </trkpt>
      <trkpt lat="42.99124" lon="-0.22344">
        <ele>1476.8000488281</ele>
        <time>2019-09-28T07:31:31Z</time>
      </trkpt>
      <trkpt lat="42.99124" lon="-0.22347">
        <ele>1476.8000488281</ele>
        <time>2019-09-28T07:31:33Z</time>
      </trkpt>
      <trkpt lat="42.99125" lon="-0.22357">
        <ele>1477.1999511719</ele>
        <time>2019-09-28T07:31:38Z</time>
      </trkpt>
      <trkpt lat="42.99125" lon="-0.22359">
        <ele>1477.5999755859</ele>
        <time>2019-09-28T07:31:39Z</time>
      </trkpt>
      <trkpt lat="42.99125" lon="-0.22361">
        <ele>1478</ele>
        <time>2019-09-28T07:31:40Z</time>
      </trkpt>
      <trkpt lat="42.99125" lon="-0.22364">
        <ele>1478.5999755859</ele>
        <time>2019-09-28T07:31:41Z</time>
      </trkpt>
      <trkpt lat="42.99125" lon="-0.22366">
        <ele>1479</ele>
        <time>2019-09-28T07:31:42Z</time>
      </trkpt>
      <trkpt lat="42.99125" lon="-0.22373">
        <ele>1479</ele>
        <time>2019-09-28T07:31:45Z</time>
      </trkpt>
      <trkpt lat="42.99126" lon="-0.22381">
        <ele>1479.8000488281</ele>
        <time>2019-09-28T07:31:49Z</time>
      </trkpt>
      <trkpt lat="42.99126" lon="-0.22383">
        <ele>1480.1999511719</ele>
        <time>2019-09-28T07:31:50Z</time>
      </trkpt>
      <trkpt lat="42.99127" lon="-0.22384">
        <ele>1480.5999755859</ele>
        <time>2019-09-28T07:31:51Z</time>
      </trkpt>
      <trkpt lat="42.99127" lon="-0.22386">
        <ele>1481</ele>
        <time>2019-09-28T07:31:52Z</time>
      </trkpt>
      <trkpt lat="42.99128" lon="-0.22396">
        <ele>1481.4000244141</ele>
        <time>2019-09-28T07:31:57Z</time>
      </trkpt>
      <trkpt lat="42.99128" lon="-0.22398">
        <ele>1482</ele>
        <time>2019-09-28T07:31:58Z</time>
      </trkpt>
      <trkpt lat="42.99128" lon="-0.224">
        <ele>1482.4000244141</ele>
        <time>2019-09-28T07:31:59Z</time>
      </trkpt>
      <trkpt lat="42.99129" lon="-0.22402">
        <ele>1482.8000488281</ele>
        <time>2019-09-28T07:32:00Z</time>
      </trkpt>
      <trkpt lat="42.99129" lon="-0.22404">
        <ele>1483.1999511719</ele>
        <time>2019-09-28T07:32:01Z</time>
      </trkpt>
      <trkpt lat="42.99129" lon="-0.22413">
        <ele>1483.1999511719</ele>
        <time>2019-09-28T07:32:05Z</time>
      </trkpt>
      <trkpt lat="42.9913" lon="-0.22416">
        <ele>1483.5999755859</ele>
        <time>2019-09-28T07:32:07Z</time>
      </trkpt>
      <trkpt lat="42.9913" lon="-0.22419">
        <ele>1484</ele>
        <time>2019-09-28T07:32:08Z</time>
      </trkpt>
      <trkpt lat="42.9913" lon="-0.22421">
        <ele>1484.4000244141</ele>
        <time>2019-09-28T07:32:09Z</time>
      </trkpt>
      <trkpt lat="42.9913" lon="-0.22423">
        <ele>1485</ele>
        <time>2019-09-28T07:32:10Z</time>
      </trkpt>
      <trkpt lat="42.99131" lon="-0.22425">
        <ele>1485.4000244141</ele>
        <time>2019-09-28T07:32:11Z</time>
      </trkpt>
      <trkpt lat="42.99132" lon="-0.22437">
        <ele>1485.8000488281</ele>
        <time>2019-09-28T07:32:18Z</time>
      </trkpt>
      <trkpt lat="42.99132" lon="-0.22439">
        <ele>1486.1999511719</ele>
        <time>2019-09-28T07:32:19Z</time>
      </trkpt>
      <trkpt lat="42.99133" lon="-0.22441">
        <ele>1486.5999755859</ele>
        <time>2019-09-28T07:32:20Z</time>
      </trkpt>
      <trkpt lat="42.99133" lon="-0.22443">
        <ele>1487</ele>
        <time>2019-09-28T07:32:21Z</time>
      </trkpt>
      <trkpt lat="42.99133" lon="-0.22445">
        <ele>1487.5999755859</ele>
        <time>2019-09-28T07:32:22Z</time>
      </trkpt>
      <trkpt lat="42.99135" lon="-0.22451">
        <ele>1487.5999755859</ele>
        <time>2019-09-28T07:32:25Z</time>
      </trkpt>
      <trkpt lat="42.99137" lon="-0.22459">
        <ele>1488</ele>
        <time>2019-09-28T07:32:30Z</time>
      </trkpt>
      <trkpt lat="42.99137" lon="-0.22461">
        <ele>1488.4000244141</ele>
        <time>2019-09-28T07:32:31Z</time>
      </trkpt>
      <trkpt lat="42.99137" lon="-0.22463">
        <ele>1488.8000488281</ele>
        <time>2019-09-28T07:32:32Z</time>
      </trkpt>
      <trkpt lat="42.99137" lon="-0.22465">
        <ele>1489.1999511719</ele>
        <time>2019-09-28T07:32:33Z</time>
      </trkpt>
      <trkpt lat="42.99138" lon="-0.22466">
        <ele>1489.5999755859</ele>
        <time>2019-09-28T07:32:34Z</time>
      </trkpt>
      <trkpt lat="42.99139" lon="-0.22478">
        <ele>1489.5999755859</ele>
        <time>2019-09-28T07:32:40Z</time>
      </trkpt>
      <trkpt lat="42.99139" lon="-0.2248">
        <ele>1490</ele>
        <time>2019-09-28T07:32:41Z</time>
      </trkpt>
      <trkpt lat="42.99139" lon="-0.22482">
        <ele>1490.4000244141</ele>
        <time>2019-09-28T07:32:42Z</time>
      </trkpt>
      <trkpt lat="42.99139" lon="-0.22485">
        <ele>1490.8000488281</ele>
        <time>2019-09-28T07:32:43Z</time>
      </trkpt>
      <trkpt lat="42.99139" lon="-0.22487">
        <ele>1491.4000244141</ele>
        <time>2019-09-28T07:32:44Z</time>
      </trkpt>
      <trkpt lat="42.99139" lon="-0.22489">
        <ele>1491.8000488281</ele>
        <time>2019-09-28T07:32:45Z</time>
      </trkpt>
      <trkpt lat="42.9914" lon="-0.22493">
        <ele>1491.8000488281</ele>
        <time>2019-09-28T07:32:47Z</time>
      </trkpt>
      <trkpt lat="42.99143" lon="-0.22504">
        <ele>1491.8000488281</ele>
        <time>2019-09-28T07:32:53Z</time>
      </trkpt>
      <trkpt lat="42.99143" lon="-0.22506">
        <ele>1492.1999511719</ele>
        <time>2019-09-28T07:32:54Z</time>
      </trkpt>
      <trkpt lat="42.99144" lon="-0.22508">
        <ele>1492.5999755859</ele>
        <time>2019-09-28T07:32:55Z</time>
      </trkpt>
      <trkpt lat="42.99144" lon="-0.22509">
        <ele>1493</ele>
        <time>2019-09-28T07:32:56Z</time>
      </trkpt>
      <trkpt lat="42.99144" lon="-0.22512">
        <ele>1493.5999755859</ele>
        <time>2019-09-28T07:32:57Z</time>
      </trkpt>
      <trkpt lat="42.99144" lon="-0.22514">
        <ele>1494</ele>
        <time>2019-09-28T07:32:58Z</time>
      </trkpt>
      <trkpt lat="42.99145" lon="-0.22518">
        <ele>1494</ele>
        <time>2019-09-28T07:33:00Z</time>
      </trkpt>
      <trkpt lat="42.99146" lon="-0.22523">
        <ele>1494.4000244141</ele>
        <time>2019-09-28T07:33:03Z</time>
      </trkpt>
      <trkpt lat="42.99147" lon="-0.22525">
        <ele>1494.8000488281</ele>
        <time>2019-09-28T07:33:04Z</time>
      </trkpt>
      <trkpt lat="42.99148" lon="-0.22527">
        <ele>1495.1999511719</ele>
        <time>2019-09-28T07:33:05Z</time>
      </trkpt>
      <trkpt lat="42.99148" lon="-0.22528">
        <ele>1495.5999755859</ele>
        <time>2019-09-28T07:33:06Z</time>
      </trkpt>
      <trkpt lat="42.99148" lon="-0.2253">
        <ele>1496</ele>
        <time>2019-09-28T07:33:07Z</time>
      </trkpt>
      <trkpt lat="42.99151" lon="-0.22541">
        <ele>1496</ele>
        <time>2019-09-28T07:33:13Z</time>
      </trkpt>
      <trkpt lat="42.99151" lon="-0.22542">
        <ele>1496.5999755859</ele>
        <time>2019-09-28T07:33:14Z</time>
      </trkpt>
      <trkpt lat="42.99152" lon="-0.22544">
        <ele>1497</ele>
        <time>2019-09-28T07:33:15Z</time>
      </trkpt>
      <trkpt lat="42.99153" lon="-0.22546">
        <ele>1497.4000244141</ele>
        <time>2019-09-28T07:33:16Z</time>
      </trkpt>
      <trkpt lat="42.99153" lon="-0.22547">
        <ele>1497.8000488281</ele>
        <time>2019-09-28T07:33:17Z</time>
      </trkpt>
      <trkpt lat="42.99154" lon="-0.22549">
        <ele>1498.1999511719</ele>
        <time>2019-09-28T07:33:18Z</time>
      </trkpt>
      <trkpt lat="42.99155" lon="-0.22551">
        <ele>1498.1999511719</ele>
        <time>2019-09-28T07:33:19Z</time>
      </trkpt>
      <trkpt lat="42.99161" lon="-0.22559">
        <ele>1498.1999511719</ele>
        <time>2019-09-28T07:33:24Z</time>
      </trkpt>
      <trkpt lat="42.99163" lon="-0.22562">
        <ele>1498.5999755859</ele>
        <time>2019-09-28T07:33:26Z</time>
      </trkpt>
      <trkpt lat="42.99164" lon="-0.22564">
        <ele>1499</ele>
        <time>2019-09-28T07:33:27Z</time>
      </trkpt>
      <trkpt lat="42.99164" lon="-0.22566">
        <ele>1499.8000488281</ele>
        <time>2019-09-28T07:33:28Z</time>
      </trkpt>
      <trkpt lat="42.99164" lon="-0.22567">
        <ele>1500.4000244141</ele>
        <time>2019-09-28T07:33:29Z</time>
      </trkpt>
      <trkpt lat="42.99165" lon="-0.22571">
        <ele>1500.8000488281</ele>
        <time>2019-09-28T07:33:31Z</time>
      </trkpt>
      <trkpt lat="42.99166" lon="-0.22572">
        <ele>1501.1999511719</ele>
        <time>2019-09-28T07:33:32Z</time>
      </trkpt>
      <trkpt lat="42.99166" lon="-0.22573">
        <ele>1501.5999755859</ele>
        <time>2019-09-28T07:33:33Z</time>
      </trkpt>
      <trkpt lat="42.99167" lon="-0.22575">
        <ele>1502</ele>
        <time>2019-09-28T07:33:34Z</time>
      </trkpt>
      <trkpt lat="42.99167" lon="-0.22576">
        <ele>1502.4000244141</ele>
        <time>2019-09-28T07:33:35Z</time>
      </trkpt>
      <trkpt lat="42.99168" lon="-0.2258">
        <ele>1502.8000488281</ele>
        <time>2019-09-28T07:33:38Z</time>
      </trkpt>
      <trkpt lat="42.99168" lon="-0.22582">
        <ele>1503.1999511719</ele>
        <time>2019-09-28T07:33:39Z</time>
      </trkpt>
      <trkpt lat="42.99169" lon="-0.22583">
        <ele>1503.5999755859</ele>
        <time>2019-09-28T07:33:40Z</time>
      </trkpt>
      <trkpt lat="42.99169" lon="-0.22585">
        <ele>1504</ele>
        <time>2019-09-28T07:33:41Z</time>
      </trkpt>
      <trkpt lat="42.99169" lon="-0.22587">
        <ele>1504.4000244141</ele>
        <time>2019-09-28T07:33:42Z</time>
      </trkpt>
      <trkpt lat="42.99168" lon="-0.22593">
        <ele>1504.4000244141</ele>
        <time>2019-09-28T07:33:45Z</time>
      </trkpt>
      <trkpt lat="42.99163" lon="-0.22607">
        <ele>1504.4000244141</ele>
        <time>2019-09-28T07:33:52Z</time>
      </trkpt>
      <trkpt lat="42.99162" lon="-0.22611">
        <ele>1504.8000488281</ele>
        <time>2019-09-28T07:33:54Z</time>
      </trkpt>
      <trkpt lat="42.99161" lon="-0.22613">
        <ele>1505.1999511719</ele>
        <time>2019-09-28T07:33:55Z</time>
      </trkpt>
      <trkpt lat="42.9916" lon="-0.22615">
        <ele>1505.5999755859</ele>
        <time>2019-09-28T07:33:56Z</time>
      </trkpt>
      <trkpt lat="42.99159" lon="-0.22616">
        <ele>1506</ele>
        <time>2019-09-28T07:33:57Z</time>
      </trkpt>
      <trkpt lat="42.99158" lon="-0.22618">
        <ele>1506.4000244141</ele>
        <time>2019-09-28T07:33:58Z</time>
      </trkpt>
      <trkpt lat="42.99157" lon="-0.2262">
        <ele>1506.4000244141</ele>
        <time>2019-09-28T07:33:59Z</time>
      </trkpt>
      <trkpt lat="42.99155" lon="-0.22621">
        <ele>1506.4000244141</ele>
        <time>2019-09-28T07:34:00Z</time>
      </trkpt>
      <trkpt lat="42.99151" lon="-0.22627">
        <ele>1506.4000244141</ele>
        <time>2019-09-28T07:34:04Z</time>
      </trkpt>
      <trkpt lat="42.99145" lon="-0.22635">
        <ele>1506.8000488281</ele>
        <time>2019-09-28T07:34:10Z</time>
      </trkpt>
      <trkpt lat="42.99144" lon="-0.22636">
        <ele>1507.1999511719</ele>
        <time>2019-09-28T07:34:11Z</time>
      </trkpt>
      <trkpt lat="42.99144" lon="-0.22636">
        <ele>1507.8000488281</ele>
        <time>2019-09-28T07:34:12Z</time>
      </trkpt>
      <trkpt lat="42.99144" lon="-0.22636">
        <ele>1508.1999511719</ele>
        <time>2019-09-28T07:34:13Z</time>
      </trkpt>
      <trkpt lat="42.99144" lon="-0.22636">
        <ele>1508.5999755859</ele>
        <time>2019-09-28T07:34:14Z</time>
      </trkpt>
      <trkpt lat="42.99144" lon="-0.22636">
        <ele>1508.5999755859</ele>
        <time>2019-09-28T07:34:15Z</time>
      </trkpt>
      <trkpt lat="42.99144" lon="-0.22637">
        <ele>1508.5999755859</ele>
        <time>2019-09-28T07:34:19Z</time>
      </trkpt>
      <trkpt lat="42.99144" lon="-0.22637">
        <ele>1508.5999755859</ele>
        <time>2019-09-28T07:34:37Z</time>
      </trkpt>
      <trkpt lat="42.99144" lon="-0.22637">
        <ele>1508.5999755859</ele>
        <time>2019-09-28T07:34:59Z</time>
      </trkpt>
      <trkpt lat="42.99144" lon="-0.22637">
        <ele>1508.5999755859</ele>
        <time>2019-09-28T07:35:21Z</time>
      </trkpt>
      <trkpt lat="42.99144" lon="-0.22637">
        <ele>1508.5999755859</ele>
        <time>2019-09-28T07:35:40Z</time>
      </trkpt>
      <trkpt lat="42.99144" lon="-0.22637">
        <ele>1508.5999755859</ele>
        <time>2019-09-28T07:36:01Z</time>
      </trkpt>
      <trkpt lat="42.99144" lon="-0.22637">
        <ele>1508.5999755859</ele>
        <time>2019-09-28T07:36:18Z</time>
      </trkpt>
      <trkpt lat="42.99144" lon="-0.22636">
        <ele>1508.5999755859</ele>
        <time>2019-09-28T07:36:38Z</time>
      </trkpt>
      <trkpt lat="42.99145" lon="-0.22637">
        <ele>1508.5999755859</ele>
        <time>2019-09-28T07:36:56Z</time>
      </trkpt>
      <trkpt lat="42.99143" lon="-0.22639">
        <ele>1508.5999755859</ele>
        <time>2019-09-28T07:37:02Z</time>
      </trkpt>
      <trkpt lat="42.99143" lon="-0.22639">
        <ele>1508.5999755859</ele>
        <time>2019-09-28T07:37:14Z</time>
      </trkpt>
      <trkpt lat="42.99143" lon="-0.22639">
        <ele>1508.5999755859</ele>
        <time>2019-09-28T07:37:30Z</time>
      </trkpt>
      <trkpt lat="42.99143" lon="-0.22639">
        <ele>1508.5999755859</ele>
        <time>2019-09-28T07:37:41Z</time>
      </trkpt>
      <trkpt lat="42.99143" lon="-0.22639">
        <ele>1508.5999755859</ele>
        <time>2019-09-28T07:37:55Z</time>
      </trkpt>
      <trkpt lat="42.99143" lon="-0.22639">
        <ele>1508.5999755859</ele>
        <time>2019-09-28T07:38:06Z</time>
      </trkpt>
      <trkpt lat="42.99139" lon="-0.22643">
        <ele>1508.5999755859</ele>
        <time>2019-09-28T07:38:12Z</time>
      </trkpt>
      <trkpt lat="42.9913" lon="-0.22656">
        <ele>1508.5999755859</ele>
        <time>2019-09-28T07:38:18Z</time>
      </trkpt>
      <trkpt lat="42.99117" lon="-0.22666">
        <ele>1508.5999755859</ele>
        <time>2019-09-28T07:38:23Z</time>
      </trkpt>
      <trkpt lat="42.99114" lon="-0.22669">
        <ele>1508.1999511719</ele>
        <time>2019-09-28T07:38:24Z</time>
      </trkpt>
      <trkpt lat="42.99111" lon="-0.22672">
        <ele>1507.4000244141</ele>
        <time>2019-09-28T07:38:25Z</time>
      </trkpt>
      <trkpt lat="42.99108" lon="-0.22675">
        <ele>1507</ele>
        <time>2019-09-28T07:38:26Z</time>
      </trkpt>
      <trkpt lat="42.99105" lon="-0.22678">
        <ele>1506.5999755859</ele>
        <time>2019-09-28T07:38:27Z</time>
      </trkpt>
      <trkpt lat="42.99095" lon="-0.22686">
        <ele>1506.5999755859</ele>
        <time>2019-09-28T07:38:30Z</time>
      </trkpt>
      <trkpt lat="42.99073" lon="-0.22706">
        <ele>1506.5999755859</ele>
        <time>2019-09-28T07:38:37Z</time>
      </trkpt>
      <trkpt lat="42.99054" lon="-0.22716">
        <ele>1506.5999755859</ele>
        <time>2019-09-28T07:38:43Z</time>
      </trkpt>
      <trkpt lat="42.99035" lon="-0.22716">
        <ele>1506.5999755859</ele>
        <time>2019-09-28T07:38:49Z</time>
      </trkpt>
      <trkpt lat="42.99015" lon="-0.22707">
        <ele>1506.5999755859</ele>
        <time>2019-09-28T07:38:56Z</time>
      </trkpt>
      <trkpt lat="42.98997" lon="-0.22695">
        <ele>1506.5999755859</ele>
        <time>2019-09-28T07:39:03Z</time>
      </trkpt>
      <trkpt lat="42.98994" lon="-0.22693">
        <ele>1507</ele>
        <time>2019-09-28T07:39:04Z</time>
      </trkpt>
      <trkpt lat="42.98992" lon="-0.22692">
        <ele>1507.4000244141</ele>
        <time>2019-09-28T07:39:05Z</time>
      </trkpt>
      <trkpt lat="42.98989" lon="-0.2269">
        <ele>1507.8000488281</ele>
        <time>2019-09-28T07:39:06Z</time>
      </trkpt>
      <trkpt lat="42.98987" lon="-0.22688">
        <ele>1508.1999511719</ele>
        <time>2019-09-28T07:39:07Z</time>
      </trkpt>
      <trkpt lat="42.98984" lon="-0.22686">
        <ele>1508.5999755859</ele>
        <time>2019-09-28T07:39:08Z</time>
      </trkpt>
      <trkpt lat="42.98978" lon="-0.22683">
        <ele>1508.5999755859</ele>
        <time>2019-09-28T07:39:10Z</time>
      </trkpt>
      <trkpt lat="42.98962" lon="-0.22674">
        <ele>1509</ele>
        <time>2019-09-28T07:39:16Z</time>
      </trkpt>
      <trkpt lat="42.98959" lon="-0.22674">
        <ele>1509.4000244141</ele>
        <time>2019-09-28T07:39:17Z</time>
      </trkpt>
      <trkpt lat="42.98957" lon="-0.22673">
        <ele>1509.8000488281</ele>
        <time>2019-09-28T07:39:18Z</time>
      </trkpt>
      <trkpt lat="42.98954" lon="-0.22673">
        <ele>1510.1999511719</ele>
        <time>2019-09-28T07:39:19Z</time>
      </trkpt>
      <trkpt lat="42.98951" lon="-0.22672">
        <ele>1510.8000488281</ele>
        <time>2019-09-28T07:39:20Z</time>
      </trkpt>
      <trkpt lat="42.98947" lon="-0.22672">
        <ele>1510.8000488281</ele>
        <time>2019-09-28T07:39:21Z</time>
      </trkpt>
      <trkpt lat="42.98924" lon="-0.22677">
        <ele>1510.8000488281</ele>
        <time>2019-09-28T07:39:28Z</time>
      </trkpt>
      <trkpt lat="42.98899" lon="-0.22688">
        <ele>1510.8000488281</ele>
        <time>2019-09-28T07:39:35Z</time>
      </trkpt>
      <trkpt lat="42.98882" lon="-0.22695">
        <ele>1510.8000488281</ele>
        <time>2019-09-28T07:39:40Z</time>
      </trkpt>
      <trkpt lat="42.9887" lon="-0.22699">
        <ele>1511.1999511719</ele>
        <time>2019-09-28T07:39:44Z</time>
      </trkpt>
      <trkpt lat="42.98867" lon="-0.227">
        <ele>1511.5999755859</ele>
        <time>2019-09-28T07:39:45Z</time>
      </trkpt>
      <trkpt lat="42.98864" lon="-0.22701">
        <ele>1512</ele>
        <time>2019-09-28T07:39:46Z</time>
      </trkpt>
      <trkpt lat="42.98861" lon="-0.22702">
        <ele>1512.5999755859</ele>
        <time>2019-09-28T07:39:47Z</time>
      </trkpt>
      <trkpt lat="42.98857" lon="-0.22702">
        <ele>1513</ele>
        <time>2019-09-28T07:39:48Z</time>
      </trkpt>
      <trkpt lat="42.98839" lon="-0.22708">
        <ele>1513</ele>
        <time>2019-09-28T07:39:54Z</time>
      </trkpt>
      <trkpt lat="42.98825" lon="-0.22718">
        <ele>1513</ele>
        <time>2019-09-28T07:39:59Z</time>
      </trkpt>
      <trkpt lat="42.9881" lon="-0.22725">
        <ele>1513</ele>
        <time>2019-09-28T07:40:04Z</time>
      </trkpt>
      <trkpt lat="42.98793" lon="-0.22737">
        <ele>1513</ele>
        <time>2019-09-28T07:40:10Z</time>
      </trkpt>
      <trkpt lat="42.98782" lon="-0.22743">
        <ele>1513.4000244141</ele>
        <time>2019-09-28T07:40:14Z</time>
      </trkpt>
      <trkpt lat="42.98779" lon="-0.22745">
        <ele>1513.8000488281</ele>
        <time>2019-09-28T07:40:15Z</time>
      </trkpt>
      <trkpt lat="42.98776" lon="-0.22746">
        <ele>1514.1999511719</ele>
        <time>2019-09-28T07:40:16Z</time>
      </trkpt>
      <trkpt lat="42.98773" lon="-0.22748">
        <ele>1514.8000488281</ele>
        <time>2019-09-28T07:40:17Z</time>
      </trkpt>
      <trkpt lat="42.9877" lon="-0.22749">
        <ele>1515.1999511719</ele>
        <time>2019-09-28T07:40:18Z</time>
      </trkpt>
      <trkpt lat="42.98758" lon="-0.22752">
        <ele>1515.1999511719</ele>
        <time>2019-09-28T07:40:22Z</time>
      </trkpt>
      <trkpt lat="42.98738" lon="-0.22756">
        <ele>1515.1999511719</ele>
        <time>2019-09-28T07:40:28Z</time>
      </trkpt>
      <trkpt lat="42.98725" lon="-0.22763">
        <ele>1515.1999511719</ele>
        <time>2019-09-28T07:40:33Z</time>
      </trkpt>
      <trkpt lat="42.98711" lon="-0.22775">
        <ele>1515.1999511719</ele>
        <time>2019-09-28T07:40:39Z</time>
      </trkpt>
      <trkpt lat="42.98701" lon="-0.22795">
        <ele>1515.1999511719</ele>
        <time>2019-09-28T07:40:45Z</time>
      </trkpt>
      <trkpt lat="42.98689" lon="-0.22815">
        <ele>1515.1999511719</ele>
        <time>2019-09-28T07:40:51Z</time>
      </trkpt>
      <trkpt lat="42.98678" lon="-0.22822">
        <ele>1515.1999511719</ele>
        <time>2019-09-28T07:40:55Z</time>
      </trkpt>
      <trkpt lat="42.98654" lon="-0.22824">
        <ele>1515.1999511719</ele>
        <time>2019-09-28T07:41:02Z</time>
      </trkpt>
      <trkpt lat="42.98628" lon="-0.22824">
        <ele>1515.1999511719</ele>
        <time>2019-09-28T07:41:09Z</time>
      </trkpt>
      <trkpt lat="42.98615" lon="-0.22826">
        <ele>1515.1999511719</ele>
        <time>2019-09-28T07:41:12Z</time>
      </trkpt>
      <trkpt lat="42.98603" lon="-0.22831">
        <ele>1515.1999511719</ele>
        <time>2019-09-28T07:41:15Z</time>
      </trkpt>
      <trkpt lat="42.98585" lon="-0.22837">
        <ele>1514.5999755859</ele>
        <time>2019-09-28T07:41:19Z</time>
      </trkpt>
      <trkpt lat="42.98581" lon="-0.22839">
        <ele>1514.1999511719</ele>
        <time>2019-09-28T07:41:20Z</time>
      </trkpt>
      <trkpt lat="42.98576" lon="-0.22841">
        <ele>1513.8000488281</ele>
        <time>2019-09-28T07:41:21Z</time>
      </trkpt>
      <trkpt lat="42.98572" lon="-0.22843">
        <ele>1513.4000244141</ele>
        <time>2019-09-28T07:41:22Z</time>
      </trkpt>
      <trkpt lat="42.98568" lon="-0.22846">
        <ele>1513</ele>
        <time>2019-09-28T07:41:23Z</time>
      </trkpt>
      <trkpt lat="42.98548" lon="-0.22862">
        <ele>1513</ele>
        <time>2019-09-28T07:41:28Z</time>
      </trkpt>
      <trkpt lat="42.98537" lon="-0.22871">
        <ele>1513</ele>
        <time>2019-09-28T07:41:31Z</time>
      </trkpt>
      <trkpt lat="42.98532" lon="-0.22878">
        <ele>1513</ele>
        <time>2019-09-28T07:41:33Z</time>
      </trkpt>
      <trkpt lat="42.98523" lon="-0.22901">
        <ele>1513</ele>
        <time>2019-09-28T07:41:38Z</time>
      </trkpt>
      <trkpt lat="42.98519" lon="-0.22924">
        <ele>1512.4000244141</ele>
        <time>2019-09-28T07:41:42Z</time>
      </trkpt>
      <trkpt lat="42.98518" lon="-0.2293">
        <ele>1511.5999755859</ele>
        <time>2019-09-28T07:41:43Z</time>
      </trkpt>
      <trkpt lat="42.98519" lon="-0.22936">
        <ele>1511</ele>
        <time>2019-09-28T07:41:44Z</time>
      </trkpt>
      <trkpt lat="42.9852" lon="-0.22942">
        <ele>1510.5999755859</ele>
        <time>2019-09-28T07:41:45Z</time>
      </trkpt>
      <trkpt lat="42.98524" lon="-0.22962">
        <ele>1510.1999511719</ele>
        <time>2019-09-28T07:41:48Z</time>
      </trkpt>
      <trkpt lat="42.98525" lon="-0.22968">
        <ele>1509.8000488281</ele>
        <time>2019-09-28T07:41:49Z</time>
      </trkpt>
      <trkpt lat="42.98526" lon="-0.22975">
        <ele>1509.1999511719</ele>
        <time>2019-09-28T07:41:50Z</time>
      </trkpt>
      <trkpt lat="42.98528" lon="-0.22982">
        <ele>1508.8000488281</ele>
        <time>2019-09-28T07:41:51Z</time>
      </trkpt>
      <trkpt lat="42.9853" lon="-0.22988">
        <ele>1508.1999511719</ele>
        <time>2019-09-28T07:41:52Z</time>
      </trkpt>
      <trkpt lat="42.98532" lon="-0.22994">
        <ele>1507.5999755859</ele>
        <time>2019-09-28T07:41:53Z</time>
      </trkpt>
      <trkpt lat="42.98535" lon="-0.23">
        <ele>1507</ele>
        <time>2019-09-28T07:41:54Z</time>
      </trkpt>
      <trkpt lat="42.98538" lon="-0.23005">
        <ele>1506.4000244141</ele>
        <time>2019-09-28T07:41:55Z</time>
      </trkpt>
      <trkpt lat="42.98541" lon="-0.23009">
        <ele>1506</ele>
        <time>2019-09-28T07:41:56Z</time>
      </trkpt>
      <trkpt lat="42.98544" lon="-0.23013">
        <ele>1505.4000244141</ele>
        <time>2019-09-28T07:41:57Z</time>
      </trkpt>
      <trkpt lat="42.98547" lon="-0.23017">
        <ele>1505</ele>
        <time>2019-09-28T07:41:58Z</time>
      </trkpt>
      <trkpt lat="42.98549" lon="-0.2302">
        <ele>1504.5999755859</ele>
        <time>2019-09-28T07:41:59Z</time>
      </trkpt>
      <trkpt lat="42.98552" lon="-0.23024">
        <ele>1504.1999511719</ele>
        <time>2019-09-28T07:42:00Z</time>
      </trkpt>
      <trkpt lat="42.98555" lon="-0.23029">
        <ele>1503.8000488281</ele>
        <time>2019-09-28T07:42:01Z</time>
      </trkpt>
      <trkpt lat="42.98558" lon="-0.23034">
        <ele>1503.8000488281</ele>
        <time>2019-09-28T07:42:02Z</time>
      </trkpt>
      <trkpt lat="42.98563" lon="-0.23045">
        <ele>1503.8000488281</ele>
        <time>2019-09-28T07:42:04Z</time>
      </trkpt>
      <trkpt lat="42.98565" lon="-0.23052">
        <ele>1503.4000244141</ele>
        <time>2019-09-28T07:42:05Z</time>
      </trkpt>
      <trkpt lat="42.98567" lon="-0.23058">
        <ele>1503</ele>
        <time>2019-09-28T07:42:06Z</time>
      </trkpt>
      <trkpt lat="42.98569" lon="-0.23065">
        <ele>1502</ele>
        <time>2019-09-28T07:42:07Z</time>
      </trkpt>
      <trkpt lat="42.9857" lon="-0.2307">
        <ele>1501.5999755859</ele>
        <time>2019-09-28T07:42:08Z</time>
      </trkpt>
      <trkpt lat="42.98572" lon="-0.23076">
        <ele>1501.5999755859</ele>
        <time>2019-09-28T07:42:09Z</time>
      </trkpt>
      <trkpt lat="42.98573" lon="-0.23082">
        <ele>1501.1999511719</ele>
        <time>2019-09-28T07:42:10Z</time>
      </trkpt>
      <trkpt lat="42.98574" lon="-0.23087">
        <ele>1500.8000488281</ele>
        <time>2019-09-28T07:42:11Z</time>
      </trkpt>
      <trkpt lat="42.98574" lon="-0.23093">
        <ele>1500.4000244141</ele>
        <time>2019-09-28T07:42:12Z</time>
      </trkpt>
      <trkpt lat="42.98575" lon="-0.23098">
        <ele>1500</ele>
        <time>2019-09-28T07:42:13Z</time>
      </trkpt>
      <trkpt lat="42.98576" lon="-0.23104">
        <ele>1499.5999755859</ele>
        <time>2019-09-28T07:42:14Z</time>
      </trkpt>
      <trkpt lat="42.98578" lon="-0.23114">
        <ele>1499.1999511719</ele>
        <time>2019-09-28T07:42:16Z</time>
      </trkpt>
      <trkpt lat="42.98579" lon="-0.2312">
        <ele>1498.5999755859</ele>
        <time>2019-09-28T07:42:17Z</time>
      </trkpt>
      <trkpt lat="42.9858" lon="-0.23127">
        <ele>1498.1999511719</ele>
        <time>2019-09-28T07:42:18Z</time>
      </trkpt>
      <trkpt lat="42.9858" lon="-0.23133">
        <ele>1497.8000488281</ele>
        <time>2019-09-28T07:42:19Z</time>
      </trkpt>
      <trkpt lat="42.98581" lon="-0.23138">
        <ele>1497.4000244141</ele>
        <time>2019-09-28T07:42:20Z</time>
      </trkpt>
      <trkpt lat="42.98581" lon="-0.23144">
        <ele>1496.8000488281</ele>
        <time>2019-09-28T07:42:21Z</time>
      </trkpt>
      <trkpt lat="42.98581" lon="-0.2315">
        <ele>1496.4000244141</ele>
        <time>2019-09-28T07:42:22Z</time>
      </trkpt>
      <trkpt lat="42.98581" lon="-0.23155">
        <ele>1496</ele>
        <time>2019-09-28T07:42:23Z</time>
      </trkpt>
      <trkpt lat="42.98581" lon="-0.2316">
        <ele>1495.4000244141</ele>
        <time>2019-09-28T07:42:24Z</time>
      </trkpt>
      <trkpt lat="42.98581" lon="-0.23167">
        <ele>1495</ele>
        <time>2019-09-28T07:42:25Z</time>
      </trkpt>
      <trkpt lat="42.9858" lon="-0.23179">
        <ele>1494.5999755859</ele>
        <time>2019-09-28T07:42:27Z</time>
      </trkpt>
      <trkpt lat="42.9858" lon="-0.23186">
        <ele>1494.1999511719</ele>
        <time>2019-09-28T07:42:28Z</time>
      </trkpt>
      <trkpt lat="42.9858" lon="-0.23194">
        <ele>1493.5999755859</ele>
        <time>2019-09-28T07:42:29Z</time>
      </trkpt>
      <trkpt lat="42.98579" lon="-0.23201">
        <ele>1493.1999511719</ele>
        <time>2019-09-28T07:42:30Z</time>
      </trkpt>
      <trkpt lat="42.98578" lon="-0.23208">
        <ele>1492.8000488281</ele>
        <time>2019-09-28T07:42:31Z</time>
      </trkpt>
      <trkpt lat="42.98577" lon="-0.23215">
        <ele>1491.8000488281</ele>
        <time>2019-09-28T07:42:32Z</time>
      </trkpt>
      <trkpt lat="42.98576" lon="-0.23221">
        <ele>1491.4000244141</ele>
        <time>2019-09-28T07:42:33Z</time>
      </trkpt>
      <trkpt lat="42.98575" lon="-0.23227">
        <ele>1491</ele>
        <time>2019-09-28T07:42:34Z</time>
      </trkpt>
      <trkpt lat="42.98575" lon="-0.23233">
        <ele>1490.5999755859</ele>
        <time>2019-09-28T07:42:35Z</time>
      </trkpt>
      <trkpt lat="42.98571" lon="-0.23259">
        <ele>1490.5999755859</ele>
        <time>2019-09-28T07:42:40Z</time>
      </trkpt>
      <trkpt lat="42.98567" lon="-0.23286">
        <ele>1491</ele>
        <time>2019-09-28T07:42:46Z</time>
      </trkpt>
      <trkpt lat="42.98567" lon="-0.2329">
        <ele>1491.5999755859</ele>
        <time>2019-09-28T07:42:47Z</time>
      </trkpt>
      <trkpt lat="42.98566" lon="-0.23294">
        <ele>1492</ele>
        <time>2019-09-28T07:42:48Z</time>
      </trkpt>
      <trkpt lat="42.98566" lon="-0.23299">
        <ele>1492.4000244141</ele>
        <time>2019-09-28T07:42:49Z</time>
      </trkpt>
      <trkpt lat="42.98566" lon="-0.23303">
        <ele>1492.8000488281</ele>
        <time>2019-09-28T07:42:50Z</time>
      </trkpt>
      <trkpt lat="42.9857" lon="-0.23319">
        <ele>1492.8000488281</ele>
        <time>2019-09-28T07:42:54Z</time>
      </trkpt>
      <trkpt lat="42.98581" lon="-0.2334">
        <ele>1492.8000488281</ele>
        <time>2019-09-28T07:43:00Z</time>
      </trkpt>
      <trkpt lat="42.98587" lon="-0.23363">
        <ele>1492.8000488281</ele>
        <time>2019-09-28T07:43:05Z</time>
      </trkpt>
      <trkpt lat="42.98586" lon="-0.23382">
        <ele>1492.4000244141</ele>
        <time>2019-09-28T07:43:09Z</time>
      </trkpt>
      <trkpt lat="42.98586" lon="-0.23387">
        <ele>1492</ele>
        <time>2019-09-28T07:43:10Z</time>
      </trkpt>
      <trkpt lat="42.98586" lon="-0.23391">
        <ele>1491.4000244141</ele>
        <time>2019-09-28T07:43:11Z</time>
      </trkpt>
      <trkpt lat="42.98585" lon="-0.23396">
        <ele>1491</ele>
        <time>2019-09-28T07:43:12Z</time>
      </trkpt>
      <trkpt lat="42.98584" lon="-0.234">
        <ele>1490.5999755859</ele>
        <time>2019-09-28T07:43:13Z</time>
      </trkpt>
      <trkpt lat="42.98584" lon="-0.23416">
        <ele>1490.1999511719</ele>
        <time>2019-09-28T07:43:16Z</time>
      </trkpt>
      <trkpt lat="42.98583" lon="-0.23421">
        <ele>1489.8000488281</ele>
        <time>2019-09-28T07:43:17Z</time>
      </trkpt>
      <trkpt lat="42.98583" lon="-0.23427">
        <ele>1489.4000244141</ele>
        <time>2019-09-28T07:43:18Z</time>
      </trkpt>
      <trkpt lat="42.98583" lon="-0.23433">
        <ele>1489</ele>
        <time>2019-09-28T07:43:19Z</time>
      </trkpt>
      <trkpt lat="42.98581" lon="-0.23439">
        <ele>1488.5999755859</ele>
        <time>2019-09-28T07:43:20Z</time>
      </trkpt>
      <trkpt lat="42.9858" lon="-0.23445">
        <ele>1488</ele>
        <time>2019-09-28T07:43:21Z</time>
      </trkpt>
      <trkpt lat="42.98579" lon="-0.23452">
        <ele>1487.5999755859</ele>
        <time>2019-09-28T07:43:22Z</time>
      </trkpt>
      <trkpt lat="42.98577" lon="-0.23458">
        <ele>1486.5999755859</ele>
        <time>2019-09-28T07:43:23Z</time>
      </trkpt>
      <trkpt lat="42.98574" lon="-0.23464">
        <ele>1486</ele>
        <time>2019-09-28T07:43:24Z</time>
      </trkpt>
      <trkpt lat="42.9857" lon="-0.23476">
        <ele>1485.5999755859</ele>
        <time>2019-09-28T07:43:26Z</time>
      </trkpt>
      <trkpt lat="42.98569" lon="-0.23483">
        <ele>1485.1999511719</ele>
        <time>2019-09-28T07:43:27Z</time>
      </trkpt>
      <trkpt lat="42.98567" lon="-0.23489">
        <ele>1484.8000488281</ele>
        <time>2019-09-28T07:43:28Z</time>
      </trkpt>
      <trkpt lat="42.98565" lon="-0.23495">
        <ele>1484.4000244141</ele>
        <time>2019-09-28T07:43:29Z</time>
      </trkpt>
      <trkpt lat="42.98562" lon="-0.23502">
        <ele>1484</ele>
        <time>2019-09-28T07:43:30Z</time>
      </trkpt>
      <trkpt lat="42.98557" lon="-0.23507">
        <ele>1483.4000244141</ele>
        <time>2019-09-28T07:43:31Z</time>
      </trkpt>
      <trkpt lat="42.98553" lon="-0.23514">
        <ele>1482.8000488281</ele>
        <time>2019-09-28T07:43:32Z</time>
      </trkpt>
      <trkpt lat="42.98551" lon="-0.2352">
        <ele>1482.1999511719</ele>
        <time>2019-09-28T07:43:33Z</time>
      </trkpt>
      <trkpt lat="42.98549" lon="-0.23527">
        <ele>1481.8000488281</ele>
        <time>2019-09-28T07:43:34Z</time>
      </trkpt>
      <trkpt lat="42.98549" lon="-0.23534">
        <ele>1481.1999511719</ele>
        <time>2019-09-28T07:43:35Z</time>
      </trkpt>
      <trkpt lat="42.9855" lon="-0.23548">
        <ele>1481.1999511719</ele>
        <time>2019-09-28T07:43:37Z</time>
      </trkpt>
      <trkpt lat="42.98551" lon="-0.23564">
        <ele>1481.1999511719</ele>
        <time>2019-09-28T07:43:39Z</time>
      </trkpt>
      <trkpt lat="42.9855" lon="-0.23572">
        <ele>1480.8000488281</ele>
        <time>2019-09-28T07:43:40Z</time>
      </trkpt>
      <trkpt lat="42.98549" lon="-0.2358">
        <ele>1480.4000244141</ele>
        <time>2019-09-28T07:43:41Z</time>
      </trkpt>
      <trkpt lat="42.98549" lon="-0.23588">
        <ele>1480</ele>
        <time>2019-09-28T07:43:42Z</time>
      </trkpt>
      <trkpt lat="42.98549" lon="-0.23597">
        <ele>1479.4000244141</ele>
        <time>2019-09-28T07:43:43Z</time>
      </trkpt>
      <trkpt lat="42.9855" lon="-0.23607">
        <ele>1478.8000488281</ele>
        <time>2019-09-28T07:43:44Z</time>
      </trkpt>
      <trkpt lat="42.9855" lon="-0.23617">
        <ele>1478.1999511719</ele>
        <time>2019-09-28T07:43:45Z</time>
      </trkpt>
      <trkpt lat="42.98552" lon="-0.23626">
        <ele>1477.4000244141</ele>
        <time>2019-09-28T07:43:46Z</time>
      </trkpt>
      <trkpt lat="42.98555" lon="-0.23633">
        <ele>1476.4000244141</ele>
        <time>2019-09-28T07:43:47Z</time>
      </trkpt>
      <trkpt lat="42.98557" lon="-0.23641">
        <ele>1475.8000488281</ele>
        <time>2019-09-28T07:43:48Z</time>
      </trkpt>
      <trkpt lat="42.98558" lon="-0.23649">
        <ele>1475.1999511719</ele>
        <time>2019-09-28T07:43:49Z</time>
      </trkpt>
      <trkpt lat="42.98558" lon="-0.23657">
        <ele>1474.5999755859</ele>
        <time>2019-09-28T07:43:50Z</time>
      </trkpt>
      <trkpt lat="42.98557" lon="-0.23666">
        <ele>1474</ele>
        <time>2019-09-28T07:43:51Z</time>
      </trkpt>
      <trkpt lat="42.98557" lon="-0.23676">
        <ele>1473.4000244141</ele>
        <time>2019-09-28T07:43:52Z</time>
      </trkpt>
      <trkpt lat="42.98557" lon="-0.23685">
        <ele>1473</ele>
        <time>2019-09-28T07:43:53Z</time>
      </trkpt>
      <trkpt lat="42.98558" lon="-0.23694">
        <ele>1472.1999511719</ele>
        <time>2019-09-28T07:43:54Z</time>
      </trkpt>
      <trkpt lat="42.98559" lon="-0.23704">
        <ele>1471.5999755859</ele>
        <time>2019-09-28T07:43:55Z</time>
      </trkpt>
      <trkpt lat="42.9856" lon="-0.23713">
        <ele>1470.8000488281</ele>
        <time>2019-09-28T07:43:56Z</time>
      </trkpt>
      <trkpt lat="42.98561" lon="-0.23722">
        <ele>1470.1999511719</ele>
        <time>2019-09-28T07:43:57Z</time>
      </trkpt>
      <trkpt lat="42.98562" lon="-0.23731">
        <ele>1469.4000244141</ele>
        <time>2019-09-28T07:43:58Z</time>
      </trkpt>
      <trkpt lat="42.98563" lon="-0.23738">
        <ele>1468.8000488281</ele>
        <time>2019-09-28T07:43:59Z</time>
      </trkpt>
      <trkpt lat="42.98565" lon="-0.23744">
        <ele>1468</ele>
        <time>2019-09-28T07:44:00Z</time>
      </trkpt>
      <trkpt lat="42.98566" lon="-0.2375">
        <ele>1467.1999511719</ele>
        <time>2019-09-28T07:44:01Z</time>
      </trkpt>
      <trkpt lat="42.98568" lon="-0.23755">
        <ele>1467.1999511719</ele>
        <time>2019-09-28T07:44:02Z</time>
      </trkpt>
      <trkpt lat="42.98574" lon="-0.23776">
        <ele>1467.1999511719</ele>
        <time>2019-09-28T07:44:06Z</time>
      </trkpt>
      <trkpt lat="42.98576" lon="-0.23789">
        <ele>1466.8000488281</ele>
        <time>2019-09-28T07:44:09Z</time>
      </trkpt>
      <trkpt lat="42.98577" lon="-0.23793">
        <ele>1466.4000244141</ele>
        <time>2019-09-28T07:44:10Z</time>
      </trkpt>
      <trkpt lat="42.98577" lon="-0.23798">
        <ele>1466</ele>
        <time>2019-09-28T07:44:11Z</time>
      </trkpt>
      <trkpt lat="42.98579" lon="-0.23802">
        <ele>1465</ele>
        <time>2019-09-28T07:44:12Z</time>
      </trkpt>
      <trkpt lat="42.9859" lon="-0.23834">
        <ele>1465</ele>
        <time>2019-09-28T07:44:19Z</time>
      </trkpt>
      <trkpt lat="42.98592" lon="-0.2384">
        <ele>1464.5999755859</ele>
        <time>2019-09-28T07:44:20Z</time>
      </trkpt>
      <trkpt lat="42.98595" lon="-0.23844">
        <ele>1464.1999511719</ele>
        <time>2019-09-28T07:44:21Z</time>
      </trkpt>
      <trkpt lat="42.98597" lon="-0.23848">
        <ele>1463.8000488281</ele>
        <time>2019-09-28T07:44:22Z</time>
      </trkpt>
      <trkpt lat="42.986" lon="-0.23851">
        <ele>1463.4000244141</ele>
        <time>2019-09-28T07:44:23Z</time>
      </trkpt>
      <trkpt lat="42.98603" lon="-0.23854">
        <ele>1463</ele>
        <time>2019-09-28T07:44:24Z</time>
      </trkpt>
      <trkpt lat="42.98615" lon="-0.23866">
        <ele>1463</ele>
        <time>2019-09-28T07:44:28Z</time>
      </trkpt>
      <trkpt lat="42.98623" lon="-0.23873">
        <ele>1463</ele>
        <time>2019-09-28T07:44:30Z</time>
      </trkpt>
      <trkpt lat="42.98628" lon="-0.23877">
        <ele>1462.4000244141</ele>
        <time>2019-09-28T07:44:31Z</time>
      </trkpt>
      <trkpt lat="42.98633" lon="-0.23881">
        <ele>1462</ele>
        <time>2019-09-28T07:44:32Z</time>
      </trkpt>
      <trkpt lat="42.98638" lon="-0.23885">
        <ele>1461.5999755859</ele>
        <time>2019-09-28T07:44:33Z</time>
      </trkpt>
      <trkpt lat="42.98642" lon="-0.23889">
        <ele>1461.1999511719</ele>
        <time>2019-09-28T07:44:34Z</time>
      </trkpt>
      <trkpt lat="42.98646" lon="-0.23893">
        <ele>1460.5999755859</ele>
        <time>2019-09-28T07:44:35Z</time>
      </trkpt>
      <trkpt lat="42.98649" lon="-0.23898">
        <ele>1460.5999755859</ele>
        <time>2019-09-28T07:44:36Z</time>
      </trkpt>
      <trkpt lat="42.98656" lon="-0.2391">
        <ele>1460.5999755859</ele>
        <time>2019-09-28T07:44:39Z</time>
      </trkpt>
      <trkpt lat="42.98662" lon="-0.23927">
        <ele>1460.5999755859</ele>
        <time>2019-09-28T07:44:44Z</time>
      </trkpt>
      <trkpt lat="42.98665" lon="-0.23938">
        <ele>1460.5999755859</ele>
        <time>2019-09-28T07:44:49Z</time>
      </trkpt>
      <trkpt lat="42.98664" lon="-0.23949">
        <ele>1460.1999511719</ele>
        <time>2019-09-28T07:44:53Z</time>
      </trkpt>
      <trkpt lat="42.98664" lon="-0.23951">
        <ele>1459.8000488281</ele>
        <time>2019-09-28T07:44:54Z</time>
      </trkpt>
      <trkpt lat="42.98664" lon="-0.23952">
        <ele>1459.4000244141</ele>
        <time>2019-09-28T07:44:55Z</time>
      </trkpt>
      <trkpt lat="42.98664" lon="-0.23955">
        <ele>1459</ele>
        <time>2019-09-28T07:44:56Z</time>
      </trkpt>
      <trkpt lat="42.98664" lon="-0.23957">
        <ele>1458.5999755859</ele>
        <time>2019-09-28T07:44:57Z</time>
      </trkpt>
      <trkpt lat="42.98663" lon="-0.23969">
        <ele>1458.5999755859</ele>
        <time>2019-09-28T07:45:02Z</time>
      </trkpt>
      <trkpt lat="42.98662" lon="-0.23989">
        <ele>1458.5999755859</ele>
        <time>2019-09-28T07:45:09Z</time>
      </trkpt>
      <trkpt lat="42.98662" lon="-0.23995">
        <ele>1458.1999511719</ele>
        <time>2019-09-28T07:45:11Z</time>
      </trkpt>
      <trkpt lat="42.98661" lon="-0.23998">
        <ele>1457.8000488281</ele>
        <time>2019-09-28T07:45:12Z</time>
      </trkpt>
      <trkpt lat="42.98661" lon="-0.24001">
        <ele>1457.4000244141</ele>
        <time>2019-09-28T07:45:13Z</time>
      </trkpt>
      <trkpt lat="42.9866" lon="-0.24004">
        <ele>1457</ele>
        <time>2019-09-28T07:45:14Z</time>
      </trkpt>
      <trkpt lat="42.9866" lon="-0.24008">
        <ele>1456.5999755859</ele>
        <time>2019-09-28T07:45:15Z</time>
      </trkpt>
      <trkpt lat="42.98659" lon="-0.24011">
        <ele>1456.5999755859</ele>
        <time>2019-09-28T07:45:16Z</time>
      </trkpt>
      <trkpt lat="42.98655" lon="-0.24035">
        <ele>1456.5999755859</ele>
        <time>2019-09-28T07:45:22Z</time>
      </trkpt>
      <trkpt lat="42.98653" lon="-0.24045">
        <ele>1456.1999511719</ele>
        <time>2019-09-28T07:45:24Z</time>
      </trkpt>
      <trkpt lat="42.98652" lon="-0.24051">
        <ele>1455.8000488281</ele>
        <time>2019-09-28T07:45:25Z</time>
      </trkpt>
      <trkpt lat="42.98649" lon="-0.24057">
        <ele>1454.8000488281</ele>
        <time>2019-09-28T07:45:26Z</time>
      </trkpt>
      <trkpt lat="42.98649" lon="-0.24063">
        <ele>1454.4000244141</ele>
        <time>2019-09-28T07:45:27Z</time>
      </trkpt>
      <trkpt lat="42.98647" lon="-0.24069">
        <ele>1454</ele>
        <time>2019-09-28T07:45:28Z</time>
      </trkpt>
      <trkpt lat="42.98646" lon="-0.24075">
        <ele>1453.5999755859</ele>
        <time>2019-09-28T07:45:29Z</time>
      </trkpt>
      <trkpt lat="42.98644" lon="-0.24081">
        <ele>1453.1999511719</ele>
        <time>2019-09-28T07:45:30Z</time>
      </trkpt>
      <trkpt lat="42.98643" lon="-0.24086">
        <ele>1452.8000488281</ele>
        <time>2019-09-28T07:45:31Z</time>
      </trkpt>
      <trkpt lat="42.98641" lon="-0.24092">
        <ele>1452.1999511719</ele>
        <time>2019-09-28T07:45:32Z</time>
      </trkpt>
      <trkpt lat="42.9864" lon="-0.24098">
        <ele>1452.1999511719</ele>
        <time>2019-09-28T07:45:33Z</time>
      </trkpt>
      <trkpt lat="42.98639" lon="-0.24104">
        <ele>1451.8000488281</ele>
        <time>2019-09-28T07:45:34Z</time>
      </trkpt>
      <trkpt lat="42.98638" lon="-0.2411">
        <ele>1451.4000244141</ele>
        <time>2019-09-28T07:45:35Z</time>
      </trkpt>
      <trkpt lat="42.98638" lon="-0.24117">
        <ele>1451</ele>
        <time>2019-09-28T07:45:36Z</time>
      </trkpt>
      <trkpt lat="42.98638" lon="-0.24123">
        <ele>1450.5999755859</ele>
        <time>2019-09-28T07:45:37Z</time>
      </trkpt>
      <trkpt lat="42.98638" lon="-0.24129">
        <ele>1450</ele>
        <time>2019-09-28T07:45:38Z</time>
      </trkpt>
      <trkpt lat="42.98637" lon="-0.24135">
        <ele>1449.5999755859</ele>
        <time>2019-09-28T07:45:39Z</time>
      </trkpt>
      <trkpt lat="42.98637" lon="-0.24142">
        <ele>1449.1999511719</ele>
        <time>2019-09-28T07:45:40Z</time>
      </trkpt>
      <trkpt lat="42.98636" lon="-0.24148">
        <ele>1448.8000488281</ele>
        <time>2019-09-28T07:45:41Z</time>
      </trkpt>
      <trkpt lat="42.98636" lon="-0.24153">
        <ele>1448.4000244141</ele>
        <time>2019-09-28T07:45:42Z</time>
      </trkpt>
      <trkpt lat="42.98636" lon="-0.24159">
        <ele>1448</ele>
        <time>2019-09-28T07:45:43Z</time>
      </trkpt>
      <trkpt lat="42.98634" lon="-0.2417">
        <ele>1447.5999755859</ele>
        <time>2019-09-28T07:45:45Z</time>
      </trkpt>
      <trkpt lat="42.98633" lon="-0.24175">
        <ele>1447.1999511719</ele>
        <time>2019-09-28T07:45:46Z</time>
      </trkpt>
      <trkpt lat="42.98632" lon="-0.24181">
        <ele>1446.8000488281</ele>
        <time>2019-09-28T07:45:47Z</time>
      </trkpt>
      <trkpt lat="42.98631" lon="-0.24186">
        <ele>1446.4000244141</ele>
        <time>2019-09-28T07:45:48Z</time>
      </trkpt>
      <trkpt lat="42.9863" lon="-0.24191">
        <ele>1446</ele>
        <time>2019-09-28T07:45:49Z</time>
      </trkpt>
      <trkpt lat="42.98628" lon="-0.24196">
        <ele>1445.1999511719</ele>
        <time>2019-09-28T07:45:50Z</time>
      </trkpt>
      <trkpt lat="42.98628" lon="-0.24202">
        <ele>1444.8000488281</ele>
        <time>2019-09-28T07:45:51Z</time>
      </trkpt>
      <trkpt lat="42.98627" lon="-0.24207">
        <ele>1444.1999511719</ele>
        <time>2019-09-28T07:45:52Z</time>
      </trkpt>
      <trkpt lat="42.98626" lon="-0.24212">
        <ele>1443.8000488281</ele>
        <time>2019-09-28T07:45:53Z</time>
      </trkpt>
      <trkpt lat="42.98626" lon="-0.24222">
        <ele>1443.8000488281</ele>
        <time>2019-09-28T07:45:55Z</time>
      </trkpt>
      <trkpt lat="42.98626" lon="-0.24239">
        <ele>1443.4000244141</ele>
        <time>2019-09-28T07:45:58Z</time>
      </trkpt>
      <trkpt lat="42.98626" lon="-0.24244">
        <ele>1443</ele>
        <time>2019-09-28T07:45:59Z</time>
      </trkpt>
      <trkpt lat="42.98627" lon="-0.2425">
        <ele>1442.5999755859</ele>
        <time>2019-09-28T07:46:00Z</time>
      </trkpt>
      <trkpt lat="42.98627" lon="-0.24255">
        <ele>1442.1999511719</ele>
        <time>2019-09-28T07:46:01Z</time>
      </trkpt>
      <trkpt lat="42.98627" lon="-0.24261">
        <ele>1441.8000488281</ele>
        <time>2019-09-28T07:46:02Z</time>
      </trkpt>
      <trkpt lat="42.98627" lon="-0.24271">
        <ele>1441.4000244141</ele>
        <time>2019-09-28T07:46:04Z</time>
      </trkpt>
      <trkpt lat="42.98627" lon="-0.24276">
        <ele>1441</ele>
        <time>2019-09-28T07:46:05Z</time>
      </trkpt>
      <trkpt lat="42.98627" lon="-0.24282">
        <ele>1440.4000244141</ele>
        <time>2019-09-28T07:46:06Z</time>
      </trkpt>
      <trkpt lat="42.98626" lon="-0.24288">
        <ele>1440</ele>
        <time>2019-09-28T07:46:07Z</time>
      </trkpt>
      <trkpt lat="42.98626" lon="-0.24294">
        <ele>1439.5999755859</ele>
        <time>2019-09-28T07:46:08Z</time>
      </trkpt>
      <trkpt lat="42.98625" lon="-0.24304">
        <ele>1439.1999511719</ele>
        <time>2019-09-28T07:46:10Z</time>
      </trkpt>
      <trkpt lat="42.98624" lon="-0.24309">
        <ele>1438.5999755859</ele>
        <time>2019-09-28T07:46:11Z</time>
      </trkpt>
      <trkpt lat="42.98623" lon="-0.24313">
        <ele>1438.1999511719</ele>
        <time>2019-09-28T07:46:12Z</time>
      </trkpt>
      <trkpt lat="42.98623" lon="-0.24317">
        <ele>1437.8000488281</ele>
        <time>2019-09-28T07:46:13Z</time>
      </trkpt>
      <trkpt lat="42.98622" lon="-0.24323">
        <ele>1437.4000244141</ele>
        <time>2019-09-28T07:46:14Z</time>
      </trkpt>
      <trkpt lat="42.98622" lon="-0.24328">
        <ele>1437.4000244141</ele>
        <time>2019-09-28T07:46:15Z</time>
      </trkpt>
      <trkpt lat="42.98622" lon="-0.24334">
        <ele>1437</ele>
        <time>2019-09-28T07:46:16Z</time>
      </trkpt>
      <trkpt lat="42.98621" lon="-0.2434">
        <ele>1436.5999755859</ele>
        <time>2019-09-28T07:46:17Z</time>
      </trkpt>
      <trkpt lat="42.98621" lon="-0.24346">
        <ele>1436.1999511719</ele>
        <time>2019-09-28T07:46:18Z</time>
      </trkpt>
      <trkpt lat="42.98621" lon="-0.24352">
        <ele>1435.8000488281</ele>
        <time>2019-09-28T07:46:19Z</time>
      </trkpt>
      <trkpt lat="42.98621" lon="-0.24357">
        <ele>1435.1999511719</ele>
        <time>2019-09-28T07:46:20Z</time>
      </trkpt>
      <trkpt lat="42.98621" lon="-0.24369">
        <ele>1435.1999511719</ele>
        <time>2019-09-28T07:46:22Z</time>
      </trkpt>
      <trkpt lat="42.98621" lon="-0.24396">
        <ele>1435.1999511719</ele>
        <time>2019-09-28T07:46:27Z</time>
      </trkpt>
      <trkpt lat="42.98624" lon="-0.24429">
        <ele>1435.1999511719</ele>
        <time>2019-09-28T07:46:34Z</time>
      </trkpt>
      <trkpt lat="42.98624" lon="-0.24447">
        <ele>1435.1999511719</ele>
        <time>2019-09-28T07:46:40Z</time>
      </trkpt>
      <trkpt lat="42.98628" lon="-0.24458">
        <ele>1435.1999511719</ele>
        <time>2019-09-28T07:46:45Z</time>
      </trkpt>
      <trkpt lat="42.98627" lon="-0.24458">
        <ele>1435.1999511719</ele>
        <time>2019-09-28T07:46:49Z</time>
      </trkpt>
      <trkpt lat="42.98627" lon="-0.24464">
        <ele>1435.1999511719</ele>
        <time>2019-09-28T07:46:58Z</time>
      </trkpt>
      <trkpt lat="42.98629" lon="-0.24479">
        <ele>1435.1999511719</ele>
        <time>2019-09-28T07:47:03Z</time>
      </trkpt>
      <trkpt lat="42.9863" lon="-0.245">
        <ele>1435.1999511719</ele>
        <time>2019-09-28T07:47:09Z</time>
      </trkpt>
      <trkpt lat="42.98633" lon="-0.24521">
        <ele>1435.1999511719</ele>
        <time>2019-09-28T07:47:15Z</time>
      </trkpt>
      <trkpt lat="42.98634" lon="-0.24533">
        <ele>1435.8000488281</ele>
        <time>2019-09-28T07:47:18Z</time>
      </trkpt>
      <trkpt lat="42.98634" lon="-0.24537">
        <ele>1436.1999511719</ele>
        <time>2019-09-28T07:47:19Z</time>
      </trkpt>
      <trkpt lat="42.98633" lon="-0.24541">
        <ele>1436.5999755859</ele>
        <time>2019-09-28T07:47:20Z</time>
      </trkpt>
      <trkpt lat="42.98633" lon="-0.24544">
        <ele>1437</ele>
        <time>2019-09-28T07:47:21Z</time>
      </trkpt>
      <trkpt lat="42.98633" lon="-0.24548">
        <ele>1437.4000244141</ele>
        <time>2019-09-28T07:47:22Z</time>
      </trkpt>
      <trkpt lat="42.98631" lon="-0.24568">
        <ele>1437.4000244141</ele>
        <time>2019-09-28T07:47:28Z</time>
      </trkpt>
      <trkpt lat="42.98629" lon="-0.24575">
        <ele>1437.8000488281</ele>
        <time>2019-09-28T07:47:30Z</time>
      </trkpt>
      <trkpt lat="42.98629" lon="-0.24578">
        <ele>1438.1999511719</ele>
        <time>2019-09-28T07:47:31Z</time>
      </trkpt>
      <trkpt lat="42.98627" lon="-0.24581">
        <ele>1438.5999755859</ele>
        <time>2019-09-28T07:47:32Z</time>
      </trkpt>
      <trkpt lat="42.98626" lon="-0.24584">
        <ele>1439</ele>
        <time>2019-09-28T07:47:33Z</time>
      </trkpt>
      <trkpt lat="42.98624" lon="-0.24587">
        <ele>1439.4000244141</ele>
        <time>2019-09-28T07:47:34Z</time>
      </trkpt>
      <trkpt lat="42.98623" lon="-0.24589">
        <ele>1439.4000244141</ele>
        <time>2019-09-28T07:47:35Z</time>
      </trkpt>
      <trkpt lat="42.98612" lon="-0.24595">
        <ele>1439.4000244141</ele>
        <time>2019-09-28T07:47:40Z</time>
      </trkpt>
      <trkpt lat="42.98607" lon="-0.24596">
        <ele>1439.8000488281</ele>
        <time>2019-09-28T07:47:42Z</time>
      </trkpt>
      <trkpt lat="42.98605" lon="-0.24596">
        <ele>1440.1999511719</ele>
        <time>2019-09-28T07:47:43Z</time>
      </trkpt>
      <trkpt lat="42.98603" lon="-0.24596">
        <ele>1440.8000488281</ele>
        <time>2019-09-28T07:47:44Z</time>
      </trkpt>
      <trkpt lat="42.986" lon="-0.24597">
        <ele>1441.1999511719</ele>
        <time>2019-09-28T07:47:45Z</time>
      </trkpt>
      <trkpt lat="42.98598" lon="-0.24597">
        <ele>1441.5999755859</ele>
        <time>2019-09-28T07:47:46Z</time>
      </trkpt>
      <trkpt lat="42.98584" lon="-0.246">
        <ele>1441.5999755859</ele>
        <time>2019-09-28T07:47:52Z</time>
      </trkpt>
      <trkpt lat="42.98574" lon="-0.24604">
        <ele>1442</ele>
        <time>2019-09-28T07:47:56Z</time>
      </trkpt>
      <trkpt lat="42.98571" lon="-0.24604">
        <ele>1442.4000244141</ele>
        <time>2019-09-28T07:47:57Z</time>
      </trkpt>
      <trkpt lat="42.98569" lon="-0.24604">
        <ele>1442.8000488281</ele>
        <time>2019-09-28T07:47:58Z</time>
      </trkpt>
      <trkpt lat="42.98566" lon="-0.24604">
        <ele>1443.4000244141</ele>
        <time>2019-09-28T07:47:59Z</time>
      </trkpt>
      <trkpt lat="42.98563" lon="-0.24604">
        <ele>1443.8000488281</ele>
        <time>2019-09-28T07:48:00Z</time>
      </trkpt>
      <trkpt lat="42.98549" lon="-0.24603">
        <ele>1443.8000488281</ele>
        <time>2019-09-28T07:48:05Z</time>
      </trkpt>
      <trkpt lat="42.98535" lon="-0.24596">
        <ele>1444.1999511719</ele>
        <time>2019-09-28T07:48:11Z</time>
      </trkpt>
      <trkpt lat="42.98532" lon="-0.24595">
        <ele>1444.5999755859</ele>
        <time>2019-09-28T07:48:12Z</time>
      </trkpt>
      <trkpt lat="42.9853" lon="-0.24593">
        <ele>1445</ele>
        <time>2019-09-28T07:48:13Z</time>
      </trkpt>
      <trkpt lat="42.98528" lon="-0.24591">
        <ele>1445.4000244141</ele>
        <time>2019-09-28T07:48:14Z</time>
      </trkpt>
      <trkpt lat="42.98527" lon="-0.24589">
        <ele>1445.8000488281</ele>
        <time>2019-09-28T07:48:15Z</time>
      </trkpt>
      <trkpt lat="42.98523" lon="-0.24584">
        <ele>1445.8000488281</ele>
        <time>2019-09-28T07:48:17Z</time>
      </trkpt>
      <trkpt lat="42.98517" lon="-0.24576">
        <ele>1446.4000244141</ele>
        <time>2019-09-28T07:48:21Z</time>
      </trkpt>
      <trkpt lat="42.98516" lon="-0.24573">
        <ele>1446.8000488281</ele>
        <time>2019-09-28T07:48:22Z</time>
      </trkpt>
      <trkpt lat="42.98514" lon="-0.24571">
        <ele>1447.1999511719</ele>
        <time>2019-09-28T07:48:23Z</time>
      </trkpt>
      <trkpt lat="42.98513" lon="-0.24569">
        <ele>1447.8000488281</ele>
        <time>2019-09-28T07:48:24Z</time>
      </trkpt>
      <trkpt lat="42.98512" lon="-0.24566">
        <ele>1448.1999511719</ele>
        <time>2019-09-28T07:48:25Z</time>
      </trkpt>
      <trkpt lat="42.98506" lon="-0.24558">
        <ele>1448.1999511719</ele>
        <time>2019-09-28T07:48:29Z</time>
      </trkpt>
      <trkpt lat="42.985" lon="-0.24551">
        <ele>1448.5999755859</ele>
        <time>2019-09-28T07:48:33Z</time>
      </trkpt>
      <trkpt lat="42.98499" lon="-0.24549">
        <ele>1449</ele>
        <time>2019-09-28T07:48:34Z</time>
      </trkpt>
      <trkpt lat="42.98498" lon="-0.24547">
        <ele>1449.4000244141</ele>
        <time>2019-09-28T07:48:35Z</time>
      </trkpt>
      <trkpt lat="42.98496" lon="-0.24545">
        <ele>1449.8000488281</ele>
        <time>2019-09-28T07:48:36Z</time>
      </trkpt>
      <trkpt lat="42.98494" lon="-0.24544">
        <ele>1450.4000244141</ele>
        <time>2019-09-28T07:48:37Z</time>
      </trkpt>
      <trkpt lat="42.98489" lon="-0.24536">
        <ele>1450.4000244141</ele>
        <time>2019-09-28T07:48:41Z</time>
      </trkpt>
      <trkpt lat="42.98486" lon="-0.24532">
        <ele>1451.1999511719</ele>
        <time>2019-09-28T07:48:43Z</time>
      </trkpt>
      <trkpt lat="42.98485" lon="-0.2453">
        <ele>1451.5999755859</ele>
        <time>2019-09-28T07:48:44Z</time>
      </trkpt>
      <trkpt lat="42.98483" lon="-0.24528">
        <ele>1452</ele>
        <time>2019-09-28T07:48:45Z</time>
      </trkpt>
      <trkpt lat="42.98481" lon="-0.24526">
        <ele>1452.4000244141</ele>
        <time>2019-09-28T07:48:46Z</time>
      </trkpt>
      <trkpt lat="42.98479" lon="-0.24524">
        <ele>1452.4000244141</ele>
        <time>2019-09-28T07:48:47Z</time>
      </trkpt>
      <trkpt lat="42.98465" lon="-0.2451">
        <ele>1452.4000244141</ele>
        <time>2019-09-28T07:48:55Z</time>
      </trkpt>
      <trkpt lat="42.98461" lon="-0.24507">
        <ele>1452.8000488281</ele>
        <time>2019-09-28T07:48:57Z</time>
      </trkpt>
      <trkpt lat="42.9846" lon="-0.24505">
        <ele>1453.1999511719</ele>
        <time>2019-09-28T07:48:58Z</time>
      </trkpt>
      <trkpt lat="42.98458" lon="-0.24504">
        <ele>1453.8000488281</ele>
        <time>2019-09-28T07:48:59Z</time>
      </trkpt>
      <trkpt lat="42.98456" lon="-0.24502">
        <ele>1454.1999511719</ele>
        <time>2019-09-28T07:49:00Z</time>
      </trkpt>
      <trkpt lat="42.98454" lon="-0.245">
        <ele>1454.5999755859</ele>
        <time>2019-09-28T07:49:01Z</time>
      </trkpt>
      <trkpt lat="42.98439" lon="-0.24486">
        <ele>1454.5999755859</ele>
        <time>2019-09-28T07:49:08Z</time>
      </trkpt>
      <trkpt lat="42.98422" lon="-0.24472">
        <ele>1454.5999755859</ele>
        <time>2019-09-28T07:49:15Z</time>
      </trkpt>
      <trkpt lat="42.98412" lon="-0.24467">
        <ele>1454.5999755859</ele>
        <time>2019-09-28T07:49:20Z</time>
      </trkpt>
      <trkpt lat="42.98408" lon="-0.24465">
        <ele>1455</ele>
        <time>2019-09-28T07:49:22Z</time>
      </trkpt>
      <trkpt lat="42.98406" lon="-0.24464">
        <ele>1455.4000244141</ele>
        <time>2019-09-28T07:49:23Z</time>
      </trkpt>
      <trkpt lat="42.98404" lon="-0.24463">
        <ele>1455.8000488281</ele>
        <time>2019-09-28T07:49:24Z</time>
      </trkpt>
      <trkpt lat="42.98401" lon="-0.24463">
        <ele>1456.1999511719</ele>
        <time>2019-09-28T07:49:25Z</time>
      </trkpt>
      <trkpt lat="42.98399" lon="-0.24461">
        <ele>1456.5999755859</ele>
        <time>2019-09-28T07:49:26Z</time>
      </trkpt>
      <trkpt lat="42.98381" lon="-0.24453">
        <ele>1456.5999755859</ele>
        <time>2019-09-28T07:49:34Z</time>
      </trkpt>
      <trkpt lat="42.98369" lon="-0.24451">
        <ele>1456.5999755859</ele>
        <time>2019-09-28T07:49:39Z</time>
      </trkpt>
      <trkpt lat="42.98356" lon="-0.24447">
        <ele>1456.5999755859</ele>
        <time>2019-09-28T07:49:45Z</time>
      </trkpt>
      <trkpt lat="42.98349" lon="-0.24447">
        <ele>1457</ele>
        <time>2019-09-28T07:49:48Z</time>
      </trkpt>
      <trkpt lat="42.98346" lon="-0.24447">
        <ele>1457.4000244141</ele>
        <time>2019-09-28T07:49:49Z</time>
      </trkpt>
      <trkpt lat="42.98344" lon="-0.24447">
        <ele>1457.8000488281</ele>
        <time>2019-09-28T07:49:50Z</time>
      </trkpt>
      <trkpt lat="42.98343" lon="-0.24448">
        <ele>1458.4000244141</ele>
        <time>2019-09-28T07:49:51Z</time>
      </trkpt>
      <trkpt lat="42.98341" lon="-0.24449">
        <ele>1458.8000488281</ele>
        <time>2019-09-28T07:49:52Z</time>
      </trkpt>
      <trkpt lat="42.98326" lon="-0.2445">
        <ele>1458.8000488281</ele>
        <time>2019-09-28T07:49:59Z</time>
      </trkpt>
      <trkpt lat="42.98319" lon="-0.24447">
        <ele>1458.8000488281</ele>
        <time>2019-09-28T07:50:03Z</time>
      </trkpt>
      <trkpt lat="42.98318" lon="-0.24446">
        <ele>1458.8000488281</ele>
        <time>2019-09-28T07:50:04Z</time>
      </trkpt>
      <trkpt lat="42.98307" lon="-0.24436">
        <ele>1458.8000488281</ele>
        <time>2019-09-28T07:50:10Z</time>
      </trkpt>
      <trkpt lat="42.98298" lon="-0.2442">
        <ele>1458.8000488281</ele>
        <time>2019-09-28T07:50:14Z</time>
      </trkpt>
      <trkpt lat="42.98295" lon="-0.24418">
        <ele>1458.8000488281</ele>
        <time>2019-09-28T07:50:15Z</time>
      </trkpt>
      <trkpt lat="42.98283" lon="-0.24419">
        <ele>1458.8000488281</ele>
        <time>2019-09-28T07:50:19Z</time>
      </trkpt>
      <trkpt lat="42.98277" lon="-0.24429">
        <ele>1458.8000488281</ele>
        <time>2019-09-28T07:50:23Z</time>
      </trkpt>
      <trkpt lat="42.98275" lon="-0.24431">
        <ele>1459.1999511719</ele>
        <time>2019-09-28T07:50:24Z</time>
      </trkpt>
      <trkpt lat="42.98274" lon="-0.24434">
        <ele>1459.5999755859</ele>
        <time>2019-09-28T07:50:25Z</time>
      </trkpt>
      <trkpt lat="42.98273" lon="-0.24436">
        <ele>1460</ele>
        <time>2019-09-28T07:50:26Z</time>
      </trkpt>
      <trkpt lat="42.98272" lon="-0.24438">
        <ele>1460.4000244141</ele>
        <time>2019-09-28T07:50:27Z</time>
      </trkpt>
      <trkpt lat="42.9827" lon="-0.24441">
        <ele>1460.8000488281</ele>
        <time>2019-09-28T07:50:28Z</time>
      </trkpt>
      <trkpt lat="42.98267" lon="-0.24446">
        <ele>1460.8000488281</ele>
        <time>2019-09-28T07:50:30Z</time>
      </trkpt>
      <trkpt lat="42.98254" lon="-0.24466">
        <ele>1460.8000488281</ele>
        <time>2019-09-28T07:50:38Z</time>
      </trkpt>
      <trkpt lat="42.98239" lon="-0.24475">
        <ele>1460.8000488281</ele>
        <time>2019-09-28T07:50:45Z</time>
      </trkpt>
      <trkpt lat="42.98234" lon="-0.24474">
        <ele>1461.1999511719</ele>
        <time>2019-09-28T07:50:47Z</time>
      </trkpt>
      <trkpt lat="42.98231" lon="-0.24474">
        <ele>1461.8000488281</ele>
        <time>2019-09-28T07:50:48Z</time>
      </trkpt>
      <trkpt lat="42.98228" lon="-0.24474">
        <ele>1462.1999511719</ele>
        <time>2019-09-28T07:50:49Z</time>
      </trkpt>
      <trkpt lat="42.98226" lon="-0.24473">
        <ele>1462.5999755859</ele>
        <time>2019-09-28T07:50:50Z</time>
      </trkpt>
      <trkpt lat="42.98223" lon="-0.24473">
        <ele>1463</ele>
        <time>2019-09-28T07:50:51Z</time>
      </trkpt>
      <trkpt lat="42.98221" lon="-0.24474">
        <ele>1463</ele>
        <time>2019-09-28T07:50:52Z</time>
      </trkpt>
      <trkpt lat="42.98206" lon="-0.24478">
        <ele>1463</ele>
        <time>2019-09-28T07:50:59Z</time>
      </trkpt>
      <trkpt lat="42.98198" lon="-0.24482">
        <ele>1463.4000244141</ele>
        <time>2019-09-28T07:51:03Z</time>
      </trkpt>
      <trkpt lat="42.98196" lon="-0.24482">
        <ele>1463.8000488281</ele>
        <time>2019-09-28T07:51:04Z</time>
      </trkpt>
      <trkpt lat="42.98193" lon="-0.24483">
        <ele>1464.4000244141</ele>
        <time>2019-09-28T07:51:05Z</time>
      </trkpt>
      <trkpt lat="42.98191" lon="-0.24484">
        <ele>1464.8000488281</ele>
        <time>2019-09-28T07:51:06Z</time>
      </trkpt>
      <trkpt lat="42.98189" lon="-0.24485">
        <ele>1465.1999511719</ele>
        <time>2019-09-28T07:51:07Z</time>
      </trkpt>
      <trkpt lat="42.98178" lon="-0.24493">
        <ele>1465.1999511719</ele>
        <time>2019-09-28T07:51:12Z</time>
      </trkpt>
      <trkpt lat="42.98172" lon="-0.24496">
        <ele>1465.5999755859</ele>
        <time>2019-09-28T07:51:16Z</time>
      </trkpt>
      <trkpt lat="42.98171" lon="-0.24497">
        <ele>1466</ele>
        <time>2019-09-28T07:51:17Z</time>
      </trkpt>
      <trkpt lat="42.98169" lon="-0.24498">
        <ele>1466.4000244141</ele>
        <time>2019-09-28T07:51:18Z</time>
      </trkpt>
      <trkpt lat="42.98167" lon="-0.24498">
        <ele>1466.8000488281</ele>
        <time>2019-09-28T07:51:19Z</time>
      </trkpt>
      <trkpt lat="42.98166" lon="-0.24499">
        <ele>1467.4000244141</ele>
        <time>2019-09-28T07:51:20Z</time>
      </trkpt>
      <trkpt lat="42.98158" lon="-0.24503">
        <ele>1467.4000244141</ele>
        <time>2019-09-28T07:51:25Z</time>
      </trkpt>
      <trkpt lat="42.98143" lon="-0.24511">
        <ele>1467.4000244141</ele>
        <time>2019-09-28T07:51:33Z</time>
      </trkpt>
      <trkpt lat="42.98138" lon="-0.24516">
        <ele>1467.8000488281</ele>
        <time>2019-09-28T07:51:36Z</time>
      </trkpt>
      <trkpt lat="42.98136" lon="-0.24518">
        <ele>1468.1999511719</ele>
        <time>2019-09-28T07:51:37Z</time>
      </trkpt>
      <trkpt lat="42.98134" lon="-0.24519">
        <ele>1468.5999755859</ele>
        <time>2019-09-28T07:51:38Z</time>
      </trkpt>
      <trkpt lat="42.98132" lon="-0.24521">
        <ele>1469</ele>
        <time>2019-09-28T07:51:39Z</time>
      </trkpt>
      <trkpt lat="42.9813" lon="-0.24523">
        <ele>1469.4000244141</ele>
        <time>2019-09-28T07:51:40Z</time>
      </trkpt>
      <trkpt lat="42.98122" lon="-0.24536">
        <ele>1469.4000244141</ele>
        <time>2019-09-28T07:51:46Z</time>
      </trkpt>
      <trkpt lat="42.98119" lon="-0.2454">
        <ele>1469.8000488281</ele>
        <time>2019-09-28T07:51:48Z</time>
      </trkpt>
      <trkpt lat="42.98118" lon="-0.24542">
        <ele>1470.1999511719</ele>
        <time>2019-09-28T07:51:49Z</time>
      </trkpt>
      <trkpt lat="42.98117" lon="-0.24544">
        <ele>1470.8000488281</ele>
        <time>2019-09-28T07:51:50Z</time>
      </trkpt>
      <trkpt lat="42.98115" lon="-0.24546">
        <ele>1471.1999511719</ele>
        <time>2019-09-28T07:51:51Z</time>
      </trkpt>
      <trkpt lat="42.98114" lon="-0.24549">
        <ele>1471.5999755859</ele>
        <time>2019-09-28T07:51:52Z</time>
      </trkpt>
      <trkpt lat="42.98113" lon="-0.2455">
        <ele>1471.5999755859</ele>
        <time>2019-09-28T07:51:53Z</time>
      </trkpt>
      <trkpt lat="42.98103" lon="-0.24566">
        <ele>1471.5999755859</ele>
        <time>2019-09-28T07:52:01Z</time>
      </trkpt>
      <trkpt lat="42.98102" lon="-0.24568">
        <ele>1472</ele>
        <time>2019-09-28T07:52:02Z</time>
      </trkpt>
      <trkpt lat="42.981" lon="-0.24571">
        <ele>1472.4000244141</ele>
        <time>2019-09-28T07:52:03Z</time>
      </trkpt>
      <trkpt lat="42.98099" lon="-0.24574">
        <ele>1472.8000488281</ele>
        <time>2019-09-28T07:52:04Z</time>
      </trkpt>
      <trkpt lat="42.98098" lon="-0.24576">
        <ele>1473.1999511719</ele>
        <time>2019-09-28T07:52:05Z</time>
      </trkpt>
      <trkpt lat="42.98096" lon="-0.24578">
        <ele>1473.8000488281</ele>
        <time>2019-09-28T07:52:06Z</time>
      </trkpt>
      <trkpt lat="42.98093" lon="-0.24583">
        <ele>1473.8000488281</ele>
        <time>2019-09-28T07:52:08Z</time>
      </trkpt>
      <trkpt lat="42.98081" lon="-0.24599">
        <ele>1473.8000488281</ele>
        <time>2019-09-28T07:52:15Z</time>
      </trkpt>
      <trkpt lat="42.98078" lon="-0.24604">
        <ele>1473.8000488281</ele>
        <time>2019-09-28T07:52:17Z</time>
      </trkpt>
      <trkpt lat="42.98073" lon="-0.24615">
        <ele>1474.1999511719</ele>
        <time>2019-09-28T07:52:21Z</time>
      </trkpt>
      <trkpt lat="42.98072" lon="-0.24618">
        <ele>1474.5999755859</ele>
        <time>2019-09-28T07:52:22Z</time>
      </trkpt>
      <trkpt lat="42.98071" lon="-0.24622">
        <ele>1475</ele>
        <time>2019-09-28T07:52:23Z</time>
      </trkpt>
      <trkpt lat="42.9807" lon="-0.24625">
        <ele>1475.4000244141</ele>
        <time>2019-09-28T07:52:24Z</time>
      </trkpt>
      <trkpt lat="42.98069" lon="-0.24628">
        <ele>1476</ele>
        <time>2019-09-28T07:52:25Z</time>
      </trkpt>
      <trkpt lat="42.98068" lon="-0.24639">
        <ele>1476</ele>
        <time>2019-09-28T07:52:28Z</time>
      </trkpt>
      <trkpt lat="42.98066" lon="-0.24656">
        <ele>1476.4000244141</ele>
        <time>2019-09-28T07:52:33Z</time>
      </trkpt>
      <trkpt lat="42.98066" lon="-0.24659">
        <ele>1476.8000488281</ele>
        <time>2019-09-28T07:52:34Z</time>
      </trkpt>
      <trkpt lat="42.98066" lon="-0.24662">
        <ele>1477.1999511719</ele>
        <time>2019-09-28T07:52:35Z</time>
      </trkpt>
      <trkpt lat="42.98065" lon="-0.24664">
        <ele>1477.5999755859</ele>
        <time>2019-09-28T07:52:36Z</time>
      </trkpt>
      <trkpt lat="42.98065" lon="-0.24667">
        <ele>1478</ele>
        <time>2019-09-28T07:52:37Z</time>
      </trkpt>
      <trkpt lat="42.98065" lon="-0.24676">
        <ele>1478.4000244141</ele>
        <time>2019-09-28T07:52:40Z</time>
      </trkpt>
      <trkpt lat="42.98065" lon="-0.24678">
        <ele>1479</ele>
        <time>2019-09-28T07:52:41Z</time>
      </trkpt>
      <trkpt lat="42.98064" lon="-0.24681">
        <ele>1479.4000244141</ele>
        <time>2019-09-28T07:52:42Z</time>
      </trkpt>
      <trkpt lat="42.98064" lon="-0.24684">
        <ele>1479.8000488281</ele>
        <time>2019-09-28T07:52:43Z</time>
      </trkpt>
      <trkpt lat="42.98064" lon="-0.24687">
        <ele>1480.1999511719</ele>
        <time>2019-09-28T07:52:44Z</time>
      </trkpt>
      <trkpt lat="42.98065" lon="-0.24698">
        <ele>1480.5999755859</ele>
        <time>2019-09-28T07:52:48Z</time>
      </trkpt>
      <trkpt lat="42.98066" lon="-0.24701">
        <ele>1481.1999511719</ele>
        <time>2019-09-28T07:52:49Z</time>
      </trkpt>
      <trkpt lat="42.98065" lon="-0.24704">
        <ele>1481.5999755859</ele>
        <time>2019-09-28T07:52:50Z</time>
      </trkpt>
      <trkpt lat="42.98064" lon="-0.24706">
        <ele>1482.4000244141</ele>
        <time>2019-09-28T07:52:51Z</time>
      </trkpt>
      <trkpt lat="42.98061" lon="-0.24708">
        <ele>1482.4000244141</ele>
        <time>2019-09-28T07:52:53Z</time>
      </trkpt>
      <trkpt lat="42.98055" lon="-0.24702">
        <ele>1482.4000244141</ele>
        <time>2019-09-28T07:52:57Z</time>
      </trkpt>
      <trkpt lat="42.98057" lon="-0.24692">
        <ele>1482.4000244141</ele>
        <time>2019-09-28T07:53:01Z</time>
      </trkpt>
      <trkpt lat="42.98055" lon="-0.24686">
        <ele>1482.8000488281</ele>
        <time>2019-09-28T07:53:04Z</time>
      </trkpt>
      <trkpt lat="42.98055" lon="-0.24683">
        <ele>1483.1999511719</ele>
        <time>2019-09-28T07:53:05Z</time>
      </trkpt>
      <trkpt lat="42.98054" lon="-0.24681">
        <ele>1483.8000488281</ele>
        <time>2019-09-28T07:53:06Z</time>
      </trkpt>
      <trkpt lat="42.98054" lon="-0.24678">
        <ele>1484.1999511719</ele>
        <time>2019-09-28T07:53:07Z</time>
      </trkpt>
      <trkpt lat="42.98054" lon="-0.24677">
        <ele>1484.5999755859</ele>
        <time>2019-09-28T07:53:08Z</time>
      </trkpt>
      <trkpt lat="42.98053" lon="-0.24667">
        <ele>1484.5999755859</ele>
        <time>2019-09-28T07:53:12Z</time>
      </trkpt>
      <trkpt lat="42.98051" lon="-0.24657">
        <ele>1485</ele>
        <time>2019-09-28T07:53:16Z</time>
      </trkpt>
      <trkpt lat="42.9805" lon="-0.24655">
        <ele>1485.4000244141</ele>
        <time>2019-09-28T07:53:17Z</time>
      </trkpt>
      <trkpt lat="42.98049" lon="-0.24653">
        <ele>1485.8000488281</ele>
        <time>2019-09-28T07:53:18Z</time>
      </trkpt>
      <trkpt lat="42.98049" lon="-0.24651">
        <ele>1486.1999511719</ele>
        <time>2019-09-28T07:53:19Z</time>
      </trkpt>
      <trkpt lat="42.98048" lon="-0.24648">
        <ele>1486.5999755859</ele>
        <time>2019-09-28T07:53:20Z</time>
      </trkpt>
      <trkpt lat="42.98047" lon="-0.2463">
        <ele>1487</ele>
        <time>2019-09-28T07:53:27Z</time>
      </trkpt>
      <trkpt lat="42.98047" lon="-0.24628">
        <ele>1487.4000244141</ele>
        <time>2019-09-28T07:53:28Z</time>
      </trkpt>
      <trkpt lat="42.98048" lon="-0.24625">
        <ele>1487.8000488281</ele>
        <time>2019-09-28T07:53:29Z</time>
      </trkpt>
      <trkpt lat="42.98048" lon="-0.24622">
        <ele>1488.1999511719</ele>
        <time>2019-09-28T07:53:30Z</time>
      </trkpt>
      <trkpt lat="42.98047" lon="-0.24619">
        <ele>1488.5999755859</ele>
        <time>2019-09-28T07:53:31Z</time>
      </trkpt>
      <trkpt lat="42.98046" lon="-0.24604">
        <ele>1488.5999755859</ele>
        <time>2019-09-28T07:53:36Z</time>
      </trkpt>
      <trkpt lat="42.9805" lon="-0.24587">
        <ele>1488.5999755859</ele>
        <time>2019-09-28T07:53:42Z</time>
      </trkpt>
      <trkpt lat="42.98052" lon="-0.24581">
        <ele>1489.1999511719</ele>
        <time>2019-09-28T07:53:44Z</time>
      </trkpt>
      <trkpt lat="42.98052" lon="-0.24578">
        <ele>1489.5999755859</ele>
        <time>2019-09-28T07:53:45Z</time>
      </trkpt>
      <trkpt lat="42.98053" lon="-0.24575">
        <ele>1490</ele>
        <time>2019-09-28T07:53:46Z</time>
      </trkpt>
      <trkpt lat="42.98054" lon="-0.24573">
        <ele>1490.4000244141</ele>
        <time>2019-09-28T07:53:47Z</time>
      </trkpt>
      <trkpt lat="42.98055" lon="-0.2457">
        <ele>1490.8000488281</ele>
        <time>2019-09-28T07:53:48Z</time>
      </trkpt>
      <trkpt lat="42.98062" lon="-0.24557">
        <ele>1490.8000488281</ele>
        <time>2019-09-28T07:53:54Z</time>
      </trkpt>
      <trkpt lat="42.98067" lon="-0.24543">
        <ele>1490.8000488281</ele>
        <time>2019-09-28T07:54:00Z</time>
      </trkpt>
      <trkpt lat="42.98067" lon="-0.24525">
        <ele>1491.1999511719</ele>
        <time>2019-09-28T07:54:07Z</time>
      </trkpt>
      <trkpt lat="42.98066" lon="-0.24522">
        <ele>1491.5999755859</ele>
        <time>2019-09-28T07:54:08Z</time>
      </trkpt>
      <trkpt lat="42.98066" lon="-0.2452">
        <ele>1492</ele>
        <time>2019-09-28T07:54:09Z</time>
      </trkpt>
      <trkpt lat="42.98065" lon="-0.24517">
        <ele>1492.5999755859</ele>
        <time>2019-09-28T07:54:10Z</time>
      </trkpt>
      <trkpt lat="42.98064" lon="-0.24514">
        <ele>1493</ele>
        <time>2019-09-28T07:54:11Z</time>
      </trkpt>
      <trkpt lat="42.98061" lon="-0.24506">
        <ele>1493</ele>
        <time>2019-09-28T07:54:14Z</time>
      </trkpt>
      <trkpt lat="42.98058" lon="-0.24489">
        <ele>1493.4000244141</ele>
        <time>2019-09-28T07:54:20Z</time>
      </trkpt>
      <trkpt lat="42.98058" lon="-0.24487">
        <ele>1493.8000488281</ele>
        <time>2019-09-28T07:54:21Z</time>
      </trkpt>
      <trkpt lat="42.98059" lon="-0.24484">
        <ele>1494.1999511719</ele>
        <time>2019-09-28T07:54:22Z</time>
      </trkpt>
      <trkpt lat="42.9806" lon="-0.24482">
        <ele>1494.8000488281</ele>
        <time>2019-09-28T07:54:23Z</time>
      </trkpt>
      <trkpt lat="42.9806" lon="-0.24479">
        <ele>1495.1999511719</ele>
        <time>2019-09-28T07:54:24Z</time>
      </trkpt>
      <trkpt lat="42.98066" lon="-0.2447">
        <ele>1495.1999511719</ele>
        <time>2019-09-28T07:54:28Z</time>
      </trkpt>
      <trkpt lat="42.98073" lon="-0.24464">
        <ele>1495.5999755859</ele>
        <time>2019-09-28T07:54:32Z</time>
      </trkpt>
      <trkpt lat="42.98075" lon="-0.24462">
        <ele>1496</ele>
        <time>2019-09-28T07:54:33Z</time>
      </trkpt>
      <trkpt lat="42.98076" lon="-0.24461">
        <ele>1496.5999755859</ele>
        <time>2019-09-28T07:54:34Z</time>
      </trkpt>
      <trkpt lat="42.98078" lon="-0.24459">
        <ele>1497</ele>
        <time>2019-09-28T07:54:35Z</time>
      </trkpt>
      <trkpt lat="42.98079" lon="-0.24458">
        <ele>1497.4000244141</ele>
        <time>2019-09-28T07:54:36Z</time>
      </trkpt>
      <trkpt lat="42.98093" lon="-0.2445">
        <ele>1497.4000244141</ele>
        <time>2019-09-28T07:54:43Z</time>
      </trkpt>
      <trkpt lat="42.98101" lon="-0.24446">
        <ele>1497.8000488281</ele>
        <time>2019-09-28T07:54:47Z</time>
      </trkpt>
      <trkpt lat="42.98103" lon="-0.24445">
        <ele>1498.1999511719</ele>
        <time>2019-09-28T07:54:48Z</time>
      </trkpt>
      <trkpt lat="42.98105" lon="-0.24444">
        <ele>1498.5999755859</ele>
        <time>2019-09-28T07:54:49Z</time>
      </trkpt>
      <trkpt lat="42.98107" lon="-0.24443">
        <ele>1499</ele>
        <time>2019-09-28T07:54:50Z</time>
      </trkpt>
      <trkpt lat="42.98109" lon="-0.24442">
        <ele>1499.5999755859</ele>
        <time>2019-09-28T07:54:51Z</time>
      </trkpt>
      <trkpt lat="42.98122" lon="-0.24438">
        <ele>1500</ele>
        <time>2019-09-28T07:54:58Z</time>
      </trkpt>
      <trkpt lat="42.98124" lon="-0.24437">
        <ele>1500.4000244141</ele>
        <time>2019-09-28T07:54:59Z</time>
      </trkpt>
      <trkpt lat="42.98125" lon="-0.24436">
        <ele>1500.8000488281</ele>
        <time>2019-09-28T07:55:00Z</time>
      </trkpt>
      <trkpt lat="42.98127" lon="-0.24435">
        <ele>1501.1999511719</ele>
        <time>2019-09-28T07:55:01Z</time>
      </trkpt>
      <trkpt lat="42.98129" lon="-0.24433">
        <ele>1501.5999755859</ele>
        <time>2019-09-28T07:55:02Z</time>
      </trkpt>
      <trkpt lat="42.98137" lon="-0.24425">
        <ele>1501.5999755859</ele>
        <time>2019-09-28T07:55:07Z</time>
      </trkpt>
      <trkpt lat="42.98141" lon="-0.2442">
        <ele>1502</ele>
        <time>2019-09-28T07:55:10Z</time>
      </trkpt>
      <trkpt lat="42.98142" lon="-0.24417">
        <ele>1502.4000244141</ele>
        <time>2019-09-28T07:55:11Z</time>
      </trkpt>
      <trkpt lat="42.98144" lon="-0.24415">
        <ele>1502.8000488281</ele>
        <time>2019-09-28T07:55:12Z</time>
      </trkpt>
      <trkpt lat="42.98144" lon="-0.24412">
        <ele>1503.4000244141</ele>
        <time>2019-09-28T07:55:13Z</time>
      </trkpt>
      <trkpt lat="42.98145" lon="-0.24409">
        <ele>1503.8000488281</ele>
        <time>2019-09-28T07:55:14Z</time>
      </trkpt>
      <trkpt lat="42.98143" lon="-0.24394">
        <ele>1503.8000488281</ele>
        <time>2019-09-28T07:55:19Z</time>
      </trkpt>
      <trkpt lat="42.98144" lon="-0.24378">
        <ele>1503.8000488281</ele>
        <time>2019-09-28T07:55:24Z</time>
      </trkpt>
      <trkpt lat="42.98148" lon="-0.24367">
        <ele>1504.1999511719</ele>
        <time>2019-09-28T07:55:29Z</time>
      </trkpt>
      <trkpt lat="42.9815" lon="-0.24365">
        <ele>1504.5999755859</ele>
        <time>2019-09-28T07:55:30Z</time>
      </trkpt>
      <trkpt lat="42.98151" lon="-0.24363">
        <ele>1505</ele>
        <time>2019-09-28T07:55:31Z</time>
      </trkpt>
      <trkpt lat="42.98153" lon="-0.24361">
        <ele>1505.4000244141</ele>
        <time>2019-09-28T07:55:32Z</time>
      </trkpt>
      <trkpt lat="42.98155" lon="-0.24359">
        <ele>1506</ele>
        <time>2019-09-28T07:55:33Z</time>
      </trkpt>
      <trkpt lat="42.98163" lon="-0.2435">
        <ele>1506</ele>
        <time>2019-09-28T07:55:38Z</time>
      </trkpt>
      <trkpt lat="42.9817" lon="-0.24339">
        <ele>1506.4000244141</ele>
        <time>2019-09-28T07:55:43Z</time>
      </trkpt>
      <trkpt lat="42.98171" lon="-0.24337">
        <ele>1507.1999511719</ele>
        <time>2019-09-28T07:55:44Z</time>
      </trkpt>
      <trkpt lat="42.98173" lon="-0.24335">
        <ele>1507.5999755859</ele>
        <time>2019-09-28T07:55:45Z</time>
      </trkpt>
      <trkpt lat="42.98175" lon="-0.24334">
        <ele>1508</ele>
        <time>2019-09-28T07:55:46Z</time>
      </trkpt>
      <trkpt lat="42.98182" lon="-0.24327">
        <ele>1508</ele>
        <time>2019-09-28T07:55:50Z</time>
      </trkpt>
      <trkpt lat="42.98184" lon="-0.24326">
        <ele>1508</ele>
        <time>2019-09-28T07:55:51Z</time>
      </trkpt>
      <trkpt lat="42.98189" lon="-0.24322">
        <ele>1508.4000244141</ele>
        <time>2019-09-28T07:55:54Z</time>
      </trkpt>
      <trkpt lat="42.98191" lon="-0.24321">
        <ele>1508.8000488281</ele>
        <time>2019-09-28T07:55:55Z</time>
      </trkpt>
      <trkpt lat="42.98193" lon="-0.24319">
        <ele>1509.1999511719</ele>
        <time>2019-09-28T07:55:56Z</time>
      </trkpt>
      <trkpt lat="42.98195" lon="-0.24318">
        <ele>1509.5999755859</ele>
        <time>2019-09-28T07:55:57Z</time>
      </trkpt>
      <trkpt lat="42.98197" lon="-0.24316">
        <ele>1510</ele>
        <time>2019-09-28T07:55:58Z</time>
      </trkpt>
      <trkpt lat="42.98205" lon="-0.24307">
        <ele>1510</ele>
        <time>2019-09-28T07:56:03Z</time>
      </trkpt>
      <trkpt lat="42.98219" lon="-0.24289">
        <ele>1510</ele>
        <time>2019-09-28T07:56:11Z</time>
      </trkpt>
      <trkpt lat="42.9822" lon="-0.24286">
        <ele>1510.4000244141</ele>
        <time>2019-09-28T07:56:12Z</time>
      </trkpt>
      <trkpt lat="42.98221" lon="-0.24284">
        <ele>1510.8000488281</ele>
        <time>2019-09-28T07:56:13Z</time>
      </trkpt>
      <trkpt lat="42.98223" lon="-0.24282">
        <ele>1511.1999511719</ele>
        <time>2019-09-28T07:56:14Z</time>
      </trkpt>
      <trkpt lat="42.98224" lon="-0.24279">
        <ele>1511.5999755859</ele>
        <time>2019-09-28T07:56:15Z</time>
      </trkpt>
      <trkpt lat="42.98225" lon="-0.24276">
        <ele>1512</ele>
        <time>2019-09-28T07:56:16Z</time>
      </trkpt>
      <trkpt lat="42.98227" lon="-0.24271">
        <ele>1512</ele>
        <time>2019-09-28T07:56:18Z</time>
      </trkpt>
      <trkpt lat="42.98231" lon="-0.24256">
        <ele>1512</ele>
        <time>2019-09-28T07:56:24Z</time>
      </trkpt>
      <trkpt lat="42.98232" lon="-0.24247">
        <ele>1512.4000244141</ele>
        <time>2019-09-28T07:56:28Z</time>
      </trkpt>
      <trkpt lat="42.98232" lon="-0.24245">
        <ele>1512.8000488281</ele>
        <time>2019-09-28T07:56:29Z</time>
      </trkpt>
      <trkpt lat="42.98233" lon="-0.24242">
        <ele>1513.4000244141</ele>
        <time>2019-09-28T07:56:30Z</time>
      </trkpt>
      <trkpt lat="42.98234" lon="-0.2424">
        <ele>1513.8000488281</ele>
        <time>2019-09-28T07:56:31Z</time>
      </trkpt>
      <trkpt lat="42.98234" lon="-0.24237">
        <ele>1514.1999511719</ele>
        <time>2019-09-28T07:56:32Z</time>
      </trkpt>
      <trkpt lat="42.98234" lon="-0.24234">
        <ele>1514.1999511719</ele>
        <time>2019-09-28T07:56:33Z</time>
      </trkpt>
      <trkpt lat="42.98236" lon="-0.24226">
        <ele>1514.1999511719</ele>
        <time>2019-09-28T07:56:36Z</time>
      </trkpt>
      <trkpt lat="42.9824" lon="-0.2421">
        <ele>1514.1999511719</ele>
        <time>2019-09-28T07:56:42Z</time>
      </trkpt>
      <trkpt lat="42.98241" lon="-0.24208">
        <ele>1514.5999755859</ele>
        <time>2019-09-28T07:56:43Z</time>
      </trkpt>
      <trkpt lat="42.98242" lon="-0.24205">
        <ele>1515</ele>
        <time>2019-09-28T07:56:44Z</time>
      </trkpt>
      <trkpt lat="42.98243" lon="-0.24203">
        <ele>1515.4000244141</ele>
        <time>2019-09-28T07:56:45Z</time>
      </trkpt>
      <trkpt lat="42.98243" lon="-0.242">
        <ele>1515.8000488281</ele>
        <time>2019-09-28T07:56:46Z</time>
      </trkpt>
      <trkpt lat="42.98244" lon="-0.24197">
        <ele>1516.4000244141</ele>
        <time>2019-09-28T07:56:47Z</time>
      </trkpt>
      <trkpt lat="42.98247" lon="-0.24193">
        <ele>1516.4000244141</ele>
        <time>2019-09-28T07:56:49Z</time>
      </trkpt>
      <trkpt lat="42.98251" lon="-0.24184">
        <ele>1516.4000244141</ele>
        <time>2019-09-28T07:56:53Z</time>
      </trkpt>
      <trkpt lat="42.98252" lon="-0.24182">
        <ele>1516.4000244141</ele>
        <time>2019-09-28T07:56:54Z</time>
      </trkpt>
      <trkpt lat="42.98254" lon="-0.24174">
        <ele>1516.8000488281</ele>
        <time>2019-09-28T07:56:57Z</time>
      </trkpt>
      <trkpt lat="42.98255" lon="-0.24172">
        <ele>1517.5999755859</ele>
        <time>2019-09-28T07:56:58Z</time>
      </trkpt>
      <trkpt lat="42.98256" lon="-0.2417">
        <ele>1518</ele>
        <time>2019-09-28T07:56:59Z</time>
      </trkpt>
      <trkpt lat="42.98256" lon="-0.24168">
        <ele>1518.4000244141</ele>
        <time>2019-09-28T07:57:00Z</time>
      </trkpt>
      <trkpt lat="42.98263" lon="-0.24154">
        <ele>1518.4000244141</ele>
        <time>2019-09-28T07:57:06Z</time>
      </trkpt>
      <trkpt lat="42.98264" lon="-0.24151">
        <ele>1518.8000488281</ele>
        <time>2019-09-28T07:57:07Z</time>
      </trkpt>
      <trkpt lat="42.98265" lon="-0.24149">
        <ele>1519.1999511719</ele>
        <time>2019-09-28T07:57:08Z</time>
      </trkpt>
      <trkpt lat="42.98266" lon="-0.24147">
        <ele>1519.5999755859</ele>
        <time>2019-09-28T07:57:09Z</time>
      </trkpt>
      <trkpt lat="42.98267" lon="-0.24144">
        <ele>1520</ele>
        <time>2019-09-28T07:57:10Z</time>
      </trkpt>
      <trkpt lat="42.98268" lon="-0.24142">
        <ele>1520.4000244141</ele>
        <time>2019-09-28T07:57:11Z</time>
      </trkpt>
      <trkpt lat="42.98275" lon="-0.24129">
        <ele>1520.4000244141</ele>
        <time>2019-09-28T07:57:18Z</time>
      </trkpt>
      <trkpt lat="42.98276" lon="-0.24127">
        <ele>1520.4000244141</ele>
        <time>2019-09-28T07:57:19Z</time>
      </trkpt>
      <trkpt lat="42.98276" lon="-0.24121">
        <ele>1520.8000488281</ele>
        <time>2019-09-28T07:57:22Z</time>
      </trkpt>
      <trkpt lat="42.98276" lon="-0.24119">
        <ele>1521.8000488281</ele>
        <time>2019-09-28T07:57:23Z</time>
      </trkpt>
      <trkpt lat="42.98275" lon="-0.24118">
        <ele>1522.1999511719</ele>
        <time>2019-09-28T07:57:24Z</time>
      </trkpt>
      <trkpt lat="42.98275" lon="-0.24117">
        <ele>1522.5999755859</ele>
        <time>2019-09-28T07:57:25Z</time>
      </trkpt>
      <trkpt lat="42.98274" lon="-0.24112">
        <ele>1522.5999755859</ele>
        <time>2019-09-28T07:57:28Z</time>
      </trkpt>
      <trkpt lat="42.98274" lon="-0.2411">
        <ele>1522.5999755859</ele>
        <time>2019-09-28T07:57:29Z</time>
      </trkpt>
      <trkpt lat="42.98272" lon="-0.24104">
        <ele>1522.5999755859</ele>
        <time>2019-09-28T07:57:33Z</time>
      </trkpt>
      <trkpt lat="42.98271" lon="-0.24103">
        <ele>1522.5999755859</ele>
        <time>2019-09-28T07:57:34Z</time>
      </trkpt>
      <trkpt lat="42.98271" lon="-0.24104">
        <ele>1523</ele>
        <time>2019-09-28T07:57:35Z</time>
      </trkpt>
      <trkpt lat="42.98271" lon="-0.24104">
        <ele>1523.4000244141</ele>
        <time>2019-09-28T07:57:36Z</time>
      </trkpt>
      <trkpt lat="42.98271" lon="-0.24104">
        <ele>1523.8000488281</ele>
        <time>2019-09-28T07:57:37Z</time>
      </trkpt>
      <trkpt lat="42.98271" lon="-0.24104">
        <ele>1524.4000244141</ele>
        <time>2019-09-28T07:57:38Z</time>
      </trkpt>
      <trkpt lat="42.98271" lon="-0.24104">
        <ele>1524.8000488281</ele>
        <time>2019-09-28T07:57:39Z</time>
      </trkpt>
      <trkpt lat="42.98271" lon="-0.24104">
        <ele>1524.8000488281</ele>
        <time>2019-09-28T07:57:40Z</time>
      </trkpt>
      <trkpt lat="42.98271" lon="-0.24104">
        <ele>1524.8000488281</ele>
        <time>2019-09-28T07:57:51Z</time>
      </trkpt>
      <trkpt lat="42.98271" lon="-0.24104">
        <ele>1524.8000488281</ele>
        <time>2019-09-28T07:58:07Z</time>
      </trkpt>
      <trkpt lat="42.98271" lon="-0.24102">
        <ele>1524.8000488281</ele>
        <time>2019-09-28T07:58:15Z</time>
      </trkpt>
      <trkpt lat="42.98273" lon="-0.241">
        <ele>1524.8000488281</ele>
        <time>2019-09-28T07:58:19Z</time>
      </trkpt>
      <trkpt lat="42.98273" lon="-0.241">
        <ele>1524.8000488281</ele>
        <time>2019-09-28T07:58:29Z</time>
      </trkpt>
      <trkpt lat="42.98273" lon="-0.241">
        <ele>1524.8000488281</ele>
        <time>2019-09-28T07:58:43Z</time>
      </trkpt>
      <trkpt lat="42.98273" lon="-0.241">
        <ele>1524.8000488281</ele>
        <time>2019-09-28T07:58:54Z</time>
      </trkpt>
      <trkpt lat="42.98273" lon="-0.241">
        <ele>1524.8000488281</ele>
        <time>2019-09-28T07:59:06Z</time>
      </trkpt>
      <trkpt lat="42.98273" lon="-0.241">
        <ele>1524.8000488281</ele>
        <time>2019-09-28T07:59:22Z</time>
      </trkpt>
      <trkpt lat="42.98273" lon="-0.241">
        <ele>1524.8000488281</ele>
        <time>2019-09-28T07:59:34Z</time>
      </trkpt>
      <trkpt lat="42.98275" lon="-0.24104">
        <ele>1524.8000488281</ele>
        <time>2019-09-28T07:59:36Z</time>
      </trkpt>
      <trkpt lat="42.98273" lon="-0.24112">
        <ele>1524.8000488281</ele>
        <time>2019-09-28T07:59:39Z</time>
      </trkpt>
      <trkpt lat="42.98272" lon="-0.24116">
        <ele>1524.8000488281</ele>
        <time>2019-09-28T07:59:40Z</time>
      </trkpt>
      <trkpt lat="42.98263" lon="-0.24132">
        <ele>1524.8000488281</ele>
        <time>2019-09-28T07:59:45Z</time>
      </trkpt>
      <trkpt lat="42.98254" lon="-0.24152">
        <ele>1524.8000488281</ele>
        <time>2019-09-28T07:59:51Z</time>
      </trkpt>
      <trkpt lat="42.98246" lon="-0.24168">
        <ele>1524.8000488281</ele>
        <time>2019-09-28T07:59:57Z</time>
      </trkpt>
      <trkpt lat="42.98232" lon="-0.242">
        <ele>1524.8000488281</ele>
        <time>2019-09-28T08:00:05Z</time>
      </trkpt>
      <trkpt lat="42.9823" lon="-0.24205">
        <ele>1524.4000244141</ele>
        <time>2019-09-28T08:00:06Z</time>
      </trkpt>
      <trkpt lat="42.98229" lon="-0.2421">
        <ele>1523.8000488281</ele>
        <time>2019-09-28T08:00:07Z</time>
      </trkpt>
      <trkpt lat="42.98227" lon="-0.24216">
        <ele>1523.4000244141</ele>
        <time>2019-09-28T08:00:08Z</time>
      </trkpt>
      <trkpt lat="42.98226" lon="-0.24221">
        <ele>1523</ele>
        <time>2019-09-28T08:00:09Z</time>
      </trkpt>
      <trkpt lat="42.98224" lon="-0.24226">
        <ele>1522.5999755859</ele>
        <time>2019-09-28T08:00:10Z</time>
      </trkpt>
      <trkpt lat="42.98223" lon="-0.24231">
        <ele>1522.5999755859</ele>
        <time>2019-09-28T08:00:11Z</time>
      </trkpt>
      <trkpt lat="42.9822" lon="-0.24243">
        <ele>1522.5999755859</ele>
        <time>2019-09-28T08:00:13Z</time>
      </trkpt>
      <trkpt lat="42.98216" lon="-0.24255">
        <ele>1522.1999511719</ele>
        <time>2019-09-28T08:00:15Z</time>
      </trkpt>
      <trkpt lat="42.98214" lon="-0.24261">
        <ele>1521.1999511719</ele>
        <time>2019-09-28T08:00:16Z</time>
      </trkpt>
      <trkpt lat="42.9821" lon="-0.24268">
        <ele>1520.8000488281</ele>
        <time>2019-09-28T08:00:17Z</time>
      </trkpt>
      <trkpt lat="42.98207" lon="-0.24274">
        <ele>1520.1999511719</ele>
        <time>2019-09-28T08:00:18Z</time>
      </trkpt>
      <trkpt lat="42.98202" lon="-0.2428">
        <ele>1519.8000488281</ele>
        <time>2019-09-28T08:00:19Z</time>
      </trkpt>
      <trkpt lat="42.98198" lon="-0.24285">
        <ele>1519.1999511719</ele>
        <time>2019-09-28T08:00:20Z</time>
      </trkpt>
      <trkpt lat="42.98193" lon="-0.24291">
        <ele>1518.8000488281</ele>
        <time>2019-09-28T08:00:21Z</time>
      </trkpt>
      <trkpt lat="42.98189" lon="-0.24295">
        <ele>1518.4000244141</ele>
        <time>2019-09-28T08:00:22Z</time>
      </trkpt>
      <trkpt lat="42.98186" lon="-0.24298">
        <ele>1517.8000488281</ele>
        <time>2019-09-28T08:00:23Z</time>
      </trkpt>
      <trkpt lat="42.9818" lon="-0.24305">
        <ele>1517.8000488281</ele>
        <time>2019-09-28T08:00:25Z</time>
      </trkpt>
      <trkpt lat="42.98159" lon="-0.24325">
        <ele>1517.8000488281</ele>
        <time>2019-09-28T08:00:31Z</time>
      </trkpt>
      <trkpt lat="42.98145" lon="-0.2434">
        <ele>1517.8000488281</ele>
        <time>2019-09-28T08:00:35Z</time>
      </trkpt>
      <trkpt lat="42.98134" lon="-0.24354">
        <ele>1517.8000488281</ele>
        <time>2019-09-28T08:00:38Z</time>
      </trkpt>
      <trkpt lat="42.98126" lon="-0.24363">
        <ele>1517.4000244141</ele>
        <time>2019-09-28T08:00:40Z</time>
      </trkpt>
      <trkpt lat="42.98122" lon="-0.24367">
        <ele>1516.5999755859</ele>
        <time>2019-09-28T08:00:41Z</time>
      </trkpt>
      <trkpt lat="42.98118" lon="-0.24372">
        <ele>1516</ele>
        <time>2019-09-28T08:00:42Z</time>
      </trkpt>
      <trkpt lat="42.98115" lon="-0.24376">
        <ele>1515.5999755859</ele>
        <time>2019-09-28T08:00:43Z</time>
      </trkpt>
      <trkpt lat="42.98111" lon="-0.2438">
        <ele>1515.5999755859</ele>
        <time>2019-09-28T08:00:44Z</time>
      </trkpt>
      <trkpt lat="42.98104" lon="-0.24387">
        <ele>1515.5999755859</ele>
        <time>2019-09-28T08:00:46Z</time>
      </trkpt>
      <trkpt lat="42.98097" lon="-0.24393">
        <ele>1515.5999755859</ele>
        <time>2019-09-28T08:00:48Z</time>
      </trkpt>
      <trkpt lat="42.9809" lon="-0.24399">
        <ele>1515.5999755859</ele>
        <time>2019-09-28T08:00:50Z</time>
      </trkpt>
      <trkpt lat="42.98069" lon="-0.24412">
        <ele>1515.5999755859</ele>
        <time>2019-09-28T08:00:55Z</time>
      </trkpt>
      <trkpt lat="42.98065" lon="-0.24415">
        <ele>1515.1999511719</ele>
        <time>2019-09-28T08:00:56Z</time>
      </trkpt>
      <trkpt lat="42.98061" lon="-0.24418">
        <ele>1514.5999755859</ele>
        <time>2019-09-28T08:00:57Z</time>
      </trkpt>
      <trkpt lat="42.98057" lon="-0.24422">
        <ele>1514.1999511719</ele>
        <time>2019-09-28T08:00:58Z</time>
      </trkpt>
      <trkpt lat="42.98053" lon="-0.24426">
        <ele>1513.5999755859</ele>
        <time>2019-09-28T08:00:59Z</time>
      </trkpt>
      <trkpt lat="42.98049" lon="-0.2443">
        <ele>1513.1999511719</ele>
        <time>2019-09-28T08:01:00Z</time>
      </trkpt>
      <trkpt lat="42.98043" lon="-0.24438">
        <ele>1513.1999511719</ele>
        <time>2019-09-28T08:01:02Z</time>
      </trkpt>
      <trkpt lat="42.98031" lon="-0.24455">
        <ele>1513.1999511719</ele>
        <time>2019-09-28T08:01:06Z</time>
      </trkpt>
      <trkpt lat="42.98022" lon="-0.2448">
        <ele>1512.8000488281</ele>
        <time>2019-09-28T08:01:10Z</time>
      </trkpt>
      <trkpt lat="42.98022" lon="-0.24487">
        <ele>1512.4000244141</ele>
        <time>2019-09-28T08:01:11Z</time>
      </trkpt>
      <trkpt lat="42.98021" lon="-0.24494">
        <ele>1512</ele>
        <time>2019-09-28T08:01:12Z</time>
      </trkpt>
      <trkpt lat="42.98021" lon="-0.245">
        <ele>1511.5999755859</ele>
        <time>2019-09-28T08:01:13Z</time>
      </trkpt>
      <trkpt lat="42.98022" lon="-0.24508">
        <ele>1511.1999511719</ele>
        <time>2019-09-28T08:01:14Z</time>
      </trkpt>
      <trkpt lat="42.98024" lon="-0.24536">
        <ele>1511.1999511719</ele>
        <time>2019-09-28T08:01:18Z</time>
      </trkpt>
      <trkpt lat="42.98023" lon="-0.24551">
        <ele>1511.1999511719</ele>
        <time>2019-09-28T08:01:20Z</time>
      </trkpt>
      <trkpt lat="42.98023" lon="-0.24558">
        <ele>1511.1999511719</ele>
        <time>2019-09-28T08:01:21Z</time>
      </trkpt>
      <trkpt lat="42.9802" lon="-0.24584">
        <ele>1511.1999511719</ele>
        <time>2019-09-28T08:01:25Z</time>
      </trkpt>
      <trkpt lat="42.98019" lon="-0.24596">
        <ele>1511.1999511719</ele>
        <time>2019-09-28T08:01:27Z</time>
      </trkpt>
      <trkpt lat="42.98017" lon="-0.24614">
        <ele>1511.1999511719</ele>
        <time>2019-09-28T08:01:30Z</time>
      </trkpt>
      <trkpt lat="42.98016" lon="-0.2462">
        <ele>1510.8000488281</ele>
        <time>2019-09-28T08:01:31Z</time>
      </trkpt>
      <trkpt lat="42.98015" lon="-0.24626">
        <ele>1510.4000244141</ele>
        <time>2019-09-28T08:01:32Z</time>
      </trkpt>
      <trkpt lat="42.98014" lon="-0.24632">
        <ele>1510</ele>
        <time>2019-09-28T08:01:33Z</time>
      </trkpt>
      <trkpt lat="42.98012" lon="-0.24638">
        <ele>1509.5999755859</ele>
        <time>2019-09-28T08:01:34Z</time>
      </trkpt>
      <trkpt lat="42.98011" lon="-0.24645">
        <ele>1509.1999511719</ele>
        <time>2019-09-28T08:01:35Z</time>
      </trkpt>
      <trkpt lat="42.98009" lon="-0.24651">
        <ele>1509.1999511719</ele>
        <time>2019-09-28T08:01:36Z</time>
      </trkpt>
      <trkpt lat="42.98004" lon="-0.2466">
        <ele>1509.1999511719</ele>
        <time>2019-09-28T08:01:38Z</time>
      </trkpt>
      <trkpt lat="42.97997" lon="-0.24666">
        <ele>1509.1999511719</ele>
        <time>2019-09-28T08:01:40Z</time>
      </trkpt>
      <trkpt lat="42.97991" lon="-0.24672">
        <ele>1509.1999511719</ele>
        <time>2019-09-28T08:01:42Z</time>
      </trkpt>
      <trkpt lat="42.97974" lon="-0.24686">
        <ele>1509.1999511719</ele>
        <time>2019-09-28T08:01:48Z</time>
      </trkpt>
      <trkpt lat="42.97955" lon="-0.24696">
        <ele>1509.1999511719</ele>
        <time>2019-09-28T08:01:54Z</time>
      </trkpt>
      <trkpt lat="42.97944" lon="-0.247">
        <ele>1508.8000488281</ele>
        <time>2019-09-28T08:01:57Z</time>
      </trkpt>
      <trkpt lat="42.9794" lon="-0.247">
        <ele>1508.4000244141</ele>
        <time>2019-09-28T08:01:58Z</time>
      </trkpt>
      <trkpt lat="42.97936" lon="-0.247">
        <ele>1507.8000488281</ele>
        <time>2019-09-28T08:01:59Z</time>
      </trkpt>
      <trkpt lat="42.97932" lon="-0.24702">
        <ele>1507.4000244141</ele>
        <time>2019-09-28T08:02:00Z</time>
      </trkpt>
      <trkpt lat="42.97929" lon="-0.24703">
        <ele>1507</ele>
        <time>2019-09-28T08:02:01Z</time>
      </trkpt>
      <trkpt lat="42.97922" lon="-0.24705">
        <ele>1507</ele>
        <time>2019-09-28T08:02:03Z</time>
      </trkpt>
      <trkpt lat="42.97901" lon="-0.24714">
        <ele>1507</ele>
        <time>2019-09-28T08:02:09Z</time>
      </trkpt>
      <trkpt lat="42.97889" lon="-0.24727">
        <ele>1507</ele>
        <time>2019-09-28T08:02:13Z</time>
      </trkpt>
      <trkpt lat="42.97869" lon="-0.24744">
        <ele>1507</ele>
        <time>2019-09-28T08:02:19Z</time>
      </trkpt>
      <trkpt lat="42.97845" lon="-0.24764">
        <ele>1507</ele>
        <time>2019-09-28T08:02:26Z</time>
      </trkpt>
      <trkpt lat="42.97831" lon="-0.24772">
        <ele>1507</ele>
        <time>2019-09-28T08:02:30Z</time>
      </trkpt>
      <trkpt lat="42.97816" lon="-0.24774">
        <ele>1506.5999755859</ele>
        <time>2019-09-28T08:02:34Z</time>
      </trkpt>
      <trkpt lat="42.97812" lon="-0.24774">
        <ele>1506.1999511719</ele>
        <time>2019-09-28T08:02:35Z</time>
      </trkpt>
      <trkpt lat="42.97808" lon="-0.24773">
        <ele>1505.8000488281</ele>
        <time>2019-09-28T08:02:36Z</time>
      </trkpt>
      <trkpt lat="42.97803" lon="-0.24772">
        <ele>1505.1999511719</ele>
        <time>2019-09-28T08:02:37Z</time>
      </trkpt>
      <trkpt lat="42.97799" lon="-0.2477">
        <ele>1504.8000488281</ele>
        <time>2019-09-28T08:02:38Z</time>
      </trkpt>
      <trkpt lat="42.97789" lon="-0.24765">
        <ele>1504.8000488281</ele>
        <time>2019-09-28T08:02:41Z</time>
      </trkpt>
      <trkpt lat="42.97779" lon="-0.24759">
        <ele>1504.4000244141</ele>
        <time>2019-09-28T08:02:44Z</time>
      </trkpt>
      <trkpt lat="42.97775" lon="-0.24758">
        <ele>1504</ele>
        <time>2019-09-28T08:02:45Z</time>
      </trkpt>
      <trkpt lat="42.97771" lon="-0.24756">
        <ele>1503.5999755859</ele>
        <time>2019-09-28T08:02:46Z</time>
      </trkpt>
      <trkpt lat="42.97767" lon="-0.24755">
        <ele>1503.1999511719</ele>
        <time>2019-09-28T08:02:47Z</time>
      </trkpt>
      <trkpt lat="42.97764" lon="-0.24752">
        <ele>1502.8000488281</ele>
        <time>2019-09-28T08:02:48Z</time>
      </trkpt>
      <trkpt lat="42.97761" lon="-0.2475">
        <ele>1502.8000488281</ele>
        <time>2019-09-28T08:02:49Z</time>
      </trkpt>
      <trkpt lat="42.97755" lon="-0.24742">
        <ele>1502.4000244141</ele>
        <time>2019-09-28T08:02:51Z</time>
      </trkpt>
      <trkpt lat="42.97753" lon="-0.24736">
        <ele>1501.8000488281</ele>
        <time>2019-09-28T08:02:52Z</time>
      </trkpt>
      <trkpt lat="42.97751" lon="-0.24731">
        <ele>1501.4000244141</ele>
        <time>2019-09-28T08:02:53Z</time>
      </trkpt>
      <trkpt lat="42.9775" lon="-0.24726">
        <ele>1500.8000488281</ele>
        <time>2019-09-28T08:02:54Z</time>
      </trkpt>
      <trkpt lat="42.97747" lon="-0.2472">
        <ele>1500.4000244141</ele>
        <time>2019-09-28T08:02:55Z</time>
      </trkpt>
      <trkpt lat="42.97741" lon="-0.24711">
        <ele>1500.4000244141</ele>
        <time>2019-09-28T08:02:57Z</time>
      </trkpt>
      <trkpt lat="42.97734" lon="-0.24704">
        <ele>1500.4000244141</ele>
        <time>2019-09-28T08:02:59Z</time>
      </trkpt>
      <trkpt lat="42.9773" lon="-0.24702">
        <ele>1500.4000244141</ele>
        <time>2019-09-28T08:03:00Z</time>
      </trkpt>
      <trkpt lat="42.97726" lon="-0.247">
        <ele>1500.4000244141</ele>
        <time>2019-09-28T08:03:01Z</time>
      </trkpt>
      <trkpt lat="42.97713" lon="-0.24697">
        <ele>1500.4000244141</ele>
        <time>2019-09-28T08:03:04Z</time>
      </trkpt>
      <trkpt lat="42.97705" lon="-0.24695">
        <ele>1500.4000244141</ele>
        <time>2019-09-28T08:03:06Z</time>
      </trkpt>
      <trkpt lat="42.97682" lon="-0.24688">
        <ele>1500.4000244141</ele>
        <time>2019-09-28T08:03:11Z</time>
      </trkpt>
      <trkpt lat="42.97677" lon="-0.24687">
        <ele>1500.4000244141</ele>
        <time>2019-09-28T08:03:12Z</time>
      </trkpt>
      <trkpt lat="42.97662" lon="-0.24687">
        <ele>1500</ele>
        <time>2019-09-28T08:03:15Z</time>
      </trkpt>
      <trkpt lat="42.97658" lon="-0.24687">
        <ele>1499.5999755859</ele>
        <time>2019-09-28T08:03:16Z</time>
      </trkpt>
      <trkpt lat="42.97653" lon="-0.24687">
        <ele>1499.1999511719</ele>
        <time>2019-09-28T08:03:17Z</time>
      </trkpt>
      <trkpt lat="42.97649" lon="-0.24688">
        <ele>1498.5999755859</ele>
        <time>2019-09-28T08:03:18Z</time>
      </trkpt>
      <trkpt lat="42.97644" lon="-0.24689">
        <ele>1498.1999511719</ele>
        <time>2019-09-28T08:03:19Z</time>
      </trkpt>
      <trkpt lat="42.97635" lon="-0.24692">
        <ele>1498.1999511719</ele>
        <time>2019-09-28T08:03:21Z</time>
      </trkpt>
      <trkpt lat="42.97626" lon="-0.24699">
        <ele>1498.1999511719</ele>
        <time>2019-09-28T08:03:23Z</time>
      </trkpt>
      <trkpt lat="42.97614" lon="-0.24713">
        <ele>1498.1999511719</ele>
        <time>2019-09-28T08:03:26Z</time>
      </trkpt>
      <trkpt lat="42.97608" lon="-0.24721">
        <ele>1498.1999511719</ele>
        <time>2019-09-28T08:03:28Z</time>
      </trkpt>
      <trkpt lat="42.97605" lon="-0.24724">
        <ele>1498.1999511719</ele>
        <time>2019-09-28T08:03:29Z</time>
      </trkpt>
      <trkpt lat="42.97591" lon="-0.24732">
        <ele>1498.1999511719</ele>
        <time>2019-09-28T08:03:33Z</time>
      </trkpt>
      <trkpt lat="42.97573" lon="-0.24743">
        <ele>1498.1999511719</ele>
        <time>2019-09-28T08:03:39Z</time>
      </trkpt>
      <trkpt lat="42.97556" lon="-0.24754">
        <ele>1498.1999511719</ele>
        <time>2019-09-28T08:03:44Z</time>
      </trkpt>
      <trkpt lat="42.97552" lon="-0.24756">
        <ele>1498.1999511719</ele>
        <time>2019-09-28T08:03:45Z</time>
      </trkpt>
      <trkpt lat="42.97538" lon="-0.24756">
        <ele>1498.1999511719</ele>
        <time>2019-09-28T08:03:49Z</time>
      </trkpt>
      <trkpt lat="42.97529" lon="-0.24746">
        <ele>1498.1999511719</ele>
        <time>2019-09-28T08:03:53Z</time>
      </trkpt>
      <trkpt lat="42.97517" lon="-0.24731">
        <ele>1498.1999511719</ele>
        <time>2019-09-28T08:03:59Z</time>
      </trkpt>
      <trkpt lat="42.97506" lon="-0.24725">
        <ele>1498.1999511719</ele>
        <time>2019-09-28T08:04:05Z</time>
      </trkpt>
      <trkpt lat="42.97501" lon="-0.24722">
        <ele>1498.1999511719</ele>
        <time>2019-09-28T08:04:11Z</time>
      </trkpt>
      <trkpt lat="42.97501" lon="-0.24722">
        <ele>1498.5999755859</ele>
        <time>2019-09-28T08:04:15Z</time>
      </trkpt>
      <trkpt lat="42.97501" lon="-0.24722">
        <ele>1499</ele>
        <time>2019-09-28T08:04:16Z</time>
      </trkpt>
      <trkpt lat="42.97501" lon="-0.24722">
        <ele>1499.4000244141</ele>
        <time>2019-09-28T08:04:17Z</time>
      </trkpt>
      <trkpt lat="42.97501" lon="-0.24722">
        <ele>1499.8000488281</ele>
        <time>2019-09-28T08:04:18Z</time>
      </trkpt>
      <trkpt lat="42.97501" lon="-0.24722">
        <ele>1500.1999511719</ele>
        <time>2019-09-28T08:04:19Z</time>
      </trkpt>
      <trkpt lat="42.97501" lon="-0.24722">
        <ele>1500.1999511719</ele>
        <time>2019-09-28T08:04:30Z</time>
      </trkpt>
      <trkpt lat="42.975" lon="-0.24722">
        <ele>1500.1999511719</ele>
        <time>2019-09-28T08:04:44Z</time>
      </trkpt>
      <trkpt lat="42.97494" lon="-0.24726">
        <ele>1500.1999511719</ele>
        <time>2019-09-28T08:04:49Z</time>
      </trkpt>
      <trkpt lat="42.97489" lon="-0.24731">
        <ele>1500.1999511719</ele>
        <time>2019-09-28T08:04:52Z</time>
      </trkpt>
      <trkpt lat="42.97484" lon="-0.24732">
        <ele>1500.1999511719</ele>
        <time>2019-09-28T08:04:54Z</time>
      </trkpt>
      <trkpt lat="42.97468" lon="-0.2473">
        <ele>1500.1999511719</ele>
        <time>2019-09-28T08:05:01Z</time>
      </trkpt>
      <trkpt lat="42.97448" lon="-0.24733">
        <ele>1500.1999511719</ele>
        <time>2019-09-28T08:05:09Z</time>
      </trkpt>
      <trkpt lat="42.9744" lon="-0.24735">
        <ele>1500.8000488281</ele>
        <time>2019-09-28T08:05:12Z</time>
      </trkpt>
      <trkpt lat="42.97438" lon="-0.24736">
        <ele>1501.1999511719</ele>
        <time>2019-09-28T08:05:13Z</time>
      </trkpt>
      <trkpt lat="42.97436" lon="-0.24737">
        <ele>1501.5999755859</ele>
        <time>2019-09-28T08:05:14Z</time>
      </trkpt>
      <trkpt lat="42.97434" lon="-0.24737">
        <ele>1502</ele>
        <time>2019-09-28T08:05:15Z</time>
      </trkpt>
      <trkpt lat="42.97432" lon="-0.24738">
        <ele>1502.4000244141</ele>
        <time>2019-09-28T08:05:16Z</time>
      </trkpt>
      <trkpt lat="42.97423" lon="-0.24742">
        <ele>1502.8000488281</ele>
        <time>2019-09-28T08:05:21Z</time>
      </trkpt>
      <trkpt lat="42.97421" lon="-0.24743">
        <ele>1503.4000244141</ele>
        <time>2019-09-28T08:05:22Z</time>
      </trkpt>
      <trkpt lat="42.9742" lon="-0.24744">
        <ele>1503.8000488281</ele>
        <time>2019-09-28T08:05:23Z</time>
      </trkpt>
      <trkpt lat="42.97418" lon="-0.24745">
        <ele>1504.1999511719</ele>
        <time>2019-09-28T08:05:24Z</time>
      </trkpt>
      <trkpt lat="42.97416" lon="-0.24747">
        <ele>1504.5999755859</ele>
        <time>2019-09-28T08:05:25Z</time>
      </trkpt>
      <trkpt lat="42.97412" lon="-0.24753">
        <ele>1504.5999755859</ele>
        <time>2019-09-28T08:05:28Z</time>
      </trkpt>
      <trkpt lat="42.97403" lon="-0.24758">
        <ele>1505.1999511719</ele>
        <time>2019-09-28T08:05:33Z</time>
      </trkpt>
      <trkpt lat="42.97402" lon="-0.24758">
        <ele>1505.5999755859</ele>
        <time>2019-09-28T08:05:34Z</time>
      </trkpt>
      <trkpt lat="42.974" lon="-0.24759">
        <ele>1506</ele>
        <time>2019-09-28T08:05:35Z</time>
      </trkpt>
      <trkpt lat="42.97399" lon="-0.24759">
        <ele>1506.4000244141</ele>
        <time>2019-09-28T08:05:36Z</time>
      </trkpt>
      <trkpt lat="42.97397" lon="-0.24759">
        <ele>1506.8000488281</ele>
        <time>2019-09-28T08:05:37Z</time>
      </trkpt>
      <trkpt lat="42.97388" lon="-0.24759">
        <ele>1507.1999511719</ele>
        <time>2019-09-28T08:05:42Z</time>
      </trkpt>
      <trkpt lat="42.97385" lon="-0.24759">
        <ele>1507.5999755859</ele>
        <time>2019-09-28T08:05:43Z</time>
      </trkpt>
      <trkpt lat="42.97383" lon="-0.24759">
        <ele>1508.1999511719</ele>
        <time>2019-09-28T08:05:44Z</time>
      </trkpt>
      <trkpt lat="42.97382" lon="-0.24759">
        <ele>1508.5999755859</ele>
        <time>2019-09-28T08:05:45Z</time>
      </trkpt>
      <trkpt lat="42.9738" lon="-0.2476">
        <ele>1509</ele>
        <time>2019-09-28T08:05:46Z</time>
      </trkpt>
      <trkpt lat="42.97374" lon="-0.24759">
        <ele>1509</ele>
        <time>2019-09-28T08:05:49Z</time>
      </trkpt>
      <trkpt lat="42.97359" lon="-0.24756">
        <ele>1509.4000244141</ele>
        <time>2019-09-28T08:05:57Z</time>
      </trkpt>
      <trkpt lat="42.97358" lon="-0.24756">
        <ele>1509.8000488281</ele>
        <time>2019-09-28T08:05:58Z</time>
      </trkpt>
      <trkpt lat="42.97357" lon="-0.24756">
        <ele>1510.1999511719</ele>
        <time>2019-09-28T08:05:59Z</time>
      </trkpt>
      <trkpt lat="42.97355" lon="-0.24755">
        <ele>1510.5999755859</ele>
        <time>2019-09-28T08:06:00Z</time>
      </trkpt>
      <trkpt lat="42.97354" lon="-0.24756">
        <ele>1511.1999511719</ele>
        <time>2019-09-28T08:06:01Z</time>
      </trkpt>
      <trkpt lat="42.97351" lon="-0.24757">
        <ele>1511.1999511719</ele>
        <time>2019-09-28T08:06:03Z</time>
      </trkpt>
      <trkpt lat="42.97347" lon="-0.24758">
        <ele>1511.5999755859</ele>
        <time>2019-09-28T08:06:05Z</time>
      </trkpt>
      <trkpt lat="42.97345" lon="-0.24759">
        <ele>1512</ele>
        <time>2019-09-28T08:06:06Z</time>
      </trkpt>
      <trkpt lat="42.97344" lon="-0.2476">
        <ele>1512.4000244141</ele>
        <time>2019-09-28T08:06:07Z</time>
      </trkpt>
      <trkpt lat="42.97342" lon="-0.2476">
        <ele>1512.8000488281</ele>
        <time>2019-09-28T08:06:08Z</time>
      </trkpt>
      <trkpt lat="42.9734" lon="-0.24761">
        <ele>1513.1999511719</ele>
        <time>2019-09-28T08:06:09Z</time>
      </trkpt>
      <trkpt lat="42.97337" lon="-0.24761">
        <ele>1513.1999511719</ele>
        <time>2019-09-28T08:06:11Z</time>
      </trkpt>
      <trkpt lat="42.97326" lon="-0.24764">
        <ele>1513.1999511719</ele>
        <time>2019-09-28T08:06:17Z</time>
      </trkpt>
      <trkpt lat="42.97325" lon="-0.24764">
        <ele>1513.5999755859</ele>
        <time>2019-09-28T08:06:18Z</time>
      </trkpt>
      <trkpt lat="42.97323" lon="-0.24765">
        <ele>1514</ele>
        <time>2019-09-28T08:06:19Z</time>
      </trkpt>
      <trkpt lat="42.97321" lon="-0.24766">
        <ele>1514.4000244141</ele>
        <time>2019-09-28T08:06:20Z</time>
      </trkpt>
      <trkpt lat="42.97319" lon="-0.24767">
        <ele>1514.8000488281</ele>
        <time>2019-09-28T08:06:21Z</time>
      </trkpt>
      <trkpt lat="42.97317" lon="-0.24768">
        <ele>1515.1999511719</ele>
        <time>2019-09-28T08:06:22Z</time>
      </trkpt>
      <trkpt lat="42.97312" lon="-0.2477">
        <ele>1515.1999511719</ele>
        <time>2019-09-28T08:06:25Z</time>
      </trkpt>
      <trkpt lat="42.97297" lon="-0.24778">
        <ele>1515.1999511719</ele>
        <time>2019-09-28T08:06:33Z</time>
      </trkpt>
      <trkpt lat="42.9729" lon="-0.24785">
        <ele>1515.5999755859</ele>
        <time>2019-09-28T08:06:38Z</time>
      </trkpt>
      <trkpt lat="42.97289" lon="-0.24787">
        <ele>1516</ele>
        <time>2019-09-28T08:06:39Z</time>
      </trkpt>
      <trkpt lat="42.97287" lon="-0.24789">
        <ele>1516.4000244141</ele>
        <time>2019-09-28T08:06:40Z</time>
      </trkpt>
      <trkpt lat="42.97286" lon="-0.24791">
        <ele>1516.8000488281</ele>
        <time>2019-09-28T08:06:41Z</time>
      </trkpt>
      <trkpt lat="42.97285" lon="-0.24793">
        <ele>1517.1999511719</ele>
        <time>2019-09-28T08:06:42Z</time>
      </trkpt>
      <trkpt lat="42.97277" lon="-0.24807">
        <ele>1517.1999511719</ele>
        <time>2019-09-28T08:06:48Z</time>
      </trkpt>
      <trkpt lat="42.97267" lon="-0.24824">
        <ele>1517.5999755859</ele>
        <time>2019-09-28T08:06:56Z</time>
      </trkpt>
      <trkpt lat="42.97265" lon="-0.24826">
        <ele>1518</ele>
        <time>2019-09-28T08:06:57Z</time>
      </trkpt>
      <trkpt lat="42.97264" lon="-0.24829">
        <ele>1518.4000244141</ele>
        <time>2019-09-28T08:06:58Z</time>
      </trkpt>
      <trkpt lat="42.97263" lon="-0.24832">
        <ele>1518.8000488281</ele>
        <time>2019-09-28T08:06:59Z</time>
      </trkpt>
      <trkpt lat="42.97262" lon="-0.24835">
        <ele>1519.1999511719</ele>
        <time>2019-09-28T08:07:00Z</time>
      </trkpt>
      <trkpt lat="42.9726" lon="-0.24841">
        <ele>1519.1999511719</ele>
        <time>2019-09-28T08:07:02Z</time>
      </trkpt>
      <trkpt lat="42.97249" lon="-0.24862">
        <ele>1519.1999511719</ele>
        <time>2019-09-28T08:07:11Z</time>
      </trkpt>
      <trkpt lat="42.97242" lon="-0.24872">
        <ele>1520.1999511719</ele>
        <time>2019-09-28T08:07:16Z</time>
      </trkpt>
      <trkpt lat="42.9724" lon="-0.24875">
        <ele>1520.5999755859</ele>
        <time>2019-09-28T08:07:17Z</time>
      </trkpt>
      <trkpt lat="42.97238" lon="-0.24877">
        <ele>1521</ele>
        <time>2019-09-28T08:07:18Z</time>
      </trkpt>
      <trkpt lat="42.97237" lon="-0.24879">
        <ele>1521.4000244141</ele>
        <time>2019-09-28T08:07:19Z</time>
      </trkpt>
      <trkpt lat="42.97228" lon="-0.24888">
        <ele>1521.4000244141</ele>
        <time>2019-09-28T08:07:23Z</time>
      </trkpt>
      <trkpt lat="42.97213" lon="-0.24904">
        <ele>1521.4000244141</ele>
        <time>2019-09-28T08:07:28Z</time>
      </trkpt>
      <trkpt lat="42.97206" lon="-0.24913">
        <ele>1521</ele>
        <time>2019-09-28T08:07:30Z</time>
      </trkpt>
      <trkpt lat="42.97203" lon="-0.24919">
        <ele>1520.4000244141</ele>
        <time>2019-09-28T08:07:31Z</time>
      </trkpt>
      <trkpt lat="42.97201" lon="-0.24925">
        <ele>1520</ele>
        <time>2019-09-28T08:07:32Z</time>
      </trkpt>
      <trkpt lat="42.972" lon="-0.24931">
        <ele>1519.5999755859</ele>
        <time>2019-09-28T08:07:33Z</time>
      </trkpt>
      <trkpt lat="42.972" lon="-0.24936">
        <ele>1519.1999511719</ele>
        <time>2019-09-28T08:07:34Z</time>
      </trkpt>
      <trkpt lat="42.97199" lon="-0.24944">
        <ele>1519.1999511719</ele>
        <time>2019-09-28T08:07:36Z</time>
      </trkpt>
      <trkpt lat="42.97192" lon="-0.24969">
        <ele>1519.1999511719</ele>
        <time>2019-09-28T08:07:42Z</time>
      </trkpt>
      <trkpt lat="42.97185" lon="-0.25003">
        <ele>1519.1999511719</ele>
        <time>2019-09-28T08:07:50Z</time>
      </trkpt>
      <trkpt lat="42.97182" lon="-0.25045">
        <ele>1519.1999511719</ele>
        <time>2019-09-28T08:07:58Z</time>
      </trkpt>
      <trkpt lat="42.97177" lon="-0.25084">
        <ele>1519.1999511719</ele>
        <time>2019-09-28T08:08:06Z</time>
      </trkpt>
      <trkpt lat="42.97171" lon="-0.25115">
        <ele>1519.5999755859</ele>
        <time>2019-09-28T08:08:13Z</time>
      </trkpt>
      <trkpt lat="42.97171" lon="-0.2512">
        <ele>1520</ele>
        <time>2019-09-28T08:08:14Z</time>
      </trkpt>
      <trkpt lat="42.9717" lon="-0.25125">
        <ele>1520.4000244141</ele>
        <time>2019-09-28T08:08:15Z</time>
      </trkpt>
      <trkpt lat="42.9717" lon="-0.2513">
        <ele>1520.8000488281</ele>
        <time>2019-09-28T08:08:16Z</time>
      </trkpt>
      <trkpt lat="42.9717" lon="-0.25136">
        <ele>1521.1999511719</ele>
        <time>2019-09-28T08:08:17Z</time>
      </trkpt>
      <trkpt lat="42.97172" lon="-0.25147">
        <ele>1521.1999511719</ele>
        <time>2019-09-28T08:08:19Z</time>
      </trkpt>
      <trkpt lat="42.97181" lon="-0.25182">
        <ele>1521.1999511719</ele>
        <time>2019-09-28T08:08:25Z</time>
      </trkpt>
      <trkpt lat="42.97187" lon="-0.25211">
        <ele>1520.8000488281</ele>
        <time>2019-09-28T08:08:29Z</time>
      </trkpt>
      <trkpt lat="42.9719" lon="-0.25219">
        <ele>1519.8000488281</ele>
        <time>2019-09-28T08:08:30Z</time>
      </trkpt>
      <trkpt lat="42.97192" lon="-0.25226">
        <ele>1519.4000244141</ele>
        <time>2019-09-28T08:08:31Z</time>
      </trkpt>
      <trkpt lat="42.97195" lon="-0.25234">
        <ele>1519</ele>
        <time>2019-09-28T08:08:32Z</time>
      </trkpt>
      <trkpt lat="42.97203" lon="-0.2526">
        <ele>1518.5999755859</ele>
        <time>2019-09-28T08:08:35Z</time>
      </trkpt>
      <trkpt lat="42.97205" lon="-0.2527">
        <ele>1518.1999511719</ele>
        <time>2019-09-28T08:08:36Z</time>
      </trkpt>
      <trkpt lat="42.97206" lon="-0.2528">
        <ele>1517.8000488281</ele>
        <time>2019-09-28T08:08:37Z</time>
      </trkpt>
      <trkpt lat="42.97207" lon="-0.25289">
        <ele>1517.1999511719</ele>
        <time>2019-09-28T08:08:38Z</time>
      </trkpt>
      <trkpt lat="42.97208" lon="-0.253">
        <ele>1516.8000488281</ele>
        <time>2019-09-28T08:08:39Z</time>
      </trkpt>
      <trkpt lat="42.97207" lon="-0.2531">
        <ele>1516.1999511719</ele>
        <time>2019-09-28T08:08:40Z</time>
      </trkpt>
      <trkpt lat="42.97206" lon="-0.25319">
        <ele>1515.8000488281</ele>
        <time>2019-09-28T08:08:41Z</time>
      </trkpt>
      <trkpt lat="42.97205" lon="-0.25328">
        <ele>1515.1999511719</ele>
        <time>2019-09-28T08:08:42Z</time>
      </trkpt>
      <trkpt lat="42.97205" lon="-0.25337">
        <ele>1514.5999755859</ele>
        <time>2019-09-28T08:08:43Z</time>
      </trkpt>
      <trkpt lat="42.97201" lon="-0.25384">
        <ele>1514.5999755859</ele>
        <time>2019-09-28T08:08:48Z</time>
      </trkpt>
      <trkpt lat="42.97197" lon="-0.25403">
        <ele>1514.1999511719</ele>
        <time>2019-09-28T08:08:50Z</time>
      </trkpt>
      <trkpt lat="42.97195" lon="-0.25413">
        <ele>1513.5999755859</ele>
        <time>2019-09-28T08:08:51Z</time>
      </trkpt>
      <trkpt lat="42.97191" lon="-0.25422">
        <ele>1513</ele>
        <time>2019-09-28T08:08:52Z</time>
      </trkpt>
      <trkpt lat="42.97188" lon="-0.25431">
        <ele>1512.4000244141</ele>
        <time>2019-09-28T08:08:53Z</time>
      </trkpt>
      <trkpt lat="42.97185" lon="-0.25441">
        <ele>1511</ele>
        <time>2019-09-28T08:08:54Z</time>
      </trkpt>
      <trkpt lat="42.97181" lon="-0.25451">
        <ele>1510.1999511719</ele>
        <time>2019-09-28T08:08:55Z</time>
      </trkpt>
      <trkpt lat="42.97177" lon="-0.2546">
        <ele>1509.5999755859</ele>
        <time>2019-09-28T08:08:56Z</time>
      </trkpt>
      <trkpt lat="42.97173" lon="-0.25469">
        <ele>1509.5999755859</ele>
        <time>2019-09-28T08:08:57Z</time>
      </trkpt>
      <trkpt lat="42.9717" lon="-0.25479">
        <ele>1509.1999511719</ele>
        <time>2019-09-28T08:08:58Z</time>
      </trkpt>
      <trkpt lat="42.97167" lon="-0.2549">
        <ele>1508.5999755859</ele>
        <time>2019-09-28T08:08:59Z</time>
      </trkpt>
      <trkpt lat="42.97163" lon="-0.255">
        <ele>1508.1999511719</ele>
        <time>2019-09-28T08:09:00Z</time>
      </trkpt>
      <trkpt lat="42.9716" lon="-0.25511">
        <ele>1507.8000488281</ele>
        <time>2019-09-28T08:09:01Z</time>
      </trkpt>
      <trkpt lat="42.97156" lon="-0.25521">
        <ele>1507.1999511719</ele>
        <time>2019-09-28T08:09:02Z</time>
      </trkpt>
      <trkpt lat="42.97152" lon="-0.2553">
        <ele>1506.8000488281</ele>
        <time>2019-09-28T08:09:03Z</time>
      </trkpt>
      <trkpt lat="42.97149" lon="-0.25539">
        <ele>1506.1999511719</ele>
        <time>2019-09-28T08:09:04Z</time>
      </trkpt>
      <trkpt lat="42.97145" lon="-0.25548">
        <ele>1505.8000488281</ele>
        <time>2019-09-28T08:09:05Z</time>
      </trkpt>
      <trkpt lat="42.97142" lon="-0.25558">
        <ele>1505.4000244141</ele>
        <time>2019-09-28T08:09:06Z</time>
      </trkpt>
      <trkpt lat="42.97139" lon="-0.25565">
        <ele>1505.4000244141</ele>
        <time>2019-09-28T08:09:07Z</time>
      </trkpt>
      <trkpt lat="42.97135" lon="-0.25571">
        <ele>1505.4000244141</ele>
        <time>2019-09-28T08:09:08Z</time>
      </trkpt>
      <trkpt lat="42.97119" lon="-0.25584">
        <ele>1505.4000244141</ele>
        <time>2019-09-28T08:09:11Z</time>
      </trkpt>
      <trkpt lat="42.97117" lon="-0.25597">
        <ele>1505.4000244141</ele>
        <time>2019-09-28T08:09:13Z</time>
      </trkpt>
      <trkpt lat="42.97125" lon="-0.2561">
        <ele>1505.4000244141</ele>
        <time>2019-09-28T08:09:16Z</time>
      </trkpt>
      <trkpt lat="42.97133" lon="-0.25632">
        <ele>1505.4000244141</ele>
        <time>2019-09-28T08:09:21Z</time>
      </trkpt>
      <trkpt lat="42.97137" lon="-0.25667">
        <ele>1505.8000488281</ele>
        <time>2019-09-28T08:09:29Z</time>
      </trkpt>
      <trkpt lat="42.97137" lon="-0.25672">
        <ele>1506.1999511719</ele>
        <time>2019-09-28T08:09:30Z</time>
      </trkpt>
      <trkpt lat="42.97136" lon="-0.25676">
        <ele>1506.5999755859</ele>
        <time>2019-09-28T08:09:31Z</time>
      </trkpt>
      <trkpt lat="42.97136" lon="-0.2568">
        <ele>1507</ele>
        <time>2019-09-28T08:09:32Z</time>
      </trkpt>
      <trkpt lat="42.97135" lon="-0.25684">
        <ele>1507.4000244141</ele>
        <time>2019-09-28T08:09:33Z</time>
      </trkpt>
      <trkpt lat="42.97132" lon="-0.25699">
        <ele>1507.4000244141</ele>
        <time>2019-09-28T08:09:37Z</time>
      </trkpt>
      <trkpt lat="42.97131" lon="-0.25703">
        <ele>1507.8000488281</ele>
        <time>2019-09-28T08:09:38Z</time>
      </trkpt>
      <trkpt lat="42.9713" lon="-0.25707">
        <ele>1508.1999511719</ele>
        <time>2019-09-28T08:09:39Z</time>
      </trkpt>
      <trkpt lat="42.9713" lon="-0.25711">
        <ele>1508.5999755859</ele>
        <time>2019-09-28T08:09:40Z</time>
      </trkpt>
      <trkpt lat="42.97129" lon="-0.25715">
        <ele>1509</ele>
        <time>2019-09-28T08:09:41Z</time>
      </trkpt>
      <trkpt lat="42.97128" lon="-0.25718">
        <ele>1509.5999755859</ele>
        <time>2019-09-28T08:09:42Z</time>
      </trkpt>
      <trkpt lat="42.97126" lon="-0.25726">
        <ele>1510</ele>
        <time>2019-09-28T08:09:44Z</time>
      </trkpt>
      <trkpt lat="42.97125" lon="-0.25729">
        <ele>1510.4000244141</ele>
        <time>2019-09-28T08:09:45Z</time>
      </trkpt>
      <trkpt lat="42.97123" lon="-0.25733">
        <ele>1510.8000488281</ele>
        <time>2019-09-28T08:09:46Z</time>
      </trkpt>
      <trkpt lat="42.97122" lon="-0.25737">
        <ele>1511.1999511719</ele>
        <time>2019-09-28T08:09:47Z</time>
      </trkpt>
      <trkpt lat="42.97121" lon="-0.25741">
        <ele>1511.5999755859</ele>
        <time>2019-09-28T08:09:48Z</time>
      </trkpt>
      <trkpt lat="42.97117" lon="-0.25752">
        <ele>1511.5999755859</ele>
        <time>2019-09-28T08:09:51Z</time>
      </trkpt>
      <trkpt lat="42.97111" lon="-0.25776">
        <ele>1512</ele>
        <time>2019-09-28T08:09:57Z</time>
      </trkpt>
      <trkpt lat="42.97111" lon="-0.25781">
        <ele>1512.5999755859</ele>
        <time>2019-09-28T08:09:58Z</time>
      </trkpt>
      <trkpt lat="42.9711" lon="-0.25785">
        <ele>1513</ele>
        <time>2019-09-28T08:09:59Z</time>
      </trkpt>
      <trkpt lat="42.9711" lon="-0.25789">
        <ele>1513.4000244141</ele>
        <time>2019-09-28T08:10:00Z</time>
      </trkpt>
      <trkpt lat="42.9711" lon="-0.25793">
        <ele>1513.8000488281</ele>
        <time>2019-09-28T08:10:01Z</time>
      </trkpt>
      <trkpt lat="42.97109" lon="-0.25814">
        <ele>1513.8000488281</ele>
        <time>2019-09-28T08:10:05Z</time>
      </trkpt>
      <trkpt lat="42.97109" lon="-0.2582">
        <ele>1513.8000488281</ele>
        <time>2019-09-28T08:10:06Z</time>
      </trkpt>
      <trkpt lat="42.97114" lon="-0.25833">
        <ele>1513.8000488281</ele>
        <time>2019-09-28T08:10:09Z</time>
      </trkpt>
      <trkpt lat="42.97118" lon="-0.25838">
        <ele>1513.8000488281</ele>
        <time>2019-09-28T08:10:11Z</time>
      </trkpt>
      <trkpt lat="42.97126" lon="-0.25846">
        <ele>1513.8000488281</ele>
        <time>2019-09-28T08:10:14Z</time>
      </trkpt>
      <trkpt lat="42.97128" lon="-0.25849">
        <ele>1514.1999511719</ele>
        <time>2019-09-28T08:10:15Z</time>
      </trkpt>
      <trkpt lat="42.9713" lon="-0.25853">
        <ele>1514.5999755859</ele>
        <time>2019-09-28T08:10:16Z</time>
      </trkpt>
      <trkpt lat="42.97132" lon="-0.25857">
        <ele>1515</ele>
        <time>2019-09-28T08:10:17Z</time>
      </trkpt>
      <trkpt lat="42.97134" lon="-0.25861">
        <ele>1515.4000244141</ele>
        <time>2019-09-28T08:10:18Z</time>
      </trkpt>
      <trkpt lat="42.97135" lon="-0.25866">
        <ele>1516</ele>
        <time>2019-09-28T08:10:19Z</time>
      </trkpt>
      <trkpt lat="42.97136" lon="-0.2587">
        <ele>1516</ele>
        <time>2019-09-28T08:10:20Z</time>
      </trkpt>
      <trkpt lat="42.97141" lon="-0.2589">
        <ele>1516</ele>
        <time>2019-09-28T08:10:25Z</time>
      </trkpt>
      <trkpt lat="42.97145" lon="-0.259">
        <ele>1516.4000244141</ele>
        <time>2019-09-28T08:10:28Z</time>
      </trkpt>
      <trkpt lat="42.97147" lon="-0.25903">
        <ele>1516.8000488281</ele>
        <time>2019-09-28T08:10:29Z</time>
      </trkpt>
      <trkpt lat="42.97149" lon="-0.25906">
        <ele>1517.1999511719</ele>
        <time>2019-09-28T08:10:30Z</time>
      </trkpt>
      <trkpt lat="42.97151" lon="-0.25908">
        <ele>1517.5999755859</ele>
        <time>2019-09-28T08:10:31Z</time>
      </trkpt>
      <trkpt lat="42.97154" lon="-0.25911">
        <ele>1518</ele>
        <time>2019-09-28T08:10:32Z</time>
      </trkpt>
      <trkpt lat="42.97162" lon="-0.25925">
        <ele>1518</ele>
        <time>2019-09-28T08:10:37Z</time>
      </trkpt>
      <trkpt lat="42.97167" lon="-0.25948">
        <ele>1518</ele>
        <time>2019-09-28T08:10:44Z</time>
      </trkpt>
      <trkpt lat="42.9717" lon="-0.2596">
        <ele>1518.4000244141</ele>
        <time>2019-09-28T08:10:49Z</time>
      </trkpt>
      <trkpt lat="42.9717" lon="-0.2596">
        <ele>1518.8000488281</ele>
        <time>2019-09-28T08:10:50Z</time>
      </trkpt>
      <trkpt lat="42.9717" lon="-0.2596">
        <ele>1519.1999511719</ele>
        <time>2019-09-28T08:10:51Z</time>
      </trkpt>
      <trkpt lat="42.9717" lon="-0.2596">
        <ele>1519.5999755859</ele>
        <time>2019-09-28T08:10:52Z</time>
      </trkpt>
      <trkpt lat="42.9717" lon="-0.2596">
        <ele>1520</ele>
        <time>2019-09-28T08:10:53Z</time>
      </trkpt>
      <trkpt lat="42.9717" lon="-0.2596">
        <ele>1520</ele>
        <time>2019-09-28T08:10:54Z</time>
      </trkpt>
      <trkpt lat="42.9717" lon="-0.2596">
        <ele>1520</ele>
        <time>2019-09-28T08:11:09Z</time>
      </trkpt>
      <trkpt lat="42.9717" lon="-0.2596">
        <ele>1520</ele>
        <time>2019-09-28T08:11:28Z</time>
      </trkpt>
      <trkpt lat="42.9717" lon="-0.2596">
        <ele>1520</ele>
        <time>2019-09-28T08:11:31Z</time>
      </trkpt>
      <trkpt lat="42.9717" lon="-0.2596">
        <ele>1520</ele>
        <time>2019-09-28T08:11:44Z</time>
      </trkpt>
      <trkpt lat="42.9717" lon="-0.2596">
        <ele>1520</ele>
        <time>2019-09-28T08:12:05Z</time>
      </trkpt>
      <trkpt lat="42.9717" lon="-0.2596">
        <ele>1520</ele>
        <time>2019-09-28T08:12:23Z</time>
      </trkpt>
      <trkpt lat="42.9717" lon="-0.2596">
        <ele>1520</ele>
        <time>2019-09-28T08:12:42Z</time>
      </trkpt>
      <trkpt lat="42.9717" lon="-0.2596">
        <ele>1520</ele>
        <time>2019-09-28T08:12:48Z</time>
      </trkpt>
      <trkpt lat="42.9717" lon="-0.2596">
        <ele>1520</ele>
        <time>2019-09-28T08:12:55Z</time>
      </trkpt>
      <trkpt lat="42.9717" lon="-0.25963">
        <ele>1520</ele>
        <time>2019-09-28T08:13:06Z</time>
      </trkpt>
      <trkpt lat="42.97171" lon="-0.25965">
        <ele>1520</ele>
        <time>2019-09-28T08:13:09Z</time>
      </trkpt>
      <trkpt lat="42.97171" lon="-0.25966">
        <ele>1520</ele>
        <time>2019-09-28T08:13:12Z</time>
      </trkpt>
      <trkpt lat="42.97171" lon="-0.25966">
        <ele>1520</ele>
        <time>2019-09-28T08:13:23Z</time>
      </trkpt>
      <trkpt lat="42.97173" lon="-0.25969">
        <ele>1520</ele>
        <time>2019-09-28T08:13:28Z</time>
      </trkpt>
      <trkpt lat="42.97177" lon="-0.25983">
        <ele>1520</ele>
        <time>2019-09-28T08:13:33Z</time>
      </trkpt>
      <trkpt lat="42.9718" lon="-0.25996">
        <ele>1519.5999755859</ele>
        <time>2019-09-28T08:13:37Z</time>
      </trkpt>
      <trkpt lat="42.97181" lon="-0.26">
        <ele>1519.1999511719</ele>
        <time>2019-09-28T08:13:38Z</time>
      </trkpt>
      <trkpt lat="42.97182" lon="-0.26003">
        <ele>1518.8000488281</ele>
        <time>2019-09-28T08:13:39Z</time>
      </trkpt>
      <trkpt lat="42.97183" lon="-0.26007">
        <ele>1518.4000244141</ele>
        <time>2019-09-28T08:13:40Z</time>
      </trkpt>
      <trkpt lat="42.97184" lon="-0.26011">
        <ele>1518</ele>
        <time>2019-09-28T08:13:41Z</time>
      </trkpt>
      <trkpt lat="42.97188" lon="-0.26027">
        <ele>1517.4000244141</ele>
        <time>2019-09-28T08:13:45Z</time>
      </trkpt>
      <trkpt lat="42.97189" lon="-0.26031">
        <ele>1517</ele>
        <time>2019-09-28T08:13:46Z</time>
      </trkpt>
      <trkpt lat="42.9719" lon="-0.26035">
        <ele>1516.5999755859</ele>
        <time>2019-09-28T08:13:47Z</time>
      </trkpt>
      <trkpt lat="42.97192" lon="-0.26039">
        <ele>1516.1999511719</ele>
        <time>2019-09-28T08:13:48Z</time>
      </trkpt>
      <trkpt lat="42.97193" lon="-0.26044">
        <ele>1515.5999755859</ele>
        <time>2019-09-28T08:13:49Z</time>
      </trkpt>
      <trkpt lat="42.97195" lon="-0.26054">
        <ele>1515.1999511719</ele>
        <time>2019-09-28T08:13:51Z</time>
      </trkpt>
      <trkpt lat="42.97196" lon="-0.26059">
        <ele>1514.8000488281</ele>
        <time>2019-09-28T08:13:52Z</time>
      </trkpt>
      <trkpt lat="42.97198" lon="-0.26064">
        <ele>1514.4000244141</ele>
        <time>2019-09-28T08:13:53Z</time>
      </trkpt>
      <trkpt lat="42.97198" lon="-0.2607">
        <ele>1514</ele>
        <time>2019-09-28T08:13:54Z</time>
      </trkpt>
      <trkpt lat="42.97199" lon="-0.26076">
        <ele>1513.5999755859</ele>
        <time>2019-09-28T08:13:55Z</time>
      </trkpt>
      <trkpt lat="42.972" lon="-0.26087">
        <ele>1513.1999511719</ele>
        <time>2019-09-28T08:13:57Z</time>
      </trkpt>
      <trkpt lat="42.97201" lon="-0.26092">
        <ele>1512.5999755859</ele>
        <time>2019-09-28T08:13:58Z</time>
      </trkpt>
      <trkpt lat="42.97201" lon="-0.26098">
        <ele>1512.1999511719</ele>
        <time>2019-09-28T08:13:59Z</time>
      </trkpt>
      <trkpt lat="42.97202" lon="-0.26104">
        <ele>1511.5999755859</ele>
        <time>2019-09-28T08:14:00Z</time>
      </trkpt>
      <trkpt lat="42.97202" lon="-0.26109">
        <ele>1511.1999511719</ele>
        <time>2019-09-28T08:14:01Z</time>
      </trkpt>
      <trkpt lat="42.97203" lon="-0.26119">
        <ele>1511.1999511719</ele>
        <time>2019-09-28T08:14:03Z</time>
      </trkpt>
      <trkpt lat="42.97204" lon="-0.26125">
        <ele>1510.5999755859</ele>
        <time>2019-09-28T08:14:04Z</time>
      </trkpt>
      <trkpt lat="42.97205" lon="-0.2613">
        <ele>1510.1999511719</ele>
        <time>2019-09-28T08:14:05Z</time>
      </trkpt>
      <trkpt lat="42.97205" lon="-0.26136">
        <ele>1509.8000488281</ele>
        <time>2019-09-28T08:14:06Z</time>
      </trkpt>
      <trkpt lat="42.97205" lon="-0.26141">
        <ele>1509.1999511719</ele>
        <time>2019-09-28T08:14:07Z</time>
      </trkpt>
      <trkpt lat="42.97205" lon="-0.26147">
        <ele>1508.8000488281</ele>
        <time>2019-09-28T08:14:08Z</time>
      </trkpt>
      <trkpt lat="42.97204" lon="-0.26153">
        <ele>1508.8000488281</ele>
        <time>2019-09-28T08:14:09Z</time>
      </trkpt>
      <trkpt lat="42.97204" lon="-0.26159">
        <ele>1508.4000244141</ele>
        <time>2019-09-28T08:14:10Z</time>
      </trkpt>
      <trkpt lat="42.97204" lon="-0.26165">
        <ele>1507.8000488281</ele>
        <time>2019-09-28T08:14:11Z</time>
      </trkpt>
      <trkpt lat="42.97204" lon="-0.26171">
        <ele>1507.4000244141</ele>
        <time>2019-09-28T08:14:12Z</time>
      </trkpt>
      <trkpt lat="42.97203" lon="-0.26176">
        <ele>1506.8000488281</ele>
        <time>2019-09-28T08:14:13Z</time>
      </trkpt>
      <trkpt lat="42.97203" lon="-0.26181">
        <ele>1506.4000244141</ele>
        <time>2019-09-28T08:14:14Z</time>
      </trkpt>
      <trkpt lat="42.97203" lon="-0.26187">
        <ele>1506</ele>
        <time>2019-09-28T08:14:15Z</time>
      </trkpt>
      <trkpt lat="42.97203" lon="-0.26193">
        <ele>1505.1999511719</ele>
        <time>2019-09-28T08:14:16Z</time>
      </trkpt>
      <trkpt lat="42.97203" lon="-0.26198">
        <ele>1504.5999755859</ele>
        <time>2019-09-28T08:14:17Z</time>
      </trkpt>
      <trkpt lat="42.97202" lon="-0.26203">
        <ele>1504.1999511719</ele>
        <time>2019-09-28T08:14:18Z</time>
      </trkpt>
      <trkpt lat="42.97202" lon="-0.26214">
        <ele>1503.8000488281</ele>
        <time>2019-09-28T08:14:20Z</time>
      </trkpt>
      <trkpt lat="42.97201" lon="-0.2622">
        <ele>1503.4000244141</ele>
        <time>2019-09-28T08:14:21Z</time>
      </trkpt>
      <trkpt lat="42.972" lon="-0.26226">
        <ele>1503</ele>
        <time>2019-09-28T08:14:22Z</time>
      </trkpt>
      <trkpt lat="42.972" lon="-0.26231">
        <ele>1502.5999755859</ele>
        <time>2019-09-28T08:14:23Z</time>
      </trkpt>
      <trkpt lat="42.972" lon="-0.26236">
        <ele>1502</ele>
        <time>2019-09-28T08:14:24Z</time>
      </trkpt>
      <trkpt lat="42.97199" lon="-0.26246">
        <ele>1501.5999755859</ele>
        <time>2019-09-28T08:14:26Z</time>
      </trkpt>
      <trkpt lat="42.97199" lon="-0.26251">
        <ele>1501.1999511719</ele>
        <time>2019-09-28T08:14:27Z</time>
      </trkpt>
      <trkpt lat="42.97198" lon="-0.26256">
        <ele>1500.8000488281</ele>
        <time>2019-09-28T08:14:28Z</time>
      </trkpt>
      <trkpt lat="42.97197" lon="-0.26262">
        <ele>1500.4000244141</ele>
        <time>2019-09-28T08:14:29Z</time>
      </trkpt>
      <trkpt lat="42.97197" lon="-0.26267">
        <ele>1500</ele>
        <time>2019-09-28T08:14:30Z</time>
      </trkpt>
      <trkpt lat="42.97197" lon="-0.26274">
        <ele>1499.5999755859</ele>
        <time>2019-09-28T08:14:31Z</time>
      </trkpt>
      <trkpt lat="42.97197" lon="-0.26279">
        <ele>1499.1999511719</ele>
        <time>2019-09-28T08:14:32Z</time>
      </trkpt>
      <trkpt lat="42.97197" lon="-0.26285">
        <ele>1498.8000488281</ele>
        <time>2019-09-28T08:14:33Z</time>
      </trkpt>
      <trkpt lat="42.97197" lon="-0.2629">
        <ele>1498.4000244141</ele>
        <time>2019-09-28T08:14:34Z</time>
      </trkpt>
      <trkpt lat="42.97197" lon="-0.26295">
        <ele>1498</ele>
        <time>2019-09-28T08:14:35Z</time>
      </trkpt>
      <trkpt lat="42.97196" lon="-0.26311">
        <ele>1497.4000244141</ele>
        <time>2019-09-28T08:14:38Z</time>
      </trkpt>
      <trkpt lat="42.97196" lon="-0.26316">
        <ele>1497</ele>
        <time>2019-09-28T08:14:39Z</time>
      </trkpt>
      <trkpt lat="42.97196" lon="-0.26322">
        <ele>1496.5999755859</ele>
        <time>2019-09-28T08:14:40Z</time>
      </trkpt>
      <trkpt lat="42.97196" lon="-0.26328">
        <ele>1495.5999755859</ele>
        <time>2019-09-28T08:14:41Z</time>
      </trkpt>
      <trkpt lat="42.97196" lon="-0.26334">
        <ele>1495.1999511719</ele>
        <time>2019-09-28T08:14:42Z</time>
      </trkpt>
      <trkpt lat="42.97196" lon="-0.26341">
        <ele>1494.8000488281</ele>
        <time>2019-09-28T08:14:43Z</time>
      </trkpt>
      <trkpt lat="42.97197" lon="-0.26347">
        <ele>1494.1999511719</ele>
        <time>2019-09-28T08:14:44Z</time>
      </trkpt>
      <trkpt lat="42.97198" lon="-0.26353">
        <ele>1493.8000488281</ele>
        <time>2019-09-28T08:14:45Z</time>
      </trkpt>
      <trkpt lat="42.97198" lon="-0.2636">
        <ele>1493.4000244141</ele>
        <time>2019-09-28T08:14:46Z</time>
      </trkpt>
      <trkpt lat="42.97197" lon="-0.26366">
        <ele>1493</ele>
        <time>2019-09-28T08:14:47Z</time>
      </trkpt>
      <trkpt lat="42.97197" lon="-0.26372">
        <ele>1492.5999755859</ele>
        <time>2019-09-28T08:14:48Z</time>
      </trkpt>
      <trkpt lat="42.97197" lon="-0.26379">
        <ele>1492.1999511719</ele>
        <time>2019-09-28T08:14:49Z</time>
      </trkpt>
      <trkpt lat="42.97197" lon="-0.26386">
        <ele>1491.8000488281</ele>
        <time>2019-09-28T08:14:50Z</time>
      </trkpt>
      <trkpt lat="42.97197" lon="-0.26392">
        <ele>1491.4000244141</ele>
        <time>2019-09-28T08:14:51Z</time>
      </trkpt>
      <trkpt lat="42.97198" lon="-0.26399">
        <ele>1491.4000244141</ele>
        <time>2019-09-28T08:14:52Z</time>
      </trkpt>
      <trkpt lat="42.97201" lon="-0.26414">
        <ele>1491.4000244141</ele>
        <time>2019-09-28T08:14:54Z</time>
      </trkpt>
      <trkpt lat="42.97203" lon="-0.2642">
        <ele>1491</ele>
        <time>2019-09-28T08:14:55Z</time>
      </trkpt>
      <trkpt lat="42.97205" lon="-0.26426">
        <ele>1490.4000244141</ele>
        <time>2019-09-28T08:14:56Z</time>
      </trkpt>
      <trkpt lat="42.97207" lon="-0.26432">
        <ele>1490</ele>
        <time>2019-09-28T08:14:57Z</time>
      </trkpt>
      <trkpt lat="42.9721" lon="-0.26437">
        <ele>1489.4000244141</ele>
        <time>2019-09-28T08:14:58Z</time>
      </trkpt>
      <trkpt lat="42.97214" lon="-0.26442">
        <ele>1489</ele>
        <time>2019-09-28T08:14:59Z</time>
      </trkpt>
      <trkpt lat="42.97223" lon="-0.26457">
        <ele>1489</ele>
        <time>2019-09-28T08:15:02Z</time>
      </trkpt>
      <trkpt lat="42.97227" lon="-0.2647">
        <ele>1489</ele>
        <time>2019-09-28T08:15:04Z</time>
      </trkpt>
      <trkpt lat="42.9723" lon="-0.26484">
        <ele>1488.1999511719</ele>
        <time>2019-09-28T08:15:06Z</time>
      </trkpt>
      <trkpt lat="42.97232" lon="-0.2649">
        <ele>1487.5999755859</ele>
        <time>2019-09-28T08:15:07Z</time>
      </trkpt>
      <trkpt lat="42.97232" lon="-0.26495">
        <ele>1487.1999511719</ele>
        <time>2019-09-28T08:15:08Z</time>
      </trkpt>
      <trkpt lat="42.97233" lon="-0.265">
        <ele>1486.8000488281</ele>
        <time>2019-09-28T08:15:09Z</time>
      </trkpt>
      <trkpt lat="42.97232" lon="-0.26524">
        <ele>1486.8000488281</ele>
        <time>2019-09-28T08:15:15Z</time>
      </trkpt>
      <trkpt lat="42.97231" lon="-0.26545">
        <ele>1486.8000488281</ele>
        <time>2019-09-28T08:15:21Z</time>
      </trkpt>
      <trkpt lat="42.97229" lon="-0.26563">
        <ele>1486.4000244141</ele>
        <time>2019-09-28T08:15:25Z</time>
      </trkpt>
      <trkpt lat="42.97232" lon="-0.26567">
        <ele>1486</ele>
        <time>2019-09-28T08:15:26Z</time>
      </trkpt>
      <trkpt lat="42.97234" lon="-0.26569">
        <ele>1485.5999755859</ele>
        <time>2019-09-28T08:15:27Z</time>
      </trkpt>
      <trkpt lat="42.97237" lon="-0.2657">
        <ele>1485.1999511719</ele>
        <time>2019-09-28T08:15:28Z</time>
      </trkpt>
      <trkpt lat="42.9724" lon="-0.26571">
        <ele>1484.8000488281</ele>
        <time>2019-09-28T08:15:29Z</time>
      </trkpt>
      <trkpt lat="42.97251" lon="-0.26569">
        <ele>1484.8000488281</ele>
        <time>2019-09-28T08:15:33Z</time>
      </trkpt>
      <trkpt lat="42.97267" lon="-0.26559">
        <ele>1484.4000244141</ele>
        <time>2019-09-28T08:15:37Z</time>
      </trkpt>
      <trkpt lat="42.9727" lon="-0.26555">
        <ele>1483.8000488281</ele>
        <time>2019-09-28T08:15:38Z</time>
      </trkpt>
      <trkpt lat="42.97273" lon="-0.2655">
        <ele>1483.4000244141</ele>
        <time>2019-09-28T08:15:39Z</time>
      </trkpt>
      <trkpt lat="42.97275" lon="-0.26544">
        <ele>1483</ele>
        <time>2019-09-28T08:15:40Z</time>
      </trkpt>
      <trkpt lat="42.97275" lon="-0.26538">
        <ele>1482.5999755859</ele>
        <time>2019-09-28T08:15:41Z</time>
      </trkpt>
      <trkpt lat="42.97271" lon="-0.26525">
        <ele>1482.1999511719</ele>
        <time>2019-09-28T08:15:44Z</time>
      </trkpt>
      <trkpt lat="42.97271" lon="-0.2652">
        <ele>1481.8000488281</ele>
        <time>2019-09-28T08:15:45Z</time>
      </trkpt>
      <trkpt lat="42.97271" lon="-0.26516">
        <ele>1481.4000244141</ele>
        <time>2019-09-28T08:15:46Z</time>
      </trkpt>
      <trkpt lat="42.97271" lon="-0.26512">
        <ele>1481</ele>
        <time>2019-09-28T08:15:47Z</time>
      </trkpt>
      <trkpt lat="42.97272" lon="-0.26509">
        <ele>1480.5999755859</ele>
        <time>2019-09-28T08:15:48Z</time>
      </trkpt>
      <trkpt lat="42.97278" lon="-0.26502">
        <ele>1480</ele>
        <time>2019-09-28T08:15:51Z</time>
      </trkpt>
      <trkpt lat="42.97281" lon="-0.26501">
        <ele>1479.5999755859</ele>
        <time>2019-09-28T08:15:52Z</time>
      </trkpt>
      <trkpt lat="42.97283" lon="-0.26501">
        <ele>1479.1999511719</ele>
        <time>2019-09-28T08:15:53Z</time>
      </trkpt>
      <trkpt lat="42.97286" lon="-0.26501">
        <ele>1478.5999755859</ele>
        <time>2019-09-28T08:15:54Z</time>
      </trkpt>
      <trkpt lat="42.9729" lon="-0.26502">
        <ele>1478.1999511719</ele>
        <time>2019-09-28T08:15:55Z</time>
      </trkpt>
      <trkpt lat="42.97293" lon="-0.26504">
        <ele>1477.8000488281</ele>
        <time>2019-09-28T08:15:56Z</time>
      </trkpt>
      <trkpt lat="42.97295" lon="-0.26508">
        <ele>1477.4000244141</ele>
        <time>2019-09-28T08:15:57Z</time>
      </trkpt>
      <trkpt lat="42.97298" lon="-0.26511">
        <ele>1477</ele>
        <time>2019-09-28T08:15:58Z</time>
      </trkpt>
      <trkpt lat="42.97302" lon="-0.26512">
        <ele>1476.5999755859</ele>
        <time>2019-09-28T08:15:59Z</time>
      </trkpt>
      <trkpt lat="42.97306" lon="-0.26512">
        <ele>1476</ele>
        <time>2019-09-28T08:16:00Z</time>
      </trkpt>
      <trkpt lat="42.97309" lon="-0.26513">
        <ele>1475.5999755859</ele>
        <time>2019-09-28T08:16:01Z</time>
      </trkpt>
      <trkpt lat="42.97312" lon="-0.26514">
        <ele>1475.1999511719</ele>
        <time>2019-09-28T08:16:02Z</time>
      </trkpt>
      <trkpt lat="42.97314" lon="-0.26513">
        <ele>1474.8000488281</ele>
        <time>2019-09-28T08:16:03Z</time>
      </trkpt>
      <trkpt lat="42.97317" lon="-0.26513">
        <ele>1474.4000244141</ele>
        <time>2019-09-28T08:16:04Z</time>
      </trkpt>
      <trkpt lat="42.9732" lon="-0.26513">
        <ele>1473.8000488281</ele>
        <time>2019-09-28T08:16:05Z</time>
      </trkpt>
      <trkpt lat="42.97329" lon="-0.26515">
        <ele>1473.4000244141</ele>
        <time>2019-09-28T08:16:08Z</time>
      </trkpt>
      <trkpt lat="42.97332" lon="-0.26518">
        <ele>1473</ele>
        <time>2019-09-28T08:16:09Z</time>
      </trkpt>
      <trkpt lat="42.97335" lon="-0.26522">
        <ele>1472.5999755859</ele>
        <time>2019-09-28T08:16:10Z</time>
      </trkpt>
      <trkpt lat="42.97337" lon="-0.26528">
        <ele>1472.1999511719</ele>
        <time>2019-09-28T08:16:11Z</time>
      </trkpt>
      <trkpt lat="42.97338" lon="-0.26533">
        <ele>1471.5999755859</ele>
        <time>2019-09-28T08:16:12Z</time>
      </trkpt>
      <trkpt lat="42.97339" lon="-0.26539">
        <ele>1471.1999511719</ele>
        <time>2019-09-28T08:16:13Z</time>
      </trkpt>
      <trkpt lat="42.9734" lon="-0.26545">
        <ele>1470.8000488281</ele>
        <time>2019-09-28T08:16:14Z</time>
      </trkpt>
      <trkpt lat="42.9734" lon="-0.26551">
        <ele>1470.4000244141</ele>
        <time>2019-09-28T08:16:15Z</time>
      </trkpt>
      <trkpt lat="42.97341" lon="-0.26558">
        <ele>1470</ele>
        <time>2019-09-28T08:16:16Z</time>
      </trkpt>
      <trkpt lat="42.9734" lon="-0.26564">
        <ele>1469.5999755859</ele>
        <time>2019-09-28T08:16:17Z</time>
      </trkpt>
      <trkpt lat="42.97339" lon="-0.2657">
        <ele>1469.1999511719</ele>
        <time>2019-09-28T08:16:18Z</time>
      </trkpt>
      <trkpt lat="42.97338" lon="-0.26577">
        <ele>1468.8000488281</ele>
        <time>2019-09-28T08:16:19Z</time>
      </trkpt>
      <trkpt lat="42.97336" lon="-0.26583">
        <ele>1468</ele>
        <time>2019-09-28T08:16:20Z</time>
      </trkpt>
      <trkpt lat="42.97335" lon="-0.2659">
        <ele>1467.5999755859</ele>
        <time>2019-09-28T08:16:21Z</time>
      </trkpt>
      <trkpt lat="42.97333" lon="-0.26597">
        <ele>1467</ele>
        <time>2019-09-28T08:16:22Z</time>
      </trkpt>
      <trkpt lat="42.97331" lon="-0.26603">
        <ele>1466.5999755859</ele>
        <time>2019-09-28T08:16:23Z</time>
      </trkpt>
      <trkpt lat="42.97329" lon="-0.2661">
        <ele>1466.1999511719</ele>
        <time>2019-09-28T08:16:24Z</time>
      </trkpt>
      <trkpt lat="42.97326" lon="-0.26616">
        <ele>1465.5999755859</ele>
        <time>2019-09-28T08:16:25Z</time>
      </trkpt>
      <trkpt lat="42.97324" lon="-0.2662">
        <ele>1465.1999511719</ele>
        <time>2019-09-28T08:16:26Z</time>
      </trkpt>
      <trkpt lat="42.97322" lon="-0.26625">
        <ele>1465.1999511719</ele>
        <time>2019-09-28T08:16:27Z</time>
      </trkpt>
      <trkpt lat="42.97319" lon="-0.2663">
        <ele>1464.8000488281</ele>
        <time>2019-09-28T08:16:28Z</time>
      </trkpt>
      <trkpt lat="42.97316" lon="-0.26634">
        <ele>1464.4000244141</ele>
        <time>2019-09-28T08:16:29Z</time>
      </trkpt>
      <trkpt lat="42.97314" lon="-0.26638">
        <ele>1464</ele>
        <time>2019-09-28T08:16:30Z</time>
      </trkpt>
      <trkpt lat="42.97311" lon="-0.26643">
        <ele>1463.5999755859</ele>
        <time>2019-09-28T08:16:31Z</time>
      </trkpt>
      <trkpt lat="42.97308" lon="-0.26648">
        <ele>1463</ele>
        <time>2019-09-28T08:16:32Z</time>
      </trkpt>
      <trkpt lat="42.97302" lon="-0.26657">
        <ele>1462.5999755859</ele>
        <time>2019-09-28T08:16:34Z</time>
      </trkpt>
      <trkpt lat="42.97298" lon="-0.26662">
        <ele>1462.1999511719</ele>
        <time>2019-09-28T08:16:35Z</time>
      </trkpt>
      <trkpt lat="42.97295" lon="-0.26666">
        <ele>1461.8000488281</ele>
        <time>2019-09-28T08:16:36Z</time>
      </trkpt>
      <trkpt lat="42.9729" lon="-0.2667">
        <ele>1461.4000244141</ele>
        <time>2019-09-28T08:16:37Z</time>
      </trkpt>
      <trkpt lat="42.97286" lon="-0.26672">
        <ele>1461</ele>
        <time>2019-09-28T08:16:38Z</time>
      </trkpt>
      <trkpt lat="42.97281" lon="-0.26675">
        <ele>1460.5999755859</ele>
        <time>2019-09-28T08:16:39Z</time>
      </trkpt>
      <trkpt lat="42.97276" lon="-0.26678">
        <ele>1460.1999511719</ele>
        <time>2019-09-28T08:16:40Z</time>
      </trkpt>
      <trkpt lat="42.9727" lon="-0.26682">
        <ele>1459.5999755859</ele>
        <time>2019-09-28T08:16:41Z</time>
      </trkpt>
      <trkpt lat="42.97265" lon="-0.26686">
        <ele>1459.1999511719</ele>
        <time>2019-09-28T08:16:42Z</time>
      </trkpt>
      <trkpt lat="42.97259" lon="-0.2669">
        <ele>1458.8000488281</ele>
        <time>2019-09-28T08:16:43Z</time>
      </trkpt>
      <trkpt lat="42.97253" lon="-0.26695">
        <ele>1458.4000244141</ele>
        <time>2019-09-28T08:16:44Z</time>
      </trkpt>
      <trkpt lat="42.97247" lon="-0.26698">
        <ele>1457.5999755859</ele>
        <time>2019-09-28T08:16:45Z</time>
      </trkpt>
      <trkpt lat="42.97241" lon="-0.26701">
        <ele>1457.1999511719</ele>
        <time>2019-09-28T08:16:46Z</time>
      </trkpt>
      <trkpt lat="42.97234" lon="-0.26704">
        <ele>1456.8000488281</ele>
        <time>2019-09-28T08:16:47Z</time>
      </trkpt>
      <trkpt lat="42.97227" lon="-0.26707">
        <ele>1456.1999511719</ele>
        <time>2019-09-28T08:16:48Z</time>
      </trkpt>
      <trkpt lat="42.9722" lon="-0.2671">
        <ele>1455.8000488281</ele>
        <time>2019-09-28T08:16:49Z</time>
      </trkpt>
      <trkpt lat="42.97213" lon="-0.26712">
        <ele>1455.1999511719</ele>
        <time>2019-09-28T08:16:50Z</time>
      </trkpt>
      <trkpt lat="42.97206" lon="-0.26714">
        <ele>1454.8000488281</ele>
        <time>2019-09-28T08:16:51Z</time>
      </trkpt>
      <trkpt lat="42.97198" lon="-0.26716">
        <ele>1454.1999511719</ele>
        <time>2019-09-28T08:16:52Z</time>
      </trkpt>
      <trkpt lat="42.97192" lon="-0.26718">
        <ele>1453.8000488281</ele>
        <time>2019-09-28T08:16:53Z</time>
      </trkpt>
      <trkpt lat="42.97184" lon="-0.2672">
        <ele>1453.1999511719</ele>
        <time>2019-09-28T08:16:54Z</time>
      </trkpt>
      <trkpt lat="42.97177" lon="-0.2672">
        <ele>1452.5999755859</ele>
        <time>2019-09-28T08:16:55Z</time>
      </trkpt>
      <trkpt lat="42.97169" lon="-0.2672">
        <ele>1452</ele>
        <time>2019-09-28T08:16:56Z</time>
      </trkpt>
      <trkpt lat="42.97161" lon="-0.26719">
        <ele>1451.4000244141</ele>
        <time>2019-09-28T08:16:57Z</time>
      </trkpt>
      <trkpt lat="42.97154" lon="-0.26719">
        <ele>1451</ele>
        <time>2019-09-28T08:16:58Z</time>
      </trkpt>
      <trkpt lat="42.97147" lon="-0.2672">
        <ele>1450.4000244141</ele>
        <time>2019-09-28T08:16:59Z</time>
      </trkpt>
      <trkpt lat="42.97141" lon="-0.26722">
        <ele>1449.8000488281</ele>
        <time>2019-09-28T08:17:00Z</time>
      </trkpt>
      <trkpt lat="42.97135" lon="-0.26723">
        <ele>1449.4000244141</ele>
        <time>2019-09-28T08:17:01Z</time>
      </trkpt>
      <trkpt lat="42.9713" lon="-0.26722">
        <ele>1449</ele>
        <time>2019-09-28T08:17:02Z</time>
      </trkpt>
      <trkpt lat="42.97124" lon="-0.2672">
        <ele>1448.5999755859</ele>
        <time>2019-09-28T08:17:03Z</time>
      </trkpt>
      <trkpt lat="42.97118" lon="-0.26721">
        <ele>1448.1999511719</ele>
        <time>2019-09-28T08:17:04Z</time>
      </trkpt>
      <trkpt lat="42.97113" lon="-0.26719">
        <ele>1447.8000488281</ele>
        <time>2019-09-28T08:17:05Z</time>
      </trkpt>
      <trkpt lat="42.97103" lon="-0.26704">
        <ele>1447.8000488281</ele>
        <time>2019-09-28T08:17:08Z</time>
      </trkpt>
      <trkpt lat="42.971" lon="-0.26697">
        <ele>1447.1999511719</ele>
        <time>2019-09-28T08:17:09Z</time>
      </trkpt>
      <trkpt lat="42.97098" lon="-0.2669">
        <ele>1446.5999755859</ele>
        <time>2019-09-28T08:17:10Z</time>
      </trkpt>
      <trkpt lat="42.97096" lon="-0.26682">
        <ele>1446.1999511719</ele>
        <time>2019-09-28T08:17:11Z</time>
      </trkpt>
      <trkpt lat="42.97095" lon="-0.26674">
        <ele>1445.5999755859</ele>
        <time>2019-09-28T08:17:12Z</time>
      </trkpt>
      <trkpt lat="42.97094" lon="-0.26667">
        <ele>1445</ele>
        <time>2019-09-28T08:17:13Z</time>
      </trkpt>
      <trkpt lat="42.97088" lon="-0.26642">
        <ele>1445</ele>
        <time>2019-09-28T08:17:17Z</time>
      </trkpt>
      <trkpt lat="42.97077" lon="-0.26626">
        <ele>1445</ele>
        <time>2019-09-28T08:17:21Z</time>
      </trkpt>
      <trkpt lat="42.97066" lon="-0.26607">
        <ele>1445</ele>
        <time>2019-09-28T08:17:27Z</time>
      </trkpt>
      <trkpt lat="42.97059" lon="-0.26591">
        <ele>1445</ele>
        <time>2019-09-28T08:17:32Z</time>
      </trkpt>
      <trkpt lat="42.97052" lon="-0.26576">
        <ele>1445</ele>
        <time>2019-09-28T08:17:37Z</time>
      </trkpt>
      <trkpt lat="42.97044" lon="-0.26547">
        <ele>1445</ele>
        <time>2019-09-28T08:17:44Z</time>
      </trkpt>
      <trkpt lat="42.97042" lon="-0.2653">
        <ele>1445</ele>
        <time>2019-09-28T08:17:47Z</time>
      </trkpt>
      <trkpt lat="42.97042" lon="-0.26517">
        <ele>1445</ele>
        <time>2019-09-28T08:17:49Z</time>
      </trkpt>
      <trkpt lat="42.97039" lon="-0.26504">
        <ele>1444.5999755859</ele>
        <time>2019-09-28T08:17:51Z</time>
      </trkpt>
      <trkpt lat="42.97036" lon="-0.26498">
        <ele>1444.1999511719</ele>
        <time>2019-09-28T08:17:52Z</time>
      </trkpt>
      <trkpt lat="42.97034" lon="-0.26492">
        <ele>1443.8000488281</ele>
        <time>2019-09-28T08:17:53Z</time>
      </trkpt>
      <trkpt lat="42.97031" lon="-0.26487">
        <ele>1443.4000244141</ele>
        <time>2019-09-28T08:17:54Z</time>
      </trkpt>
      <trkpt lat="42.97028" lon="-0.26481">
        <ele>1443</ele>
        <time>2019-09-28T08:17:55Z</time>
      </trkpt>
      <trkpt lat="42.97022" lon="-0.26468">
        <ele>1443</ele>
        <time>2019-09-28T08:17:57Z</time>
      </trkpt>
      <trkpt lat="42.97019" lon="-0.26463">
        <ele>1443</ele>
        <time>2019-09-28T08:17:58Z</time>
      </trkpt>
      <trkpt lat="42.97007" lon="-0.26455">
        <ele>1443</ele>
        <time>2019-09-28T08:18:01Z</time>
      </trkpt>
      <trkpt lat="42.96991" lon="-0.26444">
        <ele>1443.4000244141</ele>
        <time>2019-09-28T08:18:06Z</time>
      </trkpt>
      <trkpt lat="42.96988" lon="-0.26441">
        <ele>1444</ele>
        <time>2019-09-28T08:18:07Z</time>
      </trkpt>
      <trkpt lat="42.96985" lon="-0.26439">
        <ele>1444.4000244141</ele>
        <time>2019-09-28T08:18:08Z</time>
      </trkpt>
      <trkpt lat="42.96982" lon="-0.26437">
        <ele>1444.8000488281</ele>
        <time>2019-09-28T08:18:09Z</time>
      </trkpt>
      <trkpt lat="42.96978" lon="-0.26435">
        <ele>1445.1999511719</ele>
        <time>2019-09-28T08:18:10Z</time>
      </trkpt>
      <trkpt lat="42.96968" lon="-0.26436">
        <ele>1445.1999511719</ele>
        <time>2019-09-28T08:18:13Z</time>
      </trkpt>
      <trkpt lat="42.96962" lon="-0.26441">
        <ele>1445.5999755859</ele>
        <time>2019-09-28T08:18:15Z</time>
      </trkpt>
      <trkpt lat="42.96959" lon="-0.26444">
        <ele>1446</ele>
        <time>2019-09-28T08:18:16Z</time>
      </trkpt>
      <trkpt lat="42.96956" lon="-0.26446">
        <ele>1446.5999755859</ele>
        <time>2019-09-28T08:18:17Z</time>
      </trkpt>
      <trkpt lat="42.96954" lon="-0.26447">
        <ele>1447</ele>
        <time>2019-09-28T08:18:18Z</time>
      </trkpt>
      <trkpt lat="42.96951" lon="-0.26446">
        <ele>1447.4000244141</ele>
        <time>2019-09-28T08:18:19Z</time>
      </trkpt>
      <trkpt lat="42.96945" lon="-0.26444">
        <ele>1447.8000488281</ele>
        <time>2019-09-28T08:18:21Z</time>
      </trkpt>
      <trkpt lat="42.96943" lon="-0.26441">
        <ele>1448.5999755859</ele>
        <time>2019-09-28T08:18:22Z</time>
      </trkpt>
      <trkpt lat="42.96941" lon="-0.26439">
        <ele>1449.1999511719</ele>
        <time>2019-09-28T08:18:23Z</time>
      </trkpt>
      <trkpt lat="42.96938" lon="-0.26436">
        <ele>1449.5999755859</ele>
        <time>2019-09-28T08:18:24Z</time>
      </trkpt>
      <trkpt lat="42.96933" lon="-0.26431">
        <ele>1449.5999755859</ele>
        <time>2019-09-28T08:18:26Z</time>
      </trkpt>
      <trkpt lat="42.96924" lon="-0.26423">
        <ele>1450</ele>
        <time>2019-09-28T08:18:30Z</time>
      </trkpt>
      <trkpt lat="42.96921" lon="-0.26422">
        <ele>1450.4000244141</ele>
        <time>2019-09-28T08:18:31Z</time>
      </trkpt>
      <trkpt lat="42.96919" lon="-0.26421">
        <ele>1450.8000488281</ele>
        <time>2019-09-28T08:18:32Z</time>
      </trkpt>
      <trkpt lat="42.96916" lon="-0.2642">
        <ele>1451.1999511719</ele>
        <time>2019-09-28T08:18:33Z</time>
      </trkpt>
      <trkpt lat="42.96913" lon="-0.2642">
        <ele>1451.5999755859</ele>
        <time>2019-09-28T08:18:34Z</time>
      </trkpt>
      <trkpt lat="42.96901" lon="-0.26422">
        <ele>1451.5999755859</ele>
        <time>2019-09-28T08:18:38Z</time>
      </trkpt>
      <trkpt lat="42.96882" lon="-0.26423">
        <ele>1451.5999755859</ele>
        <time>2019-09-28T08:18:44Z</time>
      </trkpt>
      <trkpt lat="42.96877" lon="-0.26423">
        <ele>1451.5999755859</ele>
        <time>2019-09-28T08:18:45Z</time>
      </trkpt>
      <trkpt lat="42.96865" lon="-0.26425">
        <ele>1451.5999755859</ele>
        <time>2019-09-28T08:18:48Z</time>
      </trkpt>
      <trkpt lat="42.9686" lon="-0.26428">
        <ele>1451.5999755859</ele>
        <time>2019-09-28T08:18:49Z</time>
      </trkpt>
      <trkpt lat="42.96848" lon="-0.26439">
        <ele>1451.1999511719</ele>
        <time>2019-09-28T08:18:52Z</time>
      </trkpt>
      <trkpt lat="42.96843" lon="-0.26442">
        <ele>1450.5999755859</ele>
        <time>2019-09-28T08:18:53Z</time>
      </trkpt>
      <trkpt lat="42.96838" lon="-0.26447">
        <ele>1450.1999511719</ele>
        <time>2019-09-28T08:18:54Z</time>
      </trkpt>
      <trkpt lat="42.96834" lon="-0.26452">
        <ele>1449.8000488281</ele>
        <time>2019-09-28T08:18:55Z</time>
      </trkpt>
      <trkpt lat="42.9683" lon="-0.26457">
        <ele>1449.1999511719</ele>
        <time>2019-09-28T08:18:56Z</time>
      </trkpt>
      <trkpt lat="42.96827" lon="-0.26463">
        <ele>1448.5999755859</ele>
        <time>2019-09-28T08:18:57Z</time>
      </trkpt>
      <trkpt lat="42.96823" lon="-0.26469">
        <ele>1448.1999511719</ele>
        <time>2019-09-28T08:18:58Z</time>
      </trkpt>
      <trkpt lat="42.9682" lon="-0.26475">
        <ele>1447.5999755859</ele>
        <time>2019-09-28T08:18:59Z</time>
      </trkpt>
      <trkpt lat="42.96816" lon="-0.2648">
        <ele>1447</ele>
        <time>2019-09-28T08:19:00Z</time>
      </trkpt>
      <trkpt lat="42.96811" lon="-0.26483">
        <ele>1446.5999755859</ele>
        <time>2019-09-28T08:19:01Z</time>
      </trkpt>
      <trkpt lat="42.96805" lon="-0.26484">
        <ele>1446.1999511719</ele>
        <time>2019-09-28T08:19:02Z</time>
      </trkpt>
      <trkpt lat="42.968" lon="-0.26485">
        <ele>1445.5999755859</ele>
        <time>2019-09-28T08:19:03Z</time>
      </trkpt>
      <trkpt lat="42.96795" lon="-0.26486">
        <ele>1445.1999511719</ele>
        <time>2019-09-28T08:19:04Z</time>
      </trkpt>
      <trkpt lat="42.96789" lon="-0.26488">
        <ele>1444.8000488281</ele>
        <time>2019-09-28T08:19:05Z</time>
      </trkpt>
      <trkpt lat="42.96783" lon="-0.26491">
        <ele>1444.1999511719</ele>
        <time>2019-09-28T08:19:06Z</time>
      </trkpt>
      <trkpt lat="42.96776" lon="-0.26493">
        <ele>1443.8000488281</ele>
        <time>2019-09-28T08:19:07Z</time>
      </trkpt>
      <trkpt lat="42.9677" lon="-0.26495">
        <ele>1443.1999511719</ele>
        <time>2019-09-28T08:19:08Z</time>
      </trkpt>
      <trkpt lat="42.96763" lon="-0.26497">
        <ele>1442.5999755859</ele>
        <time>2019-09-28T08:19:09Z</time>
      </trkpt>
      <trkpt lat="42.96756" lon="-0.26499">
        <ele>1442</ele>
        <time>2019-09-28T08:19:10Z</time>
      </trkpt>
      <trkpt lat="42.96748" lon="-0.26501">
        <ele>1441.4000244141</ele>
        <time>2019-09-28T08:19:11Z</time>
      </trkpt>
      <trkpt lat="42.9674" lon="-0.26504">
        <ele>1440.1999511719</ele>
        <time>2019-09-28T08:19:12Z</time>
      </trkpt>
      <trkpt lat="42.96733" lon="-0.26507">
        <ele>1439.4000244141</ele>
        <time>2019-09-28T08:19:13Z</time>
      </trkpt>
      <trkpt lat="42.96725" lon="-0.26511">
        <ele>1438.8000488281</ele>
        <time>2019-09-28T08:19:14Z</time>
      </trkpt>
      <trkpt lat="42.96719" lon="-0.26514">
        <ele>1438</ele>
        <time>2019-09-28T08:19:15Z</time>
      </trkpt>
      <trkpt lat="42.96712" lon="-0.26517">
        <ele>1438</ele>
        <time>2019-09-28T08:19:16Z</time>
      </trkpt>
      <trkpt lat="42.96687" lon="-0.26522">
        <ele>1438</ele>
        <time>2019-09-28T08:19:20Z</time>
      </trkpt>
      <trkpt lat="42.96682" lon="-0.26521">
        <ele>1438</ele>
        <time>2019-09-28T08:19:21Z</time>
      </trkpt>
      <trkpt lat="42.96662" lon="-0.26517">
        <ele>1438</ele>
        <time>2019-09-28T08:19:25Z</time>
      </trkpt>
      <trkpt lat="42.96658" lon="-0.26515">
        <ele>1438</ele>
        <time>2019-09-28T08:19:26Z</time>
      </trkpt>
      <trkpt lat="42.96638" lon="-0.26505">
        <ele>1438</ele>
        <time>2019-09-28T08:19:31Z</time>
      </trkpt>
      <trkpt lat="42.96608" lon="-0.26491">
        <ele>1437.5999755859</ele>
        <time>2019-09-28T08:19:37Z</time>
      </trkpt>
      <trkpt lat="42.96604" lon="-0.26488">
        <ele>1437.1999511719</ele>
        <time>2019-09-28T08:19:38Z</time>
      </trkpt>
      <trkpt lat="42.96599" lon="-0.26486">
        <ele>1436.8000488281</ele>
        <time>2019-09-28T08:19:39Z</time>
      </trkpt>
      <trkpt lat="42.96594" lon="-0.26485">
        <ele>1436.4000244141</ele>
        <time>2019-09-28T08:19:40Z</time>
      </trkpt>
      <trkpt lat="42.96589" lon="-0.26484">
        <ele>1436</ele>
        <time>2019-09-28T08:19:41Z</time>
      </trkpt>
      <trkpt lat="42.9658" lon="-0.26483">
        <ele>1436</ele>
        <time>2019-09-28T08:19:43Z</time>
      </trkpt>
      <trkpt lat="42.96573" lon="-0.2648">
        <ele>1436</ele>
        <time>2019-09-28T08:19:45Z</time>
      </trkpt>
      <trkpt lat="42.9656" lon="-0.26474">
        <ele>1436</ele>
        <time>2019-09-28T08:19:48Z</time>
      </trkpt>
      <trkpt lat="42.96555" lon="-0.26471">
        <ele>1436</ele>
        <time>2019-09-28T08:19:49Z</time>
      </trkpt>
      <trkpt lat="42.96538" lon="-0.2646">
        <ele>1436</ele>
        <time>2019-09-28T08:19:53Z</time>
      </trkpt>
      <trkpt lat="42.96534" lon="-0.26458">
        <ele>1436</ele>
        <time>2019-09-28T08:19:54Z</time>
      </trkpt>
      <trkpt lat="42.96525" lon="-0.26454">
        <ele>1436</ele>
        <time>2019-09-28T08:19:56Z</time>
      </trkpt>
      <trkpt lat="42.96514" lon="-0.26444">
        <ele>1436</ele>
        <time>2019-09-28T08:19:59Z</time>
      </trkpt>
      <trkpt lat="42.96511" lon="-0.2644">
        <ele>1436</ele>
        <time>2019-09-28T08:20:00Z</time>
      </trkpt>
      <trkpt lat="42.96503" lon="-0.26428">
        <ele>1436</ele>
        <time>2019-09-28T08:20:04Z</time>
      </trkpt>
      <trkpt lat="42.9649" lon="-0.26408">
        <ele>1436</ele>
        <time>2019-09-28T08:20:10Z</time>
      </trkpt>
      <trkpt lat="42.96479" lon="-0.26391">
        <ele>1436</ele>
        <time>2019-09-28T08:20:14Z</time>
      </trkpt>
      <trkpt lat="42.96473" lon="-0.2638">
        <ele>1436</ele>
        <time>2019-09-28T08:20:16Z</time>
      </trkpt>
      <trkpt lat="42.96462" lon="-0.26364">
        <ele>1435.5999755859</ele>
        <time>2019-09-28T08:20:19Z</time>
      </trkpt>
      <trkpt lat="42.96458" lon="-0.26358">
        <ele>1435.1999511719</ele>
        <time>2019-09-28T08:20:20Z</time>
      </trkpt>
      <trkpt lat="42.96454" lon="-0.26352">
        <ele>1434.5999755859</ele>
        <time>2019-09-28T08:20:21Z</time>
      </trkpt>
      <trkpt lat="42.9645" lon="-0.26346">
        <ele>1434.1999511719</ele>
        <time>2019-09-28T08:20:22Z</time>
      </trkpt>
      <trkpt lat="42.96446" lon="-0.2634">
        <ele>1433.8000488281</ele>
        <time>2019-09-28T08:20:23Z</time>
      </trkpt>
      <trkpt lat="42.96431" lon="-0.26316">
        <ele>1433.4000244141</ele>
        <time>2019-09-28T08:20:27Z</time>
      </trkpt>
      <trkpt lat="42.96428" lon="-0.2631">
        <ele>1432.8000488281</ele>
        <time>2019-09-28T08:20:28Z</time>
      </trkpt>
      <trkpt lat="42.96424" lon="-0.26304">
        <ele>1432.4000244141</ele>
        <time>2019-09-28T08:20:29Z</time>
      </trkpt>
      <trkpt lat="42.96421" lon="-0.26298">
        <ele>1431.8000488281</ele>
        <time>2019-09-28T08:20:30Z</time>
      </trkpt>
      <trkpt lat="42.96418" lon="-0.26292">
        <ele>1431.4000244141</ele>
        <time>2019-09-28T08:20:31Z</time>
      </trkpt>
      <trkpt lat="42.96407" lon="-0.26275">
        <ele>1431.4000244141</ele>
        <time>2019-09-28T08:20:34Z</time>
      </trkpt>
      <trkpt lat="42.96399" lon="-0.26267">
        <ele>1431.4000244141</ele>
        <time>2019-09-28T08:20:36Z</time>
      </trkpt>
      <trkpt lat="42.96381" lon="-0.26261">
        <ele>1431.4000244141</ele>
        <time>2019-09-28T08:20:40Z</time>
      </trkpt>
      <trkpt lat="42.96364" lon="-0.26253">
        <ele>1432</ele>
        <time>2019-09-28T08:20:45Z</time>
      </trkpt>
      <trkpt lat="42.96361" lon="-0.26251">
        <ele>1432.4000244141</ele>
        <time>2019-09-28T08:20:46Z</time>
      </trkpt>
      <trkpt lat="42.96358" lon="-0.2625">
        <ele>1432.8000488281</ele>
        <time>2019-09-28T08:20:47Z</time>
      </trkpt>
      <trkpt lat="42.96355" lon="-0.26249">
        <ele>1433.4000244141</ele>
        <time>2019-09-28T08:20:48Z</time>
      </trkpt>
      <trkpt lat="42.96352" lon="-0.26248">
        <ele>1433.8000488281</ele>
        <time>2019-09-28T08:20:49Z</time>
      </trkpt>
      <trkpt lat="42.96346" lon="-0.26246">
        <ele>1434.1999511719</ele>
        <time>2019-09-28T08:20:51Z</time>
      </trkpt>
      <trkpt lat="42.96343" lon="-0.26245">
        <ele>1434.5999755859</ele>
        <time>2019-09-28T08:20:52Z</time>
      </trkpt>
      <trkpt lat="42.9634" lon="-0.26244">
        <ele>1435.1999511719</ele>
        <time>2019-09-28T08:20:53Z</time>
      </trkpt>
      <trkpt lat="42.96337" lon="-0.26243">
        <ele>1435.5999755859</ele>
        <time>2019-09-28T08:20:54Z</time>
      </trkpt>
      <trkpt lat="42.96334" lon="-0.26242">
        <ele>1436</ele>
        <time>2019-09-28T08:20:55Z</time>
      </trkpt>
      <trkpt lat="42.96328" lon="-0.2624">
        <ele>1436.4000244141</ele>
        <time>2019-09-28T08:20:57Z</time>
      </trkpt>
      <trkpt lat="42.96325" lon="-0.2624">
        <ele>1437</ele>
        <time>2019-09-28T08:20:58Z</time>
      </trkpt>
      <trkpt lat="42.96322" lon="-0.26239">
        <ele>1437.4000244141</ele>
        <time>2019-09-28T08:20:59Z</time>
      </trkpt>
      <trkpt lat="42.9632" lon="-0.26238">
        <ele>1437.8000488281</ele>
        <time>2019-09-28T08:21:00Z</time>
      </trkpt>
      <trkpt lat="42.96317" lon="-0.26238">
        <ele>1438.4000244141</ele>
        <time>2019-09-28T08:21:01Z</time>
      </trkpt>
      <trkpt lat="42.96308" lon="-0.2624">
        <ele>1438.8000488281</ele>
        <time>2019-09-28T08:21:05Z</time>
      </trkpt>
      <trkpt lat="42.96305" lon="-0.26241">
        <ele>1439.1999511719</ele>
        <time>2019-09-28T08:21:06Z</time>
      </trkpt>
      <trkpt lat="42.96303" lon="-0.26242">
        <ele>1439.5999755859</ele>
        <time>2019-09-28T08:21:07Z</time>
      </trkpt>
      <trkpt lat="42.963" lon="-0.26244">
        <ele>1440.1999511719</ele>
        <time>2019-09-28T08:21:08Z</time>
      </trkpt>
      <trkpt lat="42.96298" lon="-0.26246">
        <ele>1440.5999755859</ele>
        <time>2019-09-28T08:21:09Z</time>
      </trkpt>
      <trkpt lat="42.96296" lon="-0.26247">
        <ele>1441</ele>
        <time>2019-09-28T08:21:10Z</time>
      </trkpt>
      <trkpt lat="42.96294" lon="-0.26249">
        <ele>1441.4000244141</ele>
        <time>2019-09-28T08:21:11Z</time>
      </trkpt>
      <trkpt lat="42.96291" lon="-0.2625">
        <ele>1441.8000488281</ele>
        <time>2019-09-28T08:21:12Z</time>
      </trkpt>
      <trkpt lat="42.96289" lon="-0.26252">
        <ele>1442.1999511719</ele>
        <time>2019-09-28T08:21:13Z</time>
      </trkpt>
      <trkpt lat="42.96287" lon="-0.26255">
        <ele>1442.5999755859</ele>
        <time>2019-09-28T08:21:14Z</time>
      </trkpt>
      <trkpt lat="42.96282" lon="-0.26258">
        <ele>1443.5999755859</ele>
        <time>2019-09-28T08:21:16Z</time>
      </trkpt>
      <trkpt lat="42.9628" lon="-0.26259">
        <ele>1444</ele>
        <time>2019-09-28T08:21:17Z</time>
      </trkpt>
      <trkpt lat="42.96277" lon="-0.2626">
        <ele>1444.4000244141</ele>
        <time>2019-09-28T08:21:18Z</time>
      </trkpt>
      <trkpt lat="42.96275" lon="-0.26262">
        <ele>1444.8000488281</ele>
        <time>2019-09-28T08:21:19Z</time>
      </trkpt>
      <trkpt lat="42.96264" lon="-0.26265">
        <ele>1445.1999511719</ele>
        <time>2019-09-28T08:21:23Z</time>
      </trkpt>
      <trkpt lat="42.96262" lon="-0.26266">
        <ele>1445.5999755859</ele>
        <time>2019-09-28T08:21:24Z</time>
      </trkpt>
      <trkpt lat="42.96259" lon="-0.26268">
        <ele>1446.1999511719</ele>
        <time>2019-09-28T08:21:25Z</time>
      </trkpt>
      <trkpt lat="42.96256" lon="-0.26268">
        <ele>1446.5999755859</ele>
        <time>2019-09-28T08:21:26Z</time>
      </trkpt>
      <trkpt lat="42.96254" lon="-0.26269">
        <ele>1447</ele>
        <time>2019-09-28T08:21:27Z</time>
      </trkpt>
      <trkpt lat="42.96247" lon="-0.2627">
        <ele>1447</ele>
        <time>2019-09-28T08:21:30Z</time>
      </trkpt>
      <trkpt lat="42.96245" lon="-0.2627">
        <ele>1447.4000244141</ele>
        <time>2019-09-28T08:21:31Z</time>
      </trkpt>
      <trkpt lat="42.96243" lon="-0.26269">
        <ele>1447.8000488281</ele>
        <time>2019-09-28T08:21:32Z</time>
      </trkpt>
      <trkpt lat="42.9624" lon="-0.26268">
        <ele>1448.1999511719</ele>
        <time>2019-09-28T08:21:33Z</time>
      </trkpt>
      <trkpt lat="42.96238" lon="-0.26266">
        <ele>1448.5999755859</ele>
        <time>2019-09-28T08:21:34Z</time>
      </trkpt>
      <trkpt lat="42.96237" lon="-0.26265">
        <ele>1449</ele>
        <time>2019-09-28T08:21:35Z</time>
      </trkpt>
      <trkpt lat="42.96231" lon="-0.26251">
        <ele>1449</ele>
        <time>2019-09-28T08:21:40Z</time>
      </trkpt>
      <trkpt lat="42.96232" lon="-0.26231">
        <ele>1449</ele>
        <time>2019-09-28T08:21:45Z</time>
      </trkpt>
      <trkpt lat="42.96228" lon="-0.26216">
        <ele>1448.4000244141</ele>
        <time>2019-09-28T08:21:48Z</time>
      </trkpt>
      <trkpt lat="42.96225" lon="-0.2621">
        <ele>1448</ele>
        <time>2019-09-28T08:21:49Z</time>
      </trkpt>
      <trkpt lat="42.96223" lon="-0.26205">
        <ele>1447.4000244141</ele>
        <time>2019-09-28T08:21:50Z</time>
      </trkpt>
      <trkpt lat="42.9622" lon="-0.26199">
        <ele>1446.8000488281</ele>
        <time>2019-09-28T08:21:51Z</time>
      </trkpt>
      <trkpt lat="42.96218" lon="-0.26193">
        <ele>1446.1999511719</ele>
        <time>2019-09-28T08:21:52Z</time>
      </trkpt>
      <trkpt lat="42.96214" lon="-0.26189">
        <ele>1445.8000488281</ele>
        <time>2019-09-28T08:21:53Z</time>
      </trkpt>
      <trkpt lat="42.96209" lon="-0.26187">
        <ele>1445.1999511719</ele>
        <time>2019-09-28T08:21:54Z</time>
      </trkpt>
      <trkpt lat="42.96204" lon="-0.26185">
        <ele>1444.5999755859</ele>
        <time>2019-09-28T08:21:55Z</time>
      </trkpt>
      <trkpt lat="42.96199" lon="-0.26183">
        <ele>1444</ele>
        <time>2019-09-28T08:21:56Z</time>
      </trkpt>
      <trkpt lat="42.96194" lon="-0.26179">
        <ele>1444</ele>
        <time>2019-09-28T08:21:57Z</time>
      </trkpt>
      <trkpt lat="42.96186" lon="-0.26171">
        <ele>1444</ele>
        <time>2019-09-28T08:21:59Z</time>
      </trkpt>
      <trkpt lat="42.96181" lon="-0.26164">
        <ele>1444</ele>
        <time>2019-09-28T08:22:01Z</time>
      </trkpt>
      <trkpt lat="42.96177" lon="-0.26159">
        <ele>1444</ele>
        <time>2019-09-28T08:22:03Z</time>
      </trkpt>
      <trkpt lat="42.96162" lon="-0.26156">
        <ele>1444</ele>
        <time>2019-09-28T08:22:08Z</time>
      </trkpt>
      <trkpt lat="42.96149" lon="-0.26159">
        <ele>1444.4000244141</ele>
        <time>2019-09-28T08:22:13Z</time>
      </trkpt>
      <trkpt lat="42.96146" lon="-0.2616">
        <ele>1444.8000488281</ele>
        <time>2019-09-28T08:22:14Z</time>
      </trkpt>
      <trkpt lat="42.96144" lon="-0.26161">
        <ele>1445.1999511719</ele>
        <time>2019-09-28T08:22:15Z</time>
      </trkpt>
      <trkpt lat="42.96141" lon="-0.26162">
        <ele>1445.5999755859</ele>
        <time>2019-09-28T08:22:16Z</time>
      </trkpt>
      <trkpt lat="42.96139" lon="-0.26163">
        <ele>1446</ele>
        <time>2019-09-28T08:22:17Z</time>
      </trkpt>
      <trkpt lat="42.96131" lon="-0.26168">
        <ele>1446</ele>
        <time>2019-09-28T08:22:21Z</time>
      </trkpt>
      <trkpt lat="42.96126" lon="-0.2617">
        <ele>1446.4000244141</ele>
        <time>2019-09-28T08:22:23Z</time>
      </trkpt>
      <trkpt lat="42.96124" lon="-0.2617">
        <ele>1446.8000488281</ele>
        <time>2019-09-28T08:22:24Z</time>
      </trkpt>
      <trkpt lat="42.96122" lon="-0.26171">
        <ele>1447.4000244141</ele>
        <time>2019-09-28T08:22:25Z</time>
      </trkpt>
      <trkpt lat="42.9612" lon="-0.26172">
        <ele>1447.8000488281</ele>
        <time>2019-09-28T08:22:26Z</time>
      </trkpt>
      <trkpt lat="42.96118" lon="-0.26173">
        <ele>1448.1999511719</ele>
        <time>2019-09-28T08:22:27Z</time>
      </trkpt>
      <trkpt lat="42.96101" lon="-0.26179">
        <ele>1448.5999755859</ele>
        <time>2019-09-28T08:22:34Z</time>
      </trkpt>
      <trkpt lat="42.96098" lon="-0.2618">
        <ele>1449</ele>
        <time>2019-09-28T08:22:35Z</time>
      </trkpt>
      <trkpt lat="42.96096" lon="-0.26182">
        <ele>1449.4000244141</ele>
        <time>2019-09-28T08:22:36Z</time>
      </trkpt>
      <trkpt lat="42.96093" lon="-0.26183">
        <ele>1449.8000488281</ele>
        <time>2019-09-28T08:22:37Z</time>
      </trkpt>
      <trkpt lat="42.9609" lon="-0.26184">
        <ele>1450.1999511719</ele>
        <time>2019-09-28T08:22:38Z</time>
      </trkpt>
      <trkpt lat="42.96082" lon="-0.26184">
        <ele>1450.1999511719</ele>
        <time>2019-09-28T08:22:41Z</time>
      </trkpt>
      <trkpt lat="42.96076" lon="-0.2618">
        <ele>1450.5999755859</ele>
        <time>2019-09-28T08:22:43Z</time>
      </trkpt>
      <trkpt lat="42.96074" lon="-0.26178">
        <ele>1451</ele>
        <time>2019-09-28T08:22:44Z</time>
      </trkpt>
      <trkpt lat="42.96072" lon="-0.26175">
        <ele>1451.4000244141</ele>
        <time>2019-09-28T08:22:45Z</time>
      </trkpt>
      <trkpt lat="42.96071" lon="-0.26172">
        <ele>1451.8000488281</ele>
        <time>2019-09-28T08:22:46Z</time>
      </trkpt>
      <trkpt lat="42.96069" lon="-0.2617">
        <ele>1452.4000244141</ele>
        <time>2019-09-28T08:22:47Z</time>
      </trkpt>
      <trkpt lat="42.96063" lon="-0.26151">
        <ele>1452.4000244141</ele>
        <time>2019-09-28T08:22:52Z</time>
      </trkpt>
      <trkpt lat="42.96061" lon="-0.26127">
        <ele>1452.8000488281</ele>
        <time>2019-09-28T08:22:58Z</time>
      </trkpt>
      <trkpt lat="42.96061" lon="-0.26123">
        <ele>1453.1999511719</ele>
        <time>2019-09-28T08:22:59Z</time>
      </trkpt>
      <trkpt lat="42.96061" lon="-0.26119">
        <ele>1453.8000488281</ele>
        <time>2019-09-28T08:23:00Z</time>
      </trkpt>
      <trkpt lat="42.96061" lon="-0.26116">
        <ele>1454.1999511719</ele>
        <time>2019-09-28T08:23:01Z</time>
      </trkpt>
      <trkpt lat="42.96061" lon="-0.26113">
        <ele>1454.8000488281</ele>
        <time>2019-09-28T08:23:02Z</time>
      </trkpt>
      <trkpt lat="42.96061" lon="-0.26107">
        <ele>1454.8000488281</ele>
        <time>2019-09-28T08:23:04Z</time>
      </trkpt>
      <trkpt lat="42.96055" lon="-0.26088">
        <ele>1454.8000488281</ele>
        <time>2019-09-28T08:23:11Z</time>
      </trkpt>
      <trkpt lat="42.96055" lon="-0.26089">
        <ele>1454.8000488281</ele>
        <time>2019-09-28T08:23:16Z</time>
      </trkpt>
      <trkpt lat="42.96055" lon="-0.26089">
        <ele>1454.8000488281</ele>
        <time>2019-09-28T08:23:26Z</time>
      </trkpt>
      <trkpt lat="42.96055" lon="-0.26088">
        <ele>1454.8000488281</ele>
        <time>2019-09-28T08:23:33Z</time>
      </trkpt>
      <trkpt lat="42.96055" lon="-0.26088">
        <ele>1454.8000488281</ele>
        <time>2019-09-28T08:23:45Z</time>
      </trkpt>
      <trkpt lat="42.96055" lon="-0.26088">
        <ele>1454.8000488281</ele>
        <time>2019-09-28T08:23:56Z</time>
      </trkpt>
      <trkpt lat="42.96055" lon="-0.26088">
        <ele>1454.8000488281</ele>
        <time>2019-09-28T08:24:07Z</time>
      </trkpt>
      <trkpt lat="42.96055" lon="-0.26088">
        <ele>1454.8000488281</ele>
        <time>2019-09-28T08:24:19Z</time>
      </trkpt>
      <trkpt lat="42.96055" lon="-0.26088">
        <ele>1454.8000488281</ele>
        <time>2019-09-28T08:24:38Z</time>
      </trkpt>
      <trkpt lat="42.96055" lon="-0.26088">
        <ele>1454.8000488281</ele>
        <time>2019-09-28T08:24:49Z</time>
      </trkpt>
      <trkpt lat="42.96055" lon="-0.26088">
        <ele>1454.8000488281</ele>
        <time>2019-09-28T08:25:04Z</time>
      </trkpt>
      <trkpt lat="42.96055" lon="-0.26088">
        <ele>1454.8000488281</ele>
        <time>2019-09-28T08:25:16Z</time>
      </trkpt>
      <trkpt lat="42.96055" lon="-0.26087">
        <ele>1454.8000488281</ele>
        <time>2019-09-28T08:25:30Z</time>
      </trkpt>
      <trkpt lat="42.96055" lon="-0.26087">
        <ele>1454.8000488281</ele>
        <time>2019-09-28T08:25:42Z</time>
      </trkpt>
      <trkpt lat="42.96055" lon="-0.26087">
        <ele>1454.8000488281</ele>
        <time>2019-09-28T08:25:51Z</time>
      </trkpt>
      <trkpt lat="42.96056" lon="-0.26088">
        <ele>1454.8000488281</ele>
        <time>2019-09-28T08:26:00Z</time>
      </trkpt>
      <trkpt lat="42.96056" lon="-0.26088">
        <ele>1454.8000488281</ele>
        <time>2019-09-28T08:26:09Z</time>
      </trkpt>
      <trkpt lat="42.96056" lon="-0.26088">
        <ele>1454.8000488281</ele>
        <time>2019-09-28T08:26:17Z</time>
      </trkpt>
      <trkpt lat="42.96056" lon="-0.26088">
        <ele>1454.8000488281</ele>
        <time>2019-09-28T08:26:25Z</time>
      </trkpt>
      <trkpt lat="42.96056" lon="-0.26081">
        <ele>1454.8000488281</ele>
        <time>2019-09-28T08:26:32Z</time>
      </trkpt>
      <trkpt lat="42.96056" lon="-0.26078">
        <ele>1454.4000244141</ele>
        <time>2019-09-28T08:26:33Z</time>
      </trkpt>
      <trkpt lat="42.96057" lon="-0.26075">
        <ele>1453.8000488281</ele>
        <time>2019-09-28T08:26:34Z</time>
      </trkpt>
      <trkpt lat="42.96057" lon="-0.26072">
        <ele>1453.4000244141</ele>
        <time>2019-09-28T08:26:35Z</time>
      </trkpt>
      <trkpt lat="42.96057" lon="-0.26069">
        <ele>1453</ele>
        <time>2019-09-28T08:26:36Z</time>
      </trkpt>
      <trkpt lat="42.96058" lon="-0.26065">
        <ele>1452.5999755859</ele>
        <time>2019-09-28T08:26:37Z</time>
      </trkpt>
      <trkpt lat="42.96058" lon="-0.26054">
        <ele>1452.1999511719</ele>
        <time>2019-09-28T08:26:39Z</time>
      </trkpt>
      <trkpt lat="42.96059" lon="-0.26048">
        <ele>1451.5999755859</ele>
        <time>2019-09-28T08:26:40Z</time>
      </trkpt>
      <trkpt lat="42.96059" lon="-0.26041">
        <ele>1451.1999511719</ele>
        <time>2019-09-28T08:26:41Z</time>
      </trkpt>
      <trkpt lat="42.96059" lon="-0.26034">
        <ele>1450.4000244141</ele>
        <time>2019-09-28T08:26:42Z</time>
      </trkpt>
      <trkpt lat="42.96058" lon="-0.26026">
        <ele>1449.8000488281</ele>
        <time>2019-09-28T08:26:43Z</time>
      </trkpt>
      <trkpt lat="42.96056" lon="-0.26019">
        <ele>1449</ele>
        <time>2019-09-28T08:26:44Z</time>
      </trkpt>
      <trkpt lat="42.96053" lon="-0.26012">
        <ele>1448.1999511719</ele>
        <time>2019-09-28T08:26:45Z</time>
      </trkpt>
      <trkpt lat="42.96048" lon="-0.26005">
        <ele>1447.5999755859</ele>
        <time>2019-09-28T08:26:46Z</time>
      </trkpt>
      <trkpt lat="42.96043" lon="-0.25998">
        <ele>1447</ele>
        <time>2019-09-28T08:26:47Z</time>
      </trkpt>
      <trkpt lat="42.96039" lon="-0.2599">
        <ele>1446.1999511719</ele>
        <time>2019-09-28T08:26:48Z</time>
      </trkpt>
      <trkpt lat="42.96036" lon="-0.2598">
        <ele>1445.5999755859</ele>
        <time>2019-09-28T08:26:49Z</time>
      </trkpt>
      <trkpt lat="42.96034" lon="-0.2597">
        <ele>1445</ele>
        <time>2019-09-28T08:26:50Z</time>
      </trkpt>
      <trkpt lat="42.96033" lon="-0.2596">
        <ele>1444.1999511719</ele>
        <time>2019-09-28T08:26:51Z</time>
      </trkpt>
      <trkpt lat="42.96033" lon="-0.2595">
        <ele>1443.5999755859</ele>
        <time>2019-09-28T08:26:52Z</time>
      </trkpt>
      <trkpt lat="42.96032" lon="-0.25939">
        <ele>1442.8000488281</ele>
        <time>2019-09-28T08:26:53Z</time>
      </trkpt>
      <trkpt lat="42.96033" lon="-0.25929">
        <ele>1442.1999511719</ele>
        <time>2019-09-28T08:26:54Z</time>
      </trkpt>
      <trkpt lat="42.96034" lon="-0.25918">
        <ele>1441.4000244141</ele>
        <time>2019-09-28T08:26:55Z</time>
      </trkpt>
      <trkpt lat="42.96037" lon="-0.25909">
        <ele>1440.8000488281</ele>
        <time>2019-09-28T08:26:56Z</time>
      </trkpt>
      <trkpt lat="42.96041" lon="-0.25899">
        <ele>1440.4000244141</ele>
        <time>2019-09-28T08:26:57Z</time>
      </trkpt>
      <trkpt lat="42.96044" lon="-0.25889">
        <ele>1439.8000488281</ele>
        <time>2019-09-28T08:26:58Z</time>
      </trkpt>
      <trkpt lat="42.96048" lon="-0.25879">
        <ele>1439</ele>
        <time>2019-09-28T08:26:59Z</time>
      </trkpt>
      <trkpt lat="42.96051" lon="-0.25868">
        <ele>1438.4000244141</ele>
        <time>2019-09-28T08:27:00Z</time>
      </trkpt>
      <trkpt lat="42.96054" lon="-0.25857">
        <ele>1437.5999755859</ele>
        <time>2019-09-28T08:27:01Z</time>
      </trkpt>
      <trkpt lat="42.96058" lon="-0.25846">
        <ele>1435.8000488281</ele>
        <time>2019-09-28T08:27:02Z</time>
      </trkpt>
      <trkpt lat="42.9606" lon="-0.25834">
        <ele>1434.8000488281</ele>
        <time>2019-09-28T08:27:03Z</time>
      </trkpt>
      <trkpt lat="42.96062" lon="-0.25822">
        <ele>1433.8000488281</ele>
        <time>2019-09-28T08:27:04Z</time>
      </trkpt>
      <trkpt lat="42.96064" lon="-0.2581">
        <ele>1432.8000488281</ele>
        <time>2019-09-28T08:27:05Z</time>
      </trkpt>
      <trkpt lat="42.96067" lon="-0.25798">
        <ele>1431.8000488281</ele>
        <time>2019-09-28T08:27:06Z</time>
      </trkpt>
      <trkpt lat="42.9607" lon="-0.25787">
        <ele>1430.8000488281</ele>
        <time>2019-09-28T08:27:07Z</time>
      </trkpt>
      <trkpt lat="42.96072" lon="-0.25776">
        <ele>1429.8000488281</ele>
        <time>2019-09-28T08:27:08Z</time>
      </trkpt>
      <trkpt lat="42.96074" lon="-0.25766">
        <ele>1429</ele>
        <time>2019-09-28T08:27:09Z</time>
      </trkpt>
      <trkpt lat="42.96076" lon="-0.25756">
        <ele>1428.4000244141</ele>
        <time>2019-09-28T08:27:10Z</time>
      </trkpt>
      <trkpt lat="42.96077" lon="-0.25746">
        <ele>1428</ele>
        <time>2019-09-28T08:27:11Z</time>
      </trkpt>
      <trkpt lat="42.96077" lon="-0.25737">
        <ele>1427.5999755859</ele>
        <time>2019-09-28T08:27:12Z</time>
      </trkpt>
      <trkpt lat="42.96078" lon="-0.25728">
        <ele>1427.1999511719</ele>
        <time>2019-09-28T08:27:13Z</time>
      </trkpt>
      <trkpt lat="42.96078" lon="-0.25719">
        <ele>1426.5999755859</ele>
        <time>2019-09-28T08:27:14Z</time>
      </trkpt>
      <trkpt lat="42.9608" lon="-0.25705">
        <ele>1426.1999511719</ele>
        <time>2019-09-28T08:27:16Z</time>
      </trkpt>
      <trkpt lat="42.96082" lon="-0.25699">
        <ele>1425.8000488281</ele>
        <time>2019-09-28T08:27:17Z</time>
      </trkpt>
      <trkpt lat="42.96083" lon="-0.25693">
        <ele>1425.4000244141</ele>
        <time>2019-09-28T08:27:18Z</time>
      </trkpt>
      <trkpt lat="42.96084" lon="-0.25687">
        <ele>1425</ele>
        <time>2019-09-28T08:27:19Z</time>
      </trkpt>
      <trkpt lat="42.96085" lon="-0.25681">
        <ele>1424.4000244141</ele>
        <time>2019-09-28T08:27:20Z</time>
      </trkpt>
      <trkpt lat="42.96085" lon="-0.25667">
        <ele>1424</ele>
        <time>2019-09-28T08:27:22Z</time>
      </trkpt>
      <trkpt lat="42.96086" lon="-0.25661">
        <ele>1423.5999755859</ele>
        <time>2019-09-28T08:27:23Z</time>
      </trkpt>
      <trkpt lat="42.96088" lon="-0.25655">
        <ele>1423.1999511719</ele>
        <time>2019-09-28T08:27:24Z</time>
      </trkpt>
      <trkpt lat="42.96089" lon="-0.25651">
        <ele>1422.8000488281</ele>
        <time>2019-09-28T08:27:25Z</time>
      </trkpt>
      <trkpt lat="42.9609" lon="-0.25647">
        <ele>1422.4000244141</ele>
        <time>2019-09-28T08:27:26Z</time>
      </trkpt>
      <trkpt lat="42.96094" lon="-0.25621">
        <ele>1422.4000244141</ele>
        <time>2019-09-28T08:27:31Z</time>
      </trkpt>
      <trkpt lat="42.96096" lon="-0.25615">
        <ele>1422.4000244141</ele>
        <time>2019-09-28T08:27:32Z</time>
      </trkpt>
      <trkpt lat="42.961" lon="-0.25603">
        <ele>1421.8000488281</ele>
        <time>2019-09-28T08:27:34Z</time>
      </trkpt>
      <trkpt lat="42.96102" lon="-0.25598">
        <ele>1421.4000244141</ele>
        <time>2019-09-28T08:27:35Z</time>
      </trkpt>
      <trkpt lat="42.96105" lon="-0.25593">
        <ele>1420.8000488281</ele>
        <time>2019-09-28T08:27:36Z</time>
      </trkpt>
      <trkpt lat="42.96108" lon="-0.25589">
        <ele>1420.4000244141</ele>
        <time>2019-09-28T08:27:37Z</time>
      </trkpt>
      <trkpt lat="42.9611" lon="-0.25584">
        <ele>1419.8000488281</ele>
        <time>2019-09-28T08:27:38Z</time>
      </trkpt>
      <trkpt lat="42.96118" lon="-0.25571">
        <ele>1419.8000488281</ele>
        <time>2019-09-28T08:27:41Z</time>
      </trkpt>
      <trkpt lat="42.9613" lon="-0.25552">
        <ele>1419.8000488281</ele>
        <time>2019-09-28T08:27:46Z</time>
      </trkpt>
      <trkpt lat="42.96142" lon="-0.25529">
        <ele>1419.8000488281</ele>
        <time>2019-09-28T08:27:52Z</time>
      </trkpt>
      <trkpt lat="42.96151" lon="-0.25525">
        <ele>1419.8000488281</ele>
        <time>2019-09-28T08:27:56Z</time>
      </trkpt>
      <trkpt lat="42.96158" lon="-0.25529">
        <ele>1419.8000488281</ele>
        <time>2019-09-28T08:27:59Z</time>
      </trkpt>
      <trkpt lat="42.96162" lon="-0.25534">
        <ele>1419.8000488281</ele>
        <time>2019-09-28T08:28:01Z</time>
      </trkpt>
      <trkpt lat="42.96166" lon="-0.25538">
        <ele>1419.8000488281</ele>
        <time>2019-09-28T08:28:06Z</time>
      </trkpt>
      <trkpt lat="42.96166" lon="-0.25539">
        <ele>1419.8000488281</ele>
        <time>2019-09-28T08:28:12Z</time>
      </trkpt>
      <trkpt lat="42.96166" lon="-0.25539">
        <ele>1419.8000488281</ele>
        <time>2019-09-28T08:28:34Z</time>
      </trkpt>
      <trkpt lat="42.96166" lon="-0.2554">
        <ele>1419.8000488281</ele>
        <time>2019-09-28T08:28:52Z</time>
      </trkpt>
      <trkpt lat="42.96166" lon="-0.25541">
        <ele>1419.8000488281</ele>
        <time>2019-09-28T08:28:55Z</time>
      </trkpt>
      <trkpt lat="42.96166" lon="-0.25541">
        <ele>1419.8000488281</ele>
        <time>2019-09-28T08:28:57Z</time>
      </trkpt>
      <trkpt lat="42.96167" lon="-0.25545">
        <ele>1419.8000488281</ele>
        <time>2019-09-28T08:29:00Z</time>
      </trkpt>
      <trkpt lat="42.96169" lon="-0.2555">
        <ele>1419.8000488281</ele>
        <time>2019-09-28T08:29:02Z</time>
      </trkpt>
      <trkpt lat="42.96172" lon="-0.25558">
        <ele>1420.1999511719</ele>
        <time>2019-09-28T08:29:05Z</time>
      </trkpt>
      <trkpt lat="42.96173" lon="-0.25561">
        <ele>1420.8000488281</ele>
        <time>2019-09-28T08:29:06Z</time>
      </trkpt>
      <trkpt lat="42.96173" lon="-0.25564">
        <ele>1421.1999511719</ele>
        <time>2019-09-28T08:29:07Z</time>
      </trkpt>
      <trkpt lat="42.96172" lon="-0.25567">
        <ele>1421.5999755859</ele>
        <time>2019-09-28T08:29:08Z</time>
      </trkpt>
      <trkpt lat="42.96172" lon="-0.2557">
        <ele>1422</ele>
        <time>2019-09-28T08:29:09Z</time>
      </trkpt>
      <trkpt lat="42.96169" lon="-0.25584">
        <ele>1422.4000244141</ele>
        <time>2019-09-28T08:29:14Z</time>
      </trkpt>
      <trkpt lat="42.96168" lon="-0.25586">
        <ele>1422.8000488281</ele>
        <time>2019-09-28T08:29:15Z</time>
      </trkpt>
      <trkpt lat="42.96168" lon="-0.25588">
        <ele>1423.1999511719</ele>
        <time>2019-09-28T08:29:16Z</time>
      </trkpt>
      <trkpt lat="42.96167" lon="-0.25591">
        <ele>1423.8000488281</ele>
        <time>2019-09-28T08:29:17Z</time>
      </trkpt>
      <trkpt lat="42.96167" lon="-0.25593">
        <ele>1424.1999511719</ele>
        <time>2019-09-28T08:29:18Z</time>
      </trkpt>
      <trkpt lat="42.96164" lon="-0.25598">
        <ele>1424.5999755859</ele>
        <time>2019-09-28T08:29:20Z</time>
      </trkpt>
      <trkpt lat="42.96163" lon="-0.256">
        <ele>1425</ele>
        <time>2019-09-28T08:29:21Z</time>
      </trkpt>
      <trkpt lat="42.96163" lon="-0.25603">
        <ele>1425.4000244141</ele>
        <time>2019-09-28T08:29:22Z</time>
      </trkpt>
      <trkpt lat="42.96162" lon="-0.25605">
        <ele>1425.8000488281</ele>
        <time>2019-09-28T08:29:23Z</time>
      </trkpt>
      <trkpt lat="42.96161" lon="-0.25607">
        <ele>1426.1999511719</ele>
        <time>2019-09-28T08:29:24Z</time>
      </trkpt>
      <trkpt lat="42.9616" lon="-0.25612">
        <ele>1426.5999755859</ele>
        <time>2019-09-28T08:29:26Z</time>
      </trkpt>
      <trkpt lat="42.9616" lon="-0.25614">
        <ele>1427</ele>
        <time>2019-09-28T08:29:27Z</time>
      </trkpt>
      <trkpt lat="42.9616" lon="-0.25617">
        <ele>1427.4000244141</ele>
        <time>2019-09-28T08:29:28Z</time>
      </trkpt>
      <trkpt lat="42.96159" lon="-0.2562">
        <ele>1427.8000488281</ele>
        <time>2019-09-28T08:29:29Z</time>
      </trkpt>
      <trkpt lat="42.96159" lon="-0.25622">
        <ele>1428.1999511719</ele>
        <time>2019-09-28T08:29:30Z</time>
      </trkpt>
      <trkpt lat="42.96159" lon="-0.25631">
        <ele>1428.5999755859</ele>
        <time>2019-09-28T08:29:33Z</time>
      </trkpt>
      <trkpt lat="42.96159" lon="-0.25633">
        <ele>1429</ele>
        <time>2019-09-28T08:29:34Z</time>
      </trkpt>
      <trkpt lat="42.9616" lon="-0.25636">
        <ele>1429.5999755859</ele>
        <time>2019-09-28T08:29:35Z</time>
      </trkpt>
      <trkpt lat="42.96161" lon="-0.25638">
        <ele>1430</ele>
        <time>2019-09-28T08:29:36Z</time>
      </trkpt>
      <trkpt lat="42.96162" lon="-0.2564">
        <ele>1430.4000244141</ele>
        <time>2019-09-28T08:29:37Z</time>
      </trkpt>
      <trkpt lat="42.96172" lon="-0.25651">
        <ele>1430.8000488281</ele>
        <time>2019-09-28T08:29:43Z</time>
      </trkpt>
      <trkpt lat="42.96174" lon="-0.25652">
        <ele>1431.1999511719</ele>
        <time>2019-09-28T08:29:44Z</time>
      </trkpt>
      <trkpt lat="42.96176" lon="-0.25653">
        <ele>1431.5999755859</ele>
        <time>2019-09-28T08:29:45Z</time>
      </trkpt>
      <trkpt lat="42.96178" lon="-0.25654">
        <ele>1432</ele>
        <time>2019-09-28T08:29:46Z</time>
      </trkpt>
      <trkpt lat="42.9618" lon="-0.25655">
        <ele>1432.4000244141</ele>
        <time>2019-09-28T08:29:47Z</time>
      </trkpt>
      <trkpt lat="42.96188" lon="-0.25653">
        <ele>1432.4000244141</ele>
        <time>2019-09-28T08:29:50Z</time>
      </trkpt>
      <trkpt lat="42.96201" lon="-0.25644">
        <ele>1432.4000244141</ele>
        <time>2019-09-28T08:29:56Z</time>
      </trkpt>
      <trkpt lat="42.96217" lon="-0.25629">
        <ele>1433</ele>
        <time>2019-09-28T08:30:03Z</time>
      </trkpt>
      <trkpt lat="42.96218" lon="-0.25627">
        <ele>1433.4000244141</ele>
        <time>2019-09-28T08:30:04Z</time>
      </trkpt>
      <trkpt lat="42.96219" lon="-0.25624">
        <ele>1433.8000488281</ele>
        <time>2019-09-28T08:30:05Z</time>
      </trkpt>
      <trkpt lat="42.96221" lon="-0.25621">
        <ele>1434.1999511719</ele>
        <time>2019-09-28T08:30:06Z</time>
      </trkpt>
      <trkpt lat="42.96222" lon="-0.25618">
        <ele>1434.5999755859</ele>
        <time>2019-09-28T08:30:07Z</time>
      </trkpt>
      <trkpt lat="42.96224" lon="-0.25612">
        <ele>1434.5999755859</ele>
        <time>2019-09-28T08:30:09Z</time>
      </trkpt>
      <trkpt lat="42.96228" lon="-0.256">
        <ele>1435.1999511719</ele>
        <time>2019-09-28T08:30:13Z</time>
      </trkpt>
      <trkpt lat="42.96229" lon="-0.25597">
        <ele>1435.5999755859</ele>
        <time>2019-09-28T08:30:14Z</time>
      </trkpt>
      <trkpt lat="42.9623" lon="-0.25594">
        <ele>1436</ele>
        <time>2019-09-28T08:30:15Z</time>
      </trkpt>
      <trkpt lat="42.96231" lon="-0.25591">
        <ele>1436.4000244141</ele>
        <time>2019-09-28T08:30:16Z</time>
      </trkpt>
      <trkpt lat="42.96233" lon="-0.25588">
        <ele>1437</ele>
        <time>2019-09-28T08:30:17Z</time>
      </trkpt>
      <trkpt lat="42.9624" lon="-0.25565">
        <ele>1437</ele>
        <time>2019-09-28T08:30:23Z</time>
      </trkpt>
      <trkpt lat="42.96246" lon="-0.25549">
        <ele>1437</ele>
        <time>2019-09-28T08:30:27Z</time>
      </trkpt>
      <trkpt lat="42.96249" lon="-0.25544">
        <ele>1437</ele>
        <time>2019-09-28T08:30:28Z</time>
      </trkpt>
      <trkpt lat="42.96258" lon="-0.25524">
        <ele>1437</ele>
        <time>2019-09-28T08:30:32Z</time>
      </trkpt>
      <trkpt lat="42.96262" lon="-0.25514">
        <ele>1437</ele>
        <time>2019-09-28T08:30:34Z</time>
      </trkpt>
      <trkpt lat="42.96263" lon="-0.25509">
        <ele>1437</ele>
        <time>2019-09-28T08:30:35Z</time>
      </trkpt>
      <trkpt lat="42.96264" lon="-0.2549">
        <ele>1437</ele>
        <time>2019-09-28T08:30:38Z</time>
      </trkpt>
      <trkpt lat="42.96263" lon="-0.2548">
        <ele>1437</ele>
        <time>2019-09-28T08:30:40Z</time>
      </trkpt>
      <trkpt lat="42.9626" lon="-0.25468">
        <ele>1437</ele>
        <time>2019-09-28T08:30:43Z</time>
      </trkpt>
      <trkpt lat="42.9626" lon="-0.2545">
        <ele>1437</ele>
        <time>2019-09-28T08:30:48Z</time>
      </trkpt>
      <trkpt lat="42.96261" lon="-0.25444">
        <ele>1437.4000244141</ele>
        <time>2019-09-28T08:30:50Z</time>
      </trkpt>
      <trkpt lat="42.96261" lon="-0.25441">
        <ele>1437.8000488281</ele>
        <time>2019-09-28T08:30:51Z</time>
      </trkpt>
      <trkpt lat="42.96261" lon="-0.25438">
        <ele>1438.1999511719</ele>
        <time>2019-09-28T08:30:52Z</time>
      </trkpt>
      <trkpt lat="42.96262" lon="-0.25435">
        <ele>1438.5999755859</ele>
        <time>2019-09-28T08:30:53Z</time>
      </trkpt>
      <trkpt lat="42.96262" lon="-0.25432">
        <ele>1439</ele>
        <time>2019-09-28T08:30:54Z</time>
      </trkpt>
      <trkpt lat="42.96266" lon="-0.25417">
        <ele>1439</ele>
        <time>2019-09-28T08:30:59Z</time>
      </trkpt>
      <trkpt lat="42.96267" lon="-0.25413">
        <ele>1439.4000244141</ele>
        <time>2019-09-28T08:31:00Z</time>
      </trkpt>
      <trkpt lat="42.96268" lon="-0.25411">
        <ele>1439.8000488281</ele>
        <time>2019-09-28T08:31:01Z</time>
      </trkpt>
      <trkpt lat="42.96269" lon="-0.25408">
        <ele>1440.1999511719</ele>
        <time>2019-09-28T08:31:02Z</time>
      </trkpt>
      <trkpt lat="42.96271" lon="-0.25406">
        <ele>1440.8000488281</ele>
        <time>2019-09-28T08:31:03Z</time>
      </trkpt>
      <trkpt lat="42.96272" lon="-0.25403">
        <ele>1441.1999511719</ele>
        <time>2019-09-28T08:31:04Z</time>
      </trkpt>
      <trkpt lat="42.96275" lon="-0.25398">
        <ele>1441.1999511719</ele>
        <time>2019-09-28T08:31:06Z</time>
      </trkpt>
      <trkpt lat="42.96288" lon="-0.2537">
        <ele>1441.1999511719</ele>
        <time>2019-09-28T08:31:15Z</time>
      </trkpt>
      <trkpt lat="42.96295" lon="-0.25363">
        <ele>1441.1999511719</ele>
        <time>2019-09-28T08:31:19Z</time>
      </trkpt>
      <trkpt lat="42.96297" lon="-0.25363">
        <ele>1441.5999755859</ele>
        <time>2019-09-28T08:31:20Z</time>
      </trkpt>
      <trkpt lat="42.96299" lon="-0.25364">
        <ele>1442</ele>
        <time>2019-09-28T08:31:21Z</time>
      </trkpt>
      <trkpt lat="42.963" lon="-0.25367">
        <ele>1442.4000244141</ele>
        <time>2019-09-28T08:31:22Z</time>
      </trkpt>
      <trkpt lat="42.96301" lon="-0.25371">
        <ele>1443</ele>
        <time>2019-09-28T08:31:23Z</time>
      </trkpt>
      <trkpt lat="42.963" lon="-0.25374">
        <ele>1443.4000244141</ele>
        <time>2019-09-28T08:31:24Z</time>
      </trkpt>
      <trkpt lat="42.96298" lon="-0.25384">
        <ele>1443.4000244141</ele>
        <time>2019-09-28T08:31:27Z</time>
      </trkpt>
      <trkpt lat="42.96297" lon="-0.25388">
        <ele>1443.4000244141</ele>
        <time>2019-09-28T08:31:28Z</time>
      </trkpt>
      <trkpt lat="42.96294" lon="-0.254">
        <ele>1443.8000488281</ele>
        <time>2019-09-28T08:31:32Z</time>
      </trkpt>
      <trkpt lat="42.96293" lon="-0.25403">
        <ele>1444.1999511719</ele>
        <time>2019-09-28T08:31:33Z</time>
      </trkpt>
      <trkpt lat="42.96293" lon="-0.25406">
        <ele>1444.5999755859</ele>
        <time>2019-09-28T08:31:34Z</time>
      </trkpt>
      <trkpt lat="42.96292" lon="-0.25409">
        <ele>1445.4000244141</ele>
        <time>2019-09-28T08:31:35Z</time>
      </trkpt>
      <trkpt lat="42.96291" lon="-0.25418">
        <ele>1445.8000488281</ele>
        <time>2019-09-28T08:31:38Z</time>
      </trkpt>
      <trkpt lat="42.9629" lon="-0.25421">
        <ele>1446.4000244141</ele>
        <time>2019-09-28T08:31:39Z</time>
      </trkpt>
      <trkpt lat="42.9629" lon="-0.25424">
        <ele>1446.8000488281</ele>
        <time>2019-09-28T08:31:40Z</time>
      </trkpt>
      <trkpt lat="42.96289" lon="-0.25426">
        <ele>1447.1999511719</ele>
        <time>2019-09-28T08:31:41Z</time>
      </trkpt>
      <trkpt lat="42.96289" lon="-0.25429">
        <ele>1447.5999755859</ele>
        <time>2019-09-28T08:31:42Z</time>
      </trkpt>
      <trkpt lat="42.96288" lon="-0.25436">
        <ele>1448</ele>
        <time>2019-09-28T08:31:45Z</time>
      </trkpt>
      <trkpt lat="42.96288" lon="-0.25439">
        <ele>1448.4000244141</ele>
        <time>2019-09-28T08:31:46Z</time>
      </trkpt>
      <trkpt lat="42.96288" lon="-0.25442">
        <ele>1448.8000488281</ele>
        <time>2019-09-28T08:31:47Z</time>
      </trkpt>
      <trkpt lat="42.96289" lon="-0.25444">
        <ele>1449.1999511719</ele>
        <time>2019-09-28T08:31:48Z</time>
      </trkpt>
      <trkpt lat="42.9629" lon="-0.25446">
        <ele>1449.5999755859</ele>
        <time>2019-09-28T08:31:49Z</time>
      </trkpt>
      <trkpt lat="42.96293" lon="-0.25448">
        <ele>1449.5999755859</ele>
        <time>2019-09-28T08:31:51Z</time>
      </trkpt>
      <trkpt lat="42.96296" lon="-0.25447">
        <ele>1449.5999755859</ele>
        <time>2019-09-28T08:31:53Z</time>
      </trkpt>
      <trkpt lat="42.963" lon="-0.25437">
        <ele>1449.5999755859</ele>
        <time>2019-09-28T08:31:57Z</time>
      </trkpt>
      <trkpt lat="42.96304" lon="-0.25416">
        <ele>1450</ele>
        <time>2019-09-28T08:32:03Z</time>
      </trkpt>
      <trkpt lat="42.96305" lon="-0.25413">
        <ele>1450.4000244141</ele>
        <time>2019-09-28T08:32:04Z</time>
      </trkpt>
      <trkpt lat="42.96306" lon="-0.25409">
        <ele>1450.8000488281</ele>
        <time>2019-09-28T08:32:05Z</time>
      </trkpt>
      <trkpt lat="42.96307" lon="-0.25405">
        <ele>1451.1999511719</ele>
        <time>2019-09-28T08:32:06Z</time>
      </trkpt>
      <trkpt lat="42.96309" lon="-0.25401">
        <ele>1451.5999755859</ele>
        <time>2019-09-28T08:32:07Z</time>
      </trkpt>
      <trkpt lat="42.96312" lon="-0.2539">
        <ele>1451.5999755859</ele>
        <time>2019-09-28T08:32:10Z</time>
      </trkpt>
      <trkpt lat="42.9632" lon="-0.25369">
        <ele>1451.5999755859</ele>
        <time>2019-09-28T08:32:16Z</time>
      </trkpt>
      <trkpt lat="42.96327" lon="-0.25347">
        <ele>1451.5999755859</ele>
        <time>2019-09-28T08:32:23Z</time>
      </trkpt>
      <trkpt lat="42.96328" lon="-0.25344">
        <ele>1452.4000244141</ele>
        <time>2019-09-28T08:32:24Z</time>
      </trkpt>
      <trkpt lat="42.96329" lon="-0.25341">
        <ele>1452.8000488281</ele>
        <time>2019-09-28T08:32:25Z</time>
      </trkpt>
      <trkpt lat="42.9633" lon="-0.25338">
        <ele>1453.1999511719</ele>
        <time>2019-09-28T08:32:26Z</time>
      </trkpt>
      <trkpt lat="42.96332" lon="-0.25334">
        <ele>1453.5999755859</ele>
        <time>2019-09-28T08:32:27Z</time>
      </trkpt>
      <trkpt lat="42.96335" lon="-0.25329">
        <ele>1453.5999755859</ele>
        <time>2019-09-28T08:32:29Z</time>
      </trkpt>
      <trkpt lat="42.96346" lon="-0.25315">
        <ele>1454</ele>
        <time>2019-09-28T08:32:35Z</time>
      </trkpt>
      <trkpt lat="42.96348" lon="-0.25313">
        <ele>1454.4000244141</ele>
        <time>2019-09-28T08:32:36Z</time>
      </trkpt>
      <trkpt lat="42.9635" lon="-0.25311">
        <ele>1454.8000488281</ele>
        <time>2019-09-28T08:32:37Z</time>
      </trkpt>
      <trkpt lat="42.96352" lon="-0.25309">
        <ele>1455.1999511719</ele>
        <time>2019-09-28T08:32:38Z</time>
      </trkpt>
      <trkpt lat="42.96354" lon="-0.25307">
        <ele>1455.5999755859</ele>
        <time>2019-09-28T08:32:39Z</time>
      </trkpt>
      <trkpt lat="42.96357" lon="-0.25303">
        <ele>1455.5999755859</ele>
        <time>2019-09-28T08:32:41Z</time>
      </trkpt>
      <trkpt lat="42.96365" lon="-0.25286">
        <ele>1455.5999755859</ele>
        <time>2019-09-28T08:32:47Z</time>
      </trkpt>
      <trkpt lat="42.96371" lon="-0.25265">
        <ele>1455.5999755859</ele>
        <time>2019-09-28T08:32:52Z</time>
      </trkpt>
      <trkpt lat="42.96376" lon="-0.25247">
        <ele>1455.5999755859</ele>
        <time>2019-09-28T08:32:55Z</time>
      </trkpt>
      <trkpt lat="42.96381" lon="-0.25236">
        <ele>1455.5999755859</ele>
        <time>2019-09-28T08:32:57Z</time>
      </trkpt>
      <trkpt lat="42.96389" lon="-0.25223">
        <ele>1455.5999755859</ele>
        <time>2019-09-28T08:33:00Z</time>
      </trkpt>
      <trkpt lat="42.96392" lon="-0.25222">
        <ele>1455.5999755859</ele>
        <time>2019-09-28T08:33:01Z</time>
      </trkpt>
      <trkpt lat="42.96405" lon="-0.25222">
        <ele>1455.5999755859</ele>
        <time>2019-09-28T08:33:06Z</time>
      </trkpt>
      <trkpt lat="42.96407" lon="-0.25223">
        <ele>1455.5999755859</ele>
        <time>2019-09-28T08:33:07Z</time>
      </trkpt>
      <trkpt lat="42.96411" lon="-0.25226">
        <ele>1456.1999511719</ele>
        <time>2019-09-28T08:33:09Z</time>
      </trkpt>
      <trkpt lat="42.96413" lon="-0.25228">
        <ele>1456.5999755859</ele>
        <time>2019-09-28T08:33:10Z</time>
      </trkpt>
      <trkpt lat="42.96415" lon="-0.2523">
        <ele>1457</ele>
        <time>2019-09-28T08:33:11Z</time>
      </trkpt>
      <trkpt lat="42.96417" lon="-0.25234">
        <ele>1457.4000244141</ele>
        <time>2019-09-28T08:33:12Z</time>
      </trkpt>
      <trkpt lat="42.96417" lon="-0.25237">
        <ele>1458</ele>
        <time>2019-09-28T08:33:13Z</time>
      </trkpt>
      <trkpt lat="42.96417" lon="-0.2524">
        <ele>1458</ele>
        <time>2019-09-28T08:33:14Z</time>
      </trkpt>
      <trkpt lat="42.96415" lon="-0.25249">
        <ele>1458.4000244141</ele>
        <time>2019-09-28T08:33:17Z</time>
      </trkpt>
      <trkpt lat="42.96413" lon="-0.2525">
        <ele>1458.8000488281</ele>
        <time>2019-09-28T08:33:18Z</time>
      </trkpt>
      <trkpt lat="42.96411" lon="-0.25251">
        <ele>1459.1999511719</ele>
        <time>2019-09-28T08:33:19Z</time>
      </trkpt>
      <trkpt lat="42.96409" lon="-0.25251">
        <ele>1459.8000488281</ele>
        <time>2019-09-28T08:33:20Z</time>
      </trkpt>
      <trkpt lat="42.96408" lon="-0.25252">
        <ele>1460.1999511719</ele>
        <time>2019-09-28T08:33:21Z</time>
      </trkpt>
      <trkpt lat="42.96404" lon="-0.25253">
        <ele>1460.1999511719</ele>
        <time>2019-09-28T08:33:23Z</time>
      </trkpt>
      <trkpt lat="42.96402" lon="-0.25254">
        <ele>1460.5999755859</ele>
        <time>2019-09-28T08:33:24Z</time>
      </trkpt>
      <trkpt lat="42.964" lon="-0.25256">
        <ele>1461</ele>
        <time>2019-09-28T08:33:25Z</time>
      </trkpt>
      <trkpt lat="42.96398" lon="-0.25257">
        <ele>1461.5999755859</ele>
        <time>2019-09-28T08:33:26Z</time>
      </trkpt>
      <trkpt lat="42.96397" lon="-0.2526">
        <ele>1462</ele>
        <time>2019-09-28T08:33:27Z</time>
      </trkpt>
      <trkpt lat="42.96396" lon="-0.25262">
        <ele>1462.4000244141</ele>
        <time>2019-09-28T08:33:28Z</time>
      </trkpt>
      <trkpt lat="42.96395" lon="-0.25268">
        <ele>1462.4000244141</ele>
        <time>2019-09-28T08:33:30Z</time>
      </trkpt>
      <trkpt lat="42.96395" lon="-0.25271">
        <ele>1462.8000488281</ele>
        <time>2019-09-28T08:33:31Z</time>
      </trkpt>
      <trkpt lat="42.96396" lon="-0.25274">
        <ele>1463.1999511719</ele>
        <time>2019-09-28T08:33:32Z</time>
      </trkpt>
      <trkpt lat="42.96396" lon="-0.25277">
        <ele>1463.8000488281</ele>
        <time>2019-09-28T08:33:33Z</time>
      </trkpt>
      <trkpt lat="42.96398" lon="-0.2528">
        <ele>1464.1999511719</ele>
        <time>2019-09-28T08:33:34Z</time>
      </trkpt>
      <trkpt lat="42.96399" lon="-0.25282">
        <ele>1464.5999755859</ele>
        <time>2019-09-28T08:33:35Z</time>
      </trkpt>
      <trkpt lat="42.96407" lon="-0.25289">
        <ele>1465</ele>
        <time>2019-09-28T08:33:40Z</time>
      </trkpt>
      <trkpt lat="42.96408" lon="-0.2529">
        <ele>1465.4000244141</ele>
        <time>2019-09-28T08:33:41Z</time>
      </trkpt>
      <trkpt lat="42.9641" lon="-0.25291">
        <ele>1465.8000488281</ele>
        <time>2019-09-28T08:33:42Z</time>
      </trkpt>
      <trkpt lat="42.96412" lon="-0.25291">
        <ele>1466.4000244141</ele>
        <time>2019-09-28T08:33:43Z</time>
      </trkpt>
      <trkpt lat="42.96413" lon="-0.25292">
        <ele>1466.8000488281</ele>
        <time>2019-09-28T08:33:44Z</time>
      </trkpt>
      <trkpt lat="42.96416" lon="-0.25294">
        <ele>1466.8000488281</ele>
        <time>2019-09-28T08:33:46Z</time>
      </trkpt>
      <trkpt lat="42.96421" lon="-0.25298">
        <ele>1466.8000488281</ele>
        <time>2019-09-28T08:33:50Z</time>
      </trkpt>
      <trkpt lat="42.96423" lon="-0.25299">
        <ele>1467.1999511719</ele>
        <time>2019-09-28T08:33:51Z</time>
      </trkpt>
      <trkpt lat="42.96424" lon="-0.253">
        <ele>1467.5999755859</ele>
        <time>2019-09-28T08:33:52Z</time>
      </trkpt>
      <trkpt lat="42.96426" lon="-0.25302">
        <ele>1468</ele>
        <time>2019-09-28T08:33:53Z</time>
      </trkpt>
      <trkpt lat="42.96428" lon="-0.25303">
        <ele>1468.4000244141</ele>
        <time>2019-09-28T08:33:54Z</time>
      </trkpt>
      <trkpt lat="42.9643" lon="-0.25303">
        <ele>1468.8000488281</ele>
        <time>2019-09-28T08:33:55Z</time>
      </trkpt>
      <trkpt lat="42.96435" lon="-0.25307">
        <ele>1468.8000488281</ele>
        <time>2019-09-28T08:33:58Z</time>
      </trkpt>
      <trkpt lat="42.96446" lon="-0.25312">
        <ele>1469.1999511719</ele>
        <time>2019-09-28T08:34:04Z</time>
      </trkpt>
      <trkpt lat="42.96449" lon="-0.25312">
        <ele>1469.5999755859</ele>
        <time>2019-09-28T08:34:05Z</time>
      </trkpt>
      <trkpt lat="42.96452" lon="-0.25312">
        <ele>1470</ele>
        <time>2019-09-28T08:34:06Z</time>
      </trkpt>
      <trkpt lat="42.96455" lon="-0.25311">
        <ele>1470.4000244141</ele>
        <time>2019-09-28T08:34:07Z</time>
      </trkpt>
      <trkpt lat="42.96458" lon="-0.2531">
        <ele>1471</ele>
        <time>2019-09-28T08:34:08Z</time>
      </trkpt>
      <trkpt lat="42.96463" lon="-0.25308">
        <ele>1471</ele>
        <time>2019-09-28T08:34:10Z</time>
      </trkpt>
      <trkpt lat="42.96478" lon="-0.25301">
        <ele>1471</ele>
        <time>2019-09-28T08:34:16Z</time>
      </trkpt>
      <trkpt lat="42.96488" lon="-0.25298">
        <ele>1471</ele>
        <time>2019-09-28T08:34:21Z</time>
      </trkpt>
      <trkpt lat="42.9649" lon="-0.25297">
        <ele>1471</ele>
        <time>2019-09-28T08:34:22Z</time>
      </trkpt>
      <trkpt lat="42.965" lon="-0.25293">
        <ele>1471.4000244141</ele>
        <time>2019-09-28T08:34:27Z</time>
      </trkpt>
      <trkpt lat="42.96503" lon="-0.25293">
        <ele>1471.8000488281</ele>
        <time>2019-09-28T08:34:28Z</time>
      </trkpt>
      <trkpt lat="42.96505" lon="-0.25292">
        <ele>1472.1999511719</ele>
        <time>2019-09-28T08:34:29Z</time>
      </trkpt>
      <trkpt lat="42.96508" lon="-0.25291">
        <ele>1472.5999755859</ele>
        <time>2019-09-28T08:34:30Z</time>
      </trkpt>
      <trkpt lat="42.9651" lon="-0.25291">
        <ele>1473</ele>
        <time>2019-09-28T08:34:31Z</time>
      </trkpt>
      <trkpt lat="42.96516" lon="-0.25289">
        <ele>1473</ele>
        <time>2019-09-28T08:34:34Z</time>
      </trkpt>
      <trkpt lat="42.96525" lon="-0.25286">
        <ele>1473</ele>
        <time>2019-09-28T08:34:38Z</time>
      </trkpt>
      <trkpt lat="42.9653" lon="-0.25282">
        <ele>1473</ele>
        <time>2019-09-28T08:34:40Z</time>
      </trkpt>
      <trkpt lat="42.96543" lon="-0.25273">
        <ele>1473</ele>
        <time>2019-09-28T08:34:46Z</time>
      </trkpt>
      <trkpt lat="42.9655" lon="-0.25267">
        <ele>1473</ele>
        <time>2019-09-28T08:34:48Z</time>
      </trkpt>
      <trkpt lat="42.96562" lon="-0.25261">
        <ele>1473</ele>
        <time>2019-09-28T08:34:51Z</time>
      </trkpt>
      <trkpt lat="42.96576" lon="-0.25255">
        <ele>1473</ele>
        <time>2019-09-28T08:34:56Z</time>
      </trkpt>
      <trkpt lat="42.96588" lon="-0.25243">
        <ele>1473</ele>
        <time>2019-09-28T08:35:02Z</time>
      </trkpt>
      <trkpt lat="42.9659" lon="-0.2524">
        <ele>1473.4000244141</ele>
        <time>2019-09-28T08:35:03Z</time>
      </trkpt>
      <trkpt lat="42.96591" lon="-0.25237">
        <ele>1473.8000488281</ele>
        <time>2019-09-28T08:35:04Z</time>
      </trkpt>
      <trkpt lat="42.96591" lon="-0.25234">
        <ele>1474.1999511719</ele>
        <time>2019-09-28T08:35:05Z</time>
      </trkpt>
      <trkpt lat="42.96592" lon="-0.2523">
        <ele>1474.5999755859</ele>
        <time>2019-09-28T08:35:06Z</time>
      </trkpt>
      <trkpt lat="42.96593" lon="-0.25226">
        <ele>1475</ele>
        <time>2019-09-28T08:35:07Z</time>
      </trkpt>
      <trkpt lat="42.96593" lon="-0.25209">
        <ele>1475</ele>
        <time>2019-09-28T08:35:12Z</time>
      </trkpt>
      <trkpt lat="42.96593" lon="-0.25191">
        <ele>1475</ele>
        <time>2019-09-28T08:35:18Z</time>
      </trkpt>
      <trkpt lat="42.96595" lon="-0.25181">
        <ele>1475.4000244141</ele>
        <time>2019-09-28T08:35:21Z</time>
      </trkpt>
      <trkpt lat="42.96596" lon="-0.25177">
        <ele>1475.8000488281</ele>
        <time>2019-09-28T08:35:22Z</time>
      </trkpt>
      <trkpt lat="42.96596" lon="-0.25173">
        <ele>1476.4000244141</ele>
        <time>2019-09-28T08:35:23Z</time>
      </trkpt>
      <trkpt lat="42.96597" lon="-0.25169">
        <ele>1476.8000488281</ele>
        <time>2019-09-28T08:35:24Z</time>
      </trkpt>
      <trkpt lat="42.96598" lon="-0.25166">
        <ele>1477.1999511719</ele>
        <time>2019-09-28T08:35:25Z</time>
      </trkpt>
      <trkpt lat="42.96602" lon="-0.25142">
        <ele>1477.1999511719</ele>
        <time>2019-09-28T08:35:31Z</time>
      </trkpt>
      <trkpt lat="42.96603" lon="-0.25127">
        <ele>1477.1999511719</ele>
        <time>2019-09-28T08:35:34Z</time>
      </trkpt>
      <trkpt lat="42.96602" lon="-0.25115">
        <ele>1477.1999511719</ele>
        <time>2019-09-28T08:35:36Z</time>
      </trkpt>
      <trkpt lat="42.966" lon="-0.2511">
        <ele>1477.1999511719</ele>
        <time>2019-09-28T08:35:37Z</time>
      </trkpt>
      <trkpt lat="42.96597" lon="-0.25087">
        <ele>1477.1999511719</ele>
        <time>2019-09-28T08:35:42Z</time>
      </trkpt>
      <trkpt lat="42.96599" lon="-0.25074">
        <ele>1476.8000488281</ele>
        <time>2019-09-28T08:35:44Z</time>
      </trkpt>
      <trkpt lat="42.96601" lon="-0.25067">
        <ele>1476.1999511719</ele>
        <time>2019-09-28T08:35:45Z</time>
      </trkpt>
      <trkpt lat="42.96603" lon="-0.25059">
        <ele>1475.8000488281</ele>
        <time>2019-09-28T08:35:46Z</time>
      </trkpt>
      <trkpt lat="42.96605" lon="-0.25051">
        <ele>1475.1999511719</ele>
        <time>2019-09-28T08:35:47Z</time>
      </trkpt>
      <trkpt lat="42.96607" lon="-0.25043">
        <ele>1474.5999755859</ele>
        <time>2019-09-28T08:35:48Z</time>
      </trkpt>
      <trkpt lat="42.96608" lon="-0.25036">
        <ele>1474</ele>
        <time>2019-09-28T08:35:49Z</time>
      </trkpt>
      <trkpt lat="42.9661" lon="-0.25029">
        <ele>1473.1999511719</ele>
        <time>2019-09-28T08:35:50Z</time>
      </trkpt>
      <trkpt lat="42.96612" lon="-0.25023">
        <ele>1472.5999755859</ele>
        <time>2019-09-28T08:35:51Z</time>
      </trkpt>
      <trkpt lat="42.9662" lon="-0.25008">
        <ele>1473</ele>
        <time>2019-09-28T08:35:55Z</time>
      </trkpt>
      <trkpt lat="42.96623" lon="-0.25004">
        <ele>1473.5999755859</ele>
        <time>2019-09-28T08:35:56Z</time>
      </trkpt>
      <trkpt lat="42.96625" lon="-0.25001">
        <ele>1474</ele>
        <time>2019-09-28T08:35:57Z</time>
      </trkpt>
      <trkpt lat="42.96628" lon="-0.24999">
        <ele>1474.4000244141</ele>
        <time>2019-09-28T08:35:58Z</time>
      </trkpt>
      <trkpt lat="42.9663" lon="-0.24996">
        <ele>1474.8000488281</ele>
        <time>2019-09-28T08:35:59Z</time>
      </trkpt>
      <trkpt lat="42.96638" lon="-0.24988">
        <ele>1474.8000488281</ele>
        <time>2019-09-28T08:36:02Z</time>
      </trkpt>
      <trkpt lat="42.96657" lon="-0.24972">
        <ele>1474.8000488281</ele>
        <time>2019-09-28T08:36:09Z</time>
      </trkpt>
      <trkpt lat="42.96678" lon="-0.24958">
        <ele>1474.8000488281</ele>
        <time>2019-09-28T08:36:16Z</time>
      </trkpt>
      <trkpt lat="42.96708" lon="-0.24944">
        <ele>1474.8000488281</ele>
        <time>2019-09-28T08:36:24Z</time>
      </trkpt>
      <trkpt lat="42.96718" lon="-0.24939">
        <ele>1475.1999511719</ele>
        <time>2019-09-28T08:36:27Z</time>
      </trkpt>
      <trkpt lat="42.96721" lon="-0.24937">
        <ele>1475.8000488281</ele>
        <time>2019-09-28T08:36:28Z</time>
      </trkpt>
      <trkpt lat="42.96724" lon="-0.24934">
        <ele>1476.1999511719</ele>
        <time>2019-09-28T08:36:29Z</time>
      </trkpt>
      <trkpt lat="42.96728" lon="-0.24931">
        <ele>1476.5999755859</ele>
        <time>2019-09-28T08:36:30Z</time>
      </trkpt>
      <trkpt lat="42.96731" lon="-0.24928">
        <ele>1477</ele>
        <time>2019-09-28T08:36:31Z</time>
      </trkpt>
      <trkpt lat="42.96733" lon="-0.24923">
        <ele>1477</ele>
        <time>2019-09-28T08:36:32Z</time>
      </trkpt>
      <trkpt lat="42.9674" lon="-0.24903">
        <ele>1477</ele>
        <time>2019-09-28T08:36:36Z</time>
      </trkpt>
      <trkpt lat="42.96741" lon="-0.24897">
        <ele>1477</ele>
        <time>2019-09-28T08:36:37Z</time>
      </trkpt>
      <trkpt lat="42.96751" lon="-0.24855">
        <ele>1477</ele>
        <time>2019-09-28T08:36:45Z</time>
      </trkpt>
      <trkpt lat="42.96758" lon="-0.24834">
        <ele>1477</ele>
        <time>2019-09-28T08:36:49Z</time>
      </trkpt>
      <trkpt lat="42.96762" lon="-0.24826">
        <ele>1477</ele>
        <time>2019-09-28T08:36:51Z</time>
      </trkpt>
      <trkpt lat="42.9677" lon="-0.24815">
        <ele>1477</ele>
        <time>2019-09-28T08:36:54Z</time>
      </trkpt>
      <trkpt lat="42.96778" lon="-0.24808">
        <ele>1477</ele>
        <time>2019-09-28T08:36:57Z</time>
      </trkpt>
      <trkpt lat="42.9679" lon="-0.24809">
        <ele>1477</ele>
        <time>2019-09-28T08:37:01Z</time>
      </trkpt>
      <trkpt lat="42.96808" lon="-0.2482">
        <ele>1477.4000244141</ele>
        <time>2019-09-28T08:37:07Z</time>
      </trkpt>
      <trkpt lat="42.96811" lon="-0.24823">
        <ele>1477.8000488281</ele>
        <time>2019-09-28T08:37:08Z</time>
      </trkpt>
      <trkpt lat="42.96814" lon="-0.24825">
        <ele>1478.1999511719</ele>
        <time>2019-09-28T08:37:09Z</time>
      </trkpt>
      <trkpt lat="42.96817" lon="-0.24827">
        <ele>1478.5999755859</ele>
        <time>2019-09-28T08:37:10Z</time>
      </trkpt>
      <trkpt lat="42.9682" lon="-0.24829">
        <ele>1479</ele>
        <time>2019-09-28T08:37:11Z</time>
      </trkpt>
      <trkpt lat="42.96828" lon="-0.24835">
        <ele>1479</ele>
        <time>2019-09-28T08:37:14Z</time>
      </trkpt>
      <trkpt lat="42.96852" lon="-0.24842">
        <ele>1479</ele>
        <time>2019-09-28T08:37:22Z</time>
      </trkpt>
      <trkpt lat="42.96855" lon="-0.24842">
        <ele>1479.5999755859</ele>
        <time>2019-09-28T08:37:23Z</time>
      </trkpt>
      <trkpt lat="42.96857" lon="-0.24842">
        <ele>1480</ele>
        <time>2019-09-28T08:37:24Z</time>
      </trkpt>
      <trkpt lat="42.9686" lon="-0.24843">
        <ele>1480.4000244141</ele>
        <time>2019-09-28T08:37:25Z</time>
      </trkpt>
      <trkpt lat="42.96863" lon="-0.24844">
        <ele>1480.8000488281</ele>
        <time>2019-09-28T08:37:26Z</time>
      </trkpt>
      <trkpt lat="42.96865" lon="-0.24846">
        <ele>1481.4000244141</ele>
        <time>2019-09-28T08:37:27Z</time>
      </trkpt>
      <trkpt lat="42.96883" lon="-0.24864">
        <ele>1481.8000488281</ele>
        <time>2019-09-28T08:37:34Z</time>
      </trkpt>
      <trkpt lat="42.96886" lon="-0.24867">
        <ele>1482.1999511719</ele>
        <time>2019-09-28T08:37:35Z</time>
      </trkpt>
      <trkpt lat="42.96888" lon="-0.2487">
        <ele>1482.5999755859</ele>
        <time>2019-09-28T08:37:36Z</time>
      </trkpt>
      <trkpt lat="42.96891" lon="-0.24872">
        <ele>1483</ele>
        <time>2019-09-28T08:37:37Z</time>
      </trkpt>
      <trkpt lat="42.96894" lon="-0.24875">
        <ele>1483.4000244141</ele>
        <time>2019-09-28T08:37:38Z</time>
      </trkpt>
      <trkpt lat="42.96902" lon="-0.24883">
        <ele>1483.4000244141</ele>
        <time>2019-09-28T08:37:41Z</time>
      </trkpt>
      <trkpt lat="42.96914" lon="-0.24882">
        <ele>1483.4000244141</ele>
        <time>2019-09-28T08:37:45Z</time>
      </trkpt>
      <trkpt lat="42.96922" lon="-0.24878">
        <ele>1483.8000488281</ele>
        <time>2019-09-28T08:37:48Z</time>
      </trkpt>
      <trkpt lat="42.96924" lon="-0.24876">
        <ele>1484.1999511719</ele>
        <time>2019-09-28T08:37:49Z</time>
      </trkpt>
      <trkpt lat="42.96926" lon="-0.24874">
        <ele>1484.5999755859</ele>
        <time>2019-09-28T08:37:50Z</time>
      </trkpt>
      <trkpt lat="42.96928" lon="-0.24872">
        <ele>1485</ele>
        <time>2019-09-28T08:37:51Z</time>
      </trkpt>
      <trkpt lat="42.9693" lon="-0.2487">
        <ele>1485.4000244141</ele>
        <time>2019-09-28T08:37:52Z</time>
      </trkpt>
      <trkpt lat="42.96948" lon="-0.24855">
        <ele>1485.4000244141</ele>
        <time>2019-09-28T08:37:59Z</time>
      </trkpt>
      <trkpt lat="42.96963" lon="-0.24845">
        <ele>1485.4000244141</ele>
        <time>2019-09-28T08:38:04Z</time>
      </trkpt>
      <trkpt lat="42.96975" lon="-0.24829">
        <ele>1485.4000244141</ele>
        <time>2019-09-28T08:38:09Z</time>
      </trkpt>
      <trkpt lat="42.96981" lon="-0.24816">
        <ele>1485.8000488281</ele>
        <time>2019-09-28T08:38:13Z</time>
      </trkpt>
      <trkpt lat="42.96982" lon="-0.24813">
        <ele>1486.1999511719</ele>
        <time>2019-09-28T08:38:14Z</time>
      </trkpt>
      <trkpt lat="42.96983" lon="-0.24809">
        <ele>1486.8000488281</ele>
        <time>2019-09-28T08:38:15Z</time>
      </trkpt>
      <trkpt lat="42.96984" lon="-0.24806">
        <ele>1487.1999511719</ele>
        <time>2019-09-28T08:38:16Z</time>
      </trkpt>
      <trkpt lat="42.96985" lon="-0.24803">
        <ele>1487.5999755859</ele>
        <time>2019-09-28T08:38:17Z</time>
      </trkpt>
      <trkpt lat="42.96991" lon="-0.24779">
        <ele>1487.5999755859</ele>
        <time>2019-09-28T08:38:23Z</time>
      </trkpt>
      <trkpt lat="42.96997" lon="-0.24757">
        <ele>1487.5999755859</ele>
        <time>2019-09-28T08:38:30Z</time>
      </trkpt>
      <trkpt lat="42.97001" lon="-0.24752">
        <ele>1488</ele>
        <time>2019-09-28T08:38:32Z</time>
      </trkpt>
      <trkpt lat="42.97002" lon="-0.24749">
        <ele>1488.4000244141</ele>
        <time>2019-09-28T08:38:33Z</time>
      </trkpt>
      <trkpt lat="42.97004" lon="-0.24747">
        <ele>1489.4000244141</ele>
        <time>2019-09-28T08:38:34Z</time>
      </trkpt>
      <trkpt lat="42.97006" lon="-0.24745">
        <ele>1489.8000488281</ele>
        <time>2019-09-28T08:38:35Z</time>
      </trkpt>
      <trkpt lat="42.9701" lon="-0.24742">
        <ele>1489.8000488281</ele>
        <time>2019-09-28T08:38:37Z</time>
      </trkpt>
      <trkpt lat="42.97015" lon="-0.24739">
        <ele>1490.1999511719</ele>
        <time>2019-09-28T08:38:39Z</time>
      </trkpt>
      <trkpt lat="42.97017" lon="-0.24737">
        <ele>1490.5999755859</ele>
        <time>2019-09-28T08:38:40Z</time>
      </trkpt>
      <trkpt lat="42.97019" lon="-0.24736">
        <ele>1491</ele>
        <time>2019-09-28T08:38:41Z</time>
      </trkpt>
      <trkpt lat="42.97022" lon="-0.24734">
        <ele>1491.5999755859</ele>
        <time>2019-09-28T08:38:42Z</time>
      </trkpt>
      <trkpt lat="42.97024" lon="-0.24733">
        <ele>1492</ele>
        <time>2019-09-28T08:38:43Z</time>
      </trkpt>
      <trkpt lat="42.97039" lon="-0.24725">
        <ele>1492</ele>
        <time>2019-09-28T08:38:49Z</time>
      </trkpt>
      <trkpt lat="42.97041" lon="-0.24723">
        <ele>1492.4000244141</ele>
        <time>2019-09-28T08:38:50Z</time>
      </trkpt>
      <trkpt lat="42.97044" lon="-0.24722">
        <ele>1492.8000488281</ele>
        <time>2019-09-28T08:38:51Z</time>
      </trkpt>
      <trkpt lat="42.97047" lon="-0.2472">
        <ele>1493.1999511719</ele>
        <time>2019-09-28T08:38:52Z</time>
      </trkpt>
      <trkpt lat="42.97049" lon="-0.24718">
        <ele>1493.5999755859</ele>
        <time>2019-09-28T08:38:53Z</time>
      </trkpt>
      <trkpt lat="42.97052" lon="-0.24717">
        <ele>1494</ele>
        <time>2019-09-28T08:38:54Z</time>
      </trkpt>
      <trkpt lat="42.97057" lon="-0.24712">
        <ele>1494</ele>
        <time>2019-09-28T08:38:56Z</time>
      </trkpt>
      <trkpt lat="42.97071" lon="-0.24693">
        <ele>1494</ele>
        <time>2019-09-28T08:39:02Z</time>
      </trkpt>
      <trkpt lat="42.97072" lon="-0.24669">
        <ele>1494</ele>
        <time>2019-09-28T08:39:07Z</time>
      </trkpt>
      <trkpt lat="42.97069" lon="-0.2464">
        <ele>1494</ele>
        <time>2019-09-28T08:39:13Z</time>
      </trkpt>
      <trkpt lat="42.97061" lon="-0.24612">
        <ele>1494</ele>
        <time>2019-09-28T08:39:19Z</time>
      </trkpt>
      <trkpt lat="42.97056" lon="-0.24584">
        <ele>1494</ele>
        <time>2019-09-28T08:39:25Z</time>
      </trkpt>
      <trkpt lat="42.9706" lon="-0.24552">
        <ele>1494</ele>
        <time>2019-09-28T08:39:32Z</time>
      </trkpt>
      <trkpt lat="42.97063" lon="-0.24548">
        <ele>1494</ele>
        <time>2019-09-28T08:39:33Z</time>
      </trkpt>
      <trkpt lat="42.97074" lon="-0.24532">
        <ele>1494</ele>
        <time>2019-09-28T08:39:37Z</time>
      </trkpt>
      <trkpt lat="42.97079" lon="-0.24522">
        <ele>1494</ele>
        <time>2019-09-28T08:39:39Z</time>
      </trkpt>
      <trkpt lat="42.97084" lon="-0.24508">
        <ele>1494</ele>
        <time>2019-09-28T08:39:42Z</time>
      </trkpt>
      <trkpt lat="42.97085" lon="-0.24498">
        <ele>1494</ele>
        <time>2019-09-28T08:39:44Z</time>
      </trkpt>
      <trkpt lat="42.97088" lon="-0.24479">
        <ele>1494</ele>
        <time>2019-09-28T08:39:48Z</time>
      </trkpt>
      <trkpt lat="42.97093" lon="-0.24454">
        <ele>1494</ele>
        <time>2019-09-28T08:39:54Z</time>
      </trkpt>
      <trkpt lat="42.97096" lon="-0.24433">
        <ele>1494.4000244141</ele>
        <time>2019-09-28T08:39:59Z</time>
      </trkpt>
      <trkpt lat="42.97096" lon="-0.24428">
        <ele>1494.8000488281</ele>
        <time>2019-09-28T08:40:00Z</time>
      </trkpt>
      <trkpt lat="42.97097" lon="-0.24424">
        <ele>1495.4000244141</ele>
        <time>2019-09-28T08:40:01Z</time>
      </trkpt>
      <trkpt lat="42.97098" lon="-0.2442">
        <ele>1495.8000488281</ele>
        <time>2019-09-28T08:40:02Z</time>
      </trkpt>
      <trkpt lat="42.97098" lon="-0.24416">
        <ele>1496.1999511719</ele>
        <time>2019-09-28T08:40:03Z</time>
      </trkpt>
      <trkpt lat="42.97102" lon="-0.24394">
        <ele>1496.1999511719</ele>
        <time>2019-09-28T08:40:08Z</time>
      </trkpt>
      <trkpt lat="42.97107" lon="-0.24375">
        <ele>1496.5999755859</ele>
        <time>2019-09-28T08:40:12Z</time>
      </trkpt>
      <trkpt lat="42.97109" lon="-0.2437">
        <ele>1497.4000244141</ele>
        <time>2019-09-28T08:40:13Z</time>
      </trkpt>
      <trkpt lat="42.9711" lon="-0.24365">
        <ele>1497.8000488281</ele>
        <time>2019-09-28T08:40:14Z</time>
      </trkpt>
      <trkpt lat="42.97112" lon="-0.24361">
        <ele>1498.1999511719</ele>
        <time>2019-09-28T08:40:15Z</time>
      </trkpt>
      <trkpt lat="42.97121" lon="-0.24337">
        <ele>1498.1999511719</ele>
        <time>2019-09-28T08:40:21Z</time>
      </trkpt>
      <trkpt lat="42.97133" lon="-0.24328">
        <ele>1498.1999511719</ele>
        <time>2019-09-28T08:40:26Z</time>
      </trkpt>
      <trkpt lat="42.97139" lon="-0.2433">
        <ele>1498.5999755859</ele>
        <time>2019-09-28T08:40:28Z</time>
      </trkpt>
      <trkpt lat="42.97142" lon="-0.24332">
        <ele>1499</ele>
        <time>2019-09-28T08:40:29Z</time>
      </trkpt>
      <trkpt lat="42.97144" lon="-0.24335">
        <ele>1499.4000244141</ele>
        <time>2019-09-28T08:40:30Z</time>
      </trkpt>
      <trkpt lat="42.97146" lon="-0.24337">
        <ele>1500</ele>
        <time>2019-09-28T08:40:31Z</time>
      </trkpt>
      <trkpt lat="42.97149" lon="-0.24341">
        <ele>1500.4000244141</ele>
        <time>2019-09-28T08:40:32Z</time>
      </trkpt>
      <trkpt lat="42.97155" lon="-0.24355">
        <ele>1500.4000244141</ele>
        <time>2019-09-28T08:40:36Z</time>
      </trkpt>
      <trkpt lat="42.97157" lon="-0.24361">
        <ele>1500.8000488281</ele>
        <time>2019-09-28T08:40:38Z</time>
      </trkpt>
      <trkpt lat="42.97159" lon="-0.24364">
        <ele>1501.1999511719</ele>
        <time>2019-09-28T08:40:39Z</time>
      </trkpt>
      <trkpt lat="42.9716" lon="-0.24368">
        <ele>1501.5999755859</ele>
        <time>2019-09-28T08:40:40Z</time>
      </trkpt>
      <trkpt lat="42.97161" lon="-0.24371">
        <ele>1502</ele>
        <time>2019-09-28T08:40:41Z</time>
      </trkpt>
      <trkpt lat="42.97162" lon="-0.24374">
        <ele>1502.4000244141</ele>
        <time>2019-09-28T08:40:42Z</time>
      </trkpt>
      <trkpt lat="42.97165" lon="-0.24381">
        <ele>1502.4000244141</ele>
        <time>2019-09-28T08:40:44Z</time>
      </trkpt>
      <trkpt lat="42.97175" lon="-0.24386">
        <ele>1502.4000244141</ele>
        <time>2019-09-28T08:40:48Z</time>
      </trkpt>
      <trkpt lat="42.97181" lon="-0.24384">
        <ele>1502.8000488281</ele>
        <time>2019-09-28T08:40:51Z</time>
      </trkpt>
      <trkpt lat="42.97183" lon="-0.24383">
        <ele>1503.4000244141</ele>
        <time>2019-09-28T08:40:52Z</time>
      </trkpt>
      <trkpt lat="42.97184" lon="-0.24381">
        <ele>1503.8000488281</ele>
        <time>2019-09-28T08:40:53Z</time>
      </trkpt>
      <trkpt lat="42.97186" lon="-0.24379">
        <ele>1504.1999511719</ele>
        <time>2019-09-28T08:40:54Z</time>
      </trkpt>
      <trkpt lat="42.97188" lon="-0.24378">
        <ele>1504.5999755859</ele>
        <time>2019-09-28T08:40:55Z</time>
      </trkpt>
      <trkpt lat="42.97193" lon="-0.24369">
        <ele>1504.5999755859</ele>
        <time>2019-09-28T08:40:59Z</time>
      </trkpt>
      <trkpt lat="42.97196" lon="-0.24361">
        <ele>1505.5999755859</ele>
        <time>2019-09-28T08:41:02Z</time>
      </trkpt>
      <trkpt lat="42.97197" lon="-0.24358">
        <ele>1506</ele>
        <time>2019-09-28T08:41:03Z</time>
      </trkpt>
      <trkpt lat="42.97198" lon="-0.24355">
        <ele>1506.4000244141</ele>
        <time>2019-09-28T08:41:04Z</time>
      </trkpt>
      <trkpt lat="42.97199" lon="-0.24353">
        <ele>1506.8000488281</ele>
        <time>2019-09-28T08:41:05Z</time>
      </trkpt>
      <trkpt lat="42.97199" lon="-0.2435">
        <ele>1506.8000488281</ele>
        <time>2019-09-28T08:41:06Z</time>
      </trkpt>
      <trkpt lat="42.97205" lon="-0.24335">
        <ele>1506.8000488281</ele>
        <time>2019-09-28T08:41:12Z</time>
      </trkpt>
      <trkpt lat="42.97209" lon="-0.24329">
        <ele>1507.1999511719</ele>
        <time>2019-09-28T08:41:15Z</time>
      </trkpt>
      <trkpt lat="42.97211" lon="-0.24327">
        <ele>1507.5999755859</ele>
        <time>2019-09-28T08:41:16Z</time>
      </trkpt>
      <trkpt lat="42.97212" lon="-0.24326">
        <ele>1508</ele>
        <time>2019-09-28T08:41:17Z</time>
      </trkpt>
      <trkpt lat="42.97214" lon="-0.24324">
        <ele>1508.4000244141</ele>
        <time>2019-09-28T08:41:18Z</time>
      </trkpt>
      <trkpt lat="42.97216" lon="-0.24324">
        <ele>1508.8000488281</ele>
        <time>2019-09-28T08:41:19Z</time>
      </trkpt>
      <trkpt lat="42.97225" lon="-0.24323">
        <ele>1508.8000488281</ele>
        <time>2019-09-28T08:41:23Z</time>
      </trkpt>
      <trkpt lat="42.97229" lon="-0.24323">
        <ele>1509.1999511719</ele>
        <time>2019-09-28T08:41:25Z</time>
      </trkpt>
      <trkpt lat="42.97231" lon="-0.24323">
        <ele>1510</ele>
        <time>2019-09-28T08:41:26Z</time>
      </trkpt>
      <trkpt lat="42.97233" lon="-0.24323">
        <ele>1510.4000244141</ele>
        <time>2019-09-28T08:41:27Z</time>
      </trkpt>
      <trkpt lat="42.97235" lon="-0.24323">
        <ele>1510.8000488281</ele>
        <time>2019-09-28T08:41:28Z</time>
      </trkpt>
      <trkpt lat="42.97237" lon="-0.24322">
        <ele>1510.8000488281</ele>
        <time>2019-09-28T08:41:29Z</time>
      </trkpt>
      <trkpt lat="42.97255" lon="-0.2432">
        <ele>1510.8000488281</ele>
        <time>2019-09-28T08:41:37Z</time>
      </trkpt>
      <trkpt lat="42.97268" lon="-0.24327">
        <ele>1510.8000488281</ele>
        <time>2019-09-28T08:41:42Z</time>
      </trkpt>
      <trkpt lat="42.97278" lon="-0.24345">
        <ele>1510.4000244141</ele>
        <time>2019-09-28T08:41:46Z</time>
      </trkpt>
      <trkpt lat="42.97281" lon="-0.24349">
        <ele>1509.8000488281</ele>
        <time>2019-09-28T08:41:47Z</time>
      </trkpt>
      <trkpt lat="42.97285" lon="-0.24354">
        <ele>1509.4000244141</ele>
        <time>2019-09-28T08:41:48Z</time>
      </trkpt>
      <trkpt lat="42.97289" lon="-0.24359">
        <ele>1509</ele>
        <time>2019-09-28T08:41:49Z</time>
      </trkpt>
      <trkpt lat="42.97293" lon="-0.24364">
        <ele>1508.4000244141</ele>
        <time>2019-09-28T08:41:50Z</time>
      </trkpt>
      <trkpt lat="42.97297" lon="-0.2437">
        <ele>1507.1999511719</ele>
        <time>2019-09-28T08:41:51Z</time>
      </trkpt>
      <trkpt lat="42.97302" lon="-0.24375">
        <ele>1506.5999755859</ele>
        <time>2019-09-28T08:41:52Z</time>
      </trkpt>
      <trkpt lat="42.97308" lon="-0.2438">
        <ele>1506</ele>
        <time>2019-09-28T08:41:53Z</time>
      </trkpt>
      <trkpt lat="42.97313" lon="-0.24384">
        <ele>1505.1999511719</ele>
        <time>2019-09-28T08:41:54Z</time>
      </trkpt>
      <trkpt lat="42.9732" lon="-0.24388">
        <ele>1504.5999755859</ele>
        <time>2019-09-28T08:41:55Z</time>
      </trkpt>
      <trkpt lat="42.97327" lon="-0.24391">
        <ele>1504</ele>
        <time>2019-09-28T08:41:56Z</time>
      </trkpt>
      <trkpt lat="42.97333" lon="-0.24394">
        <ele>1503.4000244141</ele>
        <time>2019-09-28T08:41:57Z</time>
      </trkpt>
      <trkpt lat="42.97352" lon="-0.24402">
        <ele>1503.4000244141</ele>
        <time>2019-09-28T08:42:00Z</time>
      </trkpt>
      <trkpt lat="42.97363" lon="-0.24407">
        <ele>1503.4000244141</ele>
        <time>2019-09-28T08:42:02Z</time>
      </trkpt>
      <trkpt lat="42.97374" lon="-0.24415">
        <ele>1503.4000244141</ele>
        <time>2019-09-28T08:42:04Z</time>
      </trkpt>
      <trkpt lat="42.97379" lon="-0.24427">
        <ele>1503.4000244141</ele>
        <time>2019-09-28T08:42:06Z</time>
      </trkpt>
      <trkpt lat="42.9738" lon="-0.24443">
        <ele>1503.4000244141</ele>
        <time>2019-09-28T08:42:09Z</time>
      </trkpt>
      <trkpt lat="42.97381" lon="-0.24447">
        <ele>1503.4000244141</ele>
        <time>2019-09-28T08:42:11Z</time>
      </trkpt>
      <trkpt lat="42.97381" lon="-0.24447">
        <ele>1503.4000244141</ele>
        <time>2019-09-28T08:42:13Z</time>
      </trkpt>
      <trkpt lat="42.97386" lon="-0.24452">
        <ele>1503.4000244141</ele>
        <time>2019-09-28T08:42:18Z</time>
      </trkpt>
      <trkpt lat="42.974" lon="-0.24461">
        <ele>1503.4000244141</ele>
        <time>2019-09-28T08:42:23Z</time>
      </trkpt>
      <trkpt lat="42.97413" lon="-0.24457">
        <ele>1503.4000244141</ele>
        <time>2019-09-28T08:42:27Z</time>
      </trkpt>
      <trkpt lat="42.9743" lon="-0.24446">
        <ele>1503.4000244141</ele>
        <time>2019-09-28T08:42:33Z</time>
      </trkpt>
      <trkpt lat="42.9745" lon="-0.24437">
        <ele>1503.4000244141</ele>
        <time>2019-09-28T08:42:39Z</time>
      </trkpt>
      <trkpt lat="42.97478" lon="-0.24434">
        <ele>1503</ele>
        <time>2019-09-28T08:42:46Z</time>
      </trkpt>
      <trkpt lat="42.97482" lon="-0.24433">
        <ele>1502.5999755859</ele>
        <time>2019-09-28T08:42:47Z</time>
      </trkpt>
      <trkpt lat="42.97486" lon="-0.24432">
        <ele>1502.1999511719</ele>
        <time>2019-09-28T08:42:48Z</time>
      </trkpt>
      <trkpt lat="42.97489" lon="-0.24431">
        <ele>1501.8000488281</ele>
        <time>2019-09-28T08:42:49Z</time>
      </trkpt>
      <trkpt lat="42.97493" lon="-0.24429">
        <ele>1501.4000244141</ele>
        <time>2019-09-28T08:42:50Z</time>
      </trkpt>
      <trkpt lat="42.97497" lon="-0.24428">
        <ele>1501.4000244141</ele>
        <time>2019-09-28T08:42:51Z</time>
      </trkpt>
      <trkpt lat="42.97513" lon="-0.24415">
        <ele>1501.4000244141</ele>
        <time>2019-09-28T08:42:56Z</time>
      </trkpt>
      <trkpt lat="42.97535" lon="-0.24391">
        <ele>1501.4000244141</ele>
        <time>2019-09-28T08:43:04Z</time>
      </trkpt>
      <trkpt lat="42.97557" lon="-0.24379">
        <ele>1501.4000244141</ele>
        <time>2019-09-28T08:43:10Z</time>
      </trkpt>
      <trkpt lat="42.97569" lon="-0.24372">
        <ele>1501.4000244141</ele>
        <time>2019-09-28T08:43:13Z</time>
      </trkpt>
      <trkpt lat="42.97575" lon="-0.24365">
        <ele>1501.4000244141</ele>
        <time>2019-09-28T08:43:15Z</time>
      </trkpt>
      <trkpt lat="42.97605" lon="-0.24342">
        <ele>1501.4000244141</ele>
        <time>2019-09-28T08:43:23Z</time>
      </trkpt>
      <trkpt lat="42.97625" lon="-0.24327">
        <ele>1501.4000244141</ele>
        <time>2019-09-28T08:43:28Z</time>
      </trkpt>
      <trkpt lat="42.9763" lon="-0.24323">
        <ele>1501.4000244141</ele>
        <time>2019-09-28T08:43:29Z</time>
      </trkpt>
      <trkpt lat="42.97643" lon="-0.2431">
        <ele>1501.4000244141</ele>
        <time>2019-09-28T08:43:33Z</time>
      </trkpt>
      <trkpt lat="42.97666" lon="-0.24291">
        <ele>1501.4000244141</ele>
        <time>2019-09-28T08:43:40Z</time>
      </trkpt>
      <trkpt lat="42.9768" lon="-0.24276">
        <ele>1501.4000244141</ele>
        <time>2019-09-28T08:43:45Z</time>
      </trkpt>
      <trkpt lat="42.97693" lon="-0.24261">
        <ele>1501.4000244141</ele>
        <time>2019-09-28T08:43:51Z</time>
      </trkpt>
      <trkpt lat="42.97704" lon="-0.24261">
        <ele>1501.4000244141</ele>
        <time>2019-09-28T08:43:54Z</time>
      </trkpt>
      <trkpt lat="42.97709" lon="-0.24261">
        <ele>1501.4000244141</ele>
        <time>2019-09-28T08:43:55Z</time>
      </trkpt>
      <trkpt lat="42.97721" lon="-0.24258">
        <ele>1501.4000244141</ele>
        <time>2019-09-28T08:43:58Z</time>
      </trkpt>
      <trkpt lat="42.97729" lon="-0.24256">
        <ele>1501.4000244141</ele>
        <time>2019-09-28T08:44:00Z</time>
      </trkpt>
      <trkpt lat="42.97752" lon="-0.24252">
        <ele>1501.4000244141</ele>
        <time>2019-09-28T08:44:06Z</time>
      </trkpt>
      <trkpt lat="42.97756" lon="-0.24253">
        <ele>1501.4000244141</ele>
        <time>2019-09-28T08:44:07Z</time>
      </trkpt>
      <trkpt lat="42.97768" lon="-0.24261">
        <ele>1501.4000244141</ele>
        <time>2019-09-28T08:44:10Z</time>
      </trkpt>
      <trkpt lat="42.97772" lon="-0.24263">
        <ele>1501.4000244141</ele>
        <time>2019-09-28T08:44:11Z</time>
      </trkpt>
      <trkpt lat="42.97778" lon="-0.24265">
        <ele>1501.4000244141</ele>
        <time>2019-09-28T08:44:13Z</time>
      </trkpt>
      <trkpt lat="42.97781" lon="-0.24264">
        <ele>1501.4000244141</ele>
        <time>2019-09-28T08:44:14Z</time>
      </trkpt>
      <trkpt lat="42.97787" lon="-0.2426">
        <ele>1501.8000488281</ele>
        <time>2019-09-28T08:44:16Z</time>
      </trkpt>
      <trkpt lat="42.97791" lon="-0.24258">
        <ele>1502.1999511719</ele>
        <time>2019-09-28T08:44:17Z</time>
      </trkpt>
      <trkpt lat="42.97794" lon="-0.24255">
        <ele>1502.5999755859</ele>
        <time>2019-09-28T08:44:18Z</time>
      </trkpt>
      <trkpt lat="42.97797" lon="-0.24252">
        <ele>1503</ele>
        <time>2019-09-28T08:44:19Z</time>
      </trkpt>
      <trkpt lat="42.978" lon="-0.24248">
        <ele>1503.4000244141</ele>
        <time>2019-09-28T08:44:20Z</time>
      </trkpt>
      <trkpt lat="42.97808" lon="-0.24237">
        <ele>1503.4000244141</ele>
        <time>2019-09-28T08:44:23Z</time>
      </trkpt>
      <trkpt lat="42.9781" lon="-0.24232">
        <ele>1503.4000244141</ele>
        <time>2019-09-28T08:44:24Z</time>
      </trkpt>
      <trkpt lat="42.97815" lon="-0.24214">
        <ele>1503.4000244141</ele>
        <time>2019-09-28T08:44:28Z</time>
      </trkpt>
      <trkpt lat="42.97816" lon="-0.24209">
        <ele>1503.4000244141</ele>
        <time>2019-09-28T08:44:29Z</time>
      </trkpt>
      <trkpt lat="42.97827" lon="-0.24179">
        <ele>1503.4000244141</ele>
        <time>2019-09-28T08:44:36Z</time>
      </trkpt>
      <trkpt lat="42.97841" lon="-0.24171">
        <ele>1504</ele>
        <time>2019-09-28T08:44:41Z</time>
      </trkpt>
      <trkpt lat="42.97844" lon="-0.2417">
        <ele>1504.4000244141</ele>
        <time>2019-09-28T08:44:42Z</time>
      </trkpt>
      <trkpt lat="42.97847" lon="-0.24169">
        <ele>1504.8000488281</ele>
        <time>2019-09-28T08:44:43Z</time>
      </trkpt>
      <trkpt lat="42.97849" lon="-0.24168">
        <ele>1505.1999511719</ele>
        <time>2019-09-28T08:44:44Z</time>
      </trkpt>
      <trkpt lat="42.97852" lon="-0.24167">
        <ele>1505.8000488281</ele>
        <time>2019-09-28T08:44:45Z</time>
      </trkpt>
      <trkpt lat="42.9786" lon="-0.24163">
        <ele>1505.8000488281</ele>
        <time>2019-09-28T08:44:48Z</time>
      </trkpt>
      <trkpt lat="42.97863" lon="-0.24162">
        <ele>1506.1999511719</ele>
        <time>2019-09-28T08:44:49Z</time>
      </trkpt>
      <trkpt lat="42.97866" lon="-0.2416">
        <ele>1506.5999755859</ele>
        <time>2019-09-28T08:44:50Z</time>
      </trkpt>
      <trkpt lat="42.97869" lon="-0.2416">
        <ele>1507</ele>
        <time>2019-09-28T08:44:51Z</time>
      </trkpt>
      <trkpt lat="42.97872" lon="-0.24159">
        <ele>1507.4000244141</ele>
        <time>2019-09-28T08:44:52Z</time>
      </trkpt>
      <trkpt lat="42.97875" lon="-0.24159">
        <ele>1507.8000488281</ele>
        <time>2019-09-28T08:44:53Z</time>
      </trkpt>
      <trkpt lat="42.97897" lon="-0.2416">
        <ele>1507.8000488281</ele>
        <time>2019-09-28T08:45:00Z</time>
      </trkpt>
      <trkpt lat="42.97919" lon="-0.24162">
        <ele>1507.8000488281</ele>
        <time>2019-09-28T08:45:06Z</time>
      </trkpt>
      <trkpt lat="42.97934" lon="-0.24152">
        <ele>1507.8000488281</ele>
        <time>2019-09-28T08:45:11Z</time>
      </trkpt>
      <trkpt lat="42.97936" lon="-0.2415">
        <ele>1508.1999511719</ele>
        <time>2019-09-28T08:45:12Z</time>
      </trkpt>
      <trkpt lat="42.97939" lon="-0.24147">
        <ele>1508.5999755859</ele>
        <time>2019-09-28T08:45:13Z</time>
      </trkpt>
      <trkpt lat="42.97942" lon="-0.24145">
        <ele>1509</ele>
        <time>2019-09-28T08:45:14Z</time>
      </trkpt>
      <trkpt lat="42.97945" lon="-0.24144">
        <ele>1509.4000244141</ele>
        <time>2019-09-28T08:45:15Z</time>
      </trkpt>
      <trkpt lat="42.97948" lon="-0.24142">
        <ele>1509.8000488281</ele>
        <time>2019-09-28T08:45:16Z</time>
      </trkpt>
      <trkpt lat="42.97951" lon="-0.2414">
        <ele>1509.8000488281</ele>
        <time>2019-09-28T08:45:17Z</time>
      </trkpt>
      <trkpt lat="42.97967" lon="-0.24142">
        <ele>1509.8000488281</ele>
        <time>2019-09-28T08:45:22Z</time>
      </trkpt>
      <trkpt lat="42.97984" lon="-0.24143">
        <ele>1509.8000488281</ele>
        <time>2019-09-28T08:45:27Z</time>
      </trkpt>
      <trkpt lat="42.98005" lon="-0.24143">
        <ele>1510.5999755859</ele>
        <time>2019-09-28T08:45:34Z</time>
      </trkpt>
      <trkpt lat="42.98008" lon="-0.24143">
        <ele>1511.1999511719</ele>
        <time>2019-09-28T08:45:35Z</time>
      </trkpt>
      <trkpt lat="42.98011" lon="-0.24143">
        <ele>1511.5999755859</ele>
        <time>2019-09-28T08:45:36Z</time>
      </trkpt>
      <trkpt lat="42.98014" lon="-0.24142">
        <ele>1512</ele>
        <time>2019-09-28T08:45:37Z</time>
      </trkpt>
      <trkpt lat="42.98017" lon="-0.24142">
        <ele>1512</ele>
        <time>2019-09-28T08:45:38Z</time>
      </trkpt>
      <trkpt lat="42.98031" lon="-0.24132">
        <ele>1512</ele>
        <time>2019-09-28T08:45:43Z</time>
      </trkpt>
      <trkpt lat="42.98041" lon="-0.24115">
        <ele>1512</ele>
        <time>2019-09-28T08:45:48Z</time>
      </trkpt>
      <trkpt lat="42.98052" lon="-0.24099">
        <ele>1512</ele>
        <time>2019-09-28T08:45:54Z</time>
      </trkpt>
      <trkpt lat="42.98069" lon="-0.24094">
        <ele>1512</ele>
        <time>2019-09-28T08:45:59Z</time>
      </trkpt>
      <trkpt lat="42.98081" lon="-0.24092">
        <ele>1512</ele>
        <time>2019-09-28T08:46:03Z</time>
      </trkpt>
      <trkpt lat="42.98097" lon="-0.24087">
        <ele>1512</ele>
        <time>2019-09-28T08:46:08Z</time>
      </trkpt>
      <trkpt lat="42.98102" lon="-0.24072">
        <ele>1512</ele>
        <time>2019-09-28T08:46:12Z</time>
      </trkpt>
      <trkpt lat="42.98106" lon="-0.24065">
        <ele>1512.4000244141</ele>
        <time>2019-09-28T08:46:14Z</time>
      </trkpt>
      <trkpt lat="42.98108" lon="-0.24061">
        <ele>1512.8000488281</ele>
        <time>2019-09-28T08:46:15Z</time>
      </trkpt>
      <trkpt lat="42.9811" lon="-0.24058">
        <ele>1513.1999511719</ele>
        <time>2019-09-28T08:46:16Z</time>
      </trkpt>
      <trkpt lat="42.98112" lon="-0.24054">
        <ele>1513.8000488281</ele>
        <time>2019-09-28T08:46:17Z</time>
      </trkpt>
      <trkpt lat="42.98114" lon="-0.2405">
        <ele>1514.1999511719</ele>
        <time>2019-09-28T08:46:18Z</time>
      </trkpt>
      <trkpt lat="42.98125" lon="-0.24031">
        <ele>1514.1999511719</ele>
        <time>2019-09-28T08:46:23Z</time>
      </trkpt>
      <trkpt lat="42.98142" lon="-0.24008">
        <ele>1514.1999511719</ele>
        <time>2019-09-28T08:46:30Z</time>
      </trkpt>
      <trkpt lat="42.98157" lon="-0.23995">
        <ele>1514.1999511719</ele>
        <time>2019-09-28T08:46:36Z</time>
      </trkpt>
      <trkpt lat="42.98165" lon="-0.23998">
        <ele>1514.1999511719</ele>
        <time>2019-09-28T08:46:39Z</time>
      </trkpt>
      <trkpt lat="42.98168" lon="-0.24004">
        <ele>1514.5999755859</ele>
        <time>2019-09-28T08:46:41Z</time>
      </trkpt>
      <trkpt lat="42.98169" lon="-0.24008">
        <ele>1515</ele>
        <time>2019-09-28T08:46:42Z</time>
      </trkpt>
      <trkpt lat="42.9817" lon="-0.24011">
        <ele>1515.4000244141</ele>
        <time>2019-09-28T08:46:43Z</time>
      </trkpt>
      <trkpt lat="42.98172" lon="-0.24015">
        <ele>1515.8000488281</ele>
        <time>2019-09-28T08:46:44Z</time>
      </trkpt>
      <trkpt lat="42.98173" lon="-0.24019">
        <ele>1516.1999511719</ele>
        <time>2019-09-28T08:46:45Z</time>
      </trkpt>
      <trkpt lat="42.98175" lon="-0.24023">
        <ele>1516.1999511719</ele>
        <time>2019-09-28T08:46:46Z</time>
      </trkpt>
      <trkpt lat="42.98182" lon="-0.24031">
        <ele>1516.1999511719</ele>
        <time>2019-09-28T08:46:49Z</time>
      </trkpt>
      <trkpt lat="42.98198" lon="-0.24027">
        <ele>1516.1999511719</ele>
        <time>2019-09-28T08:46:54Z</time>
      </trkpt>
      <trkpt lat="42.98203" lon="-0.24021">
        <ele>1516.1999511719</ele>
        <time>2019-09-28T08:46:56Z</time>
      </trkpt>
      <trkpt lat="42.98211" lon="-0.24009">
        <ele>1516.1999511719</ele>
        <time>2019-09-28T08:46:59Z</time>
      </trkpt>
      <trkpt lat="42.98227" lon="-0.23999">
        <ele>1516.1999511719</ele>
        <time>2019-09-28T08:47:04Z</time>
      </trkpt>
      <trkpt lat="42.98249" lon="-0.23997">
        <ele>1516.1999511719</ele>
        <time>2019-09-28T08:47:11Z</time>
      </trkpt>
      <trkpt lat="42.98254" lon="-0.23998">
        <ele>1516.5999755859</ele>
        <time>2019-09-28T08:47:13Z</time>
      </trkpt>
      <trkpt lat="42.98256" lon="-0.23999">
        <ele>1517</ele>
        <time>2019-09-28T08:47:14Z</time>
      </trkpt>
      <trkpt lat="42.98258" lon="-0.23999">
        <ele>1517.5999755859</ele>
        <time>2019-09-28T08:47:15Z</time>
      </trkpt>
      <trkpt lat="42.98259" lon="-0.24">
        <ele>1518</ele>
        <time>2019-09-28T08:47:16Z</time>
      </trkpt>
      <trkpt lat="42.9826" lon="-0.24">
        <ele>1518.4000244141</ele>
        <time>2019-09-28T08:47:17Z</time>
      </trkpt>
      <trkpt lat="42.98261" lon="-0.24">
        <ele>1518.4000244141</ele>
        <time>2019-09-28T08:47:21Z</time>
      </trkpt>
      <trkpt lat="42.98261" lon="-0.24">
        <ele>1518.4000244141</ele>
        <time>2019-09-28T08:47:30Z</time>
      </trkpt>
      <trkpt lat="42.98261" lon="-0.24">
        <ele>1518.4000244141</ele>
        <time>2019-09-28T08:47:36Z</time>
      </trkpt>
      <trkpt lat="42.98262" lon="-0.24005">
        <ele>1518.4000244141</ele>
        <time>2019-09-28T08:47:41Z</time>
      </trkpt>
      <trkpt lat="42.98266" lon="-0.2402">
        <ele>1518.4000244141</ele>
        <time>2019-09-28T08:47:46Z</time>
      </trkpt>
      <trkpt lat="42.98268" lon="-0.24041">
        <ele>1518.4000244141</ele>
        <time>2019-09-28T08:47:52Z</time>
      </trkpt>
      <trkpt lat="42.9827" lon="-0.24047">
        <ele>1518.8000488281</ele>
        <time>2019-09-28T08:47:54Z</time>
      </trkpt>
      <trkpt lat="42.9827" lon="-0.24051">
        <ele>1519.1999511719</ele>
        <time>2019-09-28T08:47:55Z</time>
      </trkpt>
      <trkpt lat="42.98271" lon="-0.24054">
        <ele>1519.5999755859</ele>
        <time>2019-09-28T08:47:56Z</time>
      </trkpt>
      <trkpt lat="42.98272" lon="-0.24057">
        <ele>1520.1999511719</ele>
        <time>2019-09-28T08:47:57Z</time>
      </trkpt>
      <trkpt lat="42.98272" lon="-0.24059">
        <ele>1520.5999755859</ele>
        <time>2019-09-28T08:47:58Z</time>
      </trkpt>
      <trkpt lat="42.98276" lon="-0.2408">
        <ele>1520.5999755859</ele>
        <time>2019-09-28T08:48:05Z</time>
      </trkpt>
      <trkpt lat="42.98278" lon="-0.24098">
        <ele>1521</ele>
        <time>2019-09-28T08:48:11Z</time>
      </trkpt>
      <trkpt lat="42.98277" lon="-0.24101">
        <ele>1521.4000244141</ele>
        <time>2019-09-28T08:48:12Z</time>
      </trkpt>
      <trkpt lat="42.98277" lon="-0.24105">
        <ele>1521.8000488281</ele>
        <time>2019-09-28T08:48:13Z</time>
      </trkpt>
      <trkpt lat="42.98278" lon="-0.24109">
        <ele>1522.1999511719</ele>
        <time>2019-09-28T08:48:14Z</time>
      </trkpt>
      <trkpt lat="42.98278" lon="-0.24112">
        <ele>1522.5999755859</ele>
        <time>2019-09-28T08:48:15Z</time>
      </trkpt>
      <trkpt lat="42.98281" lon="-0.24122">
        <ele>1522.5999755859</ele>
        <time>2019-09-28T08:48:18Z</time>
      </trkpt>
      <trkpt lat="42.98279" lon="-0.24132">
        <ele>1522.5999755859</ele>
        <time>2019-09-28T08:48:21Z</time>
      </trkpt>
      <trkpt lat="42.98277" lon="-0.24134">
        <ele>1522.5999755859</ele>
        <time>2019-09-28T08:48:22Z</time>
      </trkpt>
      <trkpt lat="42.98275" lon="-0.24137">
        <ele>1522.1999511719</ele>
        <time>2019-09-28T08:48:23Z</time>
      </trkpt>
      <trkpt lat="42.98273" lon="-0.24139">
        <ele>1521.8000488281</ele>
        <time>2019-09-28T08:48:24Z</time>
      </trkpt>
      <trkpt lat="42.98271" lon="-0.24142">
        <ele>1521.1999511719</ele>
        <time>2019-09-28T08:48:25Z</time>
      </trkpt>
      <trkpt lat="42.98269" lon="-0.24145">
        <ele>1520.8000488281</ele>
        <time>2019-09-28T08:48:26Z</time>
      </trkpt>
      <trkpt lat="42.98268" lon="-0.24148">
        <ele>1520.4000244141</ele>
        <time>2019-09-28T08:48:27Z</time>
      </trkpt>
      <trkpt lat="42.98266" lon="-0.24153">
        <ele>1520.4000244141</ele>
        <time>2019-09-28T08:48:29Z</time>
      </trkpt>
      <trkpt lat="42.98264" lon="-0.24161">
        <ele>1520</ele>
        <time>2019-09-28T08:48:31Z</time>
      </trkpt>
      <trkpt lat="42.98262" lon="-0.24166">
        <ele>1519.5999755859</ele>
        <time>2019-09-28T08:48:32Z</time>
      </trkpt>
      <trkpt lat="42.9826" lon="-0.24171">
        <ele>1519</ele>
        <time>2019-09-28T08:48:33Z</time>
      </trkpt>
      <trkpt lat="42.98259" lon="-0.24175">
        <ele>1518.5999755859</ele>
        <time>2019-09-28T08:48:34Z</time>
      </trkpt>
      <trkpt lat="42.98257" lon="-0.24179">
        <ele>1518.1999511719</ele>
        <time>2019-09-28T08:48:35Z</time>
      </trkpt>
      <trkpt lat="42.98251" lon="-0.24193">
        <ele>1517.8000488281</ele>
        <time>2019-09-28T08:48:39Z</time>
      </trkpt>
      <trkpt lat="42.98249" lon="-0.24197">
        <ele>1517.1999511719</ele>
        <time>2019-09-28T08:48:40Z</time>
      </trkpt>
      <trkpt lat="42.98247" lon="-0.242">
        <ele>1516.8000488281</ele>
        <time>2019-09-28T08:48:41Z</time>
      </trkpt>
      <trkpt lat="42.98245" lon="-0.24204">
        <ele>1516.4000244141</ele>
        <time>2019-09-28T08:48:42Z</time>
      </trkpt>
      <trkpt lat="42.98243" lon="-0.24209">
        <ele>1516</ele>
        <time>2019-09-28T08:48:43Z</time>
      </trkpt>
      <trkpt lat="42.98239" lon="-0.24219">
        <ele>1516</ele>
        <time>2019-09-28T08:48:45Z</time>
      </trkpt>
      <trkpt lat="42.98236" lon="-0.24234">
        <ele>1515.4000244141</ele>
        <time>2019-09-28T08:48:49Z</time>
      </trkpt>
      <trkpt lat="42.98235" lon="-0.24238">
        <ele>1515</ele>
        <time>2019-09-28T08:48:50Z</time>
      </trkpt>
      <trkpt lat="42.98234" lon="-0.24242">
        <ele>1514.1999511719</ele>
        <time>2019-09-28T08:48:51Z</time>
      </trkpt>
      <trkpt lat="42.98234" lon="-0.24246">
        <ele>1513.8000488281</ele>
        <time>2019-09-28T08:48:52Z</time>
      </trkpt>
      <trkpt lat="42.98229" lon="-0.24269">
        <ele>1513.4000244141</ele>
        <time>2019-09-28T08:48:58Z</time>
      </trkpt>
      <trkpt lat="42.98228" lon="-0.24272">
        <ele>1513</ele>
        <time>2019-09-28T08:48:59Z</time>
      </trkpt>
      <trkpt lat="42.98227" lon="-0.24275">
        <ele>1512.5999755859</ele>
        <time>2019-09-28T08:49:00Z</time>
      </trkpt>
      <trkpt lat="42.98226" lon="-0.24278">
        <ele>1512.1999511719</ele>
        <time>2019-09-28T08:49:01Z</time>
      </trkpt>
      <trkpt lat="42.98225" lon="-0.24281">
        <ele>1511.8000488281</ele>
        <time>2019-09-28T08:49:02Z</time>
      </trkpt>
      <trkpt lat="42.9822" lon="-0.2429">
        <ele>1511.8000488281</ele>
        <time>2019-09-28T08:49:05Z</time>
      </trkpt>
      <trkpt lat="42.98206" lon="-0.24308">
        <ele>1511.8000488281</ele>
        <time>2019-09-28T08:49:13Z</time>
      </trkpt>
      <trkpt lat="42.98202" lon="-0.24312">
        <ele>1511.4000244141</ele>
        <time>2019-09-28T08:49:15Z</time>
      </trkpt>
      <trkpt lat="42.982" lon="-0.24315">
        <ele>1510.5999755859</ele>
        <time>2019-09-28T08:49:16Z</time>
      </trkpt>
      <trkpt lat="42.98198" lon="-0.24318">
        <ele>1510</ele>
        <time>2019-09-28T08:49:17Z</time>
      </trkpt>
      <trkpt lat="42.98196" lon="-0.2432">
        <ele>1509.5999755859</ele>
        <time>2019-09-28T08:49:18Z</time>
      </trkpt>
      <trkpt lat="42.98193" lon="-0.24322">
        <ele>1509.5999755859</ele>
        <time>2019-09-28T08:49:19Z</time>
      </trkpt>
      <trkpt lat="42.98178" lon="-0.24334">
        <ele>1509.1999511719</ele>
        <time>2019-09-28T08:49:24Z</time>
      </trkpt>
      <trkpt lat="42.98174" lon="-0.24336">
        <ele>1508.8000488281</ele>
        <time>2019-09-28T08:49:25Z</time>
      </trkpt>
      <trkpt lat="42.98171" lon="-0.24341">
        <ele>1508.4000244141</ele>
        <time>2019-09-28T08:49:26Z</time>
      </trkpt>
      <trkpt lat="42.98167" lon="-0.24346">
        <ele>1507.8000488281</ele>
        <time>2019-09-28T08:49:27Z</time>
      </trkpt>
      <trkpt lat="42.98163" lon="-0.24352">
        <ele>1507.4000244141</ele>
        <time>2019-09-28T08:49:28Z</time>
      </trkpt>
      <trkpt lat="42.98159" lon="-0.24358">
        <ele>1506.8000488281</ele>
        <time>2019-09-28T08:49:29Z</time>
      </trkpt>
      <trkpt lat="42.98154" lon="-0.24364">
        <ele>1506.4000244141</ele>
        <time>2019-09-28T08:49:30Z</time>
      </trkpt>
      <trkpt lat="42.9815" lon="-0.24371">
        <ele>1505.8000488281</ele>
        <time>2019-09-28T08:49:31Z</time>
      </trkpt>
      <trkpt lat="42.98146" lon="-0.24378">
        <ele>1505.1999511719</ele>
        <time>2019-09-28T08:49:32Z</time>
      </trkpt>
      <trkpt lat="42.98144" lon="-0.24386">
        <ele>1504.8000488281</ele>
        <time>2019-09-28T08:49:33Z</time>
      </trkpt>
      <trkpt lat="42.98144" lon="-0.24395">
        <ele>1504.1999511719</ele>
        <time>2019-09-28T08:49:34Z</time>
      </trkpt>
      <trkpt lat="42.98144" lon="-0.24403">
        <ele>1503.8000488281</ele>
        <time>2019-09-28T08:49:35Z</time>
      </trkpt>
      <trkpt lat="42.98144" lon="-0.24412">
        <ele>1503.1999511719</ele>
        <time>2019-09-28T08:49:36Z</time>
      </trkpt>
      <trkpt lat="42.98141" lon="-0.24419">
        <ele>1502.5999755859</ele>
        <time>2019-09-28T08:49:37Z</time>
      </trkpt>
      <trkpt lat="42.98138" lon="-0.24425">
        <ele>1502.5999755859</ele>
        <time>2019-09-28T08:49:38Z</time>
      </trkpt>
      <trkpt lat="42.98123" lon="-0.24437">
        <ele>1501.8000488281</ele>
        <time>2019-09-28T08:49:41Z</time>
      </trkpt>
      <trkpt lat="42.98116" lon="-0.24441">
        <ele>1501.4000244141</ele>
        <time>2019-09-28T08:49:42Z</time>
      </trkpt>
      <trkpt lat="42.98109" lon="-0.24445">
        <ele>1500.8000488281</ele>
        <time>2019-09-28T08:49:43Z</time>
      </trkpt>
      <trkpt lat="42.98101" lon="-0.24449">
        <ele>1500</ele>
        <time>2019-09-28T08:49:44Z</time>
      </trkpt>
      <trkpt lat="42.98094" lon="-0.24453">
        <ele>1499.1999511719</ele>
        <time>2019-09-28T08:49:45Z</time>
      </trkpt>
      <trkpt lat="42.98087" lon="-0.24457">
        <ele>1498.4000244141</ele>
        <time>2019-09-28T08:49:46Z</time>
      </trkpt>
      <trkpt lat="42.9808" lon="-0.24461">
        <ele>1497.5999755859</ele>
        <time>2019-09-28T08:49:47Z</time>
      </trkpt>
      <trkpt lat="42.98074" lon="-0.24466">
        <ele>1496.8000488281</ele>
        <time>2019-09-28T08:49:48Z</time>
      </trkpt>
      <trkpt lat="42.98068" lon="-0.24472">
        <ele>1496</ele>
        <time>2019-09-28T08:49:49Z</time>
      </trkpt>
      <trkpt lat="42.98062" lon="-0.24479">
        <ele>1495.4000244141</ele>
        <time>2019-09-28T08:49:50Z</time>
      </trkpt>
      <trkpt lat="42.98059" lon="-0.24487">
        <ele>1495</ele>
        <time>2019-09-28T08:49:51Z</time>
      </trkpt>
      <trkpt lat="42.98057" lon="-0.24497">
        <ele>1494.5999755859</ele>
        <time>2019-09-28T08:49:52Z</time>
      </trkpt>
      <trkpt lat="42.98058" lon="-0.24506">
        <ele>1494.1999511719</ele>
        <time>2019-09-28T08:49:53Z</time>
      </trkpt>
      <trkpt lat="42.98061" lon="-0.24514">
        <ele>1493.5999755859</ele>
        <time>2019-09-28T08:49:54Z</time>
      </trkpt>
      <trkpt lat="42.98063" lon="-0.24522">
        <ele>1493.1999511719</ele>
        <time>2019-09-28T08:49:55Z</time>
      </trkpt>
      <trkpt lat="42.98065" lon="-0.24531">
        <ele>1492.8000488281</ele>
        <time>2019-09-28T08:49:56Z</time>
      </trkpt>
      <trkpt lat="42.98066" lon="-0.24541">
        <ele>1492.1999511719</ele>
        <time>2019-09-28T08:49:57Z</time>
      </trkpt>
      <trkpt lat="42.98065" lon="-0.2455">
        <ele>1491.8000488281</ele>
        <time>2019-09-28T08:49:58Z</time>
      </trkpt>
      <trkpt lat="42.98062" lon="-0.24558">
        <ele>1491.4000244141</ele>
        <time>2019-09-28T08:49:59Z</time>
      </trkpt>
      <trkpt lat="42.98054" lon="-0.24573">
        <ele>1491.4000244141</ele>
        <time>2019-09-28T08:50:01Z</time>
      </trkpt>
      <trkpt lat="42.98051" lon="-0.24582">
        <ele>1490.8000488281</ele>
        <time>2019-09-28T08:50:02Z</time>
      </trkpt>
      <trkpt lat="42.98048" lon="-0.24591">
        <ele>1490.1999511719</ele>
        <time>2019-09-28T08:50:03Z</time>
      </trkpt>
      <trkpt lat="42.98046" lon="-0.246">
        <ele>1489.8000488281</ele>
        <time>2019-09-28T08:50:04Z</time>
      </trkpt>
      <trkpt lat="42.98045" lon="-0.2461">
        <ele>1489.1999511719</ele>
        <time>2019-09-28T08:50:05Z</time>
      </trkpt>
      <trkpt lat="42.98045" lon="-0.2462">
        <ele>1488.8000488281</ele>
        <time>2019-09-28T08:50:06Z</time>
      </trkpt>
      <trkpt lat="42.98047" lon="-0.2464">
        <ele>1488.1999511719</ele>
        <time>2019-09-28T08:50:08Z</time>
      </trkpt>
      <trkpt lat="42.98048" lon="-0.24651">
        <ele>1487.5999755859</ele>
        <time>2019-09-28T08:50:09Z</time>
      </trkpt>
      <trkpt lat="42.9805" lon="-0.2466">
        <ele>1487</ele>
        <time>2019-09-28T08:50:10Z</time>
      </trkpt>
      <trkpt lat="42.98052" lon="-0.2467">
        <ele>1486.4000244141</ele>
        <time>2019-09-28T08:50:11Z</time>
      </trkpt>
      <trkpt lat="42.98054" lon="-0.24679">
        <ele>1485.8000488281</ele>
        <time>2019-09-28T08:50:12Z</time>
      </trkpt>
      <trkpt lat="42.98054" lon="-0.24687">
        <ele>1485</ele>
        <time>2019-09-28T08:50:13Z</time>
      </trkpt>
      <trkpt lat="42.98054" lon="-0.24695">
        <ele>1484.4000244141</ele>
        <time>2019-09-28T08:50:14Z</time>
      </trkpt>
      <trkpt lat="42.98054" lon="-0.24701">
        <ele>1483.8000488281</ele>
        <time>2019-09-28T08:50:15Z</time>
      </trkpt>
      <trkpt lat="42.98055" lon="-0.24705">
        <ele>1483.8000488281</ele>
        <time>2019-09-28T08:50:16Z</time>
      </trkpt>
      <trkpt lat="42.98063" lon="-0.24703">
        <ele>1483.8000488281</ele>
        <time>2019-09-28T08:50:18Z</time>
      </trkpt>
      <trkpt lat="42.98067" lon="-0.24693">
        <ele>1483.4000244141</ele>
        <time>2019-09-28T08:50:20Z</time>
      </trkpt>
      <trkpt lat="42.98066" lon="-0.24689">
        <ele>1483</ele>
        <time>2019-09-28T08:50:21Z</time>
      </trkpt>
      <trkpt lat="42.98065" lon="-0.24684">
        <ele>1482.5999755859</ele>
        <time>2019-09-28T08:50:22Z</time>
      </trkpt>
      <trkpt lat="42.98064" lon="-0.2468">
        <ele>1482.1999511719</ele>
        <time>2019-09-28T08:50:23Z</time>
      </trkpt>
      <trkpt lat="42.98064" lon="-0.24675">
        <ele>1481.5999755859</ele>
        <time>2019-09-28T08:50:24Z</time>
      </trkpt>
      <trkpt lat="42.98065" lon="-0.24669">
        <ele>1481.5999755859</ele>
        <time>2019-09-28T08:50:25Z</time>
      </trkpt>
      <trkpt lat="42.98066" lon="-0.24661">
        <ele>1481.1999511719</ele>
        <time>2019-09-28T08:50:26Z</time>
      </trkpt>
      <trkpt lat="42.98066" lon="-0.24652">
        <ele>1480.8000488281</ele>
        <time>2019-09-28T08:50:27Z</time>
      </trkpt>
      <trkpt lat="42.98067" lon="-0.24642">
        <ele>1480</ele>
        <time>2019-09-28T08:50:28Z</time>
      </trkpt>
      <trkpt lat="42.98067" lon="-0.24632">
        <ele>1479.1999511719</ele>
        <time>2019-09-28T08:50:29Z</time>
      </trkpt>
      <trkpt lat="42.98069" lon="-0.24623">
        <ele>1477.8000488281</ele>
        <time>2019-09-28T08:50:30Z</time>
      </trkpt>
      <trkpt lat="42.98072" lon="-0.24614">
        <ele>1477</ele>
        <time>2019-09-28T08:50:31Z</time>
      </trkpt>
      <trkpt lat="42.98075" lon="-0.24605">
        <ele>1476.1999511719</ele>
        <time>2019-09-28T08:50:32Z</time>
      </trkpt>
      <trkpt lat="42.9808" lon="-0.24597">
        <ele>1475.5999755859</ele>
        <time>2019-09-28T08:50:33Z</time>
      </trkpt>
      <trkpt lat="42.98085" lon="-0.2459">
        <ele>1474.8000488281</ele>
        <time>2019-09-28T08:50:34Z</time>
      </trkpt>
      <trkpt lat="42.98091" lon="-0.24582">
        <ele>1474</ele>
        <time>2019-09-28T08:50:35Z</time>
      </trkpt>
      <trkpt lat="42.98096" lon="-0.24575">
        <ele>1473.4000244141</ele>
        <time>2019-09-28T08:50:36Z</time>
      </trkpt>
      <trkpt lat="42.98102" lon="-0.24567">
        <ele>1472.8000488281</ele>
        <time>2019-09-28T08:50:37Z</time>
      </trkpt>
      <trkpt lat="42.98107" lon="-0.24557">
        <ele>1472.1999511719</ele>
        <time>2019-09-28T08:50:38Z</time>
      </trkpt>
      <trkpt lat="42.98112" lon="-0.24548">
        <ele>1471.5999755859</ele>
        <time>2019-09-28T08:50:39Z</time>
      </trkpt>
      <trkpt lat="42.98118" lon="-0.2454">
        <ele>1471.1999511719</ele>
        <time>2019-09-28T08:50:40Z</time>
      </trkpt>
      <trkpt lat="42.98124" lon="-0.24532">
        <ele>1470.5999755859</ele>
        <time>2019-09-28T08:50:41Z</time>
      </trkpt>
      <trkpt lat="42.98129" lon="-0.24524">
        <ele>1470</ele>
        <time>2019-09-28T08:50:42Z</time>
      </trkpt>
      <trkpt lat="42.98136" lon="-0.24516">
        <ele>1469.4000244141</ele>
        <time>2019-09-28T08:50:43Z</time>
      </trkpt>
      <trkpt lat="42.98142" lon="-0.2451">
        <ele>1469</ele>
        <time>2019-09-28T08:50:44Z</time>
      </trkpt>
      <trkpt lat="42.98149" lon="-0.24505">
        <ele>1468.4000244141</ele>
        <time>2019-09-28T08:50:45Z</time>
      </trkpt>
      <trkpt lat="42.98156" lon="-0.24501">
        <ele>1467.8000488281</ele>
        <time>2019-09-28T08:50:46Z</time>
      </trkpt>
      <trkpt lat="42.98163" lon="-0.24498">
        <ele>1467.4000244141</ele>
        <time>2019-09-28T08:50:47Z</time>
      </trkpt>
      <trkpt lat="42.9817" lon="-0.24494">
        <ele>1466.8000488281</ele>
        <time>2019-09-28T08:50:48Z</time>
      </trkpt>
      <trkpt lat="42.98177" lon="-0.2449">
        <ele>1466.1999511719</ele>
        <time>2019-09-28T08:50:49Z</time>
      </trkpt>
      <trkpt lat="42.98192" lon="-0.24482">
        <ele>1465.8000488281</ele>
        <time>2019-09-28T08:50:51Z</time>
      </trkpt>
      <trkpt lat="42.982" lon="-0.24478">
        <ele>1465.4000244141</ele>
        <time>2019-09-28T08:50:52Z</time>
      </trkpt>
      <trkpt lat="42.98208" lon="-0.24475">
        <ele>1465</ele>
        <time>2019-09-28T08:50:53Z</time>
      </trkpt>
      <trkpt lat="42.98216" lon="-0.24472">
        <ele>1464.5999755859</ele>
        <time>2019-09-28T08:50:54Z</time>
      </trkpt>
      <trkpt lat="42.98224" lon="-0.24471">
        <ele>1463.5999755859</ele>
        <time>2019-09-28T08:50:55Z</time>
      </trkpt>
      <trkpt lat="42.98231" lon="-0.24471">
        <ele>1463.1999511719</ele>
        <time>2019-09-28T08:50:56Z</time>
      </trkpt>
      <trkpt lat="42.98239" lon="-0.24472">
        <ele>1462.8000488281</ele>
        <time>2019-09-28T08:50:57Z</time>
      </trkpt>
      <trkpt lat="42.98246" lon="-0.24471">
        <ele>1462.4000244141</ele>
        <time>2019-09-28T08:50:58Z</time>
      </trkpt>
      <trkpt lat="42.98252" lon="-0.24467">
        <ele>1462</ele>
        <time>2019-09-28T08:50:59Z</time>
      </trkpt>
      <trkpt lat="42.98257" lon="-0.2446">
        <ele>1461.4000244141</ele>
        <time>2019-09-28T08:51:00Z</time>
      </trkpt>
      <trkpt lat="42.98263" lon="-0.24452">
        <ele>1461</ele>
        <time>2019-09-28T08:51:01Z</time>
      </trkpt>
      <trkpt lat="42.98268" lon="-0.24445">
        <ele>1460.5999755859</ele>
        <time>2019-09-28T08:51:02Z</time>
      </trkpt>
      <trkpt lat="42.98272" lon="-0.24437">
        <ele>1460.1999511719</ele>
        <time>2019-09-28T08:51:03Z</time>
      </trkpt>
      <trkpt lat="42.98276" lon="-0.24429">
        <ele>1459.8000488281</ele>
        <time>2019-09-28T08:51:04Z</time>
      </trkpt>
      <trkpt lat="42.98283" lon="-0.24418">
        <ele>1459.8000488281</ele>
        <time>2019-09-28T08:51:06Z</time>
      </trkpt>
      <trkpt lat="42.98294" lon="-0.24417">
        <ele>1459.8000488281</ele>
        <time>2019-09-28T08:51:08Z</time>
      </trkpt>
      <trkpt lat="42.98309" lon="-0.24429">
        <ele>1459.4000244141</ele>
        <time>2019-09-28T08:51:11Z</time>
      </trkpt>
      <trkpt lat="42.98312" lon="-0.24434">
        <ele>1458.8000488281</ele>
        <time>2019-09-28T08:51:12Z</time>
      </trkpt>
      <trkpt lat="42.98315" lon="-0.24437">
        <ele>1458.4000244141</ele>
        <time>2019-09-28T08:51:13Z</time>
      </trkpt>
      <trkpt lat="42.98318" lon="-0.24441">
        <ele>1457.8000488281</ele>
        <time>2019-09-28T08:51:14Z</time>
      </trkpt>
      <trkpt lat="42.98321" lon="-0.24444">
        <ele>1457.4000244141</ele>
        <time>2019-09-28T08:51:15Z</time>
      </trkpt>
      <trkpt lat="42.98334" lon="-0.24447">
        <ele>1457.4000244141</ele>
        <time>2019-09-28T08:51:18Z</time>
      </trkpt>
      <trkpt lat="42.98355" lon="-0.24444">
        <ele>1457.4000244141</ele>
        <time>2019-09-28T08:51:22Z</time>
      </trkpt>
      <trkpt lat="42.98371" lon="-0.24449">
        <ele>1457.4000244141</ele>
        <time>2019-09-28T08:51:25Z</time>
      </trkpt>
      <trkpt lat="42.98376" lon="-0.24451">
        <ele>1457.4000244141</ele>
        <time>2019-09-28T08:51:26Z</time>
      </trkpt>
      <trkpt lat="42.98387" lon="-0.24452">
        <ele>1457.4000244141</ele>
        <time>2019-09-28T08:51:28Z</time>
      </trkpt>
      <trkpt lat="42.98402" lon="-0.24458">
        <ele>1457.4000244141</ele>
        <time>2019-09-28T08:51:31Z</time>
      </trkpt>
      <trkpt lat="42.98417" lon="-0.24468">
        <ele>1456.8000488281</ele>
        <time>2019-09-28T08:51:34Z</time>
      </trkpt>
      <trkpt lat="42.98422" lon="-0.24471">
        <ele>1456.4000244141</ele>
        <time>2019-09-28T08:51:35Z</time>
      </trkpt>
      <trkpt lat="42.98428" lon="-0.24473">
        <ele>1456</ele>
        <time>2019-09-28T08:51:36Z</time>
      </trkpt>
      <trkpt lat="42.98434" lon="-0.24476">
        <ele>1455.4000244141</ele>
        <time>2019-09-28T08:51:37Z</time>
      </trkpt>
      <trkpt lat="42.98439" lon="-0.2448">
        <ele>1455</ele>
        <time>2019-09-28T08:51:38Z</time>
      </trkpt>
      <trkpt lat="42.98448" lon="-0.2449">
        <ele>1455</ele>
        <time>2019-09-28T08:51:40Z</time>
      </trkpt>
      <trkpt lat="42.98467" lon="-0.24507">
        <ele>1454.1999511719</ele>
        <time>2019-09-28T08:51:44Z</time>
      </trkpt>
      <trkpt lat="42.98472" lon="-0.24512">
        <ele>1453.5999755859</ele>
        <time>2019-09-28T08:51:45Z</time>
      </trkpt>
      <trkpt lat="42.98477" lon="-0.24516">
        <ele>1453.1999511719</ele>
        <time>2019-09-28T08:51:46Z</time>
      </trkpt>
      <trkpt lat="42.98482" lon="-0.24521">
        <ele>1452.8000488281</ele>
        <time>2019-09-28T08:51:47Z</time>
      </trkpt>
      <trkpt lat="42.98487" lon="-0.24527">
        <ele>1452.8000488281</ele>
        <time>2019-09-28T08:51:48Z</time>
      </trkpt>
      <trkpt lat="42.98491" lon="-0.24533">
        <ele>1452.4000244141</ele>
        <time>2019-09-28T08:51:49Z</time>
      </trkpt>
      <trkpt lat="42.98495" lon="-0.24538">
        <ele>1452</ele>
        <time>2019-09-28T08:51:50Z</time>
      </trkpt>
      <trkpt lat="42.985" lon="-0.24544">
        <ele>1451.5999755859</ele>
        <time>2019-09-28T08:51:51Z</time>
      </trkpt>
      <trkpt lat="42.98504" lon="-0.2455">
        <ele>1451</ele>
        <time>2019-09-28T08:51:52Z</time>
      </trkpt>
      <trkpt lat="42.98508" lon="-0.24557">
        <ele>1450.4000244141</ele>
        <time>2019-09-28T08:51:53Z</time>
      </trkpt>
      <trkpt lat="42.98512" lon="-0.24563">
        <ele>1450</ele>
        <time>2019-09-28T08:51:54Z</time>
      </trkpt>
      <trkpt lat="42.98516" lon="-0.24569">
        <ele>1449.4000244141</ele>
        <time>2019-09-28T08:51:55Z</time>
      </trkpt>
      <trkpt lat="42.9852" lon="-0.24575">
        <ele>1448.8000488281</ele>
        <time>2019-09-28T08:51:56Z</time>
      </trkpt>
      <trkpt lat="42.98525" lon="-0.24582">
        <ele>1448.1999511719</ele>
        <time>2019-09-28T08:51:57Z</time>
      </trkpt>
      <trkpt lat="42.98529" lon="-0.2459">
        <ele>1447.8000488281</ele>
        <time>2019-09-28T08:51:58Z</time>
      </trkpt>
      <trkpt lat="42.98535" lon="-0.24596">
        <ele>1447.1999511719</ele>
        <time>2019-09-28T08:51:59Z</time>
      </trkpt>
      <trkpt lat="42.98542" lon="-0.246">
        <ele>1446.5999755859</ele>
        <time>2019-09-28T08:52:00Z</time>
      </trkpt>
      <trkpt lat="42.9855" lon="-0.24603">
        <ele>1445.8000488281</ele>
        <time>2019-09-28T08:52:01Z</time>
      </trkpt>
      <trkpt lat="42.98558" lon="-0.24604">
        <ele>1445.1999511719</ele>
        <time>2019-09-28T08:52:02Z</time>
      </trkpt>
      <trkpt lat="42.98566" lon="-0.24604">
        <ele>1444.4000244141</ele>
        <time>2019-09-28T08:52:03Z</time>
      </trkpt>
      <trkpt lat="42.98573" lon="-0.24603">
        <ele>1443.8000488281</ele>
        <time>2019-09-28T08:52:04Z</time>
      </trkpt>
      <trkpt lat="42.9858" lon="-0.24602">
        <ele>1443</ele>
        <time>2019-09-28T08:52:05Z</time>
      </trkpt>
      <trkpt lat="42.98587" lon="-0.24601">
        <ele>1442.4000244141</ele>
        <time>2019-09-28T08:52:06Z</time>
      </trkpt>
      <trkpt lat="42.98593" lon="-0.24599">
        <ele>1441.5999755859</ele>
        <time>2019-09-28T08:52:07Z</time>
      </trkpt>
      <trkpt lat="42.98599" lon="-0.24598">
        <ele>1441.5999755859</ele>
        <time>2019-09-28T08:52:08Z</time>
      </trkpt>
      <trkpt lat="42.98605" lon="-0.24597">
        <ele>1441.1999511719</ele>
        <time>2019-09-28T08:52:09Z</time>
      </trkpt>
      <trkpt lat="42.98611" lon="-0.24595">
        <ele>1440.8000488281</ele>
        <time>2019-09-28T08:52:10Z</time>
      </trkpt>
      <trkpt lat="42.98616" lon="-0.24592">
        <ele>1440.4000244141</ele>
        <time>2019-09-28T08:52:11Z</time>
      </trkpt>
      <trkpt lat="42.98621" lon="-0.24587">
        <ele>1439.8000488281</ele>
        <time>2019-09-28T08:52:12Z</time>
      </trkpt>
      <trkpt lat="42.98626" lon="-0.24582">
        <ele>1439.4000244141</ele>
        <time>2019-09-28T08:52:13Z</time>
      </trkpt>
      <trkpt lat="42.98632" lon="-0.24567">
        <ele>1439</ele>
        <time>2019-09-28T08:52:15Z</time>
      </trkpt>
      <trkpt lat="42.98633" lon="-0.24559">
        <ele>1438.5999755859</ele>
        <time>2019-09-28T08:52:16Z</time>
      </trkpt>
      <trkpt lat="42.98634" lon="-0.2455">
        <ele>1438</ele>
        <time>2019-09-28T08:52:17Z</time>
      </trkpt>
      <trkpt lat="42.98635" lon="-0.24542">
        <ele>1437.5999755859</ele>
        <time>2019-09-28T08:52:18Z</time>
      </trkpt>
      <trkpt lat="42.98634" lon="-0.24533">
        <ele>1437</ele>
        <time>2019-09-28T08:52:19Z</time>
      </trkpt>
      <trkpt lat="42.98633" lon="-0.24525">
        <ele>1436.5999755859</ele>
        <time>2019-09-28T08:52:20Z</time>
      </trkpt>
      <trkpt lat="42.98632" lon="-0.24516">
        <ele>1436</ele>
        <time>2019-09-28T08:52:21Z</time>
      </trkpt>
      <trkpt lat="42.98631" lon="-0.24507">
        <ele>1435.5999755859</ele>
        <time>2019-09-28T08:52:22Z</time>
      </trkpt>
      <trkpt lat="42.98629" lon="-0.24498">
        <ele>1435</ele>
        <time>2019-09-28T08:52:23Z</time>
      </trkpt>
      <trkpt lat="42.98629" lon="-0.2449">
        <ele>1435</ele>
        <time>2019-09-28T08:52:24Z</time>
      </trkpt>
      <trkpt lat="42.98628" lon="-0.24481">
        <ele>1435</ele>
        <time>2019-09-28T08:52:25Z</time>
      </trkpt>
      <trkpt lat="42.98626" lon="-0.24462">
        <ele>1434.5999755859</ele>
        <time>2019-09-28T08:52:27Z</time>
      </trkpt>
      <trkpt lat="42.98625" lon="-0.24453">
        <ele>1434</ele>
        <time>2019-09-28T08:52:28Z</time>
      </trkpt>
      <trkpt lat="42.98624" lon="-0.24443">
        <ele>1433.5999755859</ele>
        <time>2019-09-28T08:52:29Z</time>
      </trkpt>
      <trkpt lat="42.98623" lon="-0.24434">
        <ele>1433.1999511719</ele>
        <time>2019-09-28T08:52:30Z</time>
      </trkpt>
      <trkpt lat="42.98623" lon="-0.24424">
        <ele>1432.8000488281</ele>
        <time>2019-09-28T08:52:31Z</time>
      </trkpt>
      <trkpt lat="42.98622" lon="-0.24406">
        <ele>1432.8000488281</ele>
        <time>2019-09-28T08:52:33Z</time>
      </trkpt>
      <trkpt lat="42.98621" lon="-0.24382">
        <ele>1432.8000488281</ele>
        <time>2019-09-28T08:52:36Z</time>
      </trkpt>
      <trkpt lat="42.98621" lon="-0.24375">
        <ele>1432.8000488281</ele>
        <time>2019-09-28T08:52:37Z</time>
      </trkpt>
      <trkpt lat="42.98622" lon="-0.24358">
        <ele>1432.8000488281</ele>
        <time>2019-09-28T08:52:40Z</time>
      </trkpt>
      <trkpt lat="42.9862" lon="-0.24348">
        <ele>1432.8000488281</ele>
        <time>2019-09-28T08:52:42Z</time>
      </trkpt>
      <trkpt lat="42.98621" lon="-0.24338">
        <ele>1432.8000488281</ele>
        <time>2019-09-28T08:52:44Z</time>
      </trkpt>
      <trkpt lat="42.98621" lon="-0.24317">
        <ele>1432.8000488281</ele>
        <time>2019-09-28T08:52:49Z</time>
      </trkpt>
      <trkpt lat="42.98621" lon="-0.24313">
        <ele>1433.1999511719</ele>
        <time>2019-09-28T08:52:50Z</time>
      </trkpt>
      <trkpt lat="42.98621" lon="-0.24309">
        <ele>1433.5999755859</ele>
        <time>2019-09-28T08:52:51Z</time>
      </trkpt>
      <trkpt lat="42.98621" lon="-0.24306">
        <ele>1434</ele>
        <time>2019-09-28T08:52:52Z</time>
      </trkpt>
      <trkpt lat="42.98621" lon="-0.24303">
        <ele>1434.5999755859</ele>
        <time>2019-09-28T08:52:53Z</time>
      </trkpt>
      <trkpt lat="42.98621" lon="-0.24299">
        <ele>1435</ele>
        <time>2019-09-28T08:52:54Z</time>
      </trkpt>
      <trkpt lat="42.98622" lon="-0.24296">
        <ele>1435</ele>
        <time>2019-09-28T08:52:55Z</time>
      </trkpt>
      <trkpt lat="42.98623" lon="-0.24282">
        <ele>1435.8000488281</ele>
        <time>2019-09-28T08:52:59Z</time>
      </trkpt>
      <trkpt lat="42.98623" lon="-0.24279">
        <ele>1436.1999511719</ele>
        <time>2019-09-28T08:53:00Z</time>
      </trkpt>
      <trkpt lat="42.98622" lon="-0.24276">
        <ele>1436.8000488281</ele>
        <time>2019-09-28T08:53:01Z</time>
      </trkpt>
      <trkpt lat="42.98622" lon="-0.24272">
        <ele>1437.1999511719</ele>
        <time>2019-09-28T08:53:02Z</time>
      </trkpt>
      <trkpt lat="42.98622" lon="-0.2426">
        <ele>1437.1999511719</ele>
        <time>2019-09-28T08:53:06Z</time>
      </trkpt>
      <trkpt lat="42.98621" lon="-0.24257">
        <ele>1437.5999755859</ele>
        <time>2019-09-28T08:53:07Z</time>
      </trkpt>
      <trkpt lat="42.98621" lon="-0.24254">
        <ele>1438</ele>
        <time>2019-09-28T08:53:08Z</time>
      </trkpt>
      <trkpt lat="42.98621" lon="-0.24251">
        <ele>1438.4000244141</ele>
        <time>2019-09-28T08:53:09Z</time>
      </trkpt>
      <trkpt lat="42.98621" lon="-0.24247">
        <ele>1438.8000488281</ele>
        <time>2019-09-28T08:53:10Z</time>
      </trkpt>
      <trkpt lat="42.98622" lon="-0.24244">
        <ele>1439.1999511719</ele>
        <time>2019-09-28T08:53:11Z</time>
      </trkpt>
      <trkpt lat="42.98622" lon="-0.2423">
        <ele>1439.1999511719</ele>
        <time>2019-09-28T08:53:15Z</time>
      </trkpt>
      <trkpt lat="42.98621" lon="-0.24224">
        <ele>1439.5999755859</ele>
        <time>2019-09-28T08:53:17Z</time>
      </trkpt>
      <trkpt lat="42.98621" lon="-0.24221">
        <ele>1440</ele>
        <time>2019-09-28T08:53:18Z</time>
      </trkpt>
      <trkpt lat="42.9862" lon="-0.24218">
        <ele>1440.4000244141</ele>
        <time>2019-09-28T08:53:19Z</time>
      </trkpt>
      <trkpt lat="42.9862" lon="-0.24214">
        <ele>1440.8000488281</ele>
        <time>2019-09-28T08:53:20Z</time>
      </trkpt>
      <trkpt lat="42.98621" lon="-0.2421">
        <ele>1441.1999511719</ele>
        <time>2019-09-28T08:53:21Z</time>
      </trkpt>
      <trkpt lat="42.98623" lon="-0.24196">
        <ele>1441.1999511719</ele>
        <time>2019-09-28T08:53:25Z</time>
      </trkpt>
      <trkpt lat="42.98625" lon="-0.24186">
        <ele>1441.5999755859</ele>
        <time>2019-09-28T08:53:28Z</time>
      </trkpt>
      <trkpt lat="42.98626" lon="-0.24183">
        <ele>1442</ele>
        <time>2019-09-28T08:53:29Z</time>
      </trkpt>
      <trkpt lat="42.98626" lon="-0.2418">
        <ele>1442.4000244141</ele>
        <time>2019-09-28T08:53:30Z</time>
      </trkpt>
      <trkpt lat="42.98627" lon="-0.24177">
        <ele>1442.8000488281</ele>
        <time>2019-09-28T08:53:31Z</time>
      </trkpt>
      <trkpt lat="42.98627" lon="-0.24174">
        <ele>1443.4000244141</ele>
        <time>2019-09-28T08:53:32Z</time>
      </trkpt>
      <trkpt lat="42.98631" lon="-0.24155">
        <ele>1443.4000244141</ele>
        <time>2019-09-28T08:53:39Z</time>
      </trkpt>
      <trkpt lat="42.98632" lon="-0.24152">
        <ele>1443.8000488281</ele>
        <time>2019-09-28T08:53:40Z</time>
      </trkpt>
      <trkpt lat="42.98632" lon="-0.24149">
        <ele>1444.1999511719</ele>
        <time>2019-09-28T08:53:41Z</time>
      </trkpt>
      <trkpt lat="42.98632" lon="-0.24146">
        <ele>1444.5999755859</ele>
        <time>2019-09-28T08:53:42Z</time>
      </trkpt>
      <trkpt lat="42.98632" lon="-0.24143">
        <ele>1445</ele>
        <time>2019-09-28T08:53:43Z</time>
      </trkpt>
      <trkpt lat="42.98632" lon="-0.2414">
        <ele>1445.4000244141</ele>
        <time>2019-09-28T08:53:44Z</time>
      </trkpt>
      <trkpt lat="42.98633" lon="-0.24127">
        <ele>1445.8000488281</ele>
        <time>2019-09-28T08:53:49Z</time>
      </trkpt>
      <trkpt lat="42.98633" lon="-0.24123">
        <ele>1446.1999511719</ele>
        <time>2019-09-28T08:53:50Z</time>
      </trkpt>
      <trkpt lat="42.98634" lon="-0.2412">
        <ele>1446.5999755859</ele>
        <time>2019-09-28T08:53:51Z</time>
      </trkpt>
      <trkpt lat="42.98634" lon="-0.24117">
        <ele>1447</ele>
        <time>2019-09-28T08:53:52Z</time>
      </trkpt>
      <trkpt lat="42.98634" lon="-0.24114">
        <ele>1447.4000244141</ele>
        <time>2019-09-28T08:53:53Z</time>
      </trkpt>
      <trkpt lat="42.98636" lon="-0.24102">
        <ele>1447.4000244141</ele>
        <time>2019-09-28T08:53:57Z</time>
      </trkpt>
      <trkpt lat="42.98637" lon="-0.24093">
        <ele>1447.8000488281</ele>
        <time>2019-09-28T08:54:00Z</time>
      </trkpt>
      <trkpt lat="42.98639" lon="-0.24091">
        <ele>1448.1999511719</ele>
        <time>2019-09-28T08:54:01Z</time>
      </trkpt>
      <trkpt lat="42.98639" lon="-0.24088">
        <ele>1448.5999755859</ele>
        <time>2019-09-28T08:54:02Z</time>
      </trkpt>
      <trkpt lat="42.9864" lon="-0.24086">
        <ele>1449.1999511719</ele>
        <time>2019-09-28T08:54:03Z</time>
      </trkpt>
      <trkpt lat="42.9864" lon="-0.24083">
        <ele>1449.5999755859</ele>
        <time>2019-09-28T08:54:04Z</time>
      </trkpt>
      <trkpt lat="42.98641" lon="-0.2408">
        <ele>1449.5999755859</ele>
        <time>2019-09-28T08:54:05Z</time>
      </trkpt>
      <trkpt lat="42.98646" lon="-0.2406">
        <ele>1449.5999755859</ele>
        <time>2019-09-28T08:54:12Z</time>
      </trkpt>
      <trkpt lat="42.98647" lon="-0.24058">
        <ele>1450.4000244141</ele>
        <time>2019-09-28T08:54:13Z</time>
      </trkpt>
      <trkpt lat="42.98648" lon="-0.24055">
        <ele>1450.8000488281</ele>
        <time>2019-09-28T08:54:14Z</time>
      </trkpt>
      <trkpt lat="42.98649" lon="-0.24052">
        <ele>1451.1999511719</ele>
        <time>2019-09-28T08:54:15Z</time>
      </trkpt>
      <trkpt lat="42.9865" lon="-0.24049">
        <ele>1451.5999755859</ele>
        <time>2019-09-28T08:54:16Z</time>
      </trkpt>
      <trkpt lat="42.98651" lon="-0.24042">
        <ele>1451.5999755859</ele>
        <time>2019-09-28T08:54:19Z</time>
      </trkpt>
      <trkpt lat="42.98653" lon="-0.24029">
        <ele>1452</ele>
        <time>2019-09-28T08:54:24Z</time>
      </trkpt>
      <trkpt lat="42.98654" lon="-0.24026">
        <ele>1452.4000244141</ele>
        <time>2019-09-28T08:54:25Z</time>
      </trkpt>
      <trkpt lat="42.98654" lon="-0.24024">
        <ele>1452.8000488281</ele>
        <time>2019-09-28T08:54:26Z</time>
      </trkpt>
      <trkpt lat="42.98655" lon="-0.24021">
        <ele>1453.1999511719</ele>
        <time>2019-09-28T08:54:27Z</time>
      </trkpt>
      <trkpt lat="42.98656" lon="-0.24019">
        <ele>1453.5999755859</ele>
        <time>2019-09-28T08:54:28Z</time>
      </trkpt>
      <trkpt lat="42.98659" lon="-0.24009">
        <ele>1453.5999755859</ele>
        <time>2019-09-28T08:54:32Z</time>
      </trkpt>
      <trkpt lat="42.9866" lon="-0.23994">
        <ele>1453.5999755859</ele>
        <time>2019-09-28T08:54:37Z</time>
      </trkpt>
      <trkpt lat="42.98661" lon="-0.2399">
        <ele>1454</ele>
        <time>2019-09-28T08:54:39Z</time>
      </trkpt>
      <trkpt lat="42.98661" lon="-0.23987">
        <ele>1454.4000244141</ele>
        <time>2019-09-28T08:54:40Z</time>
      </trkpt>
      <trkpt lat="42.98661" lon="-0.23984">
        <ele>1454.8000488281</ele>
        <time>2019-09-28T08:54:41Z</time>
      </trkpt>
      <trkpt lat="42.98661" lon="-0.23982">
        <ele>1455.1999511719</ele>
        <time>2019-09-28T08:54:42Z</time>
      </trkpt>
      <trkpt lat="42.98662" lon="-0.2398">
        <ele>1455.5999755859</ele>
        <time>2019-09-28T08:54:43Z</time>
      </trkpt>
      <trkpt lat="42.98662" lon="-0.23978">
        <ele>1455.5999755859</ele>
        <time>2019-09-28T08:54:44Z</time>
      </trkpt>
      <trkpt lat="42.98663" lon="-0.23974">
        <ele>1455.5999755859</ele>
        <time>2019-09-28T08:54:46Z</time>
      </trkpt>
      <trkpt lat="42.98663" lon="-0.23968">
        <ele>1455.5999755859</ele>
        <time>2019-09-28T08:54:49Z</time>
      </trkpt>
      <trkpt lat="42.98662" lon="-0.23955">
        <ele>1455.5999755859</ele>
        <time>2019-09-28T08:54:55Z</time>
      </trkpt>
      <trkpt lat="42.98662" lon="-0.23936">
        <ele>1456</ele>
        <time>2019-09-28T08:55:02Z</time>
      </trkpt>
      <trkpt lat="42.98661" lon="-0.23934">
        <ele>1457</ele>
        <time>2019-09-28T08:55:03Z</time>
      </trkpt>
      <trkpt lat="42.98661" lon="-0.23931">
        <ele>1457.4000244141</ele>
        <time>2019-09-28T08:55:04Z</time>
      </trkpt>
      <trkpt lat="42.98661" lon="-0.23929">
        <ele>1457.8000488281</ele>
        <time>2019-09-28T08:55:05Z</time>
      </trkpt>
      <trkpt lat="42.9866" lon="-0.23922">
        <ele>1457.8000488281</ele>
        <time>2019-09-28T08:55:08Z</time>
      </trkpt>
      <trkpt lat="42.98656" lon="-0.23907">
        <ele>1457.8000488281</ele>
        <time>2019-09-28T08:55:14Z</time>
      </trkpt>
      <trkpt lat="42.98647" lon="-0.23891">
        <ele>1457.8000488281</ele>
        <time>2019-09-28T08:55:21Z</time>
      </trkpt>
      <trkpt lat="42.98636" lon="-0.23879">
        <ele>1457.8000488281</ele>
        <time>2019-09-28T08:55:29Z</time>
      </trkpt>
      <trkpt lat="42.98628" lon="-0.23873">
        <ele>1457.8000488281</ele>
        <time>2019-09-28T08:55:35Z</time>
      </trkpt>
      <trkpt lat="42.98627" lon="-0.23872">
        <ele>1458.1999511719</ele>
        <time>2019-09-28T08:55:36Z</time>
      </trkpt>
      <trkpt lat="42.98626" lon="-0.23871">
        <ele>1458.5999755859</ele>
        <time>2019-09-28T08:55:37Z</time>
      </trkpt>
      <trkpt lat="42.98624" lon="-0.23869">
        <ele>1459</ele>
        <time>2019-09-28T08:55:38Z</time>
      </trkpt>
      <trkpt lat="42.98623" lon="-0.23868">
        <ele>1459.4000244141</ele>
        <time>2019-09-28T08:55:39Z</time>
      </trkpt>
      <trkpt lat="42.98621" lon="-0.23866">
        <ele>1459.8000488281</ele>
        <time>2019-09-28T08:55:40Z</time>
      </trkpt>
      <trkpt lat="42.9862" lon="-0.23865">
        <ele>1459.8000488281</ele>
        <time>2019-09-28T08:55:41Z</time>
      </trkpt>
      <trkpt lat="42.98614" lon="-0.23857">
        <ele>1459.8000488281</ele>
        <time>2019-09-28T08:55:46Z</time>
      </trkpt>
      <trkpt lat="42.98601" lon="-0.23846">
        <ele>1459.8000488281</ele>
        <time>2019-09-28T08:55:53Z</time>
      </trkpt>
      <trkpt lat="42.986" lon="-0.23843">
        <ele>1459.8000488281</ele>
        <time>2019-09-28T08:55:54Z</time>
      </trkpt>
      <trkpt lat="42.98596" lon="-0.23837">
        <ele>1459.8000488281</ele>
        <time>2019-09-28T08:55:57Z</time>
      </trkpt>
      <trkpt lat="42.98591" lon="-0.2383">
        <ele>1460.1999511719</ele>
        <time>2019-09-28T08:56:01Z</time>
      </trkpt>
      <trkpt lat="42.9859" lon="-0.23827">
        <ele>1460.5999755859</ele>
        <time>2019-09-28T08:56:02Z</time>
      </trkpt>
      <trkpt lat="42.98589" lon="-0.23825">
        <ele>1461</ele>
        <time>2019-09-28T08:56:03Z</time>
      </trkpt>
      <trkpt lat="42.98588" lon="-0.23823">
        <ele>1461.4000244141</ele>
        <time>2019-09-28T08:56:04Z</time>
      </trkpt>
      <trkpt lat="42.98587" lon="-0.2382">
        <ele>1461.8000488281</ele>
        <time>2019-09-28T08:56:05Z</time>
      </trkpt>
      <trkpt lat="42.98586" lon="-0.23818">
        <ele>1461.8000488281</ele>
        <time>2019-09-28T08:56:06Z</time>
      </trkpt>
      <trkpt lat="42.98583" lon="-0.23809">
        <ele>1461.8000488281</ele>
        <time>2019-09-28T08:56:10Z</time>
      </trkpt>
      <trkpt lat="42.98578" lon="-0.23797">
        <ele>1461.8000488281</ele>
        <time>2019-09-28T08:56:15Z</time>
      </trkpt>
      <trkpt lat="42.98577" lon="-0.23792">
        <ele>1461.8000488281</ele>
        <time>2019-09-28T08:56:17Z</time>
      </trkpt>
      <trkpt lat="42.98576" lon="-0.23784">
        <ele>1461.8000488281</ele>
        <time>2019-09-28T08:56:21Z</time>
      </trkpt>
      <trkpt lat="42.98575" lon="-0.23779">
        <ele>1461.8000488281</ele>
        <time>2019-09-28T08:56:23Z</time>
      </trkpt>
      <trkpt lat="42.98572" lon="-0.2377">
        <ele>1462.1999511719</ele>
        <time>2019-09-28T08:56:27Z</time>
      </trkpt>
      <trkpt lat="42.98572" lon="-0.23768">
        <ele>1462.5999755859</ele>
        <time>2019-09-28T08:56:28Z</time>
      </trkpt>
      <trkpt lat="42.98571" lon="-0.23766">
        <ele>1463.1999511719</ele>
        <time>2019-09-28T08:56:29Z</time>
      </trkpt>
      <trkpt lat="42.98572" lon="-0.23764">
        <ele>1463.5999755859</ele>
        <time>2019-09-28T08:56:30Z</time>
      </trkpt>
      <trkpt lat="42.98571" lon="-0.23762">
        <ele>1464</ele>
        <time>2019-09-28T08:56:31Z</time>
      </trkpt>
      <trkpt lat="42.98567" lon="-0.23747">
        <ele>1464</ele>
        <time>2019-09-28T08:56:38Z</time>
      </trkpt>
      <trkpt lat="42.98561" lon="-0.23732">
        <ele>1464</ele>
        <time>2019-09-28T08:56:45Z</time>
      </trkpt>
      <trkpt lat="42.98559" lon="-0.23723">
        <ele>1464.4000244141</ele>
        <time>2019-09-28T08:56:49Z</time>
      </trkpt>
      <trkpt lat="42.98559" lon="-0.23721">
        <ele>1464.8000488281</ele>
        <time>2019-09-28T08:56:50Z</time>
      </trkpt>
      <trkpt lat="42.98559" lon="-0.23718">
        <ele>1465.1999511719</ele>
        <time>2019-09-28T08:56:51Z</time>
      </trkpt>
      <trkpt lat="42.98559" lon="-0.23716">
        <ele>1465.5999755859</ele>
        <time>2019-09-28T08:56:52Z</time>
      </trkpt>
      <trkpt lat="42.98558" lon="-0.23715">
        <ele>1466</ele>
        <time>2019-09-28T08:56:53Z</time>
      </trkpt>
      <trkpt lat="42.98557" lon="-0.23705">
        <ele>1466</ele>
        <time>2019-09-28T08:56:58Z</time>
      </trkpt>
      <trkpt lat="42.98556" lon="-0.23693">
        <ele>1466.4000244141</ele>
        <time>2019-09-28T08:57:04Z</time>
      </trkpt>
      <trkpt lat="42.98555" lon="-0.23691">
        <ele>1466.8000488281</ele>
        <time>2019-09-28T08:57:05Z</time>
      </trkpt>
      <trkpt lat="42.98555" lon="-0.23688">
        <ele>1467.8000488281</ele>
        <time>2019-09-28T08:57:06Z</time>
      </trkpt>
      <trkpt lat="42.98555" lon="-0.23686">
        <ele>1468.1999511719</ele>
        <time>2019-09-28T08:57:07Z</time>
      </trkpt>
      <trkpt lat="42.98554" lon="-0.23679">
        <ele>1468.1999511719</ele>
        <time>2019-09-28T08:57:10Z</time>
      </trkpt>
      <trkpt lat="42.98555" lon="-0.23677">
        <ele>1468.1999511719</ele>
        <time>2019-09-28T08:57:11Z</time>
      </trkpt>
      <trkpt lat="42.98555" lon="-0.23671">
        <ele>1468.5999755859</ele>
        <time>2019-09-28T08:57:14Z</time>
      </trkpt>
      <trkpt lat="42.98554" lon="-0.23669">
        <ele>1469</ele>
        <time>2019-09-28T08:57:15Z</time>
      </trkpt>
      <trkpt lat="42.98554" lon="-0.23667">
        <ele>1469.4000244141</ele>
        <time>2019-09-28T08:57:16Z</time>
      </trkpt>
      <trkpt lat="42.98554" lon="-0.23664">
        <ele>1469.8000488281</ele>
        <time>2019-09-28T08:57:17Z</time>
      </trkpt>
      <trkpt lat="42.98555" lon="-0.23662">
        <ele>1470.1999511719</ele>
        <time>2019-09-28T08:57:18Z</time>
      </trkpt>
      <trkpt lat="42.98556" lon="-0.23645">
        <ele>1470.1999511719</ele>
        <time>2019-09-28T08:57:24Z</time>
      </trkpt>
      <trkpt lat="42.98555" lon="-0.23642">
        <ele>1470.5999755859</ele>
        <time>2019-09-28T08:57:25Z</time>
      </trkpt>
      <trkpt lat="42.98555" lon="-0.23639">
        <ele>1471</ele>
        <time>2019-09-28T08:57:26Z</time>
      </trkpt>
      <trkpt lat="42.98554" lon="-0.23637">
        <ele>1471.4000244141</ele>
        <time>2019-09-28T08:57:27Z</time>
      </trkpt>
      <trkpt lat="42.98554" lon="-0.23635">
        <ele>1472</ele>
        <time>2019-09-28T08:57:28Z</time>
      </trkpt>
      <trkpt lat="42.98553" lon="-0.23632">
        <ele>1472.4000244141</ele>
        <time>2019-09-28T08:57:29Z</time>
      </trkpt>
      <trkpt lat="42.98552" lon="-0.23629">
        <ele>1472.4000244141</ele>
        <time>2019-09-28T08:57:30Z</time>
      </trkpt>
      <trkpt lat="42.98547" lon="-0.2361">
        <ele>1472.4000244141</ele>
        <time>2019-09-28T08:57:37Z</time>
      </trkpt>
      <trkpt lat="42.98547" lon="-0.23607">
        <ele>1472.8000488281</ele>
        <time>2019-09-28T08:57:38Z</time>
      </trkpt>
      <trkpt lat="42.98547" lon="-0.23604">
        <ele>1473.1999511719</ele>
        <time>2019-09-28T08:57:39Z</time>
      </trkpt>
      <trkpt lat="42.98548" lon="-0.23601">
        <ele>1473.5999755859</ele>
        <time>2019-09-28T08:57:40Z</time>
      </trkpt>
      <trkpt lat="42.98549" lon="-0.23598">
        <ele>1474</ele>
        <time>2019-09-28T08:57:41Z</time>
      </trkpt>
      <trkpt lat="42.98549" lon="-0.23596">
        <ele>1474.4000244141</ele>
        <time>2019-09-28T08:57:42Z</time>
      </trkpt>
      <trkpt lat="42.98549" lon="-0.23593">
        <ele>1474.4000244141</ele>
        <time>2019-09-28T08:57:43Z</time>
      </trkpt>
      <trkpt lat="42.9855" lon="-0.23577">
        <ele>1474.4000244141</ele>
        <time>2019-09-28T08:57:49Z</time>
      </trkpt>
      <trkpt lat="42.9855" lon="-0.23572">
        <ele>1474.8000488281</ele>
        <time>2019-09-28T08:57:51Z</time>
      </trkpt>
      <trkpt lat="42.9855" lon="-0.23569">
        <ele>1475.1999511719</ele>
        <time>2019-09-28T08:57:52Z</time>
      </trkpt>
      <trkpt lat="42.9855" lon="-0.23567">
        <ele>1475.5999755859</ele>
        <time>2019-09-28T08:57:53Z</time>
      </trkpt>
      <trkpt lat="42.9855" lon="-0.23564">
        <ele>1476.4000244141</ele>
        <time>2019-09-28T08:57:54Z</time>
      </trkpt>
      <trkpt lat="42.98549" lon="-0.23556">
        <ele>1476.4000244141</ele>
        <time>2019-09-28T08:57:57Z</time>
      </trkpt>
      <trkpt lat="42.98548" lon="-0.23534">
        <ele>1476.8000488281</ele>
        <time>2019-09-28T08:58:04Z</time>
      </trkpt>
      <trkpt lat="42.98548" lon="-0.23531">
        <ele>1477.4000244141</ele>
        <time>2019-09-28T08:58:05Z</time>
      </trkpt>
      <trkpt lat="42.98548" lon="-0.23528">
        <ele>1477.8000488281</ele>
        <time>2019-09-28T08:58:06Z</time>
      </trkpt>
      <trkpt lat="42.98548" lon="-0.23524">
        <ele>1478.1999511719</ele>
        <time>2019-09-28T08:58:07Z</time>
      </trkpt>
      <trkpt lat="42.98549" lon="-0.23521">
        <ele>1478.5999755859</ele>
        <time>2019-09-28T08:58:08Z</time>
      </trkpt>
      <trkpt lat="42.98551" lon="-0.23515">
        <ele>1478.5999755859</ele>
        <time>2019-09-28T08:58:10Z</time>
      </trkpt>
      <trkpt lat="42.9856" lon="-0.23501">
        <ele>1478.5999755859</ele>
        <time>2019-09-28T08:58:16Z</time>
      </trkpt>
      <trkpt lat="42.98566" lon="-0.23492">
        <ele>1479</ele>
        <time>2019-09-28T08:58:20Z</time>
      </trkpt>
      <trkpt lat="42.98567" lon="-0.23489">
        <ele>1479.4000244141</ele>
        <time>2019-09-28T08:58:21Z</time>
      </trkpt>
      <trkpt lat="42.98567" lon="-0.23486">
        <ele>1479.8000488281</ele>
        <time>2019-09-28T08:58:22Z</time>
      </trkpt>
      <trkpt lat="42.98568" lon="-0.23484">
        <ele>1480.1999511719</ele>
        <time>2019-09-28T08:58:23Z</time>
      </trkpt>
      <trkpt lat="42.98569" lon="-0.23481">
        <ele>1480.5999755859</ele>
        <time>2019-09-28T08:58:24Z</time>
      </trkpt>
      <trkpt lat="42.98574" lon="-0.23466">
        <ele>1480.5999755859</ele>
        <time>2019-09-28T08:58:29Z</time>
      </trkpt>
      <trkpt lat="42.98575" lon="-0.23463">
        <ele>1481</ele>
        <time>2019-09-28T08:58:30Z</time>
      </trkpt>
      <trkpt lat="42.98575" lon="-0.23459">
        <ele>1481.5999755859</ele>
        <time>2019-09-28T08:58:31Z</time>
      </trkpt>
      <trkpt lat="42.98577" lon="-0.23456">
        <ele>1482</ele>
        <time>2019-09-28T08:58:32Z</time>
      </trkpt>
      <trkpt lat="42.98578" lon="-0.23453">
        <ele>1482.4000244141</ele>
        <time>2019-09-28T08:58:33Z</time>
      </trkpt>
      <trkpt lat="42.98579" lon="-0.2345">
        <ele>1482.8000488281</ele>
        <time>2019-09-28T08:58:34Z</time>
      </trkpt>
      <trkpt lat="42.98581" lon="-0.23443">
        <ele>1482.8000488281</ele>
        <time>2019-09-28T08:58:36Z</time>
      </trkpt>
      <trkpt lat="42.98585" lon="-0.23421">
        <ele>1483.1999511719</ele>
        <time>2019-09-28T08:58:43Z</time>
      </trkpt>
      <trkpt lat="42.98585" lon="-0.23418">
        <ele>1484</ele>
        <time>2019-09-28T08:58:44Z</time>
      </trkpt>
      <trkpt lat="42.98586" lon="-0.23414">
        <ele>1484.4000244141</ele>
        <time>2019-09-28T08:58:45Z</time>
      </trkpt>
      <trkpt lat="42.98586" lon="-0.23411">
        <ele>1484.8000488281</ele>
        <time>2019-09-28T08:58:46Z</time>
      </trkpt>
      <trkpt lat="42.98586" lon="-0.23398">
        <ele>1484.8000488281</ele>
        <time>2019-09-28T08:58:50Z</time>
      </trkpt>
      <trkpt lat="42.98586" lon="-0.23392">
        <ele>1485.1999511719</ele>
        <time>2019-09-28T08:58:52Z</time>
      </trkpt>
      <trkpt lat="42.98586" lon="-0.23388">
        <ele>1485.5999755859</ele>
        <time>2019-09-28T08:58:53Z</time>
      </trkpt>
      <trkpt lat="42.98587" lon="-0.23385">
        <ele>1486.1999511719</ele>
        <time>2019-09-28T08:58:54Z</time>
      </trkpt>
      <trkpt lat="42.98587" lon="-0.23382">
        <ele>1486.5999755859</ele>
        <time>2019-09-28T08:58:55Z</time>
      </trkpt>
      <trkpt lat="42.98587" lon="-0.23378">
        <ele>1487</ele>
        <time>2019-09-28T08:58:56Z</time>
      </trkpt>
      <trkpt lat="42.98588" lon="-0.23374">
        <ele>1487</ele>
        <time>2019-09-28T08:58:57Z</time>
      </trkpt>
      <trkpt lat="42.98586" lon="-0.23359">
        <ele>1487.4000244141</ele>
        <time>2019-09-28T08:59:02Z</time>
      </trkpt>
      <trkpt lat="42.98586" lon="-0.23356">
        <ele>1487.8000488281</ele>
        <time>2019-09-28T08:59:03Z</time>
      </trkpt>
      <trkpt lat="42.98586" lon="-0.23352">
        <ele>1488.1999511719</ele>
        <time>2019-09-28T08:59:04Z</time>
      </trkpt>
      <trkpt lat="42.98586" lon="-0.23349">
        <ele>1488.5999755859</ele>
        <time>2019-09-28T08:59:05Z</time>
      </trkpt>
      <trkpt lat="42.98585" lon="-0.23346">
        <ele>1489.1999511719</ele>
        <time>2019-09-28T08:59:06Z</time>
      </trkpt>
      <trkpt lat="42.98582" lon="-0.23337">
        <ele>1489.1999511719</ele>
        <time>2019-09-28T08:59:09Z</time>
      </trkpt>
      <trkpt lat="42.98571" lon="-0.2332">
        <ele>1489.1999511719</ele>
        <time>2019-09-28T08:59:16Z</time>
      </trkpt>
      <trkpt lat="42.98566" lon="-0.233">
        <ele>1489.1999511719</ele>
        <time>2019-09-28T08:59:22Z</time>
      </trkpt>
      <trkpt lat="42.98568" lon="-0.23276">
        <ele>1489.1999511719</ele>
        <time>2019-09-28T08:59:28Z</time>
      </trkpt>
      <trkpt lat="42.98572" lon="-0.23247">
        <ele>1489.1999511719</ele>
        <time>2019-09-28T08:59:33Z</time>
      </trkpt>
      <trkpt lat="42.98577" lon="-0.23222">
        <ele>1489.1999511719</ele>
        <time>2019-09-28T08:59:38Z</time>
      </trkpt>
      <trkpt lat="42.9858" lon="-0.23199">
        <ele>1489.1999511719</ele>
        <time>2019-09-28T08:59:43Z</time>
      </trkpt>
      <trkpt lat="42.98582" lon="-0.23174">
        <ele>1489.1999511719</ele>
        <time>2019-09-28T08:59:50Z</time>
      </trkpt>
      <trkpt lat="42.98582" lon="-0.2316">
        <ele>1489.5999755859</ele>
        <time>2019-09-28T08:59:54Z</time>
      </trkpt>
      <trkpt lat="42.98583" lon="-0.23156">
        <ele>1490</ele>
        <time>2019-09-28T08:59:55Z</time>
      </trkpt>
      <trkpt lat="42.98582" lon="-0.23152">
        <ele>1490.4000244141</ele>
        <time>2019-09-28T08:59:56Z</time>
      </trkpt>
      <trkpt lat="42.98582" lon="-0.23148">
        <ele>1490.8000488281</ele>
        <time>2019-09-28T08:59:57Z</time>
      </trkpt>
      <trkpt lat="42.98581" lon="-0.23144">
        <ele>1491.1999511719</ele>
        <time>2019-09-28T08:59:58Z</time>
      </trkpt>
      <trkpt lat="42.9858" lon="-0.23127">
        <ele>1491.5999755859</ele>
        <time>2019-09-28T09:00:03Z</time>
      </trkpt>
      <trkpt lat="42.9858" lon="-0.23124">
        <ele>1492</ele>
        <time>2019-09-28T09:00:04Z</time>
      </trkpt>
      <trkpt lat="42.9858" lon="-0.23121">
        <ele>1492.4000244141</ele>
        <time>2019-09-28T09:00:05Z</time>
      </trkpt>
      <trkpt lat="42.9858" lon="-0.23117">
        <ele>1492.8000488281</ele>
        <time>2019-09-28T09:00:06Z</time>
      </trkpt>
      <trkpt lat="42.98579" lon="-0.23113">
        <ele>1493.1999511719</ele>
        <time>2019-09-28T09:00:07Z</time>
      </trkpt>
      <trkpt lat="42.98578" lon="-0.23106">
        <ele>1493.1999511719</ele>
        <time>2019-09-28T09:00:09Z</time>
      </trkpt>
      <trkpt lat="42.98577" lon="-0.23099">
        <ele>1493.5999755859</ele>
        <time>2019-09-28T09:00:11Z</time>
      </trkpt>
      <trkpt lat="42.98577" lon="-0.23095">
        <ele>1494</ele>
        <time>2019-09-28T09:00:12Z</time>
      </trkpt>
      <trkpt lat="42.98577" lon="-0.23092">
        <ele>1494.4000244141</ele>
        <time>2019-09-28T09:00:13Z</time>
      </trkpt>
      <trkpt lat="42.98575" lon="-0.23089">
        <ele>1495</ele>
        <time>2019-09-28T09:00:14Z</time>
      </trkpt>
      <trkpt lat="42.98575" lon="-0.23086">
        <ele>1495.4000244141</ele>
        <time>2019-09-28T09:00:15Z</time>
      </trkpt>
      <trkpt lat="42.98572" lon="-0.23067">
        <ele>1495.8000488281</ele>
        <time>2019-09-28T09:00:20Z</time>
      </trkpt>
      <trkpt lat="42.9857" lon="-0.23064">
        <ele>1496.1999511719</ele>
        <time>2019-09-28T09:00:21Z</time>
      </trkpt>
      <trkpt lat="42.98569" lon="-0.23061">
        <ele>1496.5999755859</ele>
        <time>2019-09-28T09:00:22Z</time>
      </trkpt>
      <trkpt lat="42.98568" lon="-0.23057">
        <ele>1497.4000244141</ele>
        <time>2019-09-28T09:00:23Z</time>
      </trkpt>
      <trkpt lat="42.98563" lon="-0.23041">
        <ele>1497.4000244141</ele>
        <time>2019-09-28T09:00:28Z</time>
      </trkpt>
      <trkpt lat="42.98562" lon="-0.23038">
        <ele>1497.8000488281</ele>
        <time>2019-09-28T09:00:29Z</time>
      </trkpt>
      <trkpt lat="42.98561" lon="-0.23035">
        <ele>1498.1999511719</ele>
        <time>2019-09-28T09:00:30Z</time>
      </trkpt>
      <trkpt lat="42.9856" lon="-0.23032">
        <ele>1498.5999755859</ele>
        <time>2019-09-28T09:00:31Z</time>
      </trkpt>
      <trkpt lat="42.98558" lon="-0.23029">
        <ele>1499</ele>
        <time>2019-09-28T09:00:32Z</time>
      </trkpt>
      <trkpt lat="42.98557" lon="-0.23026">
        <ele>1499.4000244141</ele>
        <time>2019-09-28T09:00:33Z</time>
      </trkpt>
      <trkpt lat="42.98555" lon="-0.23023">
        <ele>1499.4000244141</ele>
        <time>2019-09-28T09:00:34Z</time>
      </trkpt>
      <trkpt lat="42.98542" lon="-0.23006">
        <ele>1499.8000488281</ele>
        <time>2019-09-28T09:00:41Z</time>
      </trkpt>
      <trkpt lat="42.9854" lon="-0.23004">
        <ele>1500.1999511719</ele>
        <time>2019-09-28T09:00:42Z</time>
      </trkpt>
      <trkpt lat="42.98538" lon="-0.23001">
        <ele>1500.5999755859</ele>
        <time>2019-09-28T09:00:43Z</time>
      </trkpt>
      <trkpt lat="42.98536" lon="-0.22998">
        <ele>1501</ele>
        <time>2019-09-28T09:00:44Z</time>
      </trkpt>
      <trkpt lat="42.98535" lon="-0.22995">
        <ele>1501.4000244141</ele>
        <time>2019-09-28T09:00:45Z</time>
      </trkpt>
      <trkpt lat="42.98532" lon="-0.2299">
        <ele>1501.4000244141</ele>
        <time>2019-09-28T09:00:47Z</time>
      </trkpt>
      <trkpt lat="42.98529" lon="-0.22984">
        <ele>1501.8000488281</ele>
        <time>2019-09-28T09:00:49Z</time>
      </trkpt>
      <trkpt lat="42.98528" lon="-0.22982">
        <ele>1502.1999511719</ele>
        <time>2019-09-28T09:00:50Z</time>
      </trkpt>
      <trkpt lat="42.98527" lon="-0.22979">
        <ele>1502.5999755859</ele>
        <time>2019-09-28T09:00:51Z</time>
      </trkpt>
      <trkpt lat="42.98526" lon="-0.22976">
        <ele>1503.1999511719</ele>
        <time>2019-09-28T09:00:52Z</time>
      </trkpt>
      <trkpt lat="42.98525" lon="-0.22972">
        <ele>1503.5999755859</ele>
        <time>2019-09-28T09:00:53Z</time>
      </trkpt>
      <trkpt lat="42.98523" lon="-0.22959">
        <ele>1504</ele>
        <time>2019-09-28T09:00:57Z</time>
      </trkpt>
      <trkpt lat="42.98522" lon="-0.22956">
        <ele>1504.4000244141</ele>
        <time>2019-09-28T09:00:58Z</time>
      </trkpt>
      <trkpt lat="42.98522" lon="-0.22952">
        <ele>1504.8000488281</ele>
        <time>2019-09-28T09:00:59Z</time>
      </trkpt>
      <trkpt lat="42.98521" lon="-0.22949">
        <ele>1505.1999511719</ele>
        <time>2019-09-28T09:01:00Z</time>
      </trkpt>
      <trkpt lat="42.98521" lon="-0.22946">
        <ele>1505.5999755859</ele>
        <time>2019-09-28T09:01:01Z</time>
      </trkpt>
      <trkpt lat="42.98519" lon="-0.22928">
        <ele>1506</ele>
        <time>2019-09-28T09:01:06Z</time>
      </trkpt>
      <trkpt lat="42.9852" lon="-0.22924">
        <ele>1506.4000244141</ele>
        <time>2019-09-28T09:01:07Z</time>
      </trkpt>
      <trkpt lat="42.9852" lon="-0.22921">
        <ele>1506.8000488281</ele>
        <time>2019-09-28T09:01:08Z</time>
      </trkpt>
      <trkpt lat="42.98521" lon="-0.22918">
        <ele>1507.1999511719</ele>
        <time>2019-09-28T09:01:09Z</time>
      </trkpt>
      <trkpt lat="42.98521" lon="-0.22914">
        <ele>1507.5999755859</ele>
        <time>2019-09-28T09:01:10Z</time>
      </trkpt>
      <trkpt lat="42.98522" lon="-0.2291">
        <ele>1507.5999755859</ele>
        <time>2019-09-28T09:01:11Z</time>
      </trkpt>
      <trkpt lat="42.98527" lon="-0.22889">
        <ele>1507.5999755859</ele>
        <time>2019-09-28T09:01:17Z</time>
      </trkpt>
      <trkpt lat="42.98528" lon="-0.22885">
        <ele>1508</ele>
        <time>2019-09-28T09:01:18Z</time>
      </trkpt>
      <trkpt lat="42.98529" lon="-0.22881">
        <ele>1508.4000244141</ele>
        <time>2019-09-28T09:01:19Z</time>
      </trkpt>
      <trkpt lat="42.98531" lon="-0.22878">
        <ele>1508.8000488281</ele>
        <time>2019-09-28T09:01:20Z</time>
      </trkpt>
      <trkpt lat="42.98533" lon="-0.22876">
        <ele>1509.1999511719</ele>
        <time>2019-09-28T09:01:21Z</time>
      </trkpt>
      <trkpt lat="42.98534" lon="-0.22874">
        <ele>1509.5999755859</ele>
        <time>2019-09-28T09:01:22Z</time>
      </trkpt>
      <trkpt lat="42.98536" lon="-0.22872">
        <ele>1509.5999755859</ele>
        <time>2019-09-28T09:01:23Z</time>
      </trkpt>
      <trkpt lat="42.98553" lon="-0.22857">
        <ele>1509.5999755859</ele>
        <time>2019-09-28T09:01:32Z</time>
      </trkpt>
      <trkpt lat="42.98575" lon="-0.22842">
        <ele>1509.5999755859</ele>
        <time>2019-09-28T09:01:40Z</time>
      </trkpt>
      <trkpt lat="42.98599" lon="-0.22832">
        <ele>1509.5999755859</ele>
        <time>2019-09-28T09:01:48Z</time>
      </trkpt>
      <trkpt lat="42.98608" lon="-0.2283">
        <ele>1510</ele>
        <time>2019-09-28T09:01:51Z</time>
      </trkpt>
      <trkpt lat="42.98611" lon="-0.22829">
        <ele>1510.4000244141</ele>
        <time>2019-09-28T09:01:52Z</time>
      </trkpt>
      <trkpt lat="42.98614" lon="-0.22828">
        <ele>1510.8000488281</ele>
        <time>2019-09-28T09:01:53Z</time>
      </trkpt>
      <trkpt lat="42.98617" lon="-0.22827">
        <ele>1511.1999511719</ele>
        <time>2019-09-28T09:01:54Z</time>
      </trkpt>
      <trkpt lat="42.9862" lon="-0.22826">
        <ele>1511.5999755859</ele>
        <time>2019-09-28T09:01:55Z</time>
      </trkpt>
      <trkpt lat="42.98639" lon="-0.22824">
        <ele>1511.5999755859</ele>
        <time>2019-09-28T09:02:01Z</time>
      </trkpt>
      <trkpt lat="42.98651" lon="-0.22824">
        <ele>1512.1999511719</ele>
        <time>2019-09-28T09:02:05Z</time>
      </trkpt>
      <trkpt lat="42.98654" lon="-0.22823">
        <ele>1512.5999755859</ele>
        <time>2019-09-28T09:02:06Z</time>
      </trkpt>
      <trkpt lat="42.98657" lon="-0.22824">
        <ele>1513</ele>
        <time>2019-09-28T09:02:07Z</time>
      </trkpt>
      <trkpt lat="42.9866" lon="-0.22824">
        <ele>1513.4000244141</ele>
        <time>2019-09-28T09:02:08Z</time>
      </trkpt>
      <trkpt lat="42.98663" lon="-0.22824">
        <ele>1513.8000488281</ele>
        <time>2019-09-28T09:02:09Z</time>
      </trkpt>
      <trkpt lat="42.98686" lon="-0.22819">
        <ele>1513.8000488281</ele>
        <time>2019-09-28T09:02:16Z</time>
      </trkpt>
      <trkpt lat="42.987" lon="-0.22803">
        <ele>1513.8000488281</ele>
        <time>2019-09-28T09:02:21Z</time>
      </trkpt>
      <trkpt lat="42.98708" lon="-0.22779">
        <ele>1513.8000488281</ele>
        <time>2019-09-28T09:02:26Z</time>
      </trkpt>
      <trkpt lat="42.98711" lon="-0.22775">
        <ele>1513.8000488281</ele>
        <time>2019-09-28T09:02:27Z</time>
      </trkpt>
      <trkpt lat="42.98721" lon="-0.22766">
        <ele>1513.8000488281</ele>
        <time>2019-09-28T09:02:30Z</time>
      </trkpt>
      <trkpt lat="42.98725" lon="-0.22763">
        <ele>1513.8000488281</ele>
        <time>2019-09-28T09:02:31Z</time>
      </trkpt>
      <trkpt lat="42.98733" lon="-0.22758">
        <ele>1513.8000488281</ele>
        <time>2019-09-28T09:02:33Z</time>
      </trkpt>
      <trkpt lat="42.98742" lon="-0.22754">
        <ele>1513.8000488281</ele>
        <time>2019-09-28T09:02:35Z</time>
      </trkpt>
      <trkpt lat="42.98746" lon="-0.22752">
        <ele>1513.8000488281</ele>
        <time>2019-09-28T09:02:36Z</time>
      </trkpt>
      <trkpt lat="42.98754" lon="-0.22751">
        <ele>1513.8000488281</ele>
        <time>2019-09-28T09:02:38Z</time>
      </trkpt>
      <trkpt lat="42.98765" lon="-0.22748">
        <ele>1513.8000488281</ele>
        <time>2019-09-28T09:02:41Z</time>
      </trkpt>
      <trkpt lat="42.9878" lon="-0.22742">
        <ele>1513.8000488281</ele>
        <time>2019-09-28T09:02:45Z</time>
      </trkpt>
      <trkpt lat="42.98784" lon="-0.2274">
        <ele>1513.8000488281</ele>
        <time>2019-09-28T09:02:46Z</time>
      </trkpt>
      <trkpt lat="42.98796" lon="-0.22734">
        <ele>1513.8000488281</ele>
        <time>2019-09-28T09:02:49Z</time>
      </trkpt>
      <trkpt lat="42.98804" lon="-0.22728">
        <ele>1513.8000488281</ele>
        <time>2019-09-28T09:02:51Z</time>
      </trkpt>
      <trkpt lat="42.98829" lon="-0.22714">
        <ele>1513.8000488281</ele>
        <time>2019-09-28T09:02:57Z</time>
      </trkpt>
      <trkpt lat="42.98834" lon="-0.22711">
        <ele>1513.8000488281</ele>
        <time>2019-09-28T09:02:58Z</time>
      </trkpt>
      <trkpt lat="42.98842" lon="-0.22706">
        <ele>1513.8000488281</ele>
        <time>2019-09-28T09:03:00Z</time>
      </trkpt>
      <trkpt lat="42.9885" lon="-0.22703">
        <ele>1513.8000488281</ele>
        <time>2019-09-28T09:03:02Z</time>
      </trkpt>
      <trkpt lat="42.98859" lon="-0.227">
        <ele>1513.8000488281</ele>
        <time>2019-09-28T09:03:04Z</time>
      </trkpt>
      <trkpt lat="42.98869" lon="-0.22698">
        <ele>1513.4000244141</ele>
        <time>2019-09-28T09:03:06Z</time>
      </trkpt>
      <trkpt lat="42.98873" lon="-0.22697">
        <ele>1513</ele>
        <time>2019-09-28T09:03:07Z</time>
      </trkpt>
      <trkpt lat="42.98878" lon="-0.22695">
        <ele>1512.5999755859</ele>
        <time>2019-09-28T09:03:08Z</time>
      </trkpt>
      <trkpt lat="42.98883" lon="-0.22694">
        <ele>1512</ele>
        <time>2019-09-28T09:03:09Z</time>
      </trkpt>
      <trkpt lat="42.98888" lon="-0.22692">
        <ele>1511.5999755859</ele>
        <time>2019-09-28T09:03:10Z</time>
      </trkpt>
      <trkpt lat="42.98904" lon="-0.22687">
        <ele>1511.5999755859</ele>
        <time>2019-09-28T09:03:13Z</time>
      </trkpt>
      <trkpt lat="42.98914" lon="-0.22682">
        <ele>1511.5999755859</ele>
        <time>2019-09-28T09:03:15Z</time>
      </trkpt>
      <trkpt lat="42.9892" lon="-0.2268">
        <ele>1511.1999511719</ele>
        <time>2019-09-28T09:03:16Z</time>
      </trkpt>
      <trkpt lat="42.98925" lon="-0.22678">
        <ele>1510.8000488281</ele>
        <time>2019-09-28T09:03:17Z</time>
      </trkpt>
      <trkpt lat="42.98929" lon="-0.22675">
        <ele>1510.4000244141</ele>
        <time>2019-09-28T09:03:18Z</time>
      </trkpt>
      <trkpt lat="42.98934" lon="-0.22672">
        <ele>1510</ele>
        <time>2019-09-28T09:03:19Z</time>
      </trkpt>
      <trkpt lat="42.98939" lon="-0.22671">
        <ele>1509.5999755859</ele>
        <time>2019-09-28T09:03:20Z</time>
      </trkpt>
      <trkpt lat="42.98949" lon="-0.2267">
        <ele>1509.5999755859</ele>
        <time>2019-09-28T09:03:22Z</time>
      </trkpt>
      <trkpt lat="42.98959" lon="-0.22672">
        <ele>1509.5999755859</ele>
        <time>2019-09-28T09:03:24Z</time>
      </trkpt>
      <trkpt lat="42.98979" lon="-0.22679">
        <ele>1509.5999755859</ele>
        <time>2019-09-28T09:03:28Z</time>
      </trkpt>
      <trkpt lat="42.98984" lon="-0.22681">
        <ele>1509.5999755859</ele>
        <time>2019-09-28T09:03:29Z</time>
      </trkpt>
      <trkpt lat="42.99" lon="-0.22693">
        <ele>1509.5999755859</ele>
        <time>2019-09-28T09:03:32Z</time>
      </trkpt>
      <trkpt lat="42.99005" lon="-0.22697">
        <ele>1509.1999511719</ele>
        <time>2019-09-28T09:03:33Z</time>
      </trkpt>
      <trkpt lat="42.9901" lon="-0.227">
        <ele>1508.8000488281</ele>
        <time>2019-09-28T09:03:34Z</time>
      </trkpt>
      <trkpt lat="42.99015" lon="-0.22704">
        <ele>1508.4000244141</ele>
        <time>2019-09-28T09:03:35Z</time>
      </trkpt>
      <trkpt lat="42.99022" lon="-0.22708">
        <ele>1508</ele>
        <time>2019-09-28T09:03:36Z</time>
      </trkpt>
      <trkpt lat="42.99029" lon="-0.2271">
        <ele>1507.5999755859</ele>
        <time>2019-09-28T09:03:37Z</time>
      </trkpt>
      <trkpt lat="42.99042" lon="-0.22714">
        <ele>1507</ele>
        <time>2019-09-28T09:03:39Z</time>
      </trkpt>
      <trkpt lat="42.99048" lon="-0.22714">
        <ele>1506.1999511719</ele>
        <time>2019-09-28T09:03:40Z</time>
      </trkpt>
      <trkpt lat="42.99055" lon="-0.22714">
        <ele>1505.5999755859</ele>
        <time>2019-09-28T09:03:41Z</time>
      </trkpt>
      <trkpt lat="42.99062" lon="-0.22711">
        <ele>1505.1999511719</ele>
        <time>2019-09-28T09:03:42Z</time>
      </trkpt>
      <trkpt lat="42.99086" lon="-0.22695">
        <ele>1505.1999511719</ele>
        <time>2019-09-28T09:03:46Z</time>
      </trkpt>
      <trkpt lat="42.99114" lon="-0.22667">
        <ele>1505.1999511719</ele>
        <time>2019-09-28T09:03:52Z</time>
      </trkpt>
      <trkpt lat="42.99131" lon="-0.22651">
        <ele>1505.1999511719</ele>
        <time>2019-09-28T09:03:57Z</time>
      </trkpt>
      <trkpt lat="42.99142" lon="-0.22638">
        <ele>1505.1999511719</ele>
        <time>2019-09-28T09:04:02Z</time>
      </trkpt>
      <trkpt lat="42.99146" lon="-0.22635">
        <ele>1505.5999755859</ele>
        <time>2019-09-28T09:04:04Z</time>
      </trkpt>
      <trkpt lat="42.99147" lon="-0.22632">
        <ele>1506.4000244141</ele>
        <time>2019-09-28T09:04:05Z</time>
      </trkpt>
      <trkpt lat="42.99145" lon="-0.22629">
        <ele>1506.8000488281</ele>
        <time>2019-09-28T09:04:06Z</time>
      </trkpt>
      <trkpt lat="42.99145" lon="-0.22626">
        <ele>1507.4000244141</ele>
        <time>2019-09-28T09:04:07Z</time>
      </trkpt>
      <trkpt lat="42.99145" lon="-0.22621">
        <ele>1507.4000244141</ele>
        <time>2019-09-28T09:04:09Z</time>
      </trkpt>
      <trkpt lat="42.99147" lon="-0.22612">
        <ele>1507.4000244141</ele>
        <time>2019-09-28T09:04:12Z</time>
      </trkpt>
      <trkpt lat="42.99148" lon="-0.22609">
        <ele>1507.4000244141</ele>
        <time>2019-09-28T09:04:13Z</time>
      </trkpt>
      <trkpt lat="42.99148" lon="-0.22586">
        <ele>1507.4000244141</ele>
        <time>2019-09-28T09:04:19Z</time>
      </trkpt>
      <trkpt lat="42.9914" lon="-0.22565">
        <ele>1507.4000244141</ele>
        <time>2019-09-28T09:04:25Z</time>
      </trkpt>
      <trkpt lat="42.99126" lon="-0.22543">
        <ele>1507.4000244141</ele>
        <time>2019-09-28T09:04:32Z</time>
      </trkpt>
      <trkpt lat="42.99112" lon="-0.22523">
        <ele>1507.4000244141</ele>
        <time>2019-09-28T09:04:39Z</time>
      </trkpt>
      <trkpt lat="42.99103" lon="-0.22503">
        <ele>1507.4000244141</ele>
        <time>2019-09-28T09:04:44Z</time>
      </trkpt>
      <trkpt lat="42.99097" lon="-0.22474">
        <ele>1507.4000244141</ele>
        <time>2019-09-28T09:04:50Z</time>
      </trkpt>
      <trkpt lat="42.99091" lon="-0.22448">
        <ele>1507.8000488281</ele>
        <time>2019-09-28T09:04:56Z</time>
      </trkpt>
      <trkpt lat="42.9909" lon="-0.22444">
        <ele>1508.1999511719</ele>
        <time>2019-09-28T09:04:57Z</time>
      </trkpt>
      <trkpt lat="42.99088" lon="-0.22441">
        <ele>1508.5999755859</ele>
        <time>2019-09-28T09:04:58Z</time>
      </trkpt>
      <trkpt lat="42.99087" lon="-0.22438">
        <ele>1509</ele>
        <time>2019-09-28T09:04:59Z</time>
      </trkpt>
      <trkpt lat="42.99085" lon="-0.22434">
        <ele>1509.4000244141</ele>
        <time>2019-09-28T09:05:00Z</time>
      </trkpt>
      <trkpt lat="42.99082" lon="-0.22428">
        <ele>1509.8000488281</ele>
        <time>2019-09-28T09:05:02Z</time>
      </trkpt>
      <trkpt lat="42.99081" lon="-0.22425">
        <ele>1510.1999511719</ele>
        <time>2019-09-28T09:05:03Z</time>
      </trkpt>
      <trkpt lat="42.99079" lon="-0.22421">
        <ele>1510.5999755859</ele>
        <time>2019-09-28T09:05:04Z</time>
      </trkpt>
      <trkpt lat="42.99077" lon="-0.22418">
        <ele>1511</ele>
        <time>2019-09-28T09:05:05Z</time>
      </trkpt>
      <trkpt lat="42.99076" lon="-0.22414">
        <ele>1511.4000244141</ele>
        <time>2019-09-28T09:05:06Z</time>
      </trkpt>
      <trkpt lat="42.99073" lon="-0.22406">
        <ele>1511.4000244141</ele>
        <time>2019-09-28T09:05:08Z</time>
      </trkpt>
      <trkpt lat="42.99062" lon="-0.2237">
        <ele>1511.4000244141</ele>
        <time>2019-09-28T09:05:16Z</time>
      </trkpt>
      <trkpt lat="42.99052" lon="-0.22346">
        <ele>1511.4000244141</ele>
        <time>2019-09-28T09:05:22Z</time>
      </trkpt>
      <trkpt lat="42.99044" lon="-0.22324">
        <ele>1511.4000244141</ele>
        <time>2019-09-28T09:05:28Z</time>
      </trkpt>
      <trkpt lat="42.99034" lon="-0.22305">
        <ele>1511.4000244141</ele>
        <time>2019-09-28T09:05:33Z</time>
      </trkpt>
      <trkpt lat="42.99022" lon="-0.22289">
        <ele>1511.4000244141</ele>
        <time>2019-09-28T09:05:37Z</time>
      </trkpt>
      <trkpt lat="42.99003" lon="-0.22271">
        <ele>1511.4000244141</ele>
        <time>2019-09-28T09:05:43Z</time>
      </trkpt>
      <trkpt lat="42.98992" lon="-0.22263">
        <ele>1511.4000244141</ele>
        <time>2019-09-28T09:05:46Z</time>
      </trkpt>
      <trkpt lat="42.98986" lon="-0.22255">
        <ele>1511.4000244141</ele>
        <time>2019-09-28T09:05:48Z</time>
      </trkpt>
      <trkpt lat="42.98969" lon="-0.22231">
        <ele>1511.4000244141</ele>
        <time>2019-09-28T09:05:54Z</time>
      </trkpt>
      <trkpt lat="42.98966" lon="-0.22227">
        <ele>1511.4000244141</ele>
        <time>2019-09-28T09:05:55Z</time>
      </trkpt>
      <trkpt lat="42.98953" lon="-0.22213">
        <ele>1511.4000244141</ele>
        <time>2019-09-28T09:05:59Z</time>
      </trkpt>
      <trkpt lat="42.98939" lon="-0.22199">
        <ele>1511.4000244141</ele>
        <time>2019-09-28T09:06:04Z</time>
      </trkpt>
      <trkpt lat="42.98923" lon="-0.22186">
        <ele>1511.4000244141</ele>
        <time>2019-09-28T09:06:09Z</time>
      </trkpt>
      <trkpt lat="42.98914" lon="-0.22184">
        <ele>1511</ele>
        <time>2019-09-28T09:06:11Z</time>
      </trkpt>
      <trkpt lat="42.98909" lon="-0.22183">
        <ele>1510.5999755859</ele>
        <time>2019-09-28T09:06:12Z</time>
      </trkpt>
      <trkpt lat="42.98905" lon="-0.22182">
        <ele>1510.1999511719</ele>
        <time>2019-09-28T09:06:13Z</time>
      </trkpt>
      <trkpt lat="42.98901" lon="-0.22181">
        <ele>1509.8000488281</ele>
        <time>2019-09-28T09:06:14Z</time>
      </trkpt>
      <trkpt lat="42.98898" lon="-0.22182">
        <ele>1509.4000244141</ele>
        <time>2019-09-28T09:06:15Z</time>
      </trkpt>
      <trkpt lat="42.98892" lon="-0.22184">
        <ele>1509.4000244141</ele>
        <time>2019-09-28T09:06:18Z</time>
      </trkpt>
      <trkpt lat="42.98891" lon="-0.22184">
        <ele>1509.4000244141</ele>
        <time>2019-09-28T09:06:22Z</time>
      </trkpt>
      <trkpt lat="42.98891" lon="-0.22184">
        <ele>1509.4000244141</ele>
        <time>2019-09-28T09:06:31Z</time>
      </trkpt>
      <trkpt lat="42.98891" lon="-0.22184">
        <ele>1509.4000244141</ele>
        <time>2019-09-28T09:06:40Z</time>
      </trkpt>
      <trkpt lat="42.98892" lon="-0.22185">
        <ele>1509.4000244141</ele>
        <time>2019-09-28T09:06:47Z</time>
      </trkpt>
      <trkpt lat="42.98892" lon="-0.22185">
        <ele>1509.4000244141</ele>
        <time>2019-09-28T09:07:01Z</time>
      </trkpt>
      <trkpt lat="42.98892" lon="-0.22185">
        <ele>1509.4000244141</ele>
        <time>2019-09-28T09:07:16Z</time>
      </trkpt>
      <trkpt lat="42.98892" lon="-0.22185">
        <ele>1509.4000244141</ele>
        <time>2019-09-28T09:07:31Z</time>
      </trkpt>
      <trkpt lat="42.98892" lon="-0.22185">
        <ele>1509.4000244141</ele>
        <time>2019-09-28T09:07:47Z</time>
      </trkpt>
      <trkpt lat="42.98892" lon="-0.22185">
        <ele>1509.4000244141</ele>
        <time>2019-09-28T09:08:03Z</time>
      </trkpt>
      <trkpt lat="42.98892" lon="-0.22185">
        <ele>1509.4000244141</ele>
        <time>2019-09-28T09:08:16Z</time>
      </trkpt>
      <trkpt lat="42.98891" lon="-0.22185">
        <ele>1509.4000244141</ele>
        <time>2019-09-28T09:08:22Z</time>
      </trkpt>
      <trkpt lat="42.9889" lon="-0.22185">
        <ele>1509.4000244141</ele>
        <time>2019-09-28T09:08:23Z</time>
      </trkpt>
      <trkpt lat="42.9888" lon="-0.22175">
        <ele>1509.4000244141</ele>
        <time>2019-09-28T09:08:27Z</time>
      </trkpt>
      <trkpt lat="42.98873" lon="-0.2216">
        <ele>1509.4000244141</ele>
        <time>2019-09-28T09:08:31Z</time>
      </trkpt>
      <trkpt lat="42.98862" lon="-0.22128">
        <ele>1509.4000244141</ele>
        <time>2019-09-28T09:08:38Z</time>
      </trkpt>
      <trkpt lat="42.98857" lon="-0.221">
        <ele>1509.4000244141</ele>
        <time>2019-09-28T09:08:43Z</time>
      </trkpt>
      <trkpt lat="42.98857" lon="-0.22094">
        <ele>1509.4000244141</ele>
        <time>2019-09-28T09:08:44Z</time>
      </trkpt>
      <trkpt lat="42.98854" lon="-0.22055">
        <ele>1509.4000244141</ele>
        <time>2019-09-28T09:08:51Z</time>
      </trkpt>
      <trkpt lat="42.98855" lon="-0.22043">
        <ele>1509.4000244141</ele>
        <time>2019-09-28T09:08:53Z</time>
      </trkpt>
      <trkpt lat="42.98857" lon="-0.2202">
        <ele>1509.4000244141</ele>
        <time>2019-09-28T09:08:57Z</time>
      </trkpt>
      <trkpt lat="42.9886" lon="-0.21998">
        <ele>1509.4000244141</ele>
        <time>2019-09-28T09:09:01Z</time>
      </trkpt>
      <trkpt lat="42.98863" lon="-0.21986">
        <ele>1509.4000244141</ele>
        <time>2019-09-28T09:09:03Z</time>
      </trkpt>
      <trkpt lat="42.9887" lon="-0.2195">
        <ele>1509</ele>
        <time>2019-09-28T09:09:08Z</time>
      </trkpt>
      <trkpt lat="42.98871" lon="-0.21942">
        <ele>1508.5999755859</ele>
        <time>2019-09-28T09:09:09Z</time>
      </trkpt>
      <trkpt lat="42.98872" lon="-0.21934">
        <ele>1508.1999511719</ele>
        <time>2019-09-28T09:09:10Z</time>
      </trkpt>
      <trkpt lat="42.98874" lon="-0.21926">
        <ele>1507.8000488281</ele>
        <time>2019-09-28T09:09:11Z</time>
      </trkpt>
      <trkpt lat="42.98876" lon="-0.21917">
        <ele>1507.4000244141</ele>
        <time>2019-09-28T09:09:12Z</time>
      </trkpt>
      <trkpt lat="42.9888" lon="-0.21899">
        <ele>1507</ele>
        <time>2019-09-28T09:09:14Z</time>
      </trkpt>
      <trkpt lat="42.98882" lon="-0.2189">
        <ele>1506.4000244141</ele>
        <time>2019-09-28T09:09:15Z</time>
      </trkpt>
      <trkpt lat="42.98885" lon="-0.21882">
        <ele>1506</ele>
        <time>2019-09-28T09:09:16Z</time>
      </trkpt>
      <trkpt lat="42.98889" lon="-0.21873">
        <ele>1505.5999755859</ele>
        <time>2019-09-28T09:09:17Z</time>
      </trkpt>
      <trkpt lat="42.98891" lon="-0.21864">
        <ele>1505</ele>
        <time>2019-09-28T09:09:18Z</time>
      </trkpt>
      <trkpt lat="42.98893" lon="-0.21854">
        <ele>1504.4000244141</ele>
        <time>2019-09-28T09:09:19Z</time>
      </trkpt>
      <trkpt lat="42.98894" lon="-0.21844">
        <ele>1504</ele>
        <time>2019-09-28T09:09:20Z</time>
      </trkpt>
      <trkpt lat="42.98894" lon="-0.21835">
        <ele>1503.4000244141</ele>
        <time>2019-09-28T09:09:21Z</time>
      </trkpt>
      <trkpt lat="42.98893" lon="-0.21826">
        <ele>1502.8000488281</ele>
        <time>2019-09-28T09:09:22Z</time>
      </trkpt>
      <trkpt lat="42.98892" lon="-0.21817">
        <ele>1502.4000244141</ele>
        <time>2019-09-28T09:09:23Z</time>
      </trkpt>
      <trkpt lat="42.9889" lon="-0.21808">
        <ele>1501.8000488281</ele>
        <time>2019-09-28T09:09:24Z</time>
      </trkpt>
      <trkpt lat="42.9889" lon="-0.21799">
        <ele>1501.1999511719</ele>
        <time>2019-09-28T09:09:25Z</time>
      </trkpt>
      <trkpt lat="42.98889" lon="-0.21789">
        <ele>1500.5999755859</ele>
        <time>2019-09-28T09:09:26Z</time>
      </trkpt>
      <trkpt lat="42.98888" lon="-0.21768">
        <ele>1500</ele>
        <time>2019-09-28T09:09:28Z</time>
      </trkpt>
      <trkpt lat="42.98888" lon="-0.21757">
        <ele>1499.4000244141</ele>
        <time>2019-09-28T09:09:29Z</time>
      </trkpt>
      <trkpt lat="42.98888" lon="-0.21747">
        <ele>1498.8000488281</ele>
        <time>2019-09-28T09:09:30Z</time>
      </trkpt>
      <trkpt lat="42.98888" lon="-0.21737">
        <ele>1498.1999511719</ele>
        <time>2019-09-28T09:09:31Z</time>
      </trkpt>
      <trkpt lat="42.98888" lon="-0.21728">
        <ele>1497.5999755859</ele>
        <time>2019-09-28T09:09:32Z</time>
      </trkpt>
      <trkpt lat="42.98888" lon="-0.21718">
        <ele>1497</ele>
        <time>2019-09-28T09:09:33Z</time>
      </trkpt>
      <trkpt lat="42.98886" lon="-0.21709">
        <ele>1496.4000244141</ele>
        <time>2019-09-28T09:09:34Z</time>
      </trkpt>
      <trkpt lat="42.98884" lon="-0.21699">
        <ele>1495.5999755859</ele>
        <time>2019-09-28T09:09:35Z</time>
      </trkpt>
      <trkpt lat="42.98881" lon="-0.21689">
        <ele>1495</ele>
        <time>2019-09-28T09:09:36Z</time>
      </trkpt>
      <trkpt lat="42.98878" lon="-0.2168">
        <ele>1494.5999755859</ele>
        <time>2019-09-28T09:09:37Z</time>
      </trkpt>
      <trkpt lat="42.98874" lon="-0.21671">
        <ele>1494.1999511719</ele>
        <time>2019-09-28T09:09:38Z</time>
      </trkpt>
      <trkpt lat="42.98869" lon="-0.21663">
        <ele>1493.8000488281</ele>
        <time>2019-09-28T09:09:39Z</time>
      </trkpt>
      <trkpt lat="42.98864" lon="-0.21657">
        <ele>1493.1999511719</ele>
        <time>2019-09-28T09:09:40Z</time>
      </trkpt>
      <trkpt lat="42.98858" lon="-0.21653">
        <ele>1492.8000488281</ele>
        <time>2019-09-28T09:09:41Z</time>
      </trkpt>
      <trkpt lat="42.98846" lon="-0.21653">
        <ele>1492.8000488281</ele>
        <time>2019-09-28T09:09:43Z</time>
      </trkpt>
      <trkpt lat="42.98833" lon="-0.21657">
        <ele>1492.8000488281</ele>
        <time>2019-09-28T09:09:45Z</time>
      </trkpt>
      <trkpt lat="42.98819" lon="-0.21663">
        <ele>1492.8000488281</ele>
        <time>2019-09-28T09:09:47Z</time>
      </trkpt>
      <trkpt lat="42.98812" lon="-0.21667">
        <ele>1492.1999511719</ele>
        <time>2019-09-28T09:09:48Z</time>
      </trkpt>
      <trkpt lat="42.98806" lon="-0.2167">
        <ele>1491.8000488281</ele>
        <time>2019-09-28T09:09:49Z</time>
      </trkpt>
      <trkpt lat="42.98799" lon="-0.21672">
        <ele>1491.1999511719</ele>
        <time>2019-09-28T09:09:50Z</time>
      </trkpt>
      <trkpt lat="42.98792" lon="-0.21675">
        <ele>1490</ele>
        <time>2019-09-28T09:09:51Z</time>
      </trkpt>
      <trkpt lat="42.98784" lon="-0.21677">
        <ele>1489.5999755859</ele>
        <time>2019-09-28T09:09:52Z</time>
      </trkpt>
      <trkpt lat="42.98776" lon="-0.21678">
        <ele>1489</ele>
        <time>2019-09-28T09:09:53Z</time>
      </trkpt>
      <trkpt lat="42.98768" lon="-0.21678">
        <ele>1488.4000244141</ele>
        <time>2019-09-28T09:09:54Z</time>
      </trkpt>
      <trkpt lat="42.9876" lon="-0.21677">
        <ele>1487.8000488281</ele>
        <time>2019-09-28T09:09:55Z</time>
      </trkpt>
      <trkpt lat="42.98751" lon="-0.21676">
        <ele>1487.1999511719</ele>
        <time>2019-09-28T09:09:56Z</time>
      </trkpt>
      <trkpt lat="42.98743" lon="-0.21674">
        <ele>1486.4000244141</ele>
        <time>2019-09-28T09:09:57Z</time>
      </trkpt>
      <trkpt lat="42.98735" lon="-0.21671">
        <ele>1485.8000488281</ele>
        <time>2019-09-28T09:09:58Z</time>
      </trkpt>
      <trkpt lat="42.98728" lon="-0.21667">
        <ele>1485</ele>
        <time>2019-09-28T09:09:59Z</time>
      </trkpt>
      <trkpt lat="42.98721" lon="-0.21662">
        <ele>1485</ele>
        <time>2019-09-28T09:10:00Z</time>
      </trkpt>
      <trkpt lat="42.98713" lon="-0.21657">
        <ele>1484.5999755859</ele>
        <time>2019-09-28T09:10:01Z</time>
      </trkpt>
      <trkpt lat="42.98706" lon="-0.21653">
        <ele>1484.1999511719</ele>
        <time>2019-09-28T09:10:02Z</time>
      </trkpt>
      <trkpt lat="42.98699" lon="-0.2165">
        <ele>1483.8000488281</ele>
        <time>2019-09-28T09:10:03Z</time>
      </trkpt>
      <trkpt lat="42.98692" lon="-0.21648">
        <ele>1483.4000244141</ele>
        <time>2019-09-28T09:10:04Z</time>
      </trkpt>
      <trkpt lat="42.98685" lon="-0.21647">
        <ele>1483</ele>
        <time>2019-09-28T09:10:05Z</time>
      </trkpt>
      <trkpt lat="42.98678" lon="-0.21646">
        <ele>1482.4000244141</ele>
        <time>2019-09-28T09:10:06Z</time>
      </trkpt>
      <trkpt lat="42.9867" lon="-0.21647">
        <ele>1482</ele>
        <time>2019-09-28T09:10:07Z</time>
      </trkpt>
      <trkpt lat="42.98662" lon="-0.2165">
        <ele>1481.4000244141</ele>
        <time>2019-09-28T09:10:08Z</time>
      </trkpt>
      <trkpt lat="42.98654" lon="-0.21654">
        <ele>1480.8000488281</ele>
        <time>2019-09-28T09:10:09Z</time>
      </trkpt>
      <trkpt lat="42.98647" lon="-0.21657">
        <ele>1480.1999511719</ele>
        <time>2019-09-28T09:10:10Z</time>
      </trkpt>
      <trkpt lat="42.9864" lon="-0.21659">
        <ele>1479.5999755859</ele>
        <time>2019-09-28T09:10:11Z</time>
      </trkpt>
      <trkpt lat="42.98634" lon="-0.21661">
        <ele>1479</ele>
        <time>2019-09-28T09:10:12Z</time>
      </trkpt>
      <trkpt lat="42.98628" lon="-0.21662">
        <ele>1478.4000244141</ele>
        <time>2019-09-28T09:10:13Z</time>
      </trkpt>
      <trkpt lat="42.98622" lon="-0.21661">
        <ele>1478.4000244141</ele>
        <time>2019-09-28T09:10:14Z</time>
      </trkpt>
      <trkpt lat="42.98615" lon="-0.21655">
        <ele>1478.4000244141</ele>
        <time>2019-09-28T09:10:16Z</time>
      </trkpt>
      <trkpt lat="42.98616" lon="-0.21647">
        <ele>1478</ele>
        <time>2019-09-28T09:10:18Z</time>
      </trkpt>
      <trkpt lat="42.98619" lon="-0.21645">
        <ele>1477.5999755859</ele>
        <time>2019-09-28T09:10:19Z</time>
      </trkpt>
      <trkpt lat="42.98622" lon="-0.21643">
        <ele>1477.1999511719</ele>
        <time>2019-09-28T09:10:20Z</time>
      </trkpt>
      <trkpt lat="42.98627" lon="-0.21641">
        <ele>1476.8000488281</ele>
        <time>2019-09-28T09:10:21Z</time>
      </trkpt>
      <trkpt lat="42.9863" lon="-0.2164">
        <ele>1476.1999511719</ele>
        <time>2019-09-28T09:10:22Z</time>
      </trkpt>
      <trkpt lat="42.98634" lon="-0.21639">
        <ele>1476.1999511719</ele>
        <time>2019-09-28T09:10:23Z</time>
      </trkpt>
      <trkpt lat="42.98653" lon="-0.21629">
        <ele>1476.1999511719</ele>
        <time>2019-09-28T09:10:28Z</time>
      </trkpt>
      <trkpt lat="42.98675" lon="-0.21625">
        <ele>1476.1999511719</ele>
        <time>2019-09-28T09:10:33Z</time>
      </trkpt>
      <trkpt lat="42.98698" lon="-0.21629">
        <ele>1476.1999511719</ele>
        <time>2019-09-28T09:10:39Z</time>
      </trkpt>
      <trkpt lat="42.98713" lon="-0.21632">
        <ele>1476.1999511719</ele>
        <time>2019-09-28T09:10:42Z</time>
      </trkpt>
      <trkpt lat="42.98717" lon="-0.21634">
        <ele>1476.1999511719</ele>
        <time>2019-09-28T09:10:43Z</time>
      </trkpt>
      <trkpt lat="42.98728" lon="-0.21638">
        <ele>1475.8000488281</ele>
        <time>2019-09-28T09:10:45Z</time>
      </trkpt>
      <trkpt lat="42.98735" lon="-0.21638">
        <ele>1475.4000244141</ele>
        <time>2019-09-28T09:10:46Z</time>
      </trkpt>
      <trkpt lat="42.98742" lon="-0.21638">
        <ele>1475</ele>
        <time>2019-09-28T09:10:47Z</time>
      </trkpt>
      <trkpt lat="42.98749" lon="-0.21638">
        <ele>1474.4000244141</ele>
        <time>2019-09-28T09:10:48Z</time>
      </trkpt>
      <trkpt lat="42.98756" lon="-0.21637">
        <ele>1474</ele>
        <time>2019-09-28T09:10:49Z</time>
      </trkpt>
      <trkpt lat="42.98769" lon="-0.21636">
        <ele>1473.5999755859</ele>
        <time>2019-09-28T09:10:51Z</time>
      </trkpt>
      <trkpt lat="42.98776" lon="-0.21634">
        <ele>1473.1999511719</ele>
        <time>2019-09-28T09:10:52Z</time>
      </trkpt>
      <trkpt lat="42.98783" lon="-0.21632">
        <ele>1472.8000488281</ele>
        <time>2019-09-28T09:10:53Z</time>
      </trkpt>
      <trkpt lat="42.98791" lon="-0.21629">
        <ele>1472.4000244141</ele>
        <time>2019-09-28T09:10:54Z</time>
      </trkpt>
      <trkpt lat="42.98798" lon="-0.21625">
        <ele>1471.8000488281</ele>
        <time>2019-09-28T09:10:55Z</time>
      </trkpt>
      <trkpt lat="42.98812" lon="-0.21615">
        <ele>1471.8000488281</ele>
        <time>2019-09-28T09:10:57Z</time>
      </trkpt>
      <trkpt lat="42.98819" lon="-0.21608">
        <ele>1471.4000244141</ele>
        <time>2019-09-28T09:10:58Z</time>
      </trkpt>
      <trkpt lat="42.98826" lon="-0.21602">
        <ele>1471</ele>
        <time>2019-09-28T09:10:59Z</time>
      </trkpt>
      <trkpt lat="42.98831" lon="-0.21595">
        <ele>1470.4000244141</ele>
        <time>2019-09-28T09:11:00Z</time>
      </trkpt>
      <trkpt lat="42.98837" lon="-0.21588">
        <ele>1470</ele>
        <time>2019-09-28T09:11:01Z</time>
      </trkpt>
      <trkpt lat="42.98842" lon="-0.21583">
        <ele>1469.4000244141</ele>
        <time>2019-09-28T09:11:02Z</time>
      </trkpt>
      <trkpt lat="42.98847" lon="-0.21578">
        <ele>1469</ele>
        <time>2019-09-28T09:11:03Z</time>
      </trkpt>
      <trkpt lat="42.98853" lon="-0.21575">
        <ele>1468.5999755859</ele>
        <time>2019-09-28T09:11:04Z</time>
      </trkpt>
      <trkpt lat="42.98859" lon="-0.21571">
        <ele>1467.8000488281</ele>
        <time>2019-09-28T09:11:05Z</time>
      </trkpt>
      <trkpt lat="42.98865" lon="-0.21566">
        <ele>1467.1999511719</ele>
        <time>2019-09-28T09:11:06Z</time>
      </trkpt>
      <trkpt lat="42.98872" lon="-0.21559">
        <ele>1466.5999755859</ele>
        <time>2019-09-28T09:11:07Z</time>
      </trkpt>
      <trkpt lat="42.98877" lon="-0.2155">
        <ele>1465.8000488281</ele>
        <time>2019-09-28T09:11:08Z</time>
      </trkpt>
      <trkpt lat="42.98882" lon="-0.21539">
        <ele>1465</ele>
        <time>2019-09-28T09:11:09Z</time>
      </trkpt>
      <trkpt lat="42.98886" lon="-0.21529">
        <ele>1464</ele>
        <time>2019-09-28T09:11:10Z</time>
      </trkpt>
      <trkpt lat="42.9889" lon="-0.21518">
        <ele>1463</ele>
        <time>2019-09-28T09:11:11Z</time>
      </trkpt>
      <trkpt lat="42.98894" lon="-0.21507">
        <ele>1462</ele>
        <time>2019-09-28T09:11:12Z</time>
      </trkpt>
      <trkpt lat="42.98898" lon="-0.21496">
        <ele>1461.1999511719</ele>
        <time>2019-09-28T09:11:13Z</time>
      </trkpt>
      <trkpt lat="42.98902" lon="-0.21484">
        <ele>1460.1999511719</ele>
        <time>2019-09-28T09:11:14Z</time>
      </trkpt>
      <trkpt lat="42.98907" lon="-0.21474">
        <ele>1460.1999511719</ele>
        <time>2019-09-28T09:11:15Z</time>
      </trkpt>
      <trkpt lat="42.98916" lon="-0.21453">
        <ele>1459.8000488281</ele>
        <time>2019-09-28T09:11:17Z</time>
      </trkpt>
      <trkpt lat="42.9892" lon="-0.21443">
        <ele>1459.4000244141</ele>
        <time>2019-09-28T09:11:18Z</time>
      </trkpt>
      <trkpt lat="42.98923" lon="-0.21432">
        <ele>1458.8000488281</ele>
        <time>2019-09-28T09:11:19Z</time>
      </trkpt>
      <trkpt lat="42.98926" lon="-0.2142">
        <ele>1458.4000244141</ele>
        <time>2019-09-28T09:11:20Z</time>
      </trkpt>
      <trkpt lat="42.98929" lon="-0.21409">
        <ele>1458</ele>
        <time>2019-09-28T09:11:21Z</time>
      </trkpt>
      <trkpt lat="42.98932" lon="-0.214">
        <ele>1457.4000244141</ele>
        <time>2019-09-28T09:11:22Z</time>
      </trkpt>
      <trkpt lat="42.98937" lon="-0.21391">
        <ele>1457</ele>
        <time>2019-09-28T09:11:23Z</time>
      </trkpt>
      <trkpt lat="42.98942" lon="-0.21384">
        <ele>1456.4000244141</ele>
        <time>2019-09-28T09:11:24Z</time>
      </trkpt>
      <trkpt lat="42.98949" lon="-0.21379">
        <ele>1456</ele>
        <time>2019-09-28T09:11:25Z</time>
      </trkpt>
      <trkpt lat="42.98968" lon="-0.21373">
        <ele>1455.4000244141</ele>
        <time>2019-09-28T09:11:28Z</time>
      </trkpt>
      <trkpt lat="42.98974" lon="-0.21371">
        <ele>1454.5999755859</ele>
        <time>2019-09-28T09:11:29Z</time>
      </trkpt>
      <trkpt lat="42.9898" lon="-0.21368">
        <ele>1454</ele>
        <time>2019-09-28T09:11:30Z</time>
      </trkpt>
      <trkpt lat="42.98986" lon="-0.21364">
        <ele>1453.5999755859</ele>
        <time>2019-09-28T09:11:31Z</time>
      </trkpt>
      <trkpt lat="42.98991" lon="-0.21358">
        <ele>1453</ele>
        <time>2019-09-28T09:11:32Z</time>
      </trkpt>
      <trkpt lat="42.98995" lon="-0.21352">
        <ele>1452.4000244141</ele>
        <time>2019-09-28T09:11:33Z</time>
      </trkpt>
      <trkpt lat="42.99" lon="-0.21344">
        <ele>1452</ele>
        <time>2019-09-28T09:11:34Z</time>
      </trkpt>
      <trkpt lat="42.99003" lon="-0.21335">
        <ele>1451.1999511719</ele>
        <time>2019-09-28T09:11:35Z</time>
      </trkpt>
      <trkpt lat="42.99005" lon="-0.21325">
        <ele>1450.5999755859</ele>
        <time>2019-09-28T09:11:36Z</time>
      </trkpt>
      <trkpt lat="42.99007" lon="-0.21314">
        <ele>1449.5999755859</ele>
        <time>2019-09-28T09:11:37Z</time>
      </trkpt>
      <trkpt lat="42.99009" lon="-0.21302">
        <ele>1448.5999755859</ele>
        <time>2019-09-28T09:11:38Z</time>
      </trkpt>
      <trkpt lat="42.99012" lon="-0.21291">
        <ele>1447.8000488281</ele>
        <time>2019-09-28T09:11:39Z</time>
      </trkpt>
      <trkpt lat="42.99016" lon="-0.2128">
        <ele>1446.8000488281</ele>
        <time>2019-09-28T09:11:40Z</time>
      </trkpt>
      <trkpt lat="42.99019" lon="-0.2127">
        <ele>1445.8000488281</ele>
        <time>2019-09-28T09:11:41Z</time>
      </trkpt>
      <trkpt lat="42.99022" lon="-0.2126">
        <ele>1444.8000488281</ele>
        <time>2019-09-28T09:11:42Z</time>
      </trkpt>
      <trkpt lat="42.99025" lon="-0.2125">
        <ele>1443.8000488281</ele>
        <time>2019-09-28T09:11:43Z</time>
      </trkpt>
      <trkpt lat="42.9903" lon="-0.21242">
        <ele>1443.8000488281</ele>
        <time>2019-09-28T09:11:44Z</time>
      </trkpt>
      <trkpt lat="42.99039" lon="-0.21227">
        <ele>1443.8000488281</ele>
        <time>2019-09-28T09:11:47Z</time>
      </trkpt>
      <trkpt lat="42.99041" lon="-0.21223">
        <ele>1444.4000244141</ele>
        <time>2019-09-28T09:11:48Z</time>
      </trkpt>
      <trkpt lat="42.99043" lon="-0.21222">
        <ele>1444.8000488281</ele>
        <time>2019-09-28T09:11:49Z</time>
      </trkpt>
      <trkpt lat="42.99043" lon="-0.21221">
        <ele>1445.1999511719</ele>
        <time>2019-09-28T09:11:50Z</time>
      </trkpt>
      <trkpt lat="42.99043" lon="-0.2122">
        <ele>1445.8000488281</ele>
        <time>2019-09-28T09:11:51Z</time>
      </trkpt>
      <trkpt lat="42.99043" lon="-0.21219">
        <ele>1446.1999511719</ele>
        <time>2019-09-28T09:11:52Z</time>
      </trkpt>
      <trkpt lat="42.99044" lon="-0.21218">
        <ele>1446.1999511719</ele>
        <time>2019-09-28T09:11:53Z</time>
      </trkpt>
      <trkpt lat="42.99047" lon="-0.21206">
        <ele>1446.1999511719</ele>
        <time>2019-09-28T09:11:56Z</time>
      </trkpt>
      <trkpt lat="42.99051" lon="-0.21199">
        <ele>1445.8000488281</ele>
        <time>2019-09-28T09:11:57Z</time>
      </trkpt>
      <trkpt lat="42.99055" lon="-0.21194">
        <ele>1445.4000244141</ele>
        <time>2019-09-28T09:11:58Z</time>
      </trkpt>
      <trkpt lat="42.99058" lon="-0.21189">
        <ele>1445</ele>
        <time>2019-09-28T09:11:59Z</time>
      </trkpt>
      <trkpt lat="42.99062" lon="-0.21184">
        <ele>1444.4000244141</ele>
        <time>2019-09-28T09:12:00Z</time>
      </trkpt>
      <trkpt lat="42.99065" lon="-0.21179">
        <ele>1443.5999755859</ele>
        <time>2019-09-28T09:12:01Z</time>
      </trkpt>
      <trkpt lat="42.99069" lon="-0.21174">
        <ele>1443</ele>
        <time>2019-09-28T09:12:02Z</time>
      </trkpt>
      <trkpt lat="42.99073" lon="-0.21169">
        <ele>1442.4000244141</ele>
        <time>2019-09-28T09:12:03Z</time>
      </trkpt>
      <trkpt lat="42.99077" lon="-0.21165">
        <ele>1441.8000488281</ele>
        <time>2019-09-28T09:12:04Z</time>
      </trkpt>
      <trkpt lat="42.99081" lon="-0.2116">
        <ele>1441.8000488281</ele>
        <time>2019-09-28T09:12:05Z</time>
      </trkpt>
      <trkpt lat="42.99084" lon="-0.21155">
        <ele>1441.4000244141</ele>
        <time>2019-09-28T09:12:06Z</time>
      </trkpt>
      <trkpt lat="42.99086" lon="-0.21149">
        <ele>1441</ele>
        <time>2019-09-28T09:12:07Z</time>
      </trkpt>
      <trkpt lat="42.99089" lon="-0.21143">
        <ele>1440.5999755859</ele>
        <time>2019-09-28T09:12:08Z</time>
      </trkpt>
      <trkpt lat="42.99091" lon="-0.21137">
        <ele>1440.1999511719</ele>
        <time>2019-09-28T09:12:09Z</time>
      </trkpt>
      <trkpt lat="42.99093" lon="-0.21131">
        <ele>1439.8000488281</ele>
        <time>2019-09-28T09:12:10Z</time>
      </trkpt>
      <trkpt lat="42.99095" lon="-0.21126">
        <ele>1439.4000244141</ele>
        <time>2019-09-28T09:12:11Z</time>
      </trkpt>
      <trkpt lat="42.99098" lon="-0.21121">
        <ele>1438.8000488281</ele>
        <time>2019-09-28T09:12:12Z</time>
      </trkpt>
      <trkpt lat="42.99099" lon="-0.21116">
        <ele>1438.4000244141</ele>
        <time>2019-09-28T09:12:13Z</time>
      </trkpt>
      <trkpt lat="42.991" lon="-0.21111">
        <ele>1438</ele>
        <time>2019-09-28T09:12:14Z</time>
      </trkpt>
      <trkpt lat="42.991" lon="-0.21107">
        <ele>1437.5999755859</ele>
        <time>2019-09-28T09:12:15Z</time>
      </trkpt>
      <trkpt lat="42.991" lon="-0.21086">
        <ele>1437.5999755859</ele>
        <time>2019-09-28T09:12:21Z</time>
      </trkpt>
      <trkpt lat="42.991" lon="-0.21081">
        <ele>1437.1999511719</ele>
        <time>2019-09-28T09:12:22Z</time>
      </trkpt>
      <trkpt lat="42.99101" lon="-0.21075">
        <ele>1436.5999755859</ele>
        <time>2019-09-28T09:12:23Z</time>
      </trkpt>
      <trkpt lat="42.99101" lon="-0.21069">
        <ele>1436.1999511719</ele>
        <time>2019-09-28T09:12:24Z</time>
      </trkpt>
      <trkpt lat="42.99102" lon="-0.21063">
        <ele>1435.5999755859</ele>
        <time>2019-09-28T09:12:25Z</time>
      </trkpt>
      <trkpt lat="42.99102" lon="-0.21056">
        <ele>1435.1999511719</ele>
        <time>2019-09-28T09:12:26Z</time>
      </trkpt>
      <trkpt lat="42.99103" lon="-0.21049">
        <ele>1434.5999755859</ele>
        <time>2019-09-28T09:12:27Z</time>
      </trkpt>
      <trkpt lat="42.99105" lon="-0.21042">
        <ele>1434.1999511719</ele>
        <time>2019-09-28T09:12:28Z</time>
      </trkpt>
      <trkpt lat="42.99105" lon="-0.21036">
        <ele>1433.5999755859</ele>
        <time>2019-09-28T09:12:29Z</time>
      </trkpt>
      <trkpt lat="42.99106" lon="-0.21031">
        <ele>1433.1999511719</ele>
        <time>2019-09-28T09:12:30Z</time>
      </trkpt>
      <trkpt lat="42.99107" lon="-0.21015">
        <ele>1433.1999511719</ele>
        <time>2019-09-28T09:12:34Z</time>
      </trkpt>
      <trkpt lat="42.99107" lon="-0.2101">
        <ele>1432.5999755859</ele>
        <time>2019-09-28T09:12:35Z</time>
      </trkpt>
      <trkpt lat="42.99107" lon="-0.21003">
        <ele>1432.1999511719</ele>
        <time>2019-09-28T09:12:36Z</time>
      </trkpt>
      <trkpt lat="42.99106" lon="-0.20997">
        <ele>1431.8000488281</ele>
        <time>2019-09-28T09:12:37Z</time>
      </trkpt>
      <trkpt lat="42.99104" lon="-0.2099">
        <ele>1431.1999511719</ele>
        <time>2019-09-28T09:12:38Z</time>
      </trkpt>
      <trkpt lat="42.99102" lon="-0.20983">
        <ele>1430.4000244141</ele>
        <time>2019-09-28T09:12:39Z</time>
      </trkpt>
      <trkpt lat="42.99099" lon="-0.20977">
        <ele>1429.8000488281</ele>
        <time>2019-09-28T09:12:40Z</time>
      </trkpt>
      <trkpt lat="42.99096" lon="-0.20972">
        <ele>1429.1999511719</ele>
        <time>2019-09-28T09:12:41Z</time>
      </trkpt>
      <trkpt lat="42.99093" lon="-0.20968">
        <ele>1428.4000244141</ele>
        <time>2019-09-28T09:12:42Z</time>
      </trkpt>
      <trkpt lat="42.99089" lon="-0.20963">
        <ele>1427.5999755859</ele>
        <time>2019-09-28T09:12:43Z</time>
      </trkpt>
      <trkpt lat="42.99085" lon="-0.20958">
        <ele>1426.1999511719</ele>
        <time>2019-09-28T09:12:44Z</time>
      </trkpt>
      <trkpt lat="42.99081" lon="-0.20953">
        <ele>1425.4000244141</ele>
        <time>2019-09-28T09:12:45Z</time>
      </trkpt>
      <trkpt lat="42.99077" lon="-0.20948">
        <ele>1424.5999755859</ele>
        <time>2019-09-28T09:12:46Z</time>
      </trkpt>
      <trkpt lat="42.99073" lon="-0.20942">
        <ele>1423.5999755859</ele>
        <time>2019-09-28T09:12:47Z</time>
      </trkpt>
      <trkpt lat="42.99069" lon="-0.20937">
        <ele>1422.8000488281</ele>
        <time>2019-09-28T09:12:48Z</time>
      </trkpt>
      <trkpt lat="42.99065" lon="-0.20933">
        <ele>1421.8000488281</ele>
        <time>2019-09-28T09:12:49Z</time>
      </trkpt>
      <trkpt lat="42.99061" lon="-0.20928">
        <ele>1421</ele>
        <time>2019-09-28T09:12:50Z</time>
      </trkpt>
      <trkpt lat="42.99058" lon="-0.20924">
        <ele>1420.1999511719</ele>
        <time>2019-09-28T09:12:51Z</time>
      </trkpt>
      <trkpt lat="42.99056" lon="-0.20919">
        <ele>1419.4000244141</ele>
        <time>2019-09-28T09:12:52Z</time>
      </trkpt>
      <trkpt lat="42.99053" lon="-0.20913">
        <ele>1418.5999755859</ele>
        <time>2019-09-28T09:12:53Z</time>
      </trkpt>
      <trkpt lat="42.9905" lon="-0.20907">
        <ele>1417.8000488281</ele>
        <time>2019-09-28T09:12:54Z</time>
      </trkpt>
      <trkpt lat="42.99046" lon="-0.20899">
        <ele>1417.1999511719</ele>
        <time>2019-09-28T09:12:55Z</time>
      </trkpt>
      <trkpt lat="42.99043" lon="-0.20892">
        <ele>1416.1999511719</ele>
        <time>2019-09-28T09:12:56Z</time>
      </trkpt>
      <trkpt lat="42.99039" lon="-0.20884">
        <ele>1415.1999511719</ele>
        <time>2019-09-28T09:12:57Z</time>
      </trkpt>
      <trkpt lat="42.99036" lon="-0.20876">
        <ele>1414.1999511719</ele>
        <time>2019-09-28T09:12:58Z</time>
      </trkpt>
      <trkpt lat="42.99032" lon="-0.20868">
        <ele>1413.1999511719</ele>
        <time>2019-09-28T09:12:59Z</time>
      </trkpt>
      <trkpt lat="42.99028" lon="-0.2086">
        <ele>1412</ele>
        <time>2019-09-28T09:13:00Z</time>
      </trkpt>
      <trkpt lat="42.99025" lon="-0.20851">
        <ele>1411</ele>
        <time>2019-09-28T09:13:01Z</time>
      </trkpt>
      <trkpt lat="42.99022" lon="-0.20842">
        <ele>1409.8000488281</ele>
        <time>2019-09-28T09:13:02Z</time>
      </trkpt>
      <trkpt lat="42.99019" lon="-0.20833">
        <ele>1408.8000488281</ele>
        <time>2019-09-28T09:13:03Z</time>
      </trkpt>
      <trkpt lat="42.99016" lon="-0.20825">
        <ele>1407.5999755859</ele>
        <time>2019-09-28T09:13:04Z</time>
      </trkpt>
      <trkpt lat="42.99014" lon="-0.20817">
        <ele>1406.5999755859</ele>
        <time>2019-09-28T09:13:05Z</time>
      </trkpt>
      <trkpt lat="42.99012" lon="-0.2081">
        <ele>1405.5999755859</ele>
        <time>2019-09-28T09:13:06Z</time>
      </trkpt>
      <trkpt lat="42.99011" lon="-0.20801">
        <ele>1404.5999755859</ele>
        <time>2019-09-28T09:13:07Z</time>
      </trkpt>
      <trkpt lat="42.99009" lon="-0.20791">
        <ele>1403.8000488281</ele>
        <time>2019-09-28T09:13:08Z</time>
      </trkpt>
      <trkpt lat="42.99007" lon="-0.20782">
        <ele>1401.8000488281</ele>
        <time>2019-09-28T09:13:09Z</time>
      </trkpt>
      <trkpt lat="42.99008" lon="-0.2077">
        <ele>1400.8000488281</ele>
        <time>2019-09-28T09:13:10Z</time>
      </trkpt>
      <trkpt lat="42.99009" lon="-0.20758">
        <ele>1399.5999755859</ele>
        <time>2019-09-28T09:13:11Z</time>
      </trkpt>
      <trkpt lat="42.99011" lon="-0.20746">
        <ele>1398.5999755859</ele>
        <time>2019-09-28T09:13:12Z</time>
      </trkpt>
      <trkpt lat="42.99012" lon="-0.20734">
        <ele>1397.4000244141</ele>
        <time>2019-09-28T09:13:13Z</time>
      </trkpt>
      <trkpt lat="42.99013" lon="-0.20722">
        <ele>1396</ele>
        <time>2019-09-28T09:13:14Z</time>
      </trkpt>
      <trkpt lat="42.99014" lon="-0.20709">
        <ele>1395</ele>
        <time>2019-09-28T09:13:15Z</time>
      </trkpt>
      <trkpt lat="42.99015" lon="-0.20696">
        <ele>1393.8000488281</ele>
        <time>2019-09-28T09:13:16Z</time>
      </trkpt>
      <trkpt lat="42.99018" lon="-0.20683">
        <ele>1392.5999755859</ele>
        <time>2019-09-28T09:13:17Z</time>
      </trkpt>
      <trkpt lat="42.9902" lon="-0.20672">
        <ele>1391.4000244141</ele>
        <time>2019-09-28T09:13:18Z</time>
      </trkpt>
      <trkpt lat="42.99022" lon="-0.20662">
        <ele>1390.1999511719</ele>
        <time>2019-09-28T09:13:19Z</time>
      </trkpt>
      <trkpt lat="42.99026" lon="-0.20654">
        <ele>1389.1999511719</ele>
        <time>2019-09-28T09:13:20Z</time>
      </trkpt>
      <trkpt lat="42.99029" lon="-0.20648">
        <ele>1388.1999511719</ele>
        <time>2019-09-28T09:13:21Z</time>
      </trkpt>
      <trkpt lat="42.99033" lon="-0.20645">
        <ele>1387.1999511719</ele>
        <time>2019-09-28T09:13:22Z</time>
      </trkpt>
      <trkpt lat="42.99038" lon="-0.20644">
        <ele>1386.1999511719</ele>
        <time>2019-09-28T09:13:23Z</time>
      </trkpt>
      <trkpt lat="42.99044" lon="-0.20644">
        <ele>1385.1999511719</ele>
        <time>2019-09-28T09:13:24Z</time>
      </trkpt>
      <trkpt lat="42.9905" lon="-0.20644">
        <ele>1384.8000488281</ele>
        <time>2019-09-28T09:13:25Z</time>
      </trkpt>
      <trkpt lat="42.99057" lon="-0.20642">
        <ele>1384.1999511719</ele>
        <time>2019-09-28T09:13:26Z</time>
      </trkpt>
      <trkpt lat="42.99063" lon="-0.2064">
        <ele>1383.8000488281</ele>
        <time>2019-09-28T09:13:27Z</time>
      </trkpt>
      <trkpt lat="42.99067" lon="-0.20635">
        <ele>1383.1999511719</ele>
        <time>2019-09-28T09:13:28Z</time>
      </trkpt>
      <trkpt lat="42.9907" lon="-0.20628">
        <ele>1382.5999755859</ele>
        <time>2019-09-28T09:13:29Z</time>
      </trkpt>
      <trkpt lat="42.99077" lon="-0.20613">
        <ele>1382.1999511719</ele>
        <time>2019-09-28T09:13:31Z</time>
      </trkpt>
      <trkpt lat="42.99079" lon="-0.20604">
        <ele>1381.5999755859</ele>
        <time>2019-09-28T09:13:32Z</time>
      </trkpt>
      <trkpt lat="42.99081" lon="-0.20596">
        <ele>1381.1999511719</ele>
        <time>2019-09-28T09:13:33Z</time>
      </trkpt>
      <trkpt lat="42.99081" lon="-0.20587">
        <ele>1379.8000488281</ele>
        <time>2019-09-28T09:13:34Z</time>
      </trkpt>
      <trkpt lat="42.99082" lon="-0.20577">
        <ele>1379</ele>
        <time>2019-09-28T09:13:35Z</time>
      </trkpt>
      <trkpt lat="42.99082" lon="-0.20568">
        <ele>1378.4000244141</ele>
        <time>2019-09-28T09:13:36Z</time>
      </trkpt>
      <trkpt lat="42.99083" lon="-0.20559">
        <ele>1377.5999755859</ele>
        <time>2019-09-28T09:13:37Z</time>
      </trkpt>
      <trkpt lat="42.99084" lon="-0.2055">
        <ele>1377</ele>
        <time>2019-09-28T09:13:38Z</time>
      </trkpt>
      <trkpt lat="42.99085" lon="-0.2054">
        <ele>1376.1999511719</ele>
        <time>2019-09-28T09:13:39Z</time>
      </trkpt>
      <trkpt lat="42.99084" lon="-0.20529">
        <ele>1375.1999511719</ele>
        <time>2019-09-28T09:13:40Z</time>
      </trkpt>
      <trkpt lat="42.99084" lon="-0.20519">
        <ele>1374.4000244141</ele>
        <time>2019-09-28T09:13:41Z</time>
      </trkpt>
      <trkpt lat="42.99083" lon="-0.20508">
        <ele>1373.4000244141</ele>
        <time>2019-09-28T09:13:42Z</time>
      </trkpt>
      <trkpt lat="42.99082" lon="-0.20497">
        <ele>1372.1999511719</ele>
        <time>2019-09-28T09:13:43Z</time>
      </trkpt>
      <trkpt lat="42.99082" lon="-0.20486">
        <ele>1371.1999511719</ele>
        <time>2019-09-28T09:13:44Z</time>
      </trkpt>
      <trkpt lat="42.99084" lon="-0.20476">
        <ele>1370</ele>
        <time>2019-09-28T09:13:45Z</time>
      </trkpt>
      <trkpt lat="42.99086" lon="-0.20466">
        <ele>1368.8000488281</ele>
        <time>2019-09-28T09:13:46Z</time>
      </trkpt>
      <trkpt lat="42.99089" lon="-0.20456">
        <ele>1367.5999755859</ele>
        <time>2019-09-28T09:13:47Z</time>
      </trkpt>
      <trkpt lat="42.99092" lon="-0.20447">
        <ele>1366.8000488281</ele>
        <time>2019-09-28T09:13:48Z</time>
      </trkpt>
      <trkpt lat="42.99095" lon="-0.20438">
        <ele>1365.8000488281</ele>
        <time>2019-09-28T09:13:49Z</time>
      </trkpt>
      <trkpt lat="42.99098" lon="-0.20429">
        <ele>1364.8000488281</ele>
        <time>2019-09-28T09:13:50Z</time>
      </trkpt>
      <trkpt lat="42.99101" lon="-0.20416">
        <ele>1363.5999755859</ele>
        <time>2019-09-28T09:13:52Z</time>
      </trkpt>
      <trkpt lat="42.99103" lon="-0.20404">
        <ele>1361.1999511719</ele>
        <time>2019-09-28T09:13:53Z</time>
      </trkpt>
      <trkpt lat="42.99105" lon="-0.20393">
        <ele>1359.8000488281</ele>
        <time>2019-09-28T09:13:54Z</time>
      </trkpt>
      <trkpt lat="42.99107" lon="-0.20383">
        <ele>1358.5999755859</ele>
        <time>2019-09-28T09:13:55Z</time>
      </trkpt>
      <trkpt lat="42.99109" lon="-0.20372">
        <ele>1357.4000244141</ele>
        <time>2019-09-28T09:13:56Z</time>
      </trkpt>
      <trkpt lat="42.99111" lon="-0.20363">
        <ele>1356.4000244141</ele>
        <time>2019-09-28T09:13:57Z</time>
      </trkpt>
      <trkpt lat="42.99114" lon="-0.20353">
        <ele>1355.5999755859</ele>
        <time>2019-09-28T09:13:58Z</time>
      </trkpt>
      <trkpt lat="42.99116" lon="-0.20344">
        <ele>1354.5999755859</ele>
        <time>2019-09-28T09:13:59Z</time>
      </trkpt>
      <trkpt lat="42.99119" lon="-0.20335">
        <ele>1353.5999755859</ele>
        <time>2019-09-28T09:14:00Z</time>
      </trkpt>
      <trkpt lat="42.9912" lon="-0.20326">
        <ele>1353</ele>
        <time>2019-09-28T09:14:01Z</time>
      </trkpt>
      <trkpt lat="42.99122" lon="-0.20319">
        <ele>1352.4000244141</ele>
        <time>2019-09-28T09:14:02Z</time>
      </trkpt>
      <trkpt lat="42.99122" lon="-0.20311">
        <ele>1351.5999755859</ele>
        <time>2019-09-28T09:14:03Z</time>
      </trkpt>
      <trkpt lat="42.99122" lon="-0.20306">
        <ele>1351</ele>
        <time>2019-09-28T09:14:04Z</time>
      </trkpt>
      <trkpt lat="42.99121" lon="-0.20303">
        <ele>1350.4000244141</ele>
        <time>2019-09-28T09:14:05Z</time>
      </trkpt>
      <trkpt lat="42.9912" lon="-0.20302">
        <ele>1350.4000244141</ele>
        <time>2019-09-28T09:14:06Z</time>
      </trkpt>
      <trkpt lat="42.99115" lon="-0.20301">
        <ele>1350.4000244141</ele>
        <time>2019-09-28T09:14:10Z</time>
      </trkpt>
      <trkpt lat="42.9911" lon="-0.20298">
        <ele>1350.4000244141</ele>
        <time>2019-09-28T09:14:14Z</time>
      </trkpt>
      <trkpt lat="42.99108" lon="-0.20294">
        <ele>1350.4000244141</ele>
        <time>2019-09-28T09:14:16Z</time>
      </trkpt>
      <trkpt lat="42.99104" lon="-0.20291">
        <ele>1350.4000244141</ele>
        <time>2019-09-28T09:14:19Z</time>
      </trkpt>
      <trkpt lat="42.99097" lon="-0.20288">
        <ele>1350.4000244141</ele>
        <time>2019-09-28T09:14:23Z</time>
      </trkpt>
      <trkpt lat="42.99093" lon="-0.20283">
        <ele>1350.4000244141</ele>
        <time>2019-09-28T09:14:25Z</time>
      </trkpt>
      <trkpt lat="42.99093" lon="-0.20276">
        <ele>1350.4000244141</ele>
        <time>2019-09-28T09:14:27Z</time>
      </trkpt>
      <trkpt lat="42.99093" lon="-0.2027">
        <ele>1350.4000244141</ele>
        <time>2019-09-28T09:14:29Z</time>
      </trkpt>
      <trkpt lat="42.9909" lon="-0.20266">
        <ele>1350.4000244141</ele>
        <time>2019-09-28T09:14:31Z</time>
      </trkpt>
      <trkpt lat="42.99082" lon="-0.20264">
        <ele>1350.4000244141</ele>
        <time>2019-09-28T09:14:36Z</time>
      </trkpt>
      <trkpt lat="42.99075" lon="-0.20259">
        <ele>1350.4000244141</ele>
        <time>2019-09-28T09:14:40Z</time>
      </trkpt>
      <trkpt lat="42.99073" lon="-0.20257">
        <ele>1350.4000244141</ele>
        <time>2019-09-28T09:14:41Z</time>
      </trkpt>
    </trkseg>
  </trk>
</gpx>